<<back to data home page
Ready for Fall? Stay in touch!! - DONATE ANY AMOUNT BY CLICKING THIS LINK!!!


    Month/Day/Year       Maximum   Minimum    Rel    Dew       Rainfall  Seasonal  Soil     Soil      Baro       Wind    Wind        Peak    Peak Gust  Evap     Leaf     Net
    and                  Air Temp  Air Temp   Hum    Point     Inches    Rainfall  Temp     Moisture  Pressure   Speed   Direction   Gust    Direction  Pan      Wetness  Radiation
    Local Time           Deg F     Deg F      %      Deg F               Inches    Deg F    dS/m      mbar       knots   comp deg    knots   comp deg   Inches   mV       W_m2
----------------------------------------------------------------------------------------------------------------------------------------------------------------------------------
   09/21/2017 06:50      62.6      62.3       79     56.0      0.00      0.09      78.1     0.34      1010.0     3       235         4       217        8.72     274      -18.9
   09/21/2017 06:40      62.5      62.3       80     56.3      0.00      0.09      78.3     0.34      1010.0     3       231         4       243        8.72     274      -27.5
   09/21/2017 06:30      62.9      62.5       81     56.8      0.00      0.09      78.0     0.34      1010.0     3       229         4       242        8.72     275      -19.1
   09/21/2017 06:20      62.9      62.8       82     57.2      0.00      0.09      78.2     0.34      1010.0     2       201         3       215        8.72     274      -28.5
   09/21/2017 06:10      62.9      62.8       82     57.3      0.00      0.09      78.4     0.34      1010.0     2       188         5       185        8.72     274      -27.8
   09/21/2017 06:00      63.0      62.7       82     57.3      0.00      0.09      78.5     0.34      1010.0     2       185         3       195        8.72     274      -14.8
   09/21/2017 05:50      62.9      62.7       82     57.1      0.00      0.09      78.3     0.34      1010.0     1       220         2       244        8.88     274      -18.8
   09/21/2017 05:40      62.8      62.4       81     56.8      0.00      0.09      78.5     0.34      1010.0     2       235         3       242        8.88     274      -17.4
   09/21/2017 05:30      62.7      62.4       81     56.7      0.00      0.09      78.3     0.34      1010.0     2       236         3       212        8.88     274      -22.3
   09/21/2017 05:20      62.6      62.3       81     56.4      0.00      0.09      78.6     0.34      1010.0     1       205         2       210        8.88     274      -34.5
   09/21/2017 05:10      62.4      61.8       81     56.1      0.00      0.09      78.5     0.34      1010.0     1       221         2       199        8.88     274      -27.9
   09/21/2017 05:00      61.9      61.5       82     56.0      0.00      0.09      78.5     0.34      1010.0     0        59         1        88        8.88     274      -17.4
   09/21/2017 04:50      61.6      61.2       82     56.0      0.00      0.09      78.8     0.34      1010.0     1       232         1       217        8.88     274       -9.3
   09/21/2017 04:40      61.3      60.9       83     55.7      0.00      0.09      78.4     0.34      1010.0     1       143         1       188        8.89     274      -10.1
   09/21/2017 04:30      61.0      60.7       83     55.6      0.00      0.09      78.6     0.34      1010.0     1       194         2       192        8.89     274      -23.1
   09/21/2017 04:20      61.3      60.8       82     55.5      0.00      0.09      78.6     0.34      1010.0     1       206         2       185        8.89     274      -31.5
   09/21/2017 04:10      61.8      61.2       81     55.8      0.00      0.09      78.9     0.34      1010.0     1       177         2       185        8.89     273      -57.7
   09/21/2017 04:00      62.2      62.0       80     56.0      0.00      0.09      78.7     0.34      1010.0     1       211         2       222        8.89     274      -53.2
   09/21/2017 03:50      62.3      62.1       80     56.1      0.00      0.09      78.8     0.34      1010.0     1       216         2       234        8.89     274      -32.4
   09/21/2017 03:40      62.3      62.1       80     56.1      0.00      0.09      78.6     0.34      1010.0     1       211         2       211        8.89     274      -26.1
   09/21/2017 03:30      62.4      62.0       80     55.8      0.00      0.09      78.6     0.34      1010.0     1       218         2       225        8.89     274      -19.9
   09/21/2017 03:20      62.4      62.2       80     56.1      0.00      0.09      79.0     0.34      1010.0     1       216         1       231        8.89     274      -30.5
   09/21/2017 03:10      62.3      62.1       80     55.8      0.00      0.09      78.8     0.34      1010.0     1       207         1       226        8.89     274      -37.9
   09/21/2017 03:00      62.3      62.1       79     55.5      0.00      0.09      78.9     0.34      1010.0     1        98         1       142        8.90     274      -23.1
   09/21/2017 02:50      62.1      61.8       79     55.4      0.00      0.09      79.0     0.34      1011.0     1       187         2       186        8.90     274      -12.9
   09/21/2017 02:40      62.0      61.7       79     55.3      0.00      0.09      78.7     0.34      1011.0     1       213         1       184        8.90     273      -14.7
   09/21/2017 02:30      61.8      61.3       80     55.5      0.00      0.09      78.9     0.34      1011.0     2       242         3       251        8.90     273      -27.7
   09/21/2017 02:20      61.5      60.6       82     55.4      0.00      0.09      79.0     0.34      1011.0     2       283         2       293        8.90     273      -22.2
   09/21/2017 02:10      60.7      60.4       82     54.9      0.00      0.09      78.8     0.34      1011.0     0       280         1       314        8.90     273      -29.7
   09/21/2017 02:00      60.5      60.3       81     54.7      0.00      0.09      78.7     0.34      1011.0     1       218         1       219        8.90     273      -55.8
   09/21/2017 01:50      60.5      60.0       83     55.0      0.00      0.09      78.7     0.34      1011.0     1       199         2       183        8.90     273      -56.6
   09/21/2017 01:40      60.5      60.1       83     55.1      0.00      0.09      79.2     0.34      1011.0     2       170         2       169        8.90     273      -58.1
   09/21/2017 01:30      60.9      60.5       82     55.1      0.00      0.09      78.7     0.34      1011.0     1       143         1       152        8.90     273      -58.8
   09/21/2017 01:20      61.3      61.1       81     55.4      0.00      0.09      79.0     0.34      1011.0     1       155         2       150        8.91     273      -59.9
   09/21/2017 01:10      61.8      61.3       80     55.4      0.00      0.09      78.8     0.34      1011.0     1       174         2       176        8.91     273      -61.5
   09/21/2017 01:00      62.5      61.9       78     55.4      0.00      0.09      79.1     0.34      1011.0     2       175         2       162        8.91     273      -62.1
   09/21/2017 00:50      63.0      62.7       78     55.7      0.00      0.09      78.9     0.34      1011.0     1       206         2       188        8.91     273      -59.1
   09/21/2017 00:40      63.0      62.7       78     56.0      0.00      0.09      79.1     0.34      1011.0     1       190         2       187        8.91     273      -44.1
   09/21/2017 00:30      62.8      62.6       78     55.7      0.00      0.09      78.9     0.34      1011.0     2       160         2       153        8.91     273      -34.0
   09/21/2017 00:20      63.0      62.7       77     55.8      0.00      0.09      79.2     0.34      1011.0     2       144         2       148        8.91     273      -46.0
   09/21/2017 00:10      63.4      63.1       77     55.8      0.00      0.09      79.0     0.34      1011.0     1       110         2       112        8.91     273      -49.5
   09/21/2017 00:00      63.6      63.4       76     56.0      0.00      0.09      79.0     0.34      1011.0     1       157         1       209        8.91     273      -48.5
   09/20/2017 23:50      63.9      63.6       76     56.0      0.00      0.09      79.5     0.34      1011.0     1       180         2       171        8.92     273      -42.6
   09/20/2017 23:40      64.2      63.8       76     56.2      0.00      0.09      79.0     0.34      1011.0     2       170         3       176        8.92     273      -43.6
   09/20/2017 23:30      64.2      64.1       76     56.4      0.00      0.09      79.2     0.34      1011.0     1       113         2       103        8.92     273      -34.0
   09/20/2017 23:20      64.2      63.8       76     56.5      0.00      0.09      79.0     0.34      1011.0     1       199         2       226        8.92     273      -28.4
   09/20/2017 23:10      63.9      63.6       77     56.3      0.00      0.09      79.0     0.34      1011.0     3       200         4       227        8.92     273      -27.4
   09/20/2017 23:00      64.1      63.3       77     56.2      0.00      0.09      79.2     0.34      1011.0     3       212         4       215        8.92     273      -25.6
   09/20/2017 22:50      63.5      63.2       77     56.1      0.00      0.09      78.9     0.34      1011.0     2       186         3       177        8.92     273      -39.1
   09/20/2017 22:40      63.9      63.6       76     56.2      0.00      0.09      79.1     0.34      1011.0     2       171         3       162        8.92     273      -59.9
   09/20/2017 22:30      64.2      63.9       76     56.2      0.00      0.09      79.3     0.34      1011.0     2       196         2       208        8.93     272      -63.0
   09/20/2017 22:20      64.3      64.2       75     56.1      0.00      0.09      79.4     0.34      1011.0     2       203         4       216        8.93     273      -63.7
   09/20/2017 22:10      64.7      64.5       74     56.0      0.00      0.09      79.2     0.34      1011.0     2       209         3       216        8.93     272      -63.3
   09/20/2017 22:00      64.9      64.7       73     56.1      0.00      0.09      79.3     0.34      1011.0     1       227         2       213        8.93     273      -62.2
   09/20/2017 21:50      65.1      64.8       73     56.1      0.00      0.09      79.3     0.34      1011.0     2       211         4       202        8.93     273      -56.9
   09/20/2017 21:40      65.3      65.2       73     56.2      0.00      0.09      79.0     0.34      1011.0     3       229         5       234        8.93     272      -55.2
   09/20/2017 21:30      65.6      65.2       72     56.0      0.00      0.09      79.3     0.34      1011.0     4       226         5       222        8.94     272      -50.8
   09/20/2017 21:20      65.9      65.6       70     55.8      0.00      0.09      78.8     0.34      1011.0     3       217         4       226        8.94     272      -54.7
   09/20/2017 21:10      66.4      66.0       69     55.9      0.00      0.09      79.4     0.34      1011.0     4       244         6       247        8.94     272      -64.4
   09/20/2017 21:00      66.8      66.5       67     55.5      0.00      0.09      79.4     0.34      1011.0     3       257         6       222        8.94     272      -67.8
   09/20/2017 20:50      67.1      66.8       65     55.0      0.00      0.09      79.2     0.34      1011.0     4       259         6       255        8.94     272      -68.0
   09/20/2017 20:40      67.4      67.1       65     54.9      0.00      0.09      79.1     0.34      1011.0     4       244         6       255        8.95     272      -69.2
   09/20/2017 20:30      67.7      67.3       64     54.9      0.00      0.09      79.2     0.34      1011.0     3       257         5       293        8.95     272      -70.0
   09/20/2017 20:20      67.8      67.4       64     55.0      0.00      0.09      79.1     0.34      1011.0     3       216         4       195        8.95     272      -70.8
   09/20/2017 20:10      68.1      67.7       63     55.0      0.00      0.09      79.0     0.34      1011.0     3       202         5       227        8.95     271      -70.0
   09/20/2017 20:00      68.7      68.1       62     55.1      0.00      0.09      79.1     0.34      1010.0     4       223         6       233        8.95     271      -71.1
   09/20/2017 19:50      69.3      68.8       61     55.1      0.00      0.09      79.0     0.34      1010.0     5       230         9       238        8.96     271      -66.5
   09/20/2017 19:40      70.1      69.6       60     55.3      0.00      0.09      79.1     0.34      1010.0     5       231         7       230        8.96     271      -52.5
   09/20/2017 19:30      70.4      70.2       60     56.0      0.00      0.09      78.7     0.34      1010.0     4       247         8       268        8.96     271      -35.0
   09/20/2017 19:20      70.5      70.3       62     56.8      0.00      0.09      78.9     0.34      1010.0     4       220         5       197        8.96     271      -27.9
   09/20/2017 19:10      70.6      70.5       62     57.1      0.00      0.09      79.1     0.34      1010.0     4       241         5       226        8.96     271      -26.9
   09/20/2017 19:00      70.8      70.5       62     57.1      0.00      0.09      78.7     0.34      1010.0     3       227         5       239        8.96     271      -25.3
   09/20/2017 18:50      70.8      70.6       62     57.2      0.00      0.09      78.7     0.34      1010.0     3       230         5       260        8.96     271      -23.3
   09/20/2017 18:40      70.9      70.5       63     57.4      0.00      0.09      78.9     0.34      1010.0     4       207         5       217        8.97     271      -20.6
   09/20/2017 18:30      70.9      70.6       63     57.5      0.00      0.09      78.7     0.34      1010.0     3       199         5       188        8.97     271      -17.6
   09/20/2017 18:20      71.0      70.8       63     57.6      0.00      0.09      78.8     0.34      1010.0     3       196         5       206        8.97     271      -14.1
   09/20/2017 18:10      71.3      71.1       62     57.6      0.00      0.09      78.6     0.34      1010.0     4       189         7       198        8.97     271       -7.9
   09/20/2017 18:00      71.2      71.1       62     57.5      0.00      0.09      78.8     0.34      1010.0     4       184         5       164        8.97     271       -1.7
   09/20/2017 17:50      71.5      71.2       62     57.6      0.00      0.09      78.6     0.34      1010.0     4       176         6       145        8.98     271        3.8
   09/20/2017 17:40      71.8      71.4       61     57.5      0.00      0.09      78.8     0.34      1010.0     5       163         7       159        8.98     271        9.9
   09/20/2017 17:30      72.4      71.9       60     57.4      0.00      0.09      78.7     0.34      1010.0     4       167         7       130        8.98     270       18.5
   09/20/2017 17:20      72.4      72.2       59     57.3      0.00      0.09      78.4     0.34      1010.0     5       157         7       160        8.98     270       32.0
   09/20/2017 17:10      72.5      72.3       58     57.0      0.00      0.09      78.3     0.34      1010.0     5       165         7       194        8.99     270       36.0
   09/20/2017 17:00      72.7      72.5       58     56.9      0.00      0.09      78.6     0.34      1010.0     4       182         6       186        8.99     270       36.3
   09/20/2017 16:50      72.8      72.5       57     56.9      0.00      0.09      77.9     0.34      1011.0     6       143         9       179        8.99     270       28.4
   09/20/2017 16:40      73.4      72.7       56     56.7      0.00      0.09      78.2     0.33      1011.0     6       162         8       143        8.99     270       32.5
   09/20/2017 16:30      73.8      73.4       55     56.5      0.00      0.09      78.3     0.33      1011.0     5       144         9       137        8.99     270       34.4
   09/20/2017 16:20      74.0      73.3       55     56.4      0.00      0.09      78.0     0.33      1011.0     6       162        10       165        8.99     270       32.4
   09/20/2017 16:10      74.3      73.8       54     56.3      0.00      0.09      77.8     0.33      1011.0     5       152         7       162        9.00     270       42.2
   09/20/2017 16:00      75.2      74.3       52     56.0      0.00      0.09      78.2     0.33      1011.0     5       182         7       226        9.00     269       59.3
   09/20/2017 15:50      75.8      74.9       51     55.9      0.00      0.09      78.0     0.33      1011.0     6       189        10       157        9.00     269      110.7
   09/20/2017 15:40      76.8      75.9       49     56.0      0.00      0.09      78.0     0.33      1011.0     5       157        10       127        9.00     269      178.7
   09/20/2017 15:30      77.4      76.9       48     56.1      0.00      0.09      78.2     0.33      1011.0     5       166        11       169        9.00     270      435.4
   09/20/2017 15:20      76.9      76.3       49     56.0      0.00      0.09      77.9     0.33      1011.0     6       158         9       136        9.00     270      415.4
   09/20/2017 15:10      78.2      76.7       48     56.1      0.00      0.09      77.5     0.33      1011.0     7       146        12       152        9.00     270      455.2
   09/20/2017 15:00      78.3      77.2       47     56.0      0.00      0.09      77.8     0.33      1011.0     6       178        10       168        9.00     270      460.1
   09/20/2017 14:50      78.3      77.0       47     55.9      0.00      0.09      77.6     0.33      1011.0     7       146        11       134        9.00     270      462.2
   09/20/2017 14:40      78.6      77.8       46     55.7      0.00      0.09      77.9     0.33      1011.0     4       184         7       193        9.00     271      476.0
   09/20/2017 14:30      78.5      77.8       46     55.7      0.00      0.09      77.6     0.33      1011.0     4       179         6       202        9.00     271      507.7
   09/20/2017 14:20      78.5      77.6       47     55.9      0.00      0.09      77.7     0.33      1011.0     5       149         9       135        9.00     271      585.6
   09/20/2017 14:10      77.8      77.0       47     55.7      0.00      0.09      77.7     0.33      1011.0     4       145         8       155        9.00     271      479.1
   09/20/2017 14:00      78.0      77.2       45     54.5      0.00      0.09      77.5     0.33      1011.0     3        83         6       130        9.00     271      261.5
   09/20/2017 13:50      78.1      77.2       44     53.8      0.00      0.09      77.6     0.33      1011.0     3       131         4        75        9.00     270      164.2
   09/20/2017 13:40      77.3      76.6       44     53.6      0.00      0.09      77.6     0.33      1011.0     3       171         8       164        9.00     271      213.5
   09/20/2017 13:30      78.5      76.9       43     53.7      0.00      0.09      77.7     0.33      1012.0     4       161         7       175        9.00     271      443.2
   09/20/2017 13:20      79.1      78.5       42     53.8      0.00      0.09      77.6     0.33      1012.0     3        55         6        93        9.00     271      541.7
   09/20/2017 13:10      78.0      76.8       44     53.5      0.00      0.09      77.6     0.33      1012.0     2       123         3       231        9.00     271      525.2
   09/20/2017 13:00      77.2      76.2       45     53.9      0.00      0.09      77.5     0.33      1012.0     4       114         7       161        9.00     271      543.4
   09/20/2017 12:50      76.4      75.3       46     53.8      0.00      0.09      77.5     0.33      1012.0     4       123         7       155        9.00     271      569.2
   09/20/2017 12:40      75.5      74.2       48     53.7      0.00      0.09      77.5     0.33      1012.0     4        94         7       127        9.00     272      389.8
   09/20/2017 12:30      76.1      74.8       47     53.9      0.00      0.09      77.3     0.33      1012.0     5       106         6        68        9.00     271      303.6
   09/20/2017 12:20      76.1      75.3       47     53.9      0.00      0.09      77.2     0.33      1012.0     4       129         5       113        9.00     272      581.5
   09/20/2017 12:10      75.3      74.3       48     53.8      0.00      0.09      77.2     0.33      1013.0     4       118         8       132        9.00     272      564.7
   09/20/2017 12:00      75.8      74.7       47     53.8      0.00      0.09      77.4     0.33      1013.0     5       131        10       129        9.00     271      552.6
   09/20/2017 11:50      75.5      74.3       48     53.7      0.00      0.09      77.5     0.33      1013.0     4       120         7        97        9.00     272      571.7
   09/20/2017 11:40      74.8      72.5       50     54.0      0.00      0.09      77.3     0.33      1013.0     3        61         6       136        9.00     272      550.0
   09/20/2017 11:30      73.6      73.0       52     54.7      0.00      0.09      77.3     0.33      1013.0     5        97        11       105        9.00     272      552.4
   09/20/2017 11:20      73.4      73.0       52     54.7      0.00      0.09      77.4     0.33      1013.0     5        82         7        79        9.00     273      568.9
   09/20/2017 11:10      73.6      71.1       54     55.0      0.00      0.09      77.6     0.33      1013.0     3       149         6       147        9.00     273      541.1
   09/20/2017 11:00      72.3      70.8       56     55.0      0.00      0.09      77.7     0.33      1013.0     3       120         5       130        9.00     273      141.6
   09/20/2017 10:50      71.8      71.2       56     55.1      0.00      0.09      77.8     0.33      1013.0     4       138         6       156        9.00     273      354.8
   09/20/2017 10:40      71.9      71.0       56     54.8      0.00      0.09      77.6     0.33      1013.0     3        96         6       167        9.00     274      376.7
   09/20/2017 10:30      71.3      70.6       57     55.1      0.00      0.09      77.7     0.33      1013.0     3       134         6       147        9.00     273      438.9
   09/20/2017 10:20      71.3      70.3       58     55.5      0.00      0.09      77.5     0.33      1013.0     4       130         6        79        9.00     274      423.3
   09/20/2017 10:10      70.8      70.2       60     55.9      0.00      0.09      77.6     0.33      1013.0     4       142         8       127        9.00     274      399.0
   09/20/2017 10:00      70.0      69.0       62     56.1      0.00      0.09      77.8     0.34      1013.0     3        86         5        81        9.00     275      328.2
   09/20/2017 09:50      68.8      68.3       65     56.4      0.00      0.09      77.8     0.34      1013.0     1        53         3       194        9.00     275      237.7
   09/20/2017 09:40      69.2      68.5       66     56.7      0.00      0.09      77.7     0.34      1013.0     1        92         3        75        9.00     274       35.5
   09/20/2017 09:30      69.5      68.3       66     57.1      0.00      0.09      77.5     0.34      1013.0     1        83         2        22        9.00     275      191.1
   09/20/2017 09:20      69.2      68.2       67     57.1      0.00      0.09      78.0     0.34      1013.0     2        90         3         2        9.00     275      221.4
   09/20/2017 09:10      68.3      67.2       69     57.1      0.00      0.09      77.9     0.34      1013.0     2        38         3        60        9.00     275      205.8
   09/20/2017 09:00      67.3      66.2       70     56.8      0.00      0.09      77.7     0.34      1013.0     2        41         3        80        9.00     275      227.6
   09/20/2017 08:50      66.4      65.8       71     56.4      0.00      0.09      77.8     0.34      1013.0     1        18         2       352        9.00     275      156.1
   09/20/2017 08:40      66.6      65.8       70     56.2      0.00      0.09      77.7     0.34      1013.0     1        52         2         6        9.00     275      125.6
   09/20/2017 08:30      65.9      65.7       70     55.9      0.00      0.09      77.9     0.34      1013.0     1        36         3        22        9.00     276      148.4
   09/20/2017 08:20      65.6      63.5       74     55.9      0.00      0.09      77.7     0.34      1013.0     1        43         2       359        9.00     276      140.9
   09/20/2017 08:10      63.4      62.9       76     55.4      0.00      0.09      78.0     0.34      1012.0     2       338         3       349        8.59     275       99.8
   09/20/2017 08:00      62.9      62.4       77     55.4      0.00      0.09      78.2     0.34      1012.0     2         9         2       328        8.31     275       93.3
   09/20/2017 07:50      62.3      61.4       82     56.1      0.00      0.09      78.1     0.34      1012.0     2       344         3       337        8.31     275       92.5
   09/20/2017 07:40      61.4      60.4       86     56.5      0.00      0.09      78.0     0.34      1012.0     1       333         3       319        8.31     275       72.2
   09/20/2017 07:30      60.2      59.2       88     56.2      0.00      0.09      78.2     0.34      1012.0     0       345         1       326        8.31     275       40.0
   09/20/2017 07:20      59.0      57.8       90     55.5      0.00      0.09      78.0     0.34      1012.0     1       219         1       197        8.32     275       35.4
   09/20/2017 07:10      57.9      57.6       90     54.9      0.00      0.09      78.1     0.34      1012.0     0       237         1       274        8.32     275       15.7
   09/20/2017 07:00      57.8      57.4       90     54.9      0.00      0.09      78.2     0.34      1012.0     0       292         1       232        8.32     275       -8.0
   09/20/2017 06:50      58.1      57.9       91     55.3      0.00      0.09      78.5     0.34      1012.0     1       117         2       161        8.32     275      -14.8
   09/20/2017 06:40      58.1      57.6       91     55.3      0.00      0.09      78.4     0.34      1012.0     2       160         4       167        8.32     275      -13.9
   09/20/2017 06:30      57.6      57.0       92     55.0      0.00      0.09      77.8     0.34      1012.0     2       159         3       164        8.32     275       -6.1
   09/20/2017 06:20      56.9      56.1       93     54.4      0.00      0.09      78.4     0.34      1012.0     1       186         2       177        8.32     275       -1.7
   09/20/2017 06:10      56.1      55.6       92     53.7      0.00      0.09      78.1     0.34      1012.0     2       166         2       169        8.33     275       -1.2
   09/20/2017 06:00      55.8      55.4       92     53.3      0.00      0.09      78.9     0.34      1012.0     1       152         2       142        8.33     274       -6.8
   09/20/2017 05:50      55.6      54.9       92     52.9      0.00      0.09      78.3     0.34      1011.0     1       165         1       199        8.33     274      -19.6
   09/20/2017 05:40      55.5      54.9       92     52.8      0.00      0.09      78.3     0.34      1011.0     2       162         2       147        8.33     274      -20.0
   09/20/2017 05:30      55.6      55.5       92     53.2      0.00      0.09      78.6     0.34      1011.0     1       152         2       149        8.33     274      -19.5
   09/20/2017 05:20      55.9      55.6       92     53.5      0.00      0.09      78.5     0.34      1011.0     1       175         1       182        8.33     274      -19.3
   09/20/2017 05:10      55.8      55.5       92     53.2      0.00      0.09      78.3     0.34      1011.0     0        41         1        45        8.33     274      -19.9
   09/20/2017 05:00      55.9      55.5       91     53.3      0.00      0.09      78.4     0.34      1011.0     1       360         1       120        8.33     274      -21.5
   09/20/2017 04:50      56.5      56.3       92     53.9      0.00      0.09      78.4     0.34      1011.0     1       188         1       107        8.33     274      -21.5
   09/20/2017 04:40      56.7      55.9       91     53.7      0.00      0.09      78.5     0.34      1011.0     1       194         1       207        8.34     274      -22.1
   09/20/2017 04:30      56.4      56.2       91     53.8      0.00      0.09      78.5     0.34      1011.0     1       144         2       129        8.34     274      -22.3
   09/20/2017 04:20      56.7      56.4       91     53.9      0.00      0.09      78.1     0.34      1011.0     0       299         0       322        8.34     274      -22.5
   09/20/2017 04:10      56.8      56.4       91     53.9      0.00      0.09      78.8     0.34      1011.0     1       149         1       143        8.34     274      -23.3
   09/20/2017 04:00      56.8      56.5       91     54.0      0.00      0.09      78.8     0.34      1011.0     1       160         2       130        8.34     274      -24.3
   09/20/2017 03:50      57.0      56.6       90     54.0      0.00      0.09      78.9     0.34      1011.0     1       138         2       150        8.34     274      -25.5
   09/20/2017 03:40      57.1      56.7       90     54.1      0.00      0.09      78.5     0.34      1011.0     1       150         1       145        8.34     274      -26.7
   09/20/2017 03:30      57.0      56.6       90     53.7      0.00      0.09      78.7     0.34      1012.0     2       149         2       133        8.34     274      -28.3
   09/20/2017 03:20      57.2      56.9       89     54.0      0.00      0.09      79.0     0.34      1012.0     1       200         2       134        8.35     274      -28.1
   09/20/2017 03:10      57.2      57.0       89     54.0      0.00      0.09      78.9     0.34      1012.0     1       151         2       141        8.35     274      -29.8
   09/20/2017 03:00      57.5      57.1       89     54.2      0.00      0.09      78.8     0.34      1012.0     1       154         2       139        8.35     274      -31.5
   09/20/2017 02:50      57.7      57.2       89     54.3      0.00      0.09      79.0     0.34      1012.0     1       188         1       139        8.35     274      -31.8
   09/20/2017 02:40      57.5      57.2       89     54.2      0.00      0.09      78.8     0.34      1012.0     1       158         2       147        8.35     274      -34.0
   09/20/2017 02:30      57.7      57.3       88     54.1      0.00      0.09      78.9     0.34      1012.0     2       144         2       147        8.35     274      -36.3
   09/20/2017 02:20      58.0      57.6       88     54.3      0.00      0.09      79.0     0.34      1012.0     1       142         2       144        8.36     274      -38.1
   09/20/2017 02:10      58.3      58.0       88     54.5      0.00      0.09      79.0     0.34      1012.0     1       145         2       139        8.36     274      -40.5
   09/20/2017 02:00      58.5      58.3       88     54.8      0.00      0.09      78.8     0.34      1012.0     1       149         1       144        8.36     274      -42.7
   09/20/2017 01:50      58.4      58.1       87     54.4      0.00      0.09      79.3     0.34      1012.0     1       211         1       169        8.36     274      -45.1
   09/20/2017 01:40      58.4      58.1       87     54.4      0.00      0.09      79.3     0.34      1012.0     1       138         2       129        8.36     274      -48.7
   09/20/2017 01:30      58.7      58.4       87     54.6      0.00      0.09      79.2     0.34      1012.0     2       156         2       164        8.37     274      -50.6
   09/20/2017 01:20      59.1      58.7       86     54.7      0.00      0.09      78.9     0.34      1012.0     1       182         2       144        8.37     274      -50.8
   09/20/2017 01:10      59.2      58.9       86     54.9      0.00      0.09      79.0     0.34      1012.0     1       142         2       141        8.37     274      -54.0
   09/20/2017 01:00      59.5      59.3       86     55.1      0.00      0.09      79.0     0.34      1012.0     1       193         2       199        8.37     274      -53.1
   09/20/2017 00:50      59.6      59.4       86     55.2      0.00      0.09      79.2     0.34      1012.0     1       163         2       132        8.39     274      -54.0
   09/20/2017 00:40      59.6      59.4       85     55.0      0.00      0.09      79.5     0.34      1012.0     1       151         2       149        8.40     273      -56.8
   09/20/2017 00:30      60.3      59.7       84     55.1      0.00      0.09      79.4     0.34      1012.0     1       138         2       143        8.40     273      -57.5
   09/20/2017 00:20      60.4      60.1       84     55.3      0.00      0.09      79.1     0.34      1012.0     1       183         1       195        8.41     273      -57.9
   09/20/2017 00:10      60.4      60.3       83     55.3      0.00      0.09      78.9     0.34      1012.0     1       148         1       184        8.41     273      -58.1
   09/20/2017 00:00      60.5      60.3       82     54.8      0.00      0.09      78.9     0.34      1012.0     0        54         1        42        8.42     273      -59.1
   09/19/2017 23:50      61.3      60.5       81     55.0      0.00      0.09      79.2     0.34      1012.0     1       111         1       130        8.42     273      -60.0
   09/19/2017 23:40      61.8      61.3       80     55.3      0.00      0.09      79.1     0.34      1012.0     1       201         1       199        8.42     273      -59.8
   09/19/2017 23:30      62.3      61.8       79     55.5      0.00      0.09      79.3     0.34      1012.0     1       200         1       189        8.42     273      -60.4
   09/19/2017 23:20      62.8      62.2       78     55.4      0.00      0.09      79.6     0.34      1012.0     2       176         2       178        8.43     273      -61.7
   09/19/2017 23:10      63.5      63.0       76     55.7      0.00      0.09      79.1     0.34      1012.0     2       231         3       288        8.43     273      -62.8
   09/19/2017 23:00      63.8      63.7       76     56.0      0.00      0.09      79.6     0.34      1012.0     2       264         3       279        8.45     274      -63.5
   09/19/2017 22:50      64.0      63.7       75     55.9      0.00      0.09      79.4     0.34      1012.0     2       241         4       242        8.45     273      -63.7
   09/19/2017 22:40      64.1      63.7       76     56.0      0.00      0.09      79.5     0.34      1012.0     2       237         3       260        8.46     273      -63.4
   09/19/2017 22:30      63.9      63.7       75     55.9      0.00      0.09      79.2     0.34      1012.0     2       213         3       182        8.46     273      -63.0
   09/19/2017 22:20      63.9      63.8       76     56.0      0.00      0.09      79.5     0.34      1012.0     3       202         4       201        8.47     273      -62.2
   09/19/2017 22:10      64.2      63.9       75     56.0      0.00      0.09      79.4     0.34      1012.0     2       197         3       220        8.47     273      -62.3
   09/19/2017 22:00      64.4      64.2       74     55.9      0.00      0.09      79.7     0.34      1012.0     2       188         2       200        8.47     273      -62.7
   09/19/2017 21:50      64.5      64.3       74     55.9      0.00      0.09      79.5     0.34      1012.0     2       191         3       165        8.48     273      -62.8
   09/19/2017 21:40      64.5      64.1       74     55.8      0.00      0.09      79.4     0.34      1012.0     2       209         3       198        8.48     273      -62.0
   09/19/2017 21:30      65.0      64.3       73     55.8      0.00      0.09      79.2     0.34      1012.0     2       180         2       172        8.48     273      -63.3
   09/19/2017 21:20      65.7      65.2       71     55.8      0.00      0.09      79.4     0.34      1012.0     2       194         2       186        8.48     273      -63.4
   09/19/2017 21:10      66.2      65.7       70     55.8      0.00      0.09      79.8     0.34      1012.0     2       219         2       231        8.48     273      -63.8
   09/19/2017 21:00      66.4      66.2       70     56.2      0.00      0.09      79.4     0.34      1012.0     2       233         3       231        8.48     273      -65.6
   09/19/2017 20:50      66.9      66.4       69     56.3      0.00      0.09      79.2     0.34      1012.0     2       235         3       217        8.49     273      -66.0
   09/19/2017 20:40      67.4      67.1       68     56.5      0.00      0.09      79.2     0.34      1012.0     1       266         3       295        8.49     273      -67.6
   09/19/2017 20:30      67.5      67.3       67     56.0      0.00      0.09      79.5     0.34      1012.0     3       264         4       254        8.49     273      -68.6
   09/19/2017 20:20      67.6      67.3       66     55.7      0.00      0.09      79.4     0.34      1012.0     2       234         4       235        8.49     273      -69.3
   09/19/2017 20:10      68.2      67.7       65     55.8      0.00      0.09      79.3     0.34      1011.0     3       227         4       233        8.49     273      -70.3
   09/19/2017 20:00      68.3      68.1       64     55.7      0.00      0.09      79.5     0.34      1011.0     2       212         3       250        8.49     273      -67.7
   09/19/2017 19:50      68.5      68.3       64     55.7      0.00      0.09      79.4     0.34      1011.0     2       225         3       251        8.50     273      -56.2
   09/19/2017 19:40      68.5      68.1       64     55.6      0.00      0.09      79.5     0.34      1011.0     3       196         4       209        8.50     273      -43.0
   09/19/2017 19:30      68.3      68.2       64     55.7      0.00      0.09      79.4     0.34      1011.0     3       189         5       155        8.50     272      -40.8
   09/19/2017 19:20      68.6      68.3       64     55.8      0.00      0.09      79.6     0.34      1011.0     4       160         6       185        8.51     272      -44.8
   09/19/2017 19:10      69.2      68.6       63     55.9      0.00      0.09      79.2     0.34      1011.0     4       159         6       158        8.51     272      -53.0
   09/19/2017 19:00      69.7      69.3       62     56.0      0.00      0.09      79.5     0.34      1011.0     3       168         5       172        8.51     272      -51.2
   09/19/2017 18:50      70.0      69.7       62     56.1      0.00      0.09      79.2     0.34      1011.0     3       183         4       139        8.51     272      -33.7
   09/19/2017 18:40      70.0      69.7       62     56.2      0.00      0.09      79.3     0.34      1011.0     3       190         6       187        8.52     272      -24.4
   09/19/2017 18:30      70.3      69.8       61     56.2      0.00      0.09      79.3     0.34      1011.0     4       183         6       187        8.52     272      -15.8
   09/19/2017 18:20      70.6      70.3       61     56.3      0.00      0.09      79.4     0.34      1011.0     5       145         7       161        8.52     272       -7.7
   09/19/2017 18:10      71.0      70.5       60     56.4      0.00      0.09      79.3     0.34      1011.0     5       162         7       170        8.53     272       -0.5
   09/19/2017 18:00      71.4      71.1       59     56.5      0.00      0.09      79.4     0.34      1011.0     5       161         7       170        8.53     272        5.3
   09/19/2017 17:50      71.9      71.5       59     56.4      0.00      0.09      79.3     0.34      1011.0     6       174         7       191        8.53     272       25.0
   09/19/2017 17:40      72.4      71.9       58     56.6      0.00      0.09      79.3     0.34      1011.0     6       155         9       155        8.53     271       52.9
   09/19/2017 17:30      73.4      72.2       57     56.6      0.00      0.09      79.0     0.34      1011.0     6       161         9       146        8.53     271       71.8
   09/19/2017 17:20      73.6      73.3       56     56.6      0.00      0.09      79.0     0.34      1011.0     6       163         8       161        8.54     272      117.4
   09/19/2017 17:10      74.3      73.4       55     56.8      0.00      0.09      79.1     0.34      1011.0     5       156         9       148        8.54     272      137.4
   09/19/2017 17:00      74.5      73.8       54     56.5      0.00      0.09      79.4     0.34      1011.0     5       158         7       183        8.54     272      154.1
   09/19/2017 16:50      74.7      74.2       54     56.4      0.00      0.09      79.0     0.34      1011.0     4       169         6       159        8.54     272      168.7
   09/19/2017 16:40      75.0      74.6       53     56.4      0.00      0.09      79.3     0.34      1011.0     5       155         6       177        8.57     272      212.7
   09/19/2017 16:30      75.0      74.5       53     56.4      0.00      0.09      79.4     0.34      1011.0     5       174         8       181        8.58     272      229.0
   09/19/2017 16:20      75.0      74.5       53     56.5      0.00      0.09      78.9     0.34      1011.0     5       147         6       163        8.59     272      256.8
   09/19/2017 16:10      75.7      74.5       51     56.1      0.00      0.09      79.0     0.34      1011.0     4       168         6       182        8.59     272      224.6
   09/19/2017 16:00      75.3      75.0       50     55.4      0.00      0.09      78.8     0.34      1011.0     2       281         4       276        8.60     272       75.3
   09/19/2017 15:50      75.8      75.3       50     55.4      0.00      0.09      79.0     0.34      1011.0     3       273         4       326        8.60     272      144.3
   09/19/2017 15:40      76.2      75.8       49     55.5      0.00      0.09      79.1     0.34      1011.0     2       257         3       277        8.60     272      140.8
   09/19/2017 15:30      76.9      75.7       49     55.5      0.00      0.09      78.9     0.34      1011.0     3       293         4       311        8.60     272      176.9
   09/19/2017 15:20      77.4      76.4       49     56.2      0.00      0.09      79.5     0.34      1011.0     2       348         3       310        8.61     273      286.6
   09/19/2017 15:10      76.9      75.1       49     55.9      0.00      0.09      79.2     0.34      1011.0     2       350         2        78        8.65     273      301.0
   09/19/2017 15:00      75.3      73.7       52     55.9      0.00      0.09      79.0     0.34      1012.0     2       203         3       202        8.65     274      295.9
   09/19/2017 14:50      75.4      73.8       53     56.1      0.00      0.09      79.0     0.34      1012.0     3       205         6       160        8.66     273      165.3
   09/19/2017 14:40      75.1      74.8       52     56.3      0.00      0.09      79.1     0.34      1012.0     2       332         3        10        8.66     273      177.6
   09/19/2017 14:30      74.9      73.5       54     56.3      0.00      0.09      78.8     0.34      1012.0     2        70         4       103        8.66     273      261.4
   09/19/2017 14:20      73.8      72.9       55     56.2      0.00      0.09      79.2     0.34      1012.0     2        66         3        58        8.67     274      196.3
   09/19/2017 14:10      73.3      72.5       56     56.5      0.00      0.09      79.1     0.34      1012.0     4       107         6        85        8.67     274      193.5
   09/19/2017 14:00      72.8      72.2       57     56.5      0.00      0.09      78.8     0.34      1012.0     4       119         6        65        8.67     274      204.8
   09/19/2017 13:50      72.8      72.3       57     56.4      0.00      0.09      79.0     0.34      1012.0     2        81         4        96        8.67     274      150.1
   09/19/2017 13:40      72.4      71.5       58     56.1      0.00      0.09      79.2     0.34      1012.0     2        54         4       116        8.67     274      143.8
   09/19/2017 13:30      72.0      71.5       58     56.0      0.00      0.09      78.6     0.34      1013.0     3       118         5        81        8.68     274      182.2
   09/19/2017 13:20      72.8      72.3       57     56.3      0.00      0.09      78.9     0.34      1013.0     3        86         4        68        8.68     274      122.6
   09/19/2017 13:10      72.9      72.4       56     56.3      0.00      0.09      79.1     0.34      1013.0     3        15         6        29        8.68     274      145.6
   09/19/2017 13:00      73.2      72.3       56     56.3      0.00      0.09      79.2     0.34      1013.0     3        61         4        94        8.68     274      179.2
   09/19/2017 12:50      72.7      71.0       58     56.4      0.00      0.09      79.1     0.34      1013.0     3        27         5        63        8.68     274      333.8
   09/19/2017 12:40      71.3      70.7       60     56.2      0.00      0.09      79.0     0.34      1013.0     3       114         6       100        8.69     274      160.5
   09/19/2017 12:30      70.8      70.5       60     55.8      0.00      0.09      78.9     0.34      1013.0     3       189         5       194        8.69     274      136.9
   09/19/2017 12:20      70.6      70.3       60     55.9      0.00      0.09      79.0     0.34      1013.0     3       201         5       221        8.69     274      113.6
   09/19/2017 12:10      71.0      70.4       60     56.0      0.00      0.09      78.7     0.34      1013.0     2       138         3       117        8.69     274      118.8
   09/19/2017 12:00      70.5      69.5       61     55.9      0.00      0.09      79.0     0.34      1013.0     1        85         2       344        8.69     274      120.1
   09/19/2017 11:50      69.9      69.6       61     55.6      0.00      0.09      78.8     0.34      1014.0     3       134         4       126        8.69     274      102.2
   09/19/2017 11:40      69.8      69.2       62     56.0      0.00      0.09      79.1     0.34      1014.0     4       111         5       114        8.69     274       83.9
   09/19/2017 11:30      70.3      69.5       61     56.0      0.00      0.09      79.0     0.34      1014.0     3       107         6       134        8.69     274       98.0
   09/19/2017 11:20      70.5      69.9       60     55.8      0.00      0.09      79.0     0.34      1014.0     3        74         6        86        8.69     274      143.8
   09/19/2017 11:10      70.1      69.3       61     55.5      0.00      0.09      79.3     0.34      1014.0     3       141         4       163        8.69     274      183.0
   09/19/2017 11:00      69.5      68.7       62     55.6      0.00      0.09      79.3     0.34      1014.0     3       138         4       118        8.70     274      157.0
   09/19/2017 10:50      69.1      68.5       63     55.6      0.00      0.09      79.4     0.34      1014.0     2       163         4       203        8.70     275      124.4
   09/19/2017 10:40      69.1      68.7       63     55.9      0.00      0.09      78.9     0.34      1014.0     3       122         4       154        8.70     275      115.8
   09/19/2017 10:30      68.8      68.4       64     55.9      0.00      0.09      79.2     0.34      1014.0     3       101         5        79        8.70     275      151.3
   09/19/2017 10:20      68.5      68.1       64     55.9      0.00      0.09      79.4     0.34      1014.0     3       167         4       177        8.70     275      133.6
   09/19/2017 10:10      68.4      68.0       65     56.0      0.00      0.09      79.2     0.34      1014.0     2        99         4       111        8.70     275      124.3
   09/19/2017 10:00      68.3      67.8       65     56.0      0.00      0.09      78.9     0.34      1014.0     3        66         5        94        8.71     275      106.7
   09/19/2017 09:50      68.0      67.1       66     55.9      0.00      0.09      79.3     0.34      1014.0     2        52         3        67        8.71     275       98.7
   09/19/2017 09:40      67.3      66.9       67     55.7      0.00      0.09      78.9     0.34      1014.0     3       114         5       123        8.71     275       99.0
   09/19/2017 09:30      67.1      66.6       67     55.6      0.00      0.09      79.0     0.34      1014.0     2       106         5       149        8.71     275       92.8
   09/19/2017 09:20      67.1      66.6       67     55.6      0.00      0.09      78.9     0.34      1014.0     2       124         3       128        8.71     276       81.3
   09/19/2017 09:10      66.6      66.3       68     55.7      0.00      0.09      78.9     0.34      1014.0     1        97         2       113        8.71     276       68.0
   09/19/2017 09:00      66.3      66.0       69     55.7      0.00      0.09      79.0     0.34      1014.0     2       126         4       128        8.72     275       70.8
   09/19/2017 08:50      66.3      66.0       69     55.7      0.00      0.09      79.1     0.34      1014.0     2       119         4       130        8.72     276       59.9
   09/19/2017 08:40      66.4      66.0       69     56.0      0.00      0.09      79.0     0.34      1014.0     2        97         6       136        8.72     276       53.8
   09/19/2017 08:30      66.2      65.8       70     55.9      0.00      0.09      79.2     0.34      1014.0     1        86         2        69        8.72     276       41.5
   09/19/2017 08:20      65.8      65.7       71     56.0      0.00      0.09      79.5     0.34      1014.0     1       118         3       135        8.72     276       32.4
   09/19/2017 08:10      65.7      65.2       72     56.1      0.00      0.09      79.5     0.34      1013.0     1       100         2       143        8.73     276       26.5
   09/19/2017 08:00      65.4      65.2       72     56.1      0.00      0.09      79.1     0.34      1013.0     2       134         2       151        8.73     276       25.2
   09/19/2017 07:50      65.2      65.0       73     56.1      0.00      0.09      78.9     0.34      1013.0     2       111         3        92        8.73     276       16.8
   09/19/2017 07:40      65.1      64.8       73     56.1      0.00      0.09      79.3     0.34      1013.0     2       126         3       140        8.73     276       11.0
   09/19/2017 07:30      65.1      64.8       73     56.0      0.00      0.09      79.3     0.34      1013.0     2       133         2       125        8.73     276        5.1
   09/19/2017 07:20      65.0      64.7       73     56.1      0.00      0.09      79.5     0.34      1013.0     1        75         2       172        8.73     276       -2.2
   09/19/2017 07:10      65.0      64.5       74     56.1      0.00      0.09      79.6     0.34      1013.0     1       104         2       140        8.73     276       -6.7
   09/19/2017 07:00      64.7      64.5       74     56.2      0.00      0.09      79.3     0.34      1013.0     2        95         3        71        8.73     276      -11.7
   09/19/2017 06:50      64.5      64.3       74     56.2      0.00      0.09      79.6     0.34      1013.0     1        88         2        95        8.74     276      -14.8
   09/19/2017 06:40      64.6      64.2       75     56.2      0.00      0.09      79.6     0.34      1013.0     1        81         1        66        8.74     276      -15.5
   09/19/2017 06:30      64.5      64.2       75     56.3      0.00      0.09      79.3     0.34      1013.0     1       144         2       155        8.74     276      -17.2
   09/19/2017 06:20      64.4      64.2       76     56.4      0.00      0.09      79.7     0.34      1013.0     1       152         2       129        8.74     276      -17.0
   09/19/2017 06:10      64.3      64.2       76     56.5      0.00      0.09      79.5     0.34      1013.0     1       173         2       163        8.74     276      -16.2
   09/19/2017 06:00      64.4      64.1       76     56.5      0.00      0.09      79.5     0.34      1013.0     2       164         3       183        8.74     276      -16.1
   09/19/2017 05:50      64.3      64.0       76     56.5      0.00      0.09      79.4     0.34      1013.0     1       151         2       129        8.74     276      -15.4
   09/19/2017 05:40      64.1      63.9       76     56.5      0.00      0.09      79.5     0.34      1013.0     2       154         3       176        8.74     276      -15.2
   09/19/2017 05:30      64.0      63.9       77     56.5      0.00      0.09      79.6     0.34      1013.0     2       115         3       124        8.74     276      -14.9
   09/19/2017 05:20      64.0      63.8       77     56.5      0.00      0.09      79.7     0.34      1013.0     2        94         2        93        8.74     276      -14.8
   09/19/2017 05:10      63.9      63.6       78     56.6      0.00      0.09      80.0     0.34      1013.0     1       101         2        95        8.74     276      -14.8
   09/19/2017 05:00      63.8      63.5       78     56.6      0.00      0.09      79.6     0.35      1013.0     1       117         2       128        8.74     276      -14.3
   09/19/2017 04:50      63.8      63.3       78     56.5      0.00      0.09      79.3     0.34      1012.0     2       128         3       138        8.74     276      -14.3
   09/19/2017 04:40      63.4      63.1       79     56.5      0.00      0.09      79.5     0.35      1012.0     3       112         4       106        8.74     276      -14.1
   09/19/2017 04:30      63.3      63.0       79     56.6      0.00      0.09      79.8     0.35      1013.0     2       108         4       127        8.83     276      -14.2
   09/19/2017 04:20      63.3      63.0       79     56.6      0.00      0.09      80.0     0.35      1013.0     3       103         4       137        8.84     276      -14.1
   09/19/2017 04:10      63.0      62.8       80     56.8      0.00      0.09      79.6     0.35      1013.0     3       127         4       117        8.84     276      -13.8
   09/19/2017 04:00      63.1      62.8       80     56.8      0.00      0.09      79.9     0.35      1013.0     3       106         4       118        8.84     276      -14.0
   09/19/2017 03:50      63.0      62.8       81     56.9      0.00      0.09      79.9     0.35      1013.0     2       117         3       127        8.84     276      -14.1
   09/19/2017 03:40      62.9      62.7       81     57.0      0.00      0.09      80.0     0.35      1013.0     2        71         3        75        8.84     276      -14.0
   09/19/2017 03:30      62.8      62.6       82     57.0      0.00      0.09      79.9     0.35      1013.0     2        82         3       120        8.84     276      -13.7
   09/19/2017 03:20      62.9      62.8       81     56.9      0.00      0.09      79.9     0.35      1013.0     2       102         3        98        8.84     276      -13.9
   09/19/2017 03:10      63.0      62.7       80     56.7      0.00      0.09      79.9     0.35      1013.0     2       107         3       113        8.84     276      -14.2
   09/19/2017 03:00      63.2      62.8       80     56.8      0.00      0.09      80.3     0.35      1013.0     3       118         4       126        8.85     276      -14.3
   09/19/2017 02:50      63.2      62.8       81     57.1      0.00      0.09      80.1     0.35      1013.0     2        88         3        76        8.85     276      -14.3
   09/19/2017 02:40      63.1      62.9       81     57.1      0.00      0.09      79.9     0.35      1013.0     3        92         5        82        8.85     276      -14.2
   09/19/2017 02:30      63.0      62.6       82     57.3      0.00      0.09      79.8     0.35      1013.0     2        87         3        47        8.86     276      -14.2
   09/19/2017 02:20      62.8      62.4       83     57.3      0.00      0.09      79.7     0.35      1013.0     1       116         2       141        8.86     276      -14.2
   09/19/2017 02:10      62.6      62.2       83     57.2      0.00      0.09      79.9     0.35      1013.0     2       128         3        94        8.86     276      -14.0
   09/19/2017 02:00      62.5      62.2       83     57.1      0.00      0.09      79.7     0.35      1013.0     2       112         3       120        8.86     276      -14.2
   09/19/2017 01:50      62.4      62.2       83     57.1      0.00      0.09      80.1     0.35      1013.0     2        82         4        81        8.87     276      -14.2
   09/19/2017 01:40      62.3      62.2       84     57.3      0.00      0.09      80.4     0.35      1013.0     3        99         4        73        8.87     275      -14.3
   09/19/2017 01:30      62.6      62.4       84     57.5      0.00      0.09      80.1     0.35      1013.0     3        67         6        71        8.87     275      -14.4
   09/19/2017 01:20      62.6      62.3       84     57.5      0.00      0.09      80.1     0.35      1013.0     2        70         2        54        8.87     275      -14.8
   09/19/2017 01:10      62.4      62.2       84     57.4      0.00      0.09      80.4     0.35      1013.0     1       130         1       148        8.87     275      -14.9
   09/19/2017 01:00      62.5      62.4       84     57.5      0.00      0.09      80.2     0.35      1013.0     1       161         3       117        8.87     275      -14.9
   09/19/2017 00:50      62.5      62.2       84     57.4      0.00      0.09      79.9     0.35      1013.0     1       120         3       134        8.88     275      -14.7
   09/19/2017 00:40      62.5      62.4       84     57.5      0.00      0.09      80.1     0.35      1013.0     2        63         3       119        8.88     275      -14.7
   09/19/2017 00:30      62.5      62.2       85     57.6      0.00      0.09      80.1     0.35      1013.0     2        93         3        79        8.88     275      -14.2
   09/19/2017 00:20      62.4      62.2       85     57.7      0.00      0.09      80.1     0.35      1014.0     2       114         3        87        8.88     275      -14.2
   09/19/2017 00:10      62.4      62.2       85     57.7      0.00      0.09      80.1     0.35      1013.0     2       149         3       130        8.88     275      -14.0
   09/19/2017 00:00      62.5      62.3       84     57.7      0.00      0.09      80.4     0.35      1013.0     2       128         3        87        8.88     275      -14.2
   09/18/2017 23:50      62.7      62.2       85     57.9      0.00      0.09      80.4     0.35      1013.0     2       104         3        67        8.88     275      -14.7
   09/18/2017 23:40      62.4      62.2       85     57.8      0.00      0.09      79.8     0.35      1013.0     2       125         2       115        8.89     275      -16.9
   09/18/2017 23:30      62.3      61.9       86     57.7      0.00      0.09      80.2     0.35      1013.0     3       135         3       128        8.89     275      -18.5
   09/18/2017 23:20      62.2      61.8       85     57.5      0.00      0.09      80.2     0.35      1013.0     3       146         4       145        8.89     275      -20.3
   09/18/2017 23:10      61.9      61.8       85     57.2      0.00      0.09      80.5     0.35      1013.0     2       188         3       153        8.89     275      -28.8
   09/18/2017 23:00      62.1      61.8       84     57.1      0.00      0.09      80.2     0.35      1013.0     2       181         3       146        8.89     275      -63.7
   09/18/2017 22:50      62.3      62.1       84     57.5      0.00      0.09      80.1     0.35      1013.0     2       157         3       181        8.89     275      -50.6
   09/18/2017 22:40      62.4      62.3       85     57.6      0.00      0.09      79.9     0.35      1013.0     0       121         1        80        8.89     275      -41.9
   09/18/2017 22:30      62.8      62.4       84     57.7      0.00      0.09      80.3     0.35      1013.0     1        81         2        71        8.89     275      -65.3
   09/18/2017 22:20      62.9      62.7       84     57.9      0.00      0.09      80.0     0.35      1013.0     1        42         3        67        8.89     275      -67.6
   09/18/2017 22:10      63.0      62.8       83     57.8      0.00      0.09      80.1     0.35      1013.0     1        70         2        73        8.89     275      -68.3
   09/18/2017 22:00      63.3      63.0       83     57.9      0.00      0.09      80.7     0.35      1013.0     2        61         4        73        8.89     275      -67.3
   09/18/2017 21:50      63.6      63.3       82     57.9      0.00      0.09      80.1     0.35      1013.0     2        77         4        95        8.89     274      -68.5
   09/18/2017 21:40      64.2      63.7       81     57.8      0.00      0.09      80.5     0.35      1013.0     3        70         5        75        8.89     274      -69.6
   09/18/2017 21:30      64.8      64.3       79     57.9      0.00      0.09      80.0     0.35      1013.0     2        55         3        80        8.89     274      -70.8
   09/18/2017 21:20      65.4      65.0       77     57.9      0.00      0.09      80.2     0.35      1013.0     2        42         3        69        8.89     274      -71.5
   09/18/2017 21:10      65.6      65.3       76     57.8      0.00      0.09      80.4     0.35      1013.0     2        25         3         4        8.89     274      -71.7
   09/18/2017 21:00      66.2      65.7       75     57.9      0.00      0.09      80.3     0.35      1013.0     2        43         3        75        8.90     274      -72.5
   09/18/2017 20:50      67.0      66.3       74     57.9      0.00      0.09      80.4     0.35      1013.0     2        29         4        32        8.90     274      -73.1
   09/18/2017 20:40      67.3      66.9       72     57.8      0.00      0.09      80.1     0.35      1013.0     2        38         2        37        8.90     273      -73.8
   09/18/2017 20:30      67.7      67.4       70     57.3      0.00      0.09      80.4     0.35      1012.0     2        75         3        90        8.90     273      -74.4
   09/18/2017 20:20      68.3      67.7       68     57.2      0.00      0.09      80.2     0.35      1012.0     2       146         3       158        8.90     273      -75.6
   09/18/2017 20:10      69.5      68.3       66     57.0      0.00      0.09      80.1     0.35      1012.0     2       158         4       159        8.90     273      -77.0
   09/18/2017 20:00      70.0      69.7       63     56.8      0.00      0.09      80.3     0.35      1012.0     1       208         3       200        8.90     273      -77.5
   09/18/2017 19:50      70.6      70.3       62     56.7      0.00      0.09      80.4     0.35      1012.0     3       233         4       252        8.90     273      -78.5
   09/18/2017 19:40      71.3      70.9       61     56.9      0.00      0.09      80.3     0.35      1012.0     2       222         5       249        8.90     272      -79.5
   09/18/2017 19:30      72.0      71.3       60     56.8      0.00      0.09      80.3     0.35      1012.0     2       209         5       227        8.90     272      -81.2
   09/18/2017 19:20      73.2      72.2       58     57.0      0.00      0.09      80.1     0.35      1012.0     3       211         5       231        8.91     272      -82.0
   09/18/2017 19:10      74.2      73.4       56     57.2      0.00      0.09      80.0     0.35      1011.0     3       258         5       236        8.91     272      -82.9
   09/18/2017 19:00      74.7      74.2       55     57.3      0.00      0.09      80.1     0.35      1011.0     3       276         5       269        8.91     273      -82.3
   09/18/2017 18:50      75.1      74.7       54     57.3      0.00      0.09      80.0     0.35      1011.0     2       286         4       294        8.91     273      -78.8
   09/18/2017 18:40      76.2      75.2       53     57.3      0.00      0.09      79.8     0.35      1011.0     4       312         5       342        8.91     272      -73.5
   09/18/2017 18:30      77.9      76.5       50     57.4      0.00      0.09      79.7     0.35      1011.0     4       299         6       275        8.91     272      -59.2
   09/18/2017 18:20      78.7      77.9       49     57.5      0.00      0.09      80.0     0.35      1011.0     4       320         6       327        8.91     272      -45.0
   09/18/2017 18:10      79.4      79.0       48     57.5      0.00      0.09      79.8     0.35      1011.0     4       305         7       284        8.92     272      -28.9
   09/18/2017 18:00      80.3      79.4       46     57.2      0.00      0.09      79.9     0.35      1011.0     3       307         5       314        8.92     272       -9.9
   09/18/2017 17:50      80.8      80.2       45     57.1      0.00      0.09      79.8     0.35      1011.0     3       301         5       289        8.92     272       11.8
   09/18/2017 17:40      81.5      80.7       44     56.9      0.00      0.09      79.5     0.35      1011.0     3       337         4       301        8.92     272       36.1
   09/18/2017 17:30      82.3      81.5       44     58.0      0.00      0.09      79.6     0.35      1011.0     3       359         6       316        8.93     273       62.2
   09/18/2017 17:20      81.8      81.1       46     58.7      0.00      0.09      79.5     0.34      1011.0     3        63         5        67        8.93     273       88.1
   09/18/2017 17:10      81.8      81.1       46     58.9      0.00      0.09      79.5     0.34      1011.0     3        40         5        62        8.94     273      114.4
   09/18/2017 17:00      81.9      81.4       46     59.0      0.00      0.09      79.6     0.34      1011.0     4        59         8        67        8.94     273      139.3
   09/18/2017 16:50      82.1      81.3       46     59.0      0.00      0.09      79.7     0.34      1011.0     3        37         4        56        8.94     273      164.7
   09/18/2017 16:40      81.9      81.4       46     59.0      0.00      0.09      79.4     0.34      1011.0     4        54         5        67        8.95     273      187.6
   09/18/2017 16:30      82.9      81.5       46     59.1      0.00      0.09      79.5     0.34      1011.0     4        62         6        71        8.95     273      213.8
   09/18/2017 16:20      83.2      82.9       44     59.1      0.00      0.09      79.5     0.34      1011.0     3        37         4        42        8.95     273      228.6
   09/18/2017 16:10      83.5      82.7       44     58.8      0.00      0.09      79.7     0.34      1011.0     2        51         4        39        8.95     274      242.4
   09/18/2017 16:00      83.3      82.6       44     58.9      0.00      0.09      79.5     0.34      1011.0     4        43         6        67        8.95     274      263.5
   09/18/2017 15:50      84.2      82.7       44     59.1      0.00      0.09      79.3     0.34      1011.0     3        28         6        24        8.95     276      283.2
   09/18/2017 15:40      84.0      82.6       44     59.1      0.00      0.09      79.3     0.34      1012.0     4        33         7        82        8.96     277      312.9
   09/18/2017 15:30      83.4      82.8       44     59.1      0.00      0.09      79.4     0.34      1012.0     4        23         6        13        8.96     278      331.4
   09/18/2017 15:20      83.4      82.6       44     59.1      0.00      0.09      79.1     0.34      1012.0     3        49         4        55        8.96     278      350.1
   09/18/2017 15:10      82.6      81.2       46     59.0      0.00      0.09      79.3     0.34      1012.0     4        73         6       130        8.96     280      373.2
   09/18/2017 15:00      82.6      81.8       45     59.1      0.00      0.09      79.0     0.34      1012.0     4        42         7        21        8.96     282      386.7
   09/18/2017 14:50      82.6      81.6       46     59.0      0.00      0.09      79.0     0.34      1012.0     3        41         5        76        8.96     284      402.8
   09/18/2017 14:40      82.8      81.6       45     59.0      0.00      0.09      79.0     0.34      1012.0     3        36         6        66        8.96     286      418.0
   09/18/2017 14:30      82.6      81.3       46     59.0      0.00      0.09      78.9     0.34      1012.0     3        21         6       338        8.96     287      429.6
   09/18/2017 14:20      81.2      80.3       47     58.9      0.00      0.09      79.3     0.34      1012.0     4        55         8        88        8.96     288      451.6
   09/18/2017 14:10      81.4      80.5       47     58.9      0.00      0.09      79.0     0.34      1012.0     4        50         7        73        8.96     288      462.6
   09/18/2017 14:00      81.7      80.8       47     58.9      0.00      0.09      79.0     0.34      1012.0     3        43         5        80        8.96     290      471.7
   09/18/2017 13:50      80.9      80.1       48     58.9      0.00      0.09      78.9     0.34      1013.0     3        59         5        57        8.96     291      482.6
   09/18/2017 13:40      81.0      80.0       48     58.9      0.00      0.09      78.9     0.34      1013.0     3        58         7        62        8.96     292      491.3
   09/18/2017 13:30      80.3      79.4       49     58.9      0.00      0.09      78.6     0.34      1013.0     4        44         5        62        8.96     293      497.2
   09/18/2017 13:20      79.9      79.4       49     58.9      0.00      0.09      79.0     0.34      1013.0     4        42         9        70        8.96     295      501.5
   09/18/2017 13:10      80.5      79.9       49     59.2      0.00      0.09      78.8     0.34      1013.0     4        21         5        44        8.96     299      504.6
   09/18/2017 13:00      79.5      78.5       50     59.1      0.00      0.09      78.6     0.34      1013.0     3        33         4        38        8.96     301      509.1
   09/18/2017 12:50      79.4      78.3       51     59.1      0.00      0.09      78.8     0.34      1013.0     4        81         5        80        8.96     304      512.2
   09/18/2017 12:40      79.6      78.6       51     59.3      0.00      0.09      78.6     0.34      1013.0     4        32         6        21        8.96     308      507.5
   09/18/2017 12:30      80.2      77.8       51     59.2      0.00      0.09      78.7     0.34      1013.0     3        52         4        72        8.96     314      505.6
   09/18/2017 12:20      78.3      77.8       52     59.0      0.00      0.09      78.5     0.34      1013.0     4        52         6       120        8.96     319      504.1
   09/18/2017 12:10      78.5      77.8       52     59.0      0.00      0.09      78.7     0.34      1014.0     5        38         7        69        8.96     326      499.9
   09/18/2017 12:00      78.6      77.7       52     58.8      0.00      0.09      78.9     0.34      1014.0     4        43         7        20        8.96     332      495.6
   09/18/2017 11:50      78.1      77.3       50     57.8      0.00      0.09      78.4     0.34      1014.0     4        24         8       139        8.96     343      496.4
   09/18/2017 11:40      78.0      77.1       50     57.5      0.00      0.09      78.7     0.34      1014.0     4        11         6        12        8.96     356      486.8
   09/18/2017 11:30      77.0      75.8       52     57.5      0.00      0.09      78.6     0.34      1014.0     2       327         4       318        8.96     367      477.3
   09/18/2017 11:20      76.3      75.4       53     57.7      0.00      0.09      79.0     0.34      1014.0     3        14         4        24        8.96     381      469.7
   09/18/2017 11:10      76.2      75.5       53     57.7      0.00      0.09      78.8     0.34      1014.0     2        97         4       194        8.96     400      462.2
   09/18/2017 11:00      75.7      74.8       54     57.7      0.00      0.09      79.1     0.34      1014.0     2       352         3       159        8.96     420      448.1
   09/18/2017 10:50      74.9      74.5       55     57.6      0.00      0.09      79.2     0.34      1014.0     2        35         4        21        8.96     442      434.4
   09/18/2017 10:40      75.0      73.9       56     57.7      0.00      0.09      78.9     0.34      1014.0     2        23         4         1        8.96     458      421.9
   09/18/2017 10:30      73.7      73.4       57     57.6      0.00      0.09      79.2     0.34      1014.0     2        46         3        26        8.96     474      407.0
   09/18/2017 10:20      73.7      73.3       57     57.5      0.00      0.09      79.0     0.34      1014.0     2        65         4        88        8.96     493      392.3
   09/18/2017 10:10      73.0      71.7       60     57.3      0.00      0.09      79.1     0.34      1014.0     2       346         3       312        8.96     510      376.2
   09/18/2017 10:00      72.3      71.5       60     57.3      0.00      0.09      79.5     0.34      1014.0     2       314         4       320        8.96     526      360.0
   09/18/2017 09:50      71.9      70.6       61     57.4      0.00      0.09      79.0     0.34      1014.0     2        40         4        22        8.96     543      341.0
   09/18/2017 09:40      70.7      69.3       64     57.0      0.00      0.09      79.0     0.35      1014.0     2       359         3        23        8.96     560      321.0
   09/18/2017 09:30      69.3      68.9       65     56.8      0.00      0.09      79.2     0.35      1014.0     1        18         3        61        8.96     577      300.8
   09/18/2017 09:20      69.5      68.6       65     56.7      0.00      0.09      78.8     0.35      1014.0     2        38         4       338        8.96     599      279.5
   09/18/2017 09:10      68.5      67.7       67     56.7      0.00      0.09      79.6     0.35      1014.0     2        51         3        18        8.96     628      257.6
   09/18/2017 09:00      68.9      67.9       66     56.6      0.00      0.09      79.4     0.34      1014.0     2         9         4         0        8.96     655      234.7
   09/18/2017 08:50      68.6      67.7       67     56.6      0.00      0.09      79.3     0.34      1014.0     1       359         2        43        8.96     674      209.4
   09/18/2017 08:40      68.1      67.3       68     56.5      0.00      0.09      79.7     0.34      1014.0     1       104         2       115        8.96     688      174.6
   09/18/2017 08:30      67.4      66.1       69     56.5      0.00      0.09      79.7     0.34      1014.0     1        24         3        85        8.49     274      143.1
   09/18/2017 08:20      65.8      64.7       73     56.2      0.00      0.09      79.6     0.34      1014.0     1       133         2        55        7.88     275      127.4
   09/18/2017 08:10      64.9      64.2       74     56.2      0.00      0.09      79.6     0.34      1014.0     1       256         2       115        7.88     273      121.8
   09/18/2017 08:00      64.3      63.0       78     56.6      0.00      0.09      79.6     0.34      1014.0     0       288         1       311        7.88     273      107.1
   09/18/2017 07:50      62.8      60.6       84     56.8      0.00      0.09      79.4     0.34      1014.0     1       133         1       136        7.88     273       98.3
   09/18/2017 07:40      60.5      58.5       89     56.1      0.00      0.09      79.5     0.34      1014.0     1       138         1       126        7.88     273       87.1
   09/18/2017 07:30      58.5      57.4       90     55.0      0.00      0.09      79.3     0.34      1014.0     1       147         1       146        7.88     273       66.5
   09/18/2017 07:20      57.3      56.9       91     54.5      0.00      0.09      79.9     0.34      1014.0     1       152         1       149        7.88     273       32.1
   09/18/2017 07:10      56.9      56.4       91     54.0      0.00      0.09      79.8     0.34      1014.0     1       158         1       170        7.88     273        1.7
   09/18/2017 07:00      56.5      56.2       92     53.9      0.00      0.09      79.5     0.34      1013.0     1       131         1       121        7.88     273       -8.9
   09/18/2017 06:50      56.4      56.2       92     53.9      0.00      0.09      79.7     0.34      1013.0     1       171         1       191        7.88     273      -15.0
   09/18/2017 06:40      56.3      56.0       91     53.7      0.00      0.09      79.6     0.34      1013.0     1       145         2       136        7.88     273      -19.3
   09/18/2017 06:30      56.4      56.1       91     53.8      0.00      0.09      79.7     0.34      1013.0     1       156         1       155        7.88     273      -20.8
   09/18/2017 06:20      56.4      56.1       91     53.8      0.00      0.09      79.7     0.34      1013.0     1       151         1       138        7.88     273      -21.2
   09/18/2017 06:10      56.5      56.3       91     54.0      0.00      0.09      79.7     0.34      1013.0     1       181         1       192        7.88     273      -22.5
   09/18/2017 06:00      56.9      56.4       91     54.0      0.00      0.09      80.2     0.34      1013.0     1       150         2       164        7.88     273      -22.7
   09/18/2017 05:50      56.9      56.5       91     54.1      0.00      0.09      79.8     0.34      1013.0     1       173         1       192        7.88     273      -23.1
   09/18/2017 05:40      56.8      56.4       91     53.9      0.00      0.09      79.7     0.34      1013.0     1       157         1       142        7.88     273      -23.8
   09/18/2017 05:30      56.6      56.4       90     53.7      0.00      0.09      79.8     0.34      1013.0     1       146         1       134        7.88     273      -24.9
   09/18/2017 05:20      56.9      56.5       90     53.9      0.00      0.09      80.1     0.34      1013.0     1       156         2       160        7.88     273      -25.6
   09/18/2017 05:10      57.1      56.9       90     54.0      0.00      0.09      79.8     0.34      1013.0     1       164         1       151        7.88     273      -26.1
   09/18/2017 05:00      57.5      57.2       89     54.3      0.00      0.09      80.0     0.34      1013.0     1       147         2       150        7.88     273      -27.0
   09/18/2017 04:50      57.5      57.3       89     54.3      0.00      0.09      79.8     0.34      1013.0     1       175         1       179        7.88     272      -28.2
   09/18/2017 04:40      57.6      57.5       89     54.4      0.00      0.09      80.1     0.35      1013.0     1       174         1       184        7.88     273      -28.9
   09/18/2017 04:30      57.6      57.3       89     54.2      0.00      0.09      80.3     0.35      1013.0     1       162         1       160        7.88     272      -30.7
   09/18/2017 04:20      57.4      57.2       88     53.9      0.00      0.09      80.1     0.35      1013.0     1       141         1       138        7.88     273      -32.7
   09/18/2017 04:10      57.6      57.3       88     53.9      0.00      0.09      79.9     0.35      1013.0     1       124         1       132        7.88     272      -34.0
   09/18/2017 04:00      58.0      57.7       88     54.3      0.00      0.09      80.2     0.35      1013.0     1       142         1       145        7.88     272      -35.4
   09/18/2017 03:50      58.0      57.7       88     54.4      0.00      0.09      80.2     0.35      1013.0     1       139         1       151        7.88     272      -37.3
   09/18/2017 03:40      58.1      57.8       88     54.2      0.00      0.09      79.8     0.35      1013.0     1       138         1       126        7.88     273      -39.1
   09/18/2017 03:30      58.2      58.0       87     54.3      0.00      0.09      80.1     0.35      1013.0     0       124         1       154        7.88     272      -41.0
   09/18/2017 03:20      58.4      58.0       87     54.4      0.00      0.09      80.4     0.35      1013.0     1       132         1       153        7.88     272      -43.9
   09/18/2017 03:10      58.6      58.0       87     54.4      0.00      0.09      80.0     0.35      1013.0     1       188         2       199        7.88     272      -45.4
   09/18/2017 03:00      58.4      58.1       87     54.3      0.00      0.09      80.4     0.35      1013.0     1       130         1       161        7.88     272      -46.6
   09/18/2017 02:50      58.8      58.4       86     54.5      0.00      0.09      80.2     0.35      1014.0     0        27         1       129        7.88     272      -47.0
   09/18/2017 02:40      59.0      58.7       86     54.8      0.00      0.09      80.4     0.35      1014.0     0       141         1       110        7.88     272      -49.3
   09/18/2017 02:30      58.9      58.7       85     54.4      0.00      0.09      80.5     0.35      1014.0     0       102         1       148        7.88     272      -51.9
   09/18/2017 02:20      59.3      59.0       85     54.8      0.00      0.09      80.5     0.35      1014.0     1        90         1       154        7.88     272      -53.3
   09/18/2017 02:10      59.5      59.0       85     54.6      0.00      0.09      80.2     0.35      1014.0     1       141         1       167        7.88     272      -54.8
   09/18/2017 02:00      59.7      59.1       84     54.5      0.00      0.09      80.4     0.35      1014.0     1        98         1       105        7.88     272      -56.8
   09/18/2017 01:50      60.3      59.8       83     54.8      0.00      0.09      80.6     0.35      1014.0     1       112         1       142        7.88     272      -57.7
   09/18/2017 01:40      60.6      60.2       82     54.9      0.00      0.09      80.6     0.35      1014.0     1       145         1         8        7.88     272      -58.5
   09/18/2017 01:30      61.1      60.7       81     55.3      0.00      0.09      80.4     0.35      1014.0     1       173         1       190        7.88     272      -59.3
   09/18/2017 01:20      61.3      61.2       81     55.4      0.00      0.09      80.6     0.35      1014.0     1       196         2       191        7.88     272      -59.9
   09/18/2017 01:10      61.5      61.1       81     55.4      0.00      0.09      80.8     0.35      1014.0     1       194         2       182        7.88     272      -60.4
   09/18/2017 01:00      61.3      60.9       82     55.5      0.00      0.09      80.6     0.35      1014.0     1       200         2       184        7.88     272      -60.4
   09/18/2017 00:50      61.0      60.9       82     55.4      0.00      0.09      80.6     0.35      1014.0     2       210         2       167        7.88     272      -59.6
   09/18/2017 00:40      61.3      60.9       81     55.2      0.00      0.09      80.7     0.35      1014.0     1       277         2       263        7.88     272      -59.8
   09/18/2017 00:30      61.6      61.1       80     55.1      0.00      0.09      80.6     0.35      1014.0     1        45         1        60        7.88     272      -61.2
   09/18/2017 00:20      62.0      61.8       80     55.5      0.00      0.09      80.5     0.35      1014.0     1       167         1       216        7.88     272      -62.0
   09/18/2017 00:10      62.5      62.1       79     55.6      0.00      0.09      80.5     0.35      1014.0     2       205         3       215        7.88     272      -62.1
   09/18/2017 00:00      62.5      62.4       78     55.7      0.00      0.09      80.9     0.35      1014.0     2       261         3       257        7.88     272      -63.1
   09/17/2017 23:50      62.9      62.6       78     55.9      0.00      0.09      80.6     0.35      1014.0     2       240         3       250        7.88     272      -63.8
   09/17/2017 23:40      63.1      62.7       78     55.9      0.00      0.09      80.9     0.35      1014.0     2       237         4       245        7.88     272      -64.1
   09/17/2017 23:30      63.0      62.8       78     55.9      0.00      0.09      80.7     0.35      1014.0     2       276         3       258        7.88     272      -64.3
   09/17/2017 23:20      63.1      62.9       78     55.9      0.00      0.09      80.7     0.35      1014.0     2       212         3       198        7.88     272      -64.4
   09/17/2017 23:10      63.3      63.0       77     56.0      0.00      0.09      80.8     0.35      1014.0     1       201         3       199        7.88     272      -64.7
   09/17/2017 23:00      63.3      63.1       77     56.0      0.00      0.09      80.6     0.35      1014.0     1       218         3       258        7.88     272      -65.3
   09/17/2017 22:50      63.5      63.3       77     55.9      0.00      0.09      80.6     0.35      1014.0     2       203         3       196        7.88     272      -65.7
   09/17/2017 22:40      63.6      63.4       76     56.0      0.00      0.09      80.9     0.35      1014.0     2       225         5       209        7.88     272      -66.1
   09/17/2017 22:30      63.9      63.6       76     55.9      0.00      0.09      80.9     0.35      1014.0     2       207         4       213        7.88     272      -66.5
   09/17/2017 22:20      64.2      63.9       75     56.0      0.00      0.09      80.6     0.35      1014.0     2       225         4       221        7.88     272      -67.0
   09/17/2017 22:10      64.4      64.2       74     56.0      0.00      0.09      80.8     0.35      1014.0     3       206         5       214        7.88     272      -66.9
   09/17/2017 22:00      64.5      64.3       74     55.9      0.00      0.09      80.7     0.35      1014.0     3       208         5       199        7.88     271      -67.4
   09/17/2017 21:50      64.8      64.6       73     56.0      0.00      0.09      80.8     0.35      1014.0     2       215         4       201        7.88     271      -67.3
   09/17/2017 21:40      65.3      64.8       73     56.0      0.00      0.09      80.5     0.35      1014.0     2       219         4       227        7.88     271      -67.2
   09/17/2017 21:30      65.4      65.2       72     56.0      0.00      0.09      80.9     0.35      1014.0     3       226         4       232        7.88     271      -67.3
   09/17/2017 21:20      65.7      65.4       71     56.0      0.00      0.09      80.9     0.35      1014.0     3       222         5       224        7.88     271      -67.6
   09/17/2017 21:10      66.0      65.8       71     56.1      0.00      0.09      81.1     0.35      1014.0     4       234         6       239        7.88     271      -67.7
   09/17/2017 21:00      66.4      66.1       70     56.2      0.00      0.09      80.6     0.35      1013.0     3       241         7       251        7.88     271      -68.2
   09/17/2017 20:50      66.7      66.3       69     56.2      0.00      0.09      80.8     0.35      1013.0     3       216         4       199        7.88     271      -68.7
   09/17/2017 20:40      67.1      66.8       68     56.3      0.00      0.09      80.8     0.35      1013.0     3       227         5       232        7.88     271      -69.3
   09/17/2017 20:30      67.4      67.1       68     56.2      0.00      0.09      80.7     0.35      1013.0     3       238         4       236        7.88     271      -69.7
   09/17/2017 20:20      67.8      67.3       67     56.2      0.00      0.09      80.7     0.35      1013.0     3       229         6       233        7.88     270      -70.5
   09/17/2017 20:10      68.2      67.8       66     56.3      0.00      0.09      80.7     0.35      1013.0     4       242         6       233        7.88     270      -71.0
   09/17/2017 20:00      69.0      68.3       65     56.4      0.00      0.09      80.8     0.35      1013.0     3       237         4       228        7.88     270      -71.5
   09/17/2017 19:50      69.3      69.0       64     56.6      0.00      0.09      80.8     0.35      1013.0     3       253         4       249        7.88     270      -72.2
   09/17/2017 19:40      70.0      69.3       63     56.7      0.00      0.09      80.7     0.35      1013.0     3       252         5       261        7.88     270      -73.0
   09/17/2017 19:30      70.3      70.0       63     56.8      0.00      0.09      80.8     0.35      1013.0     3       272         5       260        7.88     270      -73.2
   09/17/2017 19:20      71.1      70.5       62     56.9      0.00      0.09      80.6     0.35      1012.0     4       258         7       251        7.88     270      -73.5
   09/17/2017 19:10      71.3      71.0       61     57.1      0.00      0.09      80.5     0.35      1012.0     4       242         5       237        7.88     270      -73.0
   09/17/2017 19:00      71.5      71.2       60     57.0      0.00      0.09      81.0     0.35      1012.0     4       232         6       236        7.88     270      -71.0
   09/17/2017 18:50      72.0      71.7       60     57.0      0.00      0.09      81.0     0.35      1012.0     4       208         7       199        7.88     270      -66.5
   09/17/2017 18:40      72.3      72.1       58     56.9      0.00      0.09      80.7     0.35      1012.0     4       202         4       217        7.88     270      -60.8
   09/17/2017 18:30      73.0      72.4       58     57.0      0.00      0.09      80.6     0.35      1012.0     6       209         8       212        7.88     270      -49.4
   09/17/2017 18:20      73.3      72.8       57     57.0      0.00      0.09      80.6     0.34      1012.0     5       202         8       218        7.88     270      -32.1
   09/17/2017 18:10      73.5      73.2       56     57.0      0.00      0.09      80.4     0.34      1012.0     5       192         6       165        7.88     270      -17.2
   09/17/2017 18:00      74.2      73.3       56     57.0      0.00      0.09      80.4     0.34      1012.0     6       198         8       181        7.88     270        3.2
   09/17/2017 17:50      74.2      73.9       55     57.0      0.00      0.09      80.4     0.34      1012.0     5       184         7       234        7.88     270       23.5
   09/17/2017 17:40      74.9      74.5       54     56.8      0.00      0.09      80.7     0.34      1012.0     4       168         6       152        8.12     269       44.7
   09/17/2017 17:30      75.1      74.6       53     56.8      0.00      0.09      80.5     0.34      1012.0     5       186         8       165        8.13     269       67.2
   09/17/2017 17:20      75.1      74.8       53     56.8      0.00      0.09      80.3     0.34      1012.0     5       158         8       160        8.13     269       91.5
   09/17/2017 17:10      75.7      74.8       53     56.7      0.00      0.09      80.4     0.34      1012.0     5       157         8       143        8.13     269      105.6
   09/17/2017 17:00      75.8      75.4       52     56.8      0.00      0.09      80.4     0.34      1012.0     5       157         7       154        8.13     269      140.3
   09/17/2017 16:50      76.3      75.9       51     56.9      0.00      0.09      80.1     0.34      1012.0     5       153         8       174        8.13     269      159.6
   09/17/2017 16:40      77.0      76.0       51     56.9      0.00      0.09      80.2     0.34      1012.0     6       140         9       161        8.13     269      194.8
   09/17/2017 16:30      77.0      76.5       50     56.9      0.00      0.09      80.3     0.34      1012.0     4       169         6       197        8.14     269      215.7
   09/17/2017 16:20      77.3      76.5       50     56.8      0.00      0.09      80.4     0.34      1012.0     5       167         8       157        8.14     270      240.6
   09/17/2017 16:10      77.5      77.0       49     56.9      0.00      0.09      80.2     0.34      1012.0     3       122         7       193        8.14     270      248.4
   09/17/2017 16:00      77.5      77.2       49     56.9      0.00      0.09      80.0     0.34      1012.0     4       121         6        80        8.14     270      268.3
   09/17/2017 15:50      78.3      77.5       49     57.0      0.00      0.09      79.9     0.34      1012.0     4       128         8       133        8.14     270      291.5
   09/17/2017 15:40      77.6      77.0       50     57.1      0.00      0.09      80.1     0.34      1012.0     4       112         9       132        8.14     270      324.6
   09/17/2017 15:30      78.0      77.3       49     57.1      0.00      0.09      80.1     0.34      1013.0     4       147         6       138        8.14     270      342.5
   09/17/2017 15:20      78.3      77.6       49     57.3      0.00      0.09      80.0     0.34      1013.0     4       158         6       118        8.14     270      358.3
   09/17/2017 15:10      78.1      77.6       49     57.1      0.00      0.09      80.1     0.34      1013.0     3       175         7        72        8.14     270      380.8
   09/17/2017 15:00      79.2      77.8       48     57.2      0.00      0.09      80.0     0.34      1013.0     3       133         6       161        8.14     271      382.0
   09/17/2017 14:50      79.1      77.8       48     57.0      0.00      0.09      80.4     0.34      1013.0     3        20         4        15        8.14     271      367.8
   09/17/2017 14:40      78.5      77.8       48     56.9      0.00      0.09      79.8     0.34      1013.0     4        37         5        74        8.15     271      424.1
   09/17/2017 14:30      78.6      76.8       49     57.0      0.00      0.09      79.9     0.34      1013.0     3        57         5        74        8.15     271      400.4
   09/17/2017 14:20      76.9      76.0       51     56.8      0.00      0.09      79.7     0.34      1013.0     4        97         7       101        8.15     271      431.0
   09/17/2017 14:10      76.7      75.6       51     56.7      0.00      0.09      79.8     0.34      1014.0     4       178         6       133        8.15     271      515.2
   09/17/2017 14:00      77.0      75.9       50     56.8      0.00      0.09      79.9     0.34      1014.0     4       162         7       186        8.15     271      543.0
   09/17/2017 13:50      76.2      74.2       53     56.7      0.00      0.09      79.8     0.34      1014.0     3       284         5       300        8.15     272      491.3
   09/17/2017 13:40      74.7      73.4       54     56.8      0.00      0.09      79.9     0.34      1014.0     3       168         4       156        8.15     271      417.1
   09/17/2017 13:30      74.2      73.6       55     56.8      0.00      0.09      79.9     0.34      1014.0     3       176         5       167        8.15     271      264.2
   09/17/2017 13:20      75.6      73.1       54     57.1      0.00      0.09      79.8     0.34      1014.0     3        68         4       151        8.15     271      493.2
   09/17/2017 13:10      73.3      73.0       57     57.1      0.00      0.09      79.8     0.34      1014.0     3        58         5         2        8.15     272      276.2
   09/17/2017 13:00      73.7      72.9       57     57.1      0.00      0.09      79.8     0.34      1014.0     2        19         3        27        8.15     272      271.4
   09/17/2017 12:50      73.4      72.0       58     57.0      0.00      0.09      79.9     0.34      1014.0     2        53         5        72        8.15     272      191.8
   09/17/2017 12:40      73.3      71.9       58     56.7      0.00      0.09      80.0     0.34      1014.0     3       160         4        94        8.15     272      197.4
   09/17/2017 12:30      73.6      71.9       57     57.0      0.00      0.09      79.7     0.34      1014.0     3       188         4       157        8.15     272      274.9
   09/17/2017 12:20      71.6      71.2       60     56.9      0.00      0.09      79.8     0.34      1015.0     4       191         5       188        8.15     272      418.2
   09/17/2017 12:10      71.6      71.1       61     57.3      0.00      0.09      80.0     0.34      1015.0     3       176         5       136        8.15     272      270.3
   09/17/2017 12:00      71.2      70.5       62     57.2      0.00      0.09      80.0     0.34      1015.0     3       229         4       235        8.15     272      177.8
   09/17/2017 11:50      72.1      71.3       60     57.1      0.00      0.09      79.7     0.34      1015.0     2       163         4       122        8.16     272      161.2
   09/17/2017 11:40      71.8      71.2       61     57.2      0.00      0.09      80.1     0.34      1015.0     2       343         4       327        8.16     272      213.8
   09/17/2017 11:30      71.5      70.8       62     57.4      0.00      0.09      79.8     0.34      1015.0     3         9         4        14        8.16     272      323.7
   09/17/2017 11:20      71.5      70.4       63     57.5      0.00      0.09      79.8     0.34      1015.0     3       330         5         1        8.16     273      284.1
   09/17/2017 11:10      70.7      69.2       64     57.5      0.00      0.09      79.8     0.34      1015.0     2       304         3       258        8.16     273      307.8
   09/17/2017 11:00      69.3      68.7       67     57.4      0.00      0.09      80.1     0.34      1015.0     3       293         6       308        8.16     273      239.8
   09/17/2017 10:50      69.3      68.3       67     57.4      0.00      0.09      79.8     0.34      1015.0     2       216         4       210        8.16     273      268.4
   09/17/2017 10:40      68.3      68.0       69     57.6      0.00      0.09      80.2     0.34      1015.0     3       290         5       262        8.16     273      277.0
   09/17/2017 10:30      68.3      67.3       70     57.7      0.00      0.09      80.0     0.34      1015.0     2       244         4       241        8.16     273      312.5
   09/17/2017 10:20      67.4      66.2       73     57.9      0.00      0.09      80.0     0.35      1015.0     1       237         3       246        8.16     273      180.9
   09/17/2017 10:10      66.3      65.4       76     57.9      0.00      0.09      79.8     0.35      1015.0     1       287         2       241        8.16     273       83.7
   09/17/2017 10:00      65.4      65.1       76     57.7      0.00      0.09      79.6     0.35      1015.0     2       199         3       182        8.16     273       41.9
   09/17/2017 09:50      65.4      65.1       76     57.6      0.00      0.09      79.8     0.35      1015.0     2       183         2       174        8.16     273       23.8
   09/17/2017 09:40      65.5      65.2       76     57.6      0.00      0.09      80.3     0.35      1015.0     1       169         2       143        8.16     273       22.2
   09/17/2017 09:30      65.4      65.0       76     57.5      0.00      0.09      79.8     0.35      1015.0     2       143         3       146        8.16     273       19.9
   09/17/2017 09:20      65.2      64.9       76     57.5      0.00      0.09      80.0     0.35      1015.0     2       183         2       195        8.16     273       31.0
   09/17/2017 09:10      65.1      64.8       77     57.5      0.00      0.09      80.3     0.35      1015.0     2       196         3       188        8.16     273       44.8
   09/17/2017 09:00      65.1      64.8       76     57.4      0.00      0.09      79.8     0.35      1015.0     2       200         3       182        8.16     273       43.6
   09/17/2017 08:50      65.3      65.1       76     57.3      0.00      0.09      80.2     0.35      1015.0     2       181         3       182        8.16     273       23.8
   09/17/2017 08:40      65.4      65.2       75     57.1      0.00      0.09      80.0     0.35      1014.0     1       201         3       186        8.16     273       21.8
   09/17/2017 08:30      65.4      65.2       75     57.1      0.00      0.09      80.1     0.35      1014.0     1       155         2       173        8.16     273       24.0
   09/17/2017 08:20      65.3      64.8       74     56.8      0.00      0.09      80.2     0.35      1014.0     1       102         2        84        8.16     273       26.3
   09/17/2017 08:10      65.1      65.0       75     56.8      0.00      0.09      80.2     0.35      1014.0     1       102         2        96        8.16     273       24.8
   09/17/2017 08:00      65.1      64.7       75     56.7      0.00      0.09      80.4     0.35      1014.0     1       189         1       196        8.16     273       21.5
   09/17/2017 07:50      64.8      64.6       75     56.7      0.00      0.09      80.1     0.35      1014.0     1       115         2       133        8.16     273       19.2
   09/17/2017 07:40      64.8      64.3       75     56.5      0.00      0.09      80.1     0.35      1014.0     1        89         2        75        8.16     273       10.9
   09/17/2017 07:30      64.5      64.1       76     56.5      0.00      0.09      80.2     0.35      1014.0     1        97         1       144        8.16     273        4.6
   09/17/2017 07:20      64.1      63.8       77     56.4      0.00      0.09      80.2     0.35      1014.0     1        86         2        72        8.16     273       -1.7
   09/17/2017 07:10      63.9      63.7       77     56.4      0.00      0.09      80.4     0.35      1014.0     1        74         1        71        8.16     273       -6.2
   09/17/2017 07:00      64.0      63.8       76     56.2      0.00      0.09      80.4     0.35      1014.0     2       132         3       179        8.16     273       -9.9
   09/17/2017 06:50      64.2      63.9       74     55.6      0.00      0.09      80.1     0.35      1014.0     1       146         2       115        8.16     273      -11.4
   09/17/2017 06:40      64.2      64.0       73     55.4      0.00      0.09      80.5     0.35      1014.0     1        78         1        41        8.16     273      -12.2
   09/17/2017 06:30      64.1      63.9       73     55.3      0.00      0.09      80.3     0.35      1014.0     1        63         1        58        8.16     273      -12.7
   09/17/2017 06:20      64.0      63.8       74     55.3      0.00      0.09      80.1     0.35      1013.0     1       316         1       337        8.16     273      -12.9
   09/17/2017 06:10      63.9      63.8       74     55.3      0.00      0.09      80.3     0.35      1014.0     2       330         2       318        8.16     273      -12.6
   09/17/2017 06:00      64.0      63.6       74     55.4      0.00      0.09      80.7     0.35      1013.0     1       330         3       332        8.16     273      -12.3
   09/17/2017 05:50      63.9      63.6       74     55.4      0.00      0.09      80.4     0.35      1013.0     2         1         2       359        8.16     273      -12.1
   09/17/2017 05:40      63.8      63.4       74     55.3      0.00      0.09      80.4     0.35      1013.0     2       332         3       339        8.16     273      -11.8
   09/17/2017 05:30      63.5      63.2       75     55.2      0.00      0.09      80.5     0.35      1013.0     2       316         3       331        8.17     273      -11.7
   09/17/2017 05:20      63.4      63.2       75     55.2      0.00      0.09      80.8     0.35      1013.0     1       351         2       315        8.17     273      -11.5
   09/17/2017 05:10      63.3      62.9       75     55.1      0.00      0.09      80.4     0.35      1013.0     0       129         1       123        8.17     273      -11.8
   09/17/2017 05:00      63.0      62.8       75     55.0      0.00      0.09      80.5     0.35      1013.0     0       111         1       139        8.17     273      -11.6
   09/17/2017 04:50      63.0      62.5       76     55.0      0.00      0.09      80.6     0.35      1013.0     0       126         1       135        8.17     273      -11.9
   09/17/2017 04:40      62.7      62.3       76     54.9      0.00      0.09      81.2     0.35      1013.0     1       160         1       151        8.17     273      -11.7
   09/17/2017 04:30      62.3      61.9       77     54.7      0.00      0.09      80.5     0.35      1013.0     1       189         1       160        8.17     273      -11.0
   09/17/2017 04:20      62.1      61.6       77     54.7      0.00      0.09      80.8     0.35      1013.0     1       130         1       184        8.17     273      -10.5
   09/17/2017 04:10      61.8      61.0       78     54.6      0.00      0.09      80.8     0.35      1013.0     1       153         1       122        8.17     272      -10.1
   09/17/2017 04:00      61.1      60.6       80     54.6      0.00      0.09      81.0     0.35      1013.0     0       178         0       180        8.17     273       -9.4
   09/17/2017 03:50      60.6      60.1       81     54.6      0.00      0.09      80.8     0.35      1013.0     1       104         1       153        8.17     272       -9.9
   09/17/2017 03:40      60.1      59.4       83     54.4      0.00      0.09      80.9     0.35      1013.0     1       154         1       156        8.17     272      -12.3
   09/17/2017 03:30      59.4      58.9       83     54.0      0.00      0.09      80.9     0.35      1013.0     1       132         1       154        8.17     272      -13.7
   09/17/2017 03:20      59.3      58.9       83     53.9      0.00      0.09      80.8     0.35      1013.0     1       100         1       142        8.17     272      -34.3
   09/17/2017 03:10      59.5      59.3       84     54.4      0.00      0.09      81.0     0.35      1013.0     0       284         1       184        8.17     272      -51.0
   09/17/2017 03:00      59.4      59.1       83     54.1      0.00      0.09      81.0     0.35      1012.0     1       159         2       145        8.17     272      -53.6
   09/17/2017 02:50      59.5      59.4       83     54.3      0.00      0.09      80.6     0.35      1012.0     2       163         3       150        8.17     272      -54.0
   09/17/2017 02:40      59.7      59.3       82     54.2      0.00      0.09      80.7     0.35      1013.0     1       176         1       176        8.17     272      -54.4
   09/17/2017 02:30      59.9      59.6       82     54.4      0.00      0.09      81.0     0.35      1013.0     1       150         2       149        8.17     272      -54.7
   09/17/2017 02:20      60.0      59.9       82     54.4      0.00      0.09      81.0     0.35      1013.0     0       297         1       309        8.17     272      -53.9
   09/17/2017 02:10      60.1      59.9       81     54.2      0.00      0.09      81.1     0.35      1013.0     1       157         2       153        8.17     272      -55.3
   09/17/2017 02:00      60.3      60.1       82     54.6      0.00      0.09      81.1     0.35      1013.0     1       179         2       133        8.17     272      -54.2
   09/17/2017 01:50      60.5      60.3       81     54.7      0.00      0.09      81.1     0.35      1013.0     0       225         1       172        8.17     272      -54.3
   09/17/2017 01:40      60.6      60.4       81     54.7      0.00      0.09      81.1     0.35      1013.0     1       165         1       185        8.17     271      -54.6
   09/17/2017 01:30      60.8      60.6       80     54.6      0.00      0.09      81.1     0.35      1013.0     1       162         1       164        8.17     271      -55.4
   09/17/2017 01:20      60.6      60.4       81     54.6      0.00      0.09      81.2     0.35      1013.0     1       198         1       193        8.17     272      -55.2
   09/17/2017 01:10      60.5      60.2       80     54.1      0.00      0.09      81.1     0.35      1013.0     1       154         2       137        8.17     271      -56.5
   09/17/2017 01:00      60.9      60.4       80     54.6      0.00      0.09      81.1     0.35      1013.0     1       141         2       137        8.17     271      -57.5
   09/17/2017 00:50      61.2      60.9       79     54.5      0.00      0.09      81.1     0.35      1013.0     2       168         3       169        8.17     271      -57.7
   09/17/2017 00:40      61.4      61.0       78     54.6      0.00      0.09      81.2     0.35      1013.0     2       200         2       219        8.17     271      -57.2
   09/17/2017 00:30      61.2      60.9       78     54.2      0.00      0.09      80.9     0.35      1013.0     2       198         2       212        8.17     271      -57.2
   09/17/2017 00:20      61.5      61.2       78     54.3      0.00      0.09      81.2     0.35      1013.0     2       149         2       157        8.17     271      -58.4
   09/17/2017 00:10      62.2      61.7       75     54.1      0.00      0.09      81.2     0.35      1013.0     1        23         1       115        8.17     271      -58.4
   09/17/2017 00:00      62.5      62.3       76     54.6      0.00      0.09      81.3     0.35      1013.0     1       165         1       182        8.17     271      -59.9
   09/16/2017 23:50      62.8      62.3       75     54.6      0.00      0.09      81.4     0.35      1013.0     2       239         3       235        8.18     271      -59.7
   09/16/2017 23:40      62.8      62.5       75     54.8      0.00      0.09      81.4     0.35      1013.0     1       221         2       215        8.23     271      -60.0
   09/16/2017 23:30      63.0      62.7       75     54.9      0.00      0.09      81.4     0.35      1013.0     1       194         2       178        8.23     271      -60.5
   09/16/2017 23:20      63.3      63.1       74     54.8      0.00      0.09      81.3     0.35      1013.0     1       222         2       253        8.23     271      -59.9
   09/16/2017 23:10      63.8      63.3       73     54.9      0.00      0.09      81.4     0.35      1013.0     1       217         2       188        8.23     271      -60.2
   09/16/2017 23:00      64.0      63.8       73     55.1      0.00      0.09      81.3     0.35      1013.0     1       192         2       198        8.23     271      -61.0
   09/16/2017 22:50      64.1      63.8       73     55.1      0.00      0.09      81.3     0.35      1013.0     1       200         2       206        8.23     271      -61.0
   09/16/2017 22:40      64.1      63.9       73     55.0      0.00      0.09      81.3     0.35      1013.0     1       223         2       215        8.24     271      -52.7
   09/16/2017 22:30      64.2      64.0       72     55.1      0.00      0.09      81.3     0.35      1013.0     1       194         1       212        8.24     271      -49.0
   09/16/2017 22:20      64.4      63.9       72     55.0      0.00      0.09      81.1     0.35      1013.0     1       182         2       204        8.24     271      -53.8
   09/16/2017 22:10      64.7      64.2       71     55.0      0.00      0.09      81.2     0.35      1013.0     1       158         1       145        8.24     271      -60.8
   09/16/2017 22:00      64.7      64.6       71     55.2      0.00      0.09      81.5     0.35      1013.0     2       212         3       215        8.24     271      -65.4
   09/16/2017 21:50      65.0      64.7       71     55.2      0.00      0.09      81.1     0.35      1013.0     2       198         2       207        8.24     271      -65.4
   09/16/2017 21:40      65.4      64.9       70     55.2      0.00      0.09      81.5     0.35      1012.0     2       209         3       206        8.24     271      -66.9
   09/16/2017 21:30      65.5      65.3       70     55.2      0.00      0.09      81.4     0.35      1012.0     2       223         4       235        8.24     271      -66.8
   09/16/2017 21:20      65.7      65.3       69     55.2      0.00      0.09      81.1     0.35      1012.0     2       211         2       226        8.24     271      -66.8
   09/16/2017 21:10      66.3      65.9       68     55.3      0.00      0.09      81.4     0.35      1012.0     2       204         3       193        8.24     271      -68.3
   09/16/2017 21:00      66.5      66.3       67     55.3      0.00      0.09      81.1     0.35      1012.0     1       212         3       210        8.24     271      -68.9
   09/16/2017 20:50      66.5      66.3       67     55.1      0.00      0.09      81.1     0.35      1012.0     2       212         4       204        8.24     271      -69.0
   09/16/2017 20:40      66.8      66.5       66     55.0      0.00      0.09      81.3     0.35      1012.0     2       196         3       188        8.25     271      -69.5
   09/16/2017 20:30      66.8      66.5       66     54.9      0.00      0.09      81.4     0.35      1012.0     3       198         5       199        8.25     271      -70.2
   09/16/2017 20:20      66.7      66.7       65     54.6      0.00      0.09      81.2     0.35      1012.0     2       184         3       192        8.24     271      -71.0
   09/16/2017 20:10      67.0      66.7       64     54.5      0.00      0.09      81.1     0.35      1012.0     2       175         3       151        8.25     270      -71.8
   09/16/2017 20:00      67.3      67.1       64     54.5      0.00      0.09      81.1     0.35      1012.0     2       186         3       196        8.25     270      -72.1
   09/16/2017 19:50      67.5      67.2       63     54.5      0.00      0.09      81.0     0.35      1012.0     3       184         4       181        8.25     270      -72.0
   09/16/2017 19:40      67.8      67.5       63     54.5      0.00      0.09      81.2     0.35      1011.0     3       174         5       170        8.25     270      -72.0
   09/16/2017 19:30      68.3      67.8       62     54.7      0.00      0.09      81.2     0.35      1011.0     4       168         7       168        8.25     270      -73.7
   09/16/2017 19:20      68.8      68.3       61     54.8      0.00      0.09      81.2     0.35      1011.0     3       171         5       142        8.25     270      -74.6
   09/16/2017 19:10      69.2      68.8       61     54.9      0.00      0.09      81.1     0.35      1011.0     3       177         4       183        8.25     270      -73.2
   09/16/2017 19:00      69.6      69.1       60     55.0      0.00      0.09      81.0     0.35      1011.0     4       176         7       170        8.25     270      -69.7
   09/16/2017 18:50      70.1      69.6       60     55.2      0.00      0.09      81.1     0.35      1011.0     5       168         7       144        8.25     269      -62.8
   09/16/2017 18:40      71.0      70.2       59     55.5      0.00      0.09      81.0     0.35      1011.0     6       174         9       162        8.25     269      -56.2
   09/16/2017 18:30      72.3      71.3       57     55.8      0.00      0.09      81.2     0.35      1011.0     5       176         7       164        8.25     269      -48.4
   09/16/2017 18:20      73.3      72.5       56     56.1      0.00      0.09      80.9     0.35      1011.0     5       165         8       165        8.25     269      -32.7
   09/16/2017 18:10      74.2      73.4       55     56.4      0.00      0.09      81.2     0.35      1011.0     4       164         6       152        8.25     269      -34.6
   09/16/2017 18:00      74.4      74.2       54     56.6      0.00      0.09      80.9     0.35      1010.0     5       155         8       160        8.25     269       -0.9
   09/16/2017 17:50      75.2      74.6       53     56.8      0.00      0.09      80.8     0.35      1011.0     5       167         7       160        8.25     269       38.1
   09/16/2017 17:40      75.6      75.2       53     56.9      0.00      0.09      80.6     0.35      1011.0     5       168         7       158        8.25     269       57.9
   09/16/2017 17:30      75.9      75.4       52     57.0      0.00      0.09      80.8     0.35      1011.0     5       169         7       186        8.25     269       84.9
   09/16/2017 17:20      76.3      75.3       52     57.0      0.00      0.09      80.8     0.35      1011.0     5       175         6       168        8.25     269       87.6
   09/16/2017 17:10      76.8      75.8       52     57.2      0.00      0.09      80.7     0.35      1011.0     5       154         8       147        8.25     269       94.8
   09/16/2017 17:00      77.6      76.8       50     57.4      0.00      0.09      80.5     0.35      1011.0     5       155         7       208        8.26     269      143.2
   09/16/2017 16:50      77.5      77.2       50     57.5      0.00      0.09      80.6     0.35      1011.0     4       138         7       178        8.26     269      178.7
   09/16/2017 16:40      77.8      77.3       50     57.3      0.00      0.09      80.3     0.35      1011.0     5       160         9       159        8.26     269      204.5
   09/16/2017 16:30      78.1      77.3       50     57.4      0.00      0.09      80.4     0.35      1011.0     5       150         8       176        8.26     269      228.1
   09/16/2017 16:20      77.8      77.0       50     57.3      0.00      0.09      80.3     0.35      1011.0     4       156         7       152        8.26     269      248.0
   09/16/2017 16:10      77.3      76.8       50     57.1      0.00      0.09      80.4     0.35      1011.0     5       169         8       127        8.26     269      246.0
   09/16/2017 16:00      77.5      76.8       50     57.0      0.00      0.09      80.3     0.35      1011.0     6       153         8       118        8.26     269      269.8
   09/16/2017 15:50      77.6      77.1       50     57.0      0.00      0.09      80.2     0.35      1011.0     7       132         9       136        8.26     269      293.5
   09/16/2017 15:40      77.7      77.2       49     57.0      0.00      0.09      80.2     0.35      1011.0     7       153        10       175        8.26     269      329.2
   09/16/2017 15:30      78.3      77.8       49     57.1      0.00      0.09      80.1     0.35      1011.0     6       165        10       170        8.26     269      338.4
   09/16/2017 15:20      78.5      77.7       49     57.2      0.00      0.09      80.0     0.35      1011.0     5       160         8       160        8.26     270      366.2
   09/16/2017 15:10      79.4      78.4       48     57.2      0.00      0.09      80.0     0.35      1011.0     6       140         9       144        8.26     270      366.6
   09/16/2017 15:00      79.1      78.0       48     57.3      0.00      0.09      79.9     0.35      1011.0     6       156         9       153        8.26     270      396.8
   09/16/2017 14:50      77.8      76.8       50     57.1      0.00      0.09      80.1     0.35      1011.0     6       156         9       152        8.26     270      414.8
   09/16/2017 14:40      79.3      77.8       48     57.4      0.00      0.09      79.9     0.35      1011.0     6       170         8       143        8.26     270      423.2
   09/16/2017 14:30      79.3      78.1       48     57.4      0.00      0.09      80.0     0.35      1011.0     6       189         7       223        8.26     270      437.6
   09/16/2017 14:20      79.5      77.6       49     57.6      0.00      0.09      79.8     0.35      1011.0     5       132         9       153        8.26     270      451.1
   09/16/2017 14:10      79.3      77.6       49     57.5      0.00      0.09      79.7     0.34      1011.0     6       146        10       167        8.26     270      465.3
   09/16/2017 14:00      80.5      78.9       48     57.8      0.00      0.09      79.8     0.34      1011.0     5       136         9       140        8.27     270      467.8
   09/16/2017 13:50      80.6      78.9       46     57.2      0.00      0.09      79.9     0.34      1012.0     3       116         6       133        8.26     270      474.2
   09/16/2017 13:40      80.8      78.9       45     56.7      0.00      0.09      79.6     0.34      1012.0     4       152         7       129        8.26     270      477.5
   09/16/2017 13:30      80.9      79.6       44     56.6      0.00      0.09      79.8     0.34      1012.0     3        36         5        70        8.27     270      477.1
   09/16/2017 13:20      80.3      79.4       45     56.4      0.00      0.09      79.5     0.34      1012.0     3        34         4       359        8.27     270      488.7
   09/16/2017 13:10      80.8      79.3       44     56.1      0.00      0.09      79.6     0.34      1012.0     3        18         4        70        8.27     270      495.7
   09/16/2017 13:00      79.5      78.7       45     56.1      0.00      0.09      79.8     0.34      1012.0     3        25         5        17        8.27     271      497.3
   09/16/2017 12:50      79.1      78.6       44     55.4      0.00      0.09      79.7     0.34      1012.0     3        16         6        19        8.27     271      501.8
   09/16/2017 12:40      78.6      77.8       45     55.2      0.00      0.09      79.5     0.34      1012.0     2       264         5       280        8.27     271      504.4
   09/16/2017 12:30      77.8      76.2       48     55.4      0.00      0.09      79.7     0.34      1012.0     2       325         4       262        8.27     271      505.1
   09/16/2017 12:20      76.9      75.2       49     55.5      0.00      0.09      80.1     0.34      1013.0     3       168         5       174        8.27     271      503.8
   09/16/2017 12:10      76.4      75.5       50     55.9      0.00      0.09      79.9     0.34      1013.0     4       114         8       141        8.27     271      497.1
   09/16/2017 12:00      75.8      75.3       50     55.5      0.00      0.09      79.6     0.34      1013.0     2       353         3       357        8.27     271      489.5
   09/16/2017 11:50      76.0      75.2       50     55.6      0.00      0.09      79.7     0.34      1013.0     2        23         4        81        8.27     272      489.2
   09/16/2017 11:40      75.8      74.8       51     56.0      0.00      0.09      79.7     0.34      1013.0     3       114         6        94        8.27     272      485.1
   09/16/2017 11:30      75.6      74.3       53     56.3      0.00      0.09      79.9     0.34      1013.0     3        89         5       124        8.27     272      473.0
   09/16/2017 11:20      74.5      73.4       54     56.2      0.00      0.09      79.8     0.34      1013.0     3       349         5       356        8.27     272      474.4
   09/16/2017 11:10      73.9      73.3       55     56.3      0.00      0.09      80.1     0.34      1013.0     4       325         7       330        8.27     272      464.9
   09/16/2017 11:00      74.0      72.5       56     56.4      0.00      0.09      80.1     0.34      1014.0     3        27         6        81        8.27     272      452.9
   09/16/2017 10:50      73.6      72.9       57     57.0      0.00      0.09      79.8     0.35      1014.0     3        13         6       358        8.27     272      442.1
   09/16/2017 10:40      73.2      72.2       58     57.1      0.00      0.09      79.5     0.35      1014.0     2        73         3        81        8.27     272      435.2
   09/16/2017 10:30      72.2      69.7       61     56.9      0.00      0.09      79.7     0.35      1014.0     2       321         3       344        8.27     272      421.2
   09/16/2017 10:20      69.9      69.5       63     56.7      0.00      0.09      79.7     0.35      1014.0     2       352         3         0        8.27     273      137.8
   09/16/2017 10:10      69.9      69.5       63     56.7      0.00      0.09      79.6     0.35      1014.0     1       333         3       313        8.27     273       72.0
   09/16/2017 10:00      70.4      69.5       63     56.8      0.00      0.09      79.9     0.35      1014.0     2       255         5       263        8.27     273       97.9
   09/16/2017 09:50      71.9      70.7       61     57.1      0.00      0.09      80.2     0.35      1014.0     3       290         5       307        8.27     273      247.7
   09/16/2017 09:40      72.0      70.4       61     57.3      0.00      0.09      80.2     0.35      1014.0     2       328         2       339        8.28     273      345.8
   09/16/2017 09:30      70.3      69.8       63     57.0      0.00      0.09      80.3     0.35      1014.0     2        98         3         0        8.28     273      306.1
   09/16/2017 09:20      70.3      68.6       64     57.0      0.00      0.09      80.2     0.35      1014.0     2        62         2        36        8.28     273      280.6
   09/16/2017 09:10      68.7      67.8       66     56.5      0.00      0.09      80.0     0.35      1014.0     1        23         3        24        8.28     273      255.6
   09/16/2017 09:00      67.9      67.3       67     56.2      0.00      0.09      80.3     0.35      1014.0     1        11         2       116        8.28     273      232.4
   09/16/2017 08:50      67.7      66.9       67     55.9      0.00      0.09      80.1     0.35      1014.0     1       328         1       330        8.28     273      204.1
   09/16/2017 08:40      66.8      65.8       68     55.6      0.00      0.09      80.0     0.35      1013.0     1       200         2       238        8.28     273      174.6
   09/16/2017 08:30      65.8      65.1       69     55.1      0.00      0.09      79.8     0.35      1013.0     1       318         1       323        8.28     274      145.4
   09/16/2017 08:20      65.3      64.8       70     54.9      0.00      0.09      80.2     0.35      1013.0     1       349         2       332        8.28     274      110.7
   09/16/2017 08:10      65.2      63.8       70     54.8      0.00      0.09      80.5     0.35      1013.0     1        11         2       331        8.28     273      107.0
   09/16/2017 08:00      63.8      63.5       72     54.5      0.00      0.09      79.9     0.35      1013.0     1       353         1       342        8.28     273       99.7
   09/16/2017 07:50      63.5      61.2       80     56.1      0.00      0.09      80.7     0.35      1013.0     1        16         1        55        8.29     273       97.3
   09/16/2017 07:40      61.1      58.7       86     55.5      0.00      0.09      80.3     0.35      1013.0     0         2         1         6        8.28     273       84.8
   09/16/2017 07:30      58.5      57.7       88     54.3      0.00      0.09      80.4     0.35      1013.0     1       137         1       145        8.28     273       55.0
   09/16/2017 07:20      57.6      56.9       90     54.1      0.00      0.09      80.2     0.35      1013.0     0       144         1       125        8.28     273       21.6
   09/16/2017 07:10      56.9      56.2       90     53.7      0.00      0.09      80.4     0.35      1013.0     1       155         1       143        8.28     273        1.5
   09/16/2017 07:00      56.4      56.1       90     53.4      0.00      0.09      80.4     0.35      1013.0     1       164         1       140        8.29     273       -9.6
   09/16/2017 06:50      56.4      56.0       90     53.2      0.00      0.09      80.5     0.35      1013.0     1       120         1       143        8.29     273      -15.8
   09/16/2017 06:40      56.1      55.9       90     53.1      0.00      0.09      80.6     0.35      1013.0     1       160         1       122        8.29     272      -20.0
   09/16/2017 06:30      56.3      56.0       90     53.1      0.00      0.09      80.5     0.35      1013.0     1       148         2       144        8.29     273      -22.4
   09/16/2017 06:20      56.5      56.2       90     53.4      0.00      0.09      80.5     0.35      1013.0     1       166         1       164        8.29     272      -22.9
   09/16/2017 06:10      56.5      56.1       89     53.1      0.00      0.09      80.3     0.35      1013.0     1       149         2       126        8.29     273      -23.3
   09/16/2017 06:00      56.7      56.5       90     53.6      0.00      0.09      80.7     0.35      1013.0     1       148         2       133        8.29     273      -23.8
   09/16/2017 05:50      56.8      56.5       89     53.5      0.00      0.09      80.8     0.35      1013.0     0       193         1       156        8.29     272      -24.2
   09/16/2017 05:40      56.6      56.4       89     53.4      0.00      0.09      80.8     0.35      1013.0     1       147         1       173        8.29     272      -24.9
   09/16/2017 05:30      56.6      56.3       89     53.4      0.00      0.09      80.6     0.35      1013.0     1       157         2       160        8.29     273      -26.6
   09/16/2017 05:20      56.7      56.4       89     53.4      0.00      0.09      80.8     0.35      1013.0     1       146         2       154        8.29     272      -27.2
   09/16/2017 05:10      56.6      56.2       89     53.2      0.00      0.09      80.9     0.35      1013.0     1       159         2       165        8.29     272      -29.5
   09/16/2017 05:00      56.5      56.3       88     53.0      0.00      0.09      81.1     0.35      1012.0     2       142         2       160        8.29     272      -30.7
   09/16/2017 04:50      57.0      56.5       88     53.2      0.00      0.09      80.9     0.35      1012.0     1       131         1       126        8.29     272      -31.7
   09/16/2017 04:40      57.1      56.9       88     53.5      0.00      0.09      80.9     0.35      1012.0     1       108         1       126        8.29     272      -33.1
   09/16/2017 04:30      57.4      57.2       88     53.9      0.00      0.09      80.9     0.35      1012.0     1       160         2       133        8.29     272      -34.7
   09/16/2017 04:20      57.5      57.0       88     53.6      0.00      0.09      80.7     0.35      1012.0     1       176         2       143        8.29     272      -36.5
   09/16/2017 04:10      57.6      57.3       88     53.8      0.00      0.09      80.8     0.36      1012.0     1       151         2       111        8.29     272      -38.7
   09/16/2017 04:00      57.8      57.4       87     53.6      0.00      0.09      81.0     0.35      1012.0     1       143         2       127        8.29     272      -40.0
   09/16/2017 03:50      58.0      57.8       87     54.0      0.00      0.09      81.3     0.36      1012.0     1       204         1       125        8.29     272      -41.5
   09/16/2017 03:40      58.1      57.8       87     54.0      0.00      0.09      81.0     0.36      1012.0     1       180         1       184        8.30     272      -43.0
   09/16/2017 03:30      58.1      57.8       86     53.8      0.00      0.09      81.6     0.36      1012.0     1       167         1       186        8.30     272      -46.2
   09/16/2017 03:20      58.4      58.0       86     54.0      0.00      0.09      81.0     0.36      1012.0     1       159         2       175        8.30     272      -48.0
   09/16/2017 03:10      58.4      58.0       86     54.0      0.00      0.09      80.8     0.36      1012.0     1       150         2       128        8.30     272      -49.2
   09/16/2017 03:00      58.5      58.3       86     54.2      0.00      0.09      81.2     0.36      1012.0     2       138         2       155        8.30     272      -44.3
   09/16/2017 02:50      58.9      58.5       86     54.5      0.00      0.09      81.3     0.36      1012.0     2       147         2       143        8.30     272      -49.5
   09/16/2017 02:40      59.3      59.0       86     54.9      0.00      0.09      81.3     0.36      1012.0     1       144         1       135        8.30     272      -51.8
   09/16/2017 02:30      59.3      59.2       85     54.8      0.00      0.09      80.8     0.36      1012.0     1       150         1       145        8.30     272      -54.3
   09/16/2017 02:20      59.5      59.3       85     54.8      0.00      0.09      81.7     0.36      1012.0     1       155         1       143        8.30     272      -56.3
   09/16/2017 02:10      59.5      59.2       85     54.9      0.00      0.09      81.1     0.36      1012.0     1       133         2       141        8.30     272      -47.8
   09/16/2017 02:00      59.4      59.2       85     54.8      0.00      0.09      81.4     0.36      1012.0     1       145         2       132        8.30     272      -31.1
   09/16/2017 01:50      59.8      59.3       85     54.9      0.00      0.09      81.1     0.36      1012.0     1       154         2       142        8.30     272      -48.7
   09/16/2017 01:40      59.9      59.6       85     55.1      0.00      0.09      81.5     0.36      1012.0     1       162         1       159        8.30     272      -54.7
   09/16/2017 01:30      59.9      59.6       84     54.9      0.00      0.09      81.4     0.36      1012.0     1       169         1       135        8.30     272      -57.4
   09/16/2017 01:20      60.0      59.9       83     54.6      0.00      0.09      81.4     0.36      1012.0     1       159         1       143        8.30     272      -59.9
   09/16/2017 01:10      60.1      59.8       82     54.4      0.00      0.09      81.6     0.36      1012.0     1       176         1       132        8.30     272      -60.4
   09/16/2017 01:00      60.3      60.1       82     54.5      0.00      0.09      81.4     0.36      1012.0     1       140         2       136        8.31     272      -61.8
   09/16/2017 00:50      60.3      60.0       82     54.6      0.00      0.09      81.5     0.36      1012.0     1       163         2       152        8.31     271      -56.1
   09/16/2017 00:40      60.3      60.0       81     54.3      0.00      0.09      81.5     0.36      1012.0     1       172         1       161        8.31     271      -56.7
   09/16/2017 00:30      60.4      60.2       80     54.0      0.00      0.09      81.9     0.36      1012.0     2       142         2       132        8.31     271      -61.5
   09/16/2017 00:20      60.4      60.2       80     54.0      0.00      0.09      81.6     0.36      1012.0     1       188         1       136        8.31     271      -62.4
   09/16/2017 00:10      60.7      60.3       78     53.8      0.00      0.09      81.4     0.36      1012.0     2       143         2       145        8.31     271      -62.9
   09/16/2017 00:00      61.0      60.8       78     54.0      0.00      0.09      81.8     0.36      1012.0     1       181         1       129        8.31     271      -62.4
   09/15/2017 23:50      61.3      61.1       77     53.8      0.00      0.09      81.6     0.36      1012.0     1       146         2       140        8.32     271      -63.2
   09/15/2017 23:40      61.3      61.2       77     53.9      0.00      0.09      81.8     0.36      1012.0     1       190         1       151        8.32     271      -63.0
   09/15/2017 23:30      61.4      61.2       77     54.1      0.00      0.09      81.9     0.36      1012.0     1       166         2       163        8.32     271      -63.9
   09/15/2017 23:20      61.7      61.3       76     54.0      0.00      0.09      81.6     0.36      1012.0     1       142         2       144        8.32     271      -64.2
   09/15/2017 23:10      62.1      61.8       75     54.0      0.00      0.09      81.6     0.36      1012.0     1       156         2       136        8.33     271      -64.0
   09/15/2017 23:00      62.4      62.1       75     54.2      0.00      0.09      81.9     0.36      1012.0     2       142         2       137        8.33     271      -64.8
   09/15/2017 22:50      62.7      62.4       75     54.4      0.00      0.09      81.7     0.36      1012.0     1       151         1       141        8.33     271      -63.9
   09/15/2017 22:40      63.3      62.8       73     54.2      0.00      0.09      81.6     0.36      1012.0     1       152         1       147        8.33     271      -64.0
   09/15/2017 22:30      63.3      63.0       72     53.9      0.00      0.09      81.8     0.36      1012.0     1       159         1       173        8.34     271      -64.2
   09/15/2017 22:20      63.4      63.1       71     53.6      0.00      0.09      81.7     0.36      1012.0     1       174         1       198        8.34     271      -64.2
   09/15/2017 22:10      63.6      63.4       71     53.8      0.00      0.09      81.8     0.36      1012.0     1       138         1       160        8.34     271      -65.2
   09/15/2017 22:00      63.6      63.3       71     53.8      0.00      0.09      81.7     0.36      1012.0     1        91         2        59        8.34     271      -67.0
   09/15/2017 21:50      63.8      63.5       70     53.8      0.00      0.09      81.8     0.36      1012.0     2       157         2       128        8.35     271      -66.5
   09/15/2017 21:40      64.1      63.8       71     54.2      0.00      0.09      81.7     0.36      1012.0     2       151         2       142        8.35     271      -67.3
   09/15/2017 21:30      64.6      64.0       69     53.8      0.00      0.09      81.7     0.36      1012.0     2       142         2       141        8.35     271      -67.1
   09/15/2017 21:20      65.6      64.8       66     53.5      0.00      0.09      81.5     0.36      1012.0     1       161         2       128        8.35     270      -67.2
   09/15/2017 21:10      65.7      65.4       65     53.7      0.00      0.09      81.8     0.36      1012.0     2       203         2       207        8.36     270      -67.3
   09/15/2017 21:00      66.0      65.7       66     54.0      0.00      0.09      81.6     0.36      1012.0     1       202         2       209        8.36     270      -67.9
   09/15/2017 20:50      66.7      66.1       64     54.0      0.00      0.09      81.8     0.36      1012.0     2       158         2       158        8.36     271      -70.0
   09/15/2017 20:40      67.2      66.8       63     54.1      0.00      0.09      81.8     0.36      1012.0     2       196         2       193        8.37     271      -70.0
   09/15/2017 20:30      67.3      67.1       63     54.2      0.00      0.09      81.7     0.36      1012.0     2       196         2       203        8.37     270      -71.4
   09/15/2017 20:20      67.7      67.4       62     54.2      0.00      0.09      81.7     0.36      1012.0     2       172         3       190        8.37     270      -73.1
   09/15/2017 20:10      68.1      67.7       61     54.1      0.00      0.09      81.6     0.36      1011.0     2       189         3       197        8.37     270      -73.1
   09/15/2017 20:00      68.5      68.1       61     54.2      0.00      0.09      81.6     0.36      1011.0     3       200         4       226        8.38     270      -73.8
   09/15/2017 19:50      68.8      68.5       60     54.3      0.00      0.09      81.7     0.36      1011.0     3       186         3       188        8.38     270      -73.3
   09/15/2017 19:40      69.2      68.9       59     54.4      0.00      0.09      81.6     0.36      1011.0     2       177         3       161        8.38     270      -69.2
   09/15/2017 19:30      69.5      69.3       59     54.4      0.00      0.09      81.7     0.36      1011.0     3       180         5       186        8.38     270      -65.3
   09/15/2017 19:20      69.8      69.6       58     54.4      0.00      0.09      81.4     0.36      1011.0     4       170         6       154        8.38     270      -57.3
   09/15/2017 19:10      70.3      69.9       58     54.5      0.00      0.09      81.3     0.36      1011.0     5       172         6       161        8.38     270      -54.4
   09/15/2017 19:00      70.8      70.3       57     54.6      0.00      0.09      81.7     0.36      1011.0     3       184         6       159        8.39     269      -42.8
   09/15/2017 18:50      71.4      71.2       56     54.8      0.00      0.09      81.6     0.36      1011.0     3       176         6       153        8.39     270      -23.6
   09/15/2017 18:40      71.7      71.5       56     54.8      0.00      0.09      81.4     0.36      1011.0     3       155         4       188        8.39     270      -11.4
   09/15/2017 18:30      72.2      71.6       55     54.9      0.00      0.09      81.6     0.36      1011.0     4       174         7       138        8.39     269       10.2
   09/15/2017 18:20      72.3      72.2       55     55.1      0.00      0.09      81.7     0.36      1011.0     5       156         7       140        8.40     270       28.7
   09/15/2017 18:10      72.3      72.0       55     55.1      0.00      0.09      81.4     0.35      1011.0     5       157         7       150        8.40     269       40.8
   09/15/2017 18:00      72.2      72.0       55     55.2      0.00      0.09      81.6     0.35      1011.0     5       164         7       174        8.41     269       33.3
   09/15/2017 17:50      72.8      72.2       55     55.3      0.00      0.09      81.4     0.36      1011.0     5       163         8       158        8.43     269       29.4
   09/15/2017 17:40      73.5      72.5       54     55.1      0.00      0.09      81.6     0.35      1011.0     5       171         8       177        8.44     269       60.0
   09/15/2017 17:30      73.8      73.3       52     55.1      0.00      0.09      81.4     0.36      1011.0     5       157         8       184        8.44     269       70.3
   09/15/2017 17:20      74.2      73.7       52     55.0      0.00      0.09      81.4     0.35      1011.0     6       156         9       163        8.45     269       92.0
   09/15/2017 17:10      74.3      73.9       51     55.0      0.00      0.09      81.2     0.35      1011.0     6       141        10       123        8.47     269      130.6
   09/15/2017 17:00      74.5      73.6       51     54.9      0.00      0.09      81.3     0.35      1011.0     7       143        10       131        8.48     269      179.5
   09/15/2017 16:50      74.8      74.2       50     54.8      0.00      0.09      81.4     0.35      1011.0     6       153         9       129        8.49     269      187.7
   09/15/2017 16:40      74.8      74.1       50     54.8      0.00      0.09      81.1     0.35      1011.0     7       152        12       131        8.49     269      171.0
   09/15/2017 16:30      76.2      74.1       49     54.9      0.00      0.09      81.3     0.35      1010.0     8       145        12       138        8.50     269      213.2
   09/15/2017 16:20      76.5      75.3       49     55.1      0.00      0.09      81.3     0.35      1011.0     5       153         7       142        8.50     269      277.8
   09/15/2017 16:10      76.4      75.4       49     55.1      0.00      0.09      81.2     0.35      1011.0     5       148         8       156        8.51     269      265.7
   09/15/2017 16:00      76.4      76.0       48     55.4      0.00      0.09      81.2     0.35      1011.0     6       167        10       155        8.52     269      302.7
   09/15/2017 15:50      77.4      76.4       48     55.5      0.00      0.09      81.3     0.35      1011.0     4       152         7       143        8.52     269      327.3
   09/15/2017 15:40      77.4      76.9       47     55.5      0.00      0.09      81.1     0.35      1011.0     4       176         6       150        8.52     270      358.0
   09/15/2017 15:30      77.4      76.0       48     55.5      0.00      0.09      81.1     0.35      1011.0     4       205         6       204        8.52     270      381.1
   09/15/2017 15:20      76.8      76.3       48     55.4      0.00      0.09      81.1     0.35      1011.0     4       228         8       201        8.52     270      406.3
   09/15/2017 15:10      77.0      76.3       48     55.4      0.00      0.09      80.9     0.35      1011.0     4       174         8       155        8.52     270      317.3
   09/15/2017 15:00      77.1      75.9       48     55.4      0.00      0.09      81.2     0.35      1011.0     4       193         6       158        8.53     270      389.1
   09/15/2017 14:50      76.8      76.0       48     55.3      0.00      0.09      80.8     0.35      1011.0     4       168         6       162        8.53     270      344.7
   09/15/2017 14:40      76.5      75.5       48     55.3      0.00      0.09      81.0     0.35      1011.0     4       157         7       159        8.53     271      284.0
   09/15/2017 14:30      77.9      76.7       47     55.6      0.00      0.09      81.1     0.35      1011.0     5       117         9       124        8.60     271      493.6
   09/15/2017 14:20      77.3      76.0       48     55.5      0.00      0.09      81.1     0.35      1011.0     4       125         7       136        8.61     271      519.8
   09/15/2017 14:10      77.5      75.8       48     55.5      0.00      0.09      81.0     0.35      1012.0     5       121        11       110        8.61     271      489.5
   09/15/2017 14:00      77.1      75.8       48     55.5      0.00      0.09      80.9     0.35      1012.0     3        60         5        77        8.61     271      455.4
   09/15/2017 13:50      76.2      75.0       48     54.7      0.00      0.09      81.0     0.35      1012.0     2       295         4       245        8.61     271      237.1
   09/15/2017 13:40      75.4      74.6       49     54.5      0.00      0.09      80.9     0.35      1012.0     5       203         7       216        8.62     271      590.4
   09/15/2017 13:30      76.0      75.4       48     54.7      0.00      0.09      81.1     0.35      1012.0     4       132         6       140        8.62     270      297.2
   09/15/2017 13:20      75.7      73.6       50     54.6      0.00      0.09      80.8     0.35      1012.0     1        95         2        74        8.63     271      326.8
   09/15/2017 13:10      75.2      73.8       50     54.6      0.00      0.09      80.8     0.35      1012.0     4       143         5       166        8.66     271      336.9
   09/15/2017 13:00      75.0      73.7       51     55.0      0.00      0.09      81.0     0.35      1012.0     5       180         8       226        8.67     272      533.6
   09/15/2017 12:50      74.2      73.6       52     55.0      0.00      0.09      80.9     0.35      1013.0     3        99         5        72        8.67     272      263.5
   09/15/2017 12:40      74.0      73.3       51     54.7      0.00      0.09      80.9     0.35      1013.0     4       168         7       134        8.67     272      627.8
   09/15/2017 12:30      73.4      72.2       53     54.5      0.00      0.09      80.5     0.35      1013.0     2       176         4       181        8.68     272      301.9
   09/15/2017 12:20      72.5      71.9       53     54.4      0.00      0.09      80.8     0.35      1013.0     2        44         4        21        8.68     272      115.6
   09/15/2017 12:10      73.4      72.4       52     54.3      0.00      0.09      80.9     0.35      1013.0     2        41         4       127        8.68     272      170.6
   09/15/2017 12:00      73.8      73.0       53     55.1      0.00      0.09      80.6     0.35      1013.0     3        67         6        67        8.69     272      391.5
   09/15/2017 11:50      72.9      71.1       56     55.1      0.00      0.09      80.7     0.35      1013.0     2        89         4        61        8.69     272      424.4
   09/15/2017 11:40      70.7      70.4       57     54.8      0.00      0.09      80.8     0.35      1013.0     4       167         6       152        8.69     272      301.7
   09/15/2017 11:30      70.4      69.5       59     54.9      0.00      0.09      81.0     0.35      1013.0     3        99         5        89        8.69     272      220.7
   09/15/2017 11:20      70.1      69.8       59     55.0      0.00      0.09      80.8     0.35      1013.0     3       113         5        90        8.70     272      160.1
   09/15/2017 11:10      70.0      69.6       60     55.2      0.00      0.09      80.5     0.35      1013.0     2        83         4        81        8.70     272      123.3
   09/15/2017 11:00      70.1      69.2       60     54.8      0.00      0.09      81.0     0.35      1013.0     2       171         4        65        8.70     272      114.8
   09/15/2017 10:50      70.3      69.6       59     54.9      0.00      0.09      80.8     0.35      1014.0     3       157         5       140        8.70     272      144.8
   09/15/2017 10:40      70.1      69.2       60     54.9      0.00      0.09      80.8     0.35      1014.0     2       231         4       211        8.70     272      197.1
   09/15/2017 10:30      69.6      69.0       60     55.0      0.00      0.09      80.6     0.36      1014.0     2       152         6       133        8.71     273      173.1
   09/15/2017 10:20      70.1      69.3       60     55.0      0.00      0.09      80.8     0.36      1014.0     2       318         3       293        8.71     273      166.2
   09/15/2017 10:10      69.8      68.3       61     55.1      0.00      0.09      81.0     0.36      1014.0     1       276         3       320        8.71     273      216.2
   09/15/2017 10:00      68.7      68.4       62     55.0      0.00      0.09      81.0     0.36      1014.0     3       250         5       262        8.71     273      172.5
   09/15/2017 09:50      68.8      68.5       62     55.2      0.00      0.09      81.0     0.36      1014.0     3       147         5       224        8.71     273      156.7
   09/15/2017 09:40      68.6      68.3       63     55.3      0.00      0.09      80.9     0.36      1014.0     2        27         4         8        8.72     273      156.0
   09/15/2017 09:30      68.7      68.4       63     55.4      0.00      0.09      81.1     0.36      1013.0     2        59         3       122        8.72     273      144.6
   09/15/2017 09:20      68.6      67.8       64     55.6      0.00      0.09      81.3     0.36      1013.0     2       356         3       358        8.72     273      144.3
   09/15/2017 09:10      68.3      67.8       64     55.4      0.00      0.09      81.0     0.36      1013.0     2       312         3       354        8.73     273      113.6
   09/15/2017 09:00      68.5      68.1       64     55.6      0.00      0.09      81.2     0.36      1013.0     2       299         3       255        8.74     273      170.5
   09/15/2017 08:50      68.7      67.4       65     55.9      0.00      0.09      80.8     0.36      1013.0     2       267         4       251        8.75     274      216.9
   09/15/2017 08:40      67.3      66.2       68     55.8      0.00      0.09      81.1     0.36      1013.0     1       319         2         8        8.76     274      140.4
   09/15/2017 08:30      66.3      66.0       69     55.8      0.00      0.09      80.9     0.36      1013.0     1       337         2       322        8.76     274       85.7
   09/15/2017 08:20      66.0      65.7       70     55.7      0.00      0.09      81.1     0.36      1013.0     1       334         3       315        8.77     274       71.6
   09/15/2017 08:10      65.8      65.3       70     55.5      0.00      0.09      81.2     0.36      1013.0     2       276         3       291        8.77     274       80.7
   09/15/2017 08:00      65.4      64.8       72     55.8      0.00      0.09      81.4     0.36      1013.0     1       265         2       296        8.77     274       51.8
   09/15/2017 07:50      65.0      64.5       73     56.0      0.00      0.09      81.4     0.36      1013.0     2       265         3       236        8.77     274       39.8
   09/15/2017 07:40      64.5      64.0       75     56.0      0.00      0.09      81.3     0.36      1013.0     1       272         2       319        8.77     274       28.8
   09/15/2017 07:30      64.1      63.7       75     55.8      0.00      0.09      81.2     0.36      1013.0     2       242         2       235        8.77     274       11.1
   09/15/2017 07:20      63.8      63.5       76     55.8      0.00      0.09      80.9     0.36      1013.0     1       211         2       204        8.77     274       -1.9
   09/15/2017 07:10      63.7      63.4       76     55.8      0.00      0.09      81.4     0.36      1013.0     1       176         1       216        8.78     274       -6.4
   09/15/2017 07:00      63.6      63.3       76     55.8      0.00      0.09      81.0     0.36      1013.0     1       190         1       191        8.77     274      -12.6
   09/15/2017 06:50      63.4      63.3       77     55.8      0.00      0.09      81.1     0.36      1013.0     1       202         1       209        8.77     274      -18.1
   09/15/2017 06:40      63.4      63.2       77     56.0      0.00      0.09      81.7     0.36      1013.0     1       164         1       168        8.78     274      -16.5
   09/15/2017 06:30      63.4      63.2       77     56.1      0.00      0.09      81.2     0.36      1013.0     1       163         1       169        8.78     274      -16.8
   09/15/2017 06:20      63.4      63.1       78     56.1      0.00      0.09      81.3     0.36      1012.0     1       192         1       192        8.78     274      -16.3
   09/15/2017 06:10      63.1      62.8       78     56.0      0.00      0.09      81.2     0.36      1012.0     1       255         2       224        8.78     274      -18.6
   09/15/2017 06:00      63.1      62.8       78     55.9      0.00      0.09      81.4     0.36      1012.0     2       235         3       244        8.78     273      -21.1
   09/15/2017 05:50      63.0      62.8       78     55.9      0.00      0.09      81.0     0.36      1012.0     2       238         3       236        8.88     274      -17.8
   09/15/2017 05:40      62.9      62.7       78     55.9      0.00      0.09      81.3     0.36      1012.0     1       209         1       190        8.89     273      -18.4
   09/15/2017 05:30      62.9      62.6       78     55.9      0.00      0.09      81.6     0.36      1012.0     0       286         1       272        8.89     273      -22.9
   09/15/2017 05:20      63.0      62.6       78     55.9      0.00      0.09      81.7     0.36      1012.0     1       204         2       229        8.89     273      -26.1
   09/15/2017 05:10      62.8      62.7       78     55.9      0.00      0.09      81.5     0.36      1012.0     1       195         2       206        8.90     273      -24.7
   09/15/2017 05:00      62.8      62.5       78     56.0      0.00      0.09      81.2     0.36      1012.0     1       207         2       214        8.90     274      -20.3
   09/15/2017 04:50      62.9      62.7       78     56.0      0.00      0.09      81.5     0.36      1012.0     1       194         2       168        8.90     273      -18.4
   09/15/2017 04:40      62.8      62.5       79     56.0      0.00      0.09      81.5     0.36      1012.0     1       231         2       232        8.90     273      -17.7
   09/15/2017 04:30      62.7      62.5       79     56.0      0.00      0.09      81.7     0.36      1012.0     1       200         2       247        8.90     273      -17.3
   09/15/2017 04:20      62.7      62.5       79     56.0      0.00      0.09      81.6     0.36      1012.0     1       221         2       235        8.90     273      -17.5
   09/15/2017 04:10      62.7      62.4       79     56.0      0.00      0.09      81.6     0.36      1012.0     1       239         2       234        8.90     273      -18.3
   09/15/2017 04:00      62.5      62.4       79     56.0      0.00      0.09      81.7     0.36      1012.0     1       226         2       217        8.90     273      -16.8
   09/15/2017 03:50      62.5      62.2       80     56.0      0.00      0.09      81.8     0.36      1012.0     1       224         3       249        8.90     273      -15.7
   09/15/2017 03:40      62.4      62.1       80     56.0      0.00      0.09      81.6     0.36      1012.0     2       239         3       218        8.91     273      -20.4
   09/15/2017 03:30      62.2      62.1       80     56.0      0.00      0.09      81.9     0.36      1012.0     2       226         4       258        8.91     273      -22.8
   09/15/2017 03:20      62.3      62.1       80     56.0      0.00      0.09      81.7     0.36      1012.0     2       212         3       209        8.91     273      -20.8
   09/15/2017 03:10      62.3      61.9       81     56.1      0.00      0.09      81.7     0.36      1012.0     1       186         3       155        8.91     273      -18.7
   09/15/2017 03:00      62.1      61.8       81     56.1      0.00      0.09      81.5     0.36      1012.0     2       226         4       207        8.91     273      -19.7
   09/15/2017 02:50      62.1      61.8       81     56.1      0.00      0.09      81.6     0.36      1012.0     2       229         4       227        8.91     273      -20.8
   09/15/2017 02:40      62.0      61.6       82     56.1      0.00      0.09      81.7     0.36      1012.0     3       228         4       225        8.91     273      -22.0
   09/15/2017 02:30      61.9      61.6       82     56.0      0.00      0.09      81.9     0.36      1013.0     2       226         6       213        8.91     273      -30.1
   09/15/2017 02:20      61.8      61.5       82     56.0      0.00      0.09      81.9     0.36      1013.0     2       233         3       243        8.91     273      -33.5
   09/15/2017 02:10      61.7      61.3       82     55.9      0.00      0.09      82.1     0.36      1013.0     2       217         3       207        8.91     273      -36.1
   09/15/2017 02:00      61.5      61.3       82     55.8      0.00      0.09      81.7     0.36      1013.0     3       210         4       214        8.91     273      -50.6
   09/15/2017 01:50      61.6      61.3       82     55.8      0.00      0.09      81.8     0.36      1013.0     3       195         3       204        8.91     273      -64.0
   09/15/2017 01:40      61.8      61.6       81     55.9      0.00      0.09      81.8     0.36      1013.0     4       211         5       214        8.91     273      -63.9
   09/15/2017 01:30      61.8      61.7       81     55.7      0.00      0.09      81.7     0.36      1012.0     3       201         4       183        8.91     273      -65.1
   09/15/2017 01:20      62.2      61.9       80     55.7      0.00      0.09      82.0     0.36      1013.0     3       204         3       174        8.92     273      -64.5
   09/15/2017 01:10      62.5      62.2       79     55.8      0.00      0.09      81.8     0.36      1013.0     3       213         4       190        8.92     273      -65.9
   09/15/2017 01:00      62.8      62.4       78     55.8      0.00      0.09      81.9     0.36      1013.0     3       208         4       211        8.92     273      -64.4
   09/15/2017 00:50      63.3      62.8       77     55.9      0.00      0.09      81.7     0.36      1013.0     4       202         5       195        8.92     273      -57.0
   09/15/2017 00:40      63.6      63.3       76     55.9      0.00      0.09      82.2     0.36      1013.0     4       219         6       224        8.92     273      -48.6
   09/15/2017 00:30      63.7      63.6       75     55.8      0.00      0.09      82.1     0.36      1013.0     2       209         3       195        8.92     273      -47.3
   09/15/2017 00:20      64.0      63.7       75     55.9      0.00      0.09      81.9     0.36      1013.0     3       214         5       206        8.92     273      -42.9
   09/15/2017 00:10      64.4      64.1       74     55.9      0.00      0.09      81.8     0.36      1013.0     3       204         5       193        8.92     273      -33.2
   09/15/2017 00:00      64.5      64.2       73     55.6      0.00      0.09      81.9     0.36      1013.0     3       225         5       234        8.92     273      -25.9
   09/14/2017 23:50      64.5      64.2       73     55.4      0.00      0.09      82.3     0.36      1013.0     3       230         5       251        8.92     273      -25.7
   09/14/2017 23:40      64.5      64.2       72     55.3      0.00      0.09      82.0     0.36      1013.0     2       230         4       204        8.93     273      -28.9
   09/14/2017 23:30      64.7      64.4       72     55.1      0.00      0.09      82.1     0.36      1013.0     3       240         4       228        8.93     272      -38.2
   09/14/2017 23:20      64.5      64.3       72     55.0      0.00      0.09      82.3     0.36      1013.0     3       240         4       231        8.93     273      -38.2
   09/14/2017 23:10      64.5      64.3       72     55.1      0.00      0.09      82.0     0.36      1013.0     2       219         3       209        8.93     272      -53.1
   09/14/2017 23:00      64.9      64.6       71     55.2      0.00      0.09      82.2     0.36      1013.0     2       201         3       190        8.93     272      -58.3
   09/14/2017 22:50      65.0      64.8       70     54.9      0.00      0.09      82.3     0.36      1013.0     2       185         3       195        8.93     272      -45.5
   09/14/2017 22:40      65.1      64.8       69     54.6      0.00      0.09      82.0     0.36      1013.0     2       222         3       247        8.94     272      -33.6
   09/14/2017 22:30      65.1      64.8       69     54.6      0.00      0.09      82.4     0.36      1013.0     3       206         5       196        8.94     272      -31.9
   09/14/2017 22:20      65.1      65.0       69     54.6      0.00      0.09      82.3     0.36      1013.0     2       220         3       219        8.94     272      -31.6
   09/14/2017 22:10      65.2      64.9       69     54.5      0.00      0.09      82.1     0.36      1013.0     2       195         3       251        8.94     272      -24.9
   09/14/2017 22:00      65.2      65.0       69     54.6      0.00      0.09      82.1     0.36      1013.0     3       207         4       228        8.94     272      -24.6
   09/14/2017 21:50      65.3      65.1       69     54.8      0.00      0.09      82.3     0.36      1013.0     4       235         5       232        8.95     272      -23.0
   09/14/2017 21:40      65.4      65.2       69     54.9      0.00      0.09      82.4     0.36      1013.0     3       229         5       230        8.95     272      -20.2
   09/14/2017 21:30      65.4      65.1       69     54.8      0.00      0.09      82.2     0.36      1013.0     2       216         4       220        8.95     272      -19.9
   09/14/2017 21:20      65.3      64.8       69     54.6      0.00      0.09      82.5     0.36      1013.0     2       224         4       222        8.95     272      -21.8
   09/14/2017 21:10      65.0      64.7       69     54.4      0.00      0.09      82.1     0.36      1013.0     3       218         4       248        8.96     272      -33.7
   09/14/2017 21:00      65.0      64.7       69     54.3      0.00      0.09      82.1     0.36      1013.0     2       201         3       182        8.96     272      -47.4
   09/14/2017 20:50      65.4      65.0       68     54.4      0.00      0.09      82.2     0.36      1013.0     2       216         4       225        8.96     272      -52.7
   09/14/2017 20:40      65.5      65.3       68     54.5      0.00      0.09      82.2     0.36      1013.0     3       264         5       261        8.96     272      -61.1
   09/14/2017 20:30      65.7      65.5       67     54.5      0.00      0.09      82.4     0.36      1012.0     4       289         7       297        8.96     271      -66.5
   09/14/2017 20:20      66.0      65.7       67     54.4      0.00      0.09      81.9     0.36      1012.0     4       275         6       232        8.97     271      -68.1
   09/14/2017 20:10      66.2      65.9       66     54.4      0.00      0.09      82.2     0.36      1012.0     3       260         6       255        8.97     271      -68.7
   09/14/2017 20:00      66.4      66.0       65     54.2      0.00      0.09      82.0     0.36      1012.0     5       272         7       283        8.98     271      -68.2
   09/14/2017 19:50      66.6      66.3       64     54.1      0.00      0.09      82.4     0.36      1012.0     4       294         6       281        9.00     271      -68.5
   09/14/2017 19:40      67.2      66.6       63     54.0      0.00      0.09      82.6     0.36      1012.0     4       286         6       296        9.00     271      -68.3
   09/14/2017 19:30      67.4      67.2       62     53.9      0.00      0.09      82.1     0.36      1012.0     4       262         7       264        9.00     271      -62.2
   09/14/2017 19:20      67.8      67.4       61     53.7      0.00      0.09      82.0     0.36      1012.0     4       245         8       262        9.01     271      -46.9
   09/14/2017 19:10      68.2      67.7       60     53.5      0.00      0.09      82.3     0.36      1012.0     5       247         7       279        9.01     271      -40.8
   09/14/2017 19:00      68.6      68.1       59     53.4      0.00      0.09      82.1     0.36      1012.0     5       232         7       224        9.01     271      -41.0
   09/14/2017 18:50      69.2      68.7       58     53.5      0.00      0.09      82.5     0.36      1012.0     4       233         6       241        9.01     271      -34.1
   09/14/2017 18:40      69.3      68.9       58     53.6      0.00      0.09      82.2     0.36      1012.0     5       237         7       262        9.01     270      -21.2
   09/14/2017 18:30      70.1      69.4       57     53.8      0.00      0.09      82.4     0.36      1012.0     5       234         8       214        9.02     271      -14.1
   09/14/2017 18:20      70.0      69.8       57     53.9      0.00      0.09      82.3     0.36      1012.0     4       256         8       263        9.02     271        6.7
   09/14/2017 18:10      70.4      70.1       56     54.0      0.00      0.09      82.3     0.36      1012.0     4       224         7       227        9.02     270       39.3
   09/14/2017 18:00      71.2      70.4       55     54.0      0.00      0.09      82.1     0.36      1012.0     5       236         9       240        9.02     271       45.8
   09/14/2017 17:50      71.3      71.0       55     54.3      0.00      0.09      82.1     0.36      1012.0     5       263         7       260        9.02     270       49.5
   09/14/2017 17:40      71.7      71.2       56     54.8      0.00      0.09      82.4     0.36      1012.0     5       254         8       261        9.02     270       39.5
   09/14/2017 17:30      71.9      71.4       56     55.0      0.00      0.09      81.9     0.36      1012.0     6       240         8       230        9.02     271       93.5
   09/14/2017 17:20      72.8      71.6       55     55.2      0.00      0.09      82.1     0.36      1012.0     6       235         7       228        9.03     271       65.6
   09/14/2017 17:10      73.2      72.6       54     55.1      0.00      0.09      82.2     0.36      1012.0     5       233         8       232        9.03     271      164.4
   09/14/2017 17:00      74.4      73.2       52     55.1      0.00      0.09      82.2     0.36      1011.0     6       239         7       266        9.03     271      192.8
   09/14/2017 16:50      74.2      73.3       52     55.2      0.00      0.09      82.1     0.36      1011.0     5       255         7       284        9.03     271      244.2
   09/14/2017 16:40      74.1      73.8       53     55.6      0.00      0.09      81.9     0.36      1011.0     6       251         9       240        9.03     271      284.3
   09/14/2017 16:30      73.8      72.8       55     56.3      0.00      0.09      82.0     0.36      1011.0     4       277         6       247        9.03     272      310.5
   09/14/2017 16:20      72.7      72.4       57     56.5      0.00      0.09      81.7     0.36      1011.0     3       268         4       253        9.04     271      179.0
   09/14/2017 16:10      72.6      72.1       58     56.6      0.00      0.09      81.8     0.36      1012.0     3       315         5       309        9.04     272      157.5
   09/14/2017 16:00      72.2      71.7       58     56.5      0.00      0.09      82.0     0.36      1012.0     3       300         6       324        9.04     272      116.0
   09/14/2017 15:50      72.2      71.5       58     56.4      0.00      0.09      82.1     0.36      1012.0     4       290         5       283        9.04     271      106.0
   09/14/2017 15:40      72.3      72.2       56     55.8      0.00      0.09      82.2     0.36      1012.0     4       287         8       322        9.04     271      103.3
   09/14/2017 15:30      72.7      72.4       55     55.7      0.00      0.09      82.2     0.36      1012.0     3       297         6       319        9.05     271       91.2
   09/14/2017 15:20      72.5      72.1       56     55.8      0.00      0.09      81.9     0.36      1012.0     2       351         4       348        9.05     272      106.5
   09/14/2017 15:10      72.2      71.6       57     55.7      0.00      0.09      82.3     0.36      1012.0     2       304         4       296        9.05     271      112.7
   09/14/2017 15:00      72.0      71.7       57     55.7      0.00      0.09      82.3     0.36      1012.0     3       322         5       341        9.06     271      121.9
   09/14/2017 14:50      72.2      71.8       56     55.7      0.00      0.09      82.4     0.36      1012.0     3       334         5         0        9.06     271      107.7
   09/14/2017 14:40      71.9      71.7       57     55.7      0.00      0.09      81.9     0.36      1012.0     4       355         5        10        9.06     271      111.0
   09/14/2017 14:30      72.3      71.9       56     55.4      0.00      0.09      82.1     0.36      1012.0     3       298         4       246        9.07     271      138.8
   09/14/2017 14:20      72.9      72.2       55     55.5      0.00      0.09      82.0     0.36      1012.0     3       274         4       216        9.07     271      203.4
   09/14/2017 14:10      72.6      71.2       56     55.4      0.00      0.09      82.1     0.36      1012.0     2        94         3       143        9.07     272      278.1
   09/14/2017 14:00      71.3      70.3       58     55.3      0.00      0.09      81.8     0.36      1013.0     2       249         4       210        9.07     272      247.7
   09/14/2017 13:50      70.5      70.1       59     55.1      0.00      0.09      82.1     0.36      1013.0     2       246         4       254        9.07     272      135.1
   09/14/2017 13:40      69.8      69.3       60     55.1      0.00      0.09      82.0     0.36      1013.0     3       206         5       157        9.08     272      101.1
   09/14/2017 13:30      70.2      69.5       60     55.1      0.00      0.09      81.9     0.36      1013.0     4       184         9       158        9.08     272      129.8
   09/14/2017 13:20      69.9      69.0       61     55.5      0.00      0.09      82.2     0.36      1013.0     4       151         7       143        9.08     272      174.9
   09/14/2017 13:10      69.4      68.8       62     55.6      0.00      0.09      81.9     0.36      1013.0     4       168         5       144        9.08     272      169.4
   09/14/2017 13:00      69.2      68.8       62     55.4      0.00      0.09      82.1     0.36      1013.0     3       185         6       162        9.08     272      104.4
   09/14/2017 12:50      69.3      69.0       61     55.2      0.00      0.09      82.4     0.36      1013.0     4       192         6       182        9.08     272       82.2
   09/14/2017 12:40      69.7      69.0       60     54.9      0.00      0.09      82.0     0.36      1013.0     3       168         5       141        9.08     272       70.5
   09/14/2017 12:30      69.7      69.3       60     54.9      0.00      0.09      81.9     0.36      1013.0     2       129         4       138        9.08     272       94.3
   09/14/2017 12:20      69.5      69.1       60     54.9      0.00      0.09      82.2     0.36      1013.0     3       100         4       121        9.09     272      109.6
   09/14/2017 12:10      69.3      69.2       60     55.0      0.00      0.09      82.2     0.36      1013.0     2       154         3       149        9.09     272      108.0
   09/14/2017 12:00      69.5      69.2       60     55.0      0.00      0.09      82.1     0.36      1013.0     3       173         5       166        9.09     272      112.9
   09/14/2017 11:50      69.3      68.9       61     55.2      0.00      0.09      82.2     0.36      1013.0     3       204         5       136        9.09     272      135.4
   09/14/2017 11:40      69.5      68.9       61     55.1      0.00      0.09      81.9     0.36      1014.0     4       221         5       221        9.09     272      154.7
   09/14/2017 11:30      69.5      69.0       60     55.0      0.00      0.09      82.3     0.36      1014.0     3       249         8       250        9.09     272      195.1
   09/14/2017 11:20      70.2      69.2       60     55.0      0.00      0.09      82.1     0.36      1014.0     3       236         4       215        9.10     272      221.7
   09/14/2017 11:10      70.5      68.5       60     55.1      0.00      0.09      82.2     0.36      1014.0     2        61         4       228        9.10     272      223.8
   09/14/2017 11:00      68.5      68.2       62     55.0      0.00      0.09      82.2     0.36      1014.0     3       124         4        96        9.10     272      180.7
   09/14/2017 10:50      68.7      68.3       62     55.1      0.00      0.09      82.2     0.36      1014.0     2       223         4       195        9.11     272      189.5
   09/14/2017 10:40      68.4      68.1       63     55.0      0.00      0.09      82.4     0.36      1014.0     2       195         4       150        9.11     272      162.7
   09/14/2017 10:30      68.4      68.1       62     54.9      0.00      0.09      82.3     0.37      1014.0     2       251         4       242        9.11     272      115.2
   09/14/2017 10:20      68.3      67.6       62     54.5      0.00      0.09      82.4     0.37      1014.0     2       284         3       318        9.11     272      115.4
   09/14/2017 10:10      67.8      67.5       62     54.3      0.00      0.09      82.5     0.37      1014.0     2       256         4       267        9.12     272      128.1
   09/14/2017 10:00      68.1      67.5       62     54.2      0.00      0.09      82.4     0.37      1014.0     2       237         3       226        9.12     272      122.3
   09/14/2017 09:50      68.1      67.8       61     54.2      0.00      0.09      82.5     0.37      1014.0     2       232         3       356        9.12     272      114.4
   09/14/2017 09:40      67.9      67.1       62     54.0      0.00      0.09      82.4     0.37      1014.0     1       187         2       226        9.12     272      122.7
   09/14/2017 09:30      67.9      67.0       63     54.1      0.00      0.09      82.4     0.37      1014.0     2       222         3       211        9.13     272      124.1
   09/14/2017 09:20      68.3      67.6       62     54.3      0.00      0.09      82.5     0.37      1014.0     2       203         3       156        9.13     272      173.3
   09/14/2017 09:10      68.4      67.6       61     54.0      0.00      0.09      82.7     0.37      1014.0     2       129         4        70        9.13     272      259.8
   09/14/2017 09:00      67.8      67.4       62     54.3      0.00      0.09      83.0     0.37      1013.0     2       113         4       112        9.13     272      260.5
   09/14/2017 08:50      67.5      66.7       64     54.4      0.00      0.09      82.8     0.37      1013.0     2        13         3       354        9.14     273      218.2
   09/14/2017 08:40      67.1      66.4       65     54.4      0.00      0.09      82.7     0.37      1013.0     2        95         3        70        9.19     273      192.6
   09/14/2017 08:30      67.0      66.7       64     54.4      0.00      0.09      83.1     0.37      1013.0     2        40         4        77        9.20     273      167.6
   09/14/2017 08:20      67.3      66.3       65     54.8      0.00      0.09      82.7     0.37      1013.0     1        81         2        97        9.20     273      139.0
   09/14/2017 08:10      67.0      66.3       66     54.8      0.00      0.09      83.3     0.37      1013.0     1        55         2        87        9.20     273      108.7
   09/14/2017 08:00      66.8      65.1       67     54.7      0.00      0.09      83.0     0.37      1013.0     0       234         1       270        9.21     273       80.0
   09/14/2017 07:50      64.9      63.1       72     54.8      0.00      0.09      82.8     0.37      1013.0     1       187         1       246        9.21     273       54.2
   09/14/2017 07:40      63.1      60.9       77     54.5      0.00      0.09      82.7     0.37      1013.0     1       171         1       143        9.21     273       35.4
   09/14/2017 07:30      60.9      59.4       81     54.5      0.00      0.09      82.9     0.37      1013.0     1       137         1       144        9.21     273       37.6
   09/14/2017 07:20      59.4      58.5       84     54.0      0.00      0.09      83.4     0.37      1013.0     1       166         1       181        9.21     273       13.6
   09/14/2017 07:10      58.7      58.0       85     53.9      0.00      0.09      83.1     0.37      1013.0     1       115         1        82        9.21     273       -4.0
   09/14/2017 07:00      57.9      57.1       86     53.5      0.00      0.09      82.7     0.37      1013.0     1       165         2       196        9.22     273      -11.2
   09/14/2017 06:50      57.1      56.9       87     53.1      0.00      0.09      82.9     0.37      1013.0     1       114         1       183        9.22     273      -21.5
   09/14/2017 06:40      57.0      57.0       87     53.3      0.00      0.09      82.8     0.37      1013.0     1        31         1        87        9.22     273      -18.1
   09/14/2017 06:30      57.1      56.4       88     53.2      0.00      0.09      83.1     0.37      1013.0     1       135         2       171        9.22     273      -24.7
   09/14/2017 06:20      56.7      56.5       87     52.8      0.00      0.09      82.9     0.37      1013.0     2       213         2       218        9.22     273      -28.5
   09/14/2017 06:10      56.7      56.5       87     52.9      0.00      0.09      83.1     0.37      1013.0     1       159         1       149        9.22     272      -34.5
   09/14/2017 06:00      56.7      56.4       87     52.5      0.00      0.09      83.7     0.37      1013.0     1       128         2       125        9.22     272      -36.5
   09/14/2017 05:50      57.0      56.8       87     53.1      0.00      0.09      83.3     0.37      1013.0     1       197         1       141        9.22     272      -35.7
   09/14/2017 05:40      57.0      56.7       86     52.9      0.00      0.09      83.3     0.37      1013.0     1        63         1        48        9.23     272      -39.0
   09/14/2017 05:30      57.2      56.9       87     53.2      0.00      0.09      83.4     0.37      1013.0     1       128         3       158        9.23     272      -41.0
   09/14/2017 05:20      57.1      56.9       87     53.3      0.00      0.09      83.3     0.37      1013.0     2       178         3       162        9.23     272      -41.4
   09/14/2017 05:10      57.1      56.8       87     53.1      0.00      0.09      83.2     0.37      1013.0     1       206         2       191        9.23     272      -43.2
   09/14/2017 05:00      57.0      56.7       87     53.0      0.00      0.09      83.4     0.37      1013.0     1       198         2       188        9.23     272      -44.3
   09/14/2017 04:50      56.9      56.6       87     52.9      0.00      0.09      83.5     0.37      1013.0     1       192         1       177        9.23     272      -46.0
   09/14/2017 04:40      57.0      56.5       86     52.7      0.00      0.09      83.8     0.37      1013.0     0        10         1         3        9.23     272      -48.4
   09/14/2017 04:30      56.8      56.5       85     52.4      0.00      0.09      83.8     0.37      1013.0     1       146         2       142        9.23     272      -51.0
   09/14/2017 04:20      57.3      57.0       85     52.6      0.00      0.09      83.7     0.37      1013.0     2       160         2       161        9.23     272      -53.3
   09/14/2017 04:10      57.8      57.5       86     53.5      0.00      0.09      83.7     0.37      1013.0     1       161         2       181        9.23     272      -52.2
   09/14/2017 04:00      57.8      57.3       86     53.5      0.00      0.09      83.8     0.37      1013.0     2       186         2       191        9.23     272      -52.7
   09/14/2017 03:50      57.5      57.2       86     53.2      0.00      0.09      83.8     0.37      1013.0     1        48         1        32        9.23     272      -55.9
   09/14/2017 03:40      57.6      57.3       84     52.8      0.00      0.09      83.8     0.37      1013.0     0        83         1        68        9.23     272      -58.1
   09/14/2017 03:30      58.3      57.7       83     52.8      0.00      0.09      83.7     0.37      1013.0     1        53         1        55        9.23     272      -60.1
   09/14/2017 03:20      58.6      58.2       83     53.1      0.00      0.09      83.9     0.37      1013.0     2       132         2       143        9.23     272      -61.4
   09/14/2017 03:10      58.9      58.6       82     53.5      0.00      0.09      84.2     0.37      1013.0     2       154         2       166        9.23     272      -62.4
   09/14/2017 03:00      59.1      58.6       83     53.6      0.00      0.09      83.9     0.37      1013.0     2       201         3       210        9.24     272      -62.4
   09/14/2017 02:50      58.9      58.5       82     53.3      0.00      0.09      83.9     0.37      1013.0     1       212         3       194        9.24     272      -62.1
   09/14/2017 02:40      59.4      59.0       82     53.8      0.00      0.09      84.1     0.37      1013.0     2       175         2       200        9.24     272      -63.3
   09/14/2017 02:30      59.4      58.8       83     53.9      0.00      0.09      84.1     0.37      1013.0     2       204         3       190        9.24     272      -61.3
   09/14/2017 02:20      58.9      58.6       83     53.7      0.00      0.09      84.4     0.37      1013.0     1       213         2       191        9.24     271      -60.3
   09/14/2017 02:10      58.6      58.3       85     53.8      0.00      0.09      84.2     0.37      1013.0     1       265         1       269        9.24     271      -59.3
   09/14/2017 02:00      58.3      58.0       85     53.5      0.00      0.09      84.2     0.37      1013.0     2       167         3       145        9.24     271      -61.3
   09/14/2017 01:50      58.5      57.8       84     53.4      0.00      0.09      84.0     0.37      1013.0     1       177         2       183        9.24     271      -61.8
   09/14/2017 01:40      58.3      57.9       84     53.2      0.00      0.09      84.3     0.37      1013.0     1       144         2       166        9.24     271      -65.5
   09/14/2017 01:30      58.6      58.4       84     53.6      0.00      0.09      84.2     0.37      1013.0     1       211         1       190        9.24     271      -65.0
   09/14/2017 01:20      58.8      58.5       84     53.8      0.00      0.09      84.3     0.37      1013.0     1       176         2       177        9.24     271      -65.7
   09/14/2017 01:10      59.0      58.8       82     53.3      0.00      0.09      84.4     0.37      1013.0     1       160         1       178        9.24     271      -66.6
   09/14/2017 01:00      60.0      59.3       80     53.5      0.00      0.09      84.3     0.37      1013.0     1       132         1       131        9.24     271      -68.1
   09/14/2017 00:50      60.7      60.0       79     53.9      0.00      0.09      84.2     0.37      1013.0     1       140         1       160        9.24     271      -68.8
   09/14/2017 00:40      61.0      60.9       79     54.2      0.00      0.09      84.4     0.37      1013.0     1       188         2       193        9.24     271      -70.2
   09/14/2017 00:30      61.4      61.1       78     54.2      0.00      0.09      84.6     0.37      1013.0     2       199         2       211        9.24     271      -72.2
   09/14/2017 00:20      61.5      61.3       77     54.3      0.00      0.09      84.6     0.37      1013.0     2       194         4       199        9.24     271      -73.2
   09/14/2017 00:10      61.6      61.4       77     54.3      0.00      0.09      84.4     0.37      1013.0     2       220         4       240        9.24     271      -73.1
   09/14/2017 00:00      61.6      61.3       78     54.4      0.00      0.09      84.3     0.37      1013.0     3       225         4       207        9.24     271      -73.2
   09/13/2017 23:50      61.4      61.1       78     54.4      0.00      0.09      84.7     0.37      1013.0     3       211         5       245        9.25     271      -73.1
   09/13/2017 23:40      61.6      61.3       77     54.3      0.00      0.09      84.5     0.37      1013.0     2       187         3       211        9.25     271      -73.8
   09/13/2017 23:30      61.8      61.6       76     54.2      0.00      0.09      84.6     0.37      1012.0     2       177         3       169        9.25     271      -74.5
   09/13/2017 23:20      61.9      61.8       76     54.2      0.00      0.09      84.5     0.37      1012.0     2       214         2       232        9.25     271      -74.9
   09/13/2017 23:10      62.2      61.9       76     54.3      0.00      0.09      84.6     0.37      1012.0     3       198         4       204        9.25     271      -75.4
   09/13/2017 23:00      62.3      62.2       75     54.3      0.00      0.09      84.7     0.37      1012.0     3       204         4       203        9.25     271      -75.5
   09/13/2017 22:50      62.4      62.2       75     54.3      0.00      0.09      84.5     0.37      1012.0     3       221         6       214        9.25     271      -75.9
   09/13/2017 22:40      62.5      62.3       75     54.3      0.00      0.09      84.6     0.37      1012.0     4       218         5       205        9.25     271      -75.8
   09/13/2017 22:30      62.7      62.4       74     54.2      0.00      0.09      84.6     0.37      1012.0     3       217         5       194        9.25     271      -76.4
   09/13/2017 22:20      62.7      62.4       74     54.0      0.00      0.09      84.8     0.37      1012.0     3       216         5       206        9.25     271      -77.4
   09/13/2017 22:10      63.1      62.8       73     53.9      0.00      0.09      85.0     0.37      1012.0     3       225         5       214        9.25     271      -77.6
   09/13/2017 22:00      63.4      63.1       72     53.9      0.00      0.09      84.8     0.37      1012.0     4       235         7       208        9.25     270      -77.7
   09/13/2017 21:50      63.8      63.4       70     53.6      0.00      0.09      84.9     0.38      1012.0     6       231         9       236        9.25     270      -78.2
   09/13/2017 21:40      64.0      63.8       69     53.4      0.00      0.09      84.6     0.37      1012.0     5       229         7       194        9.26     270      -78.9
   09/13/2017 21:30      64.3      64.1       68     53.5      0.00      0.09      84.7     0.37      1012.0     4       233         5       229        9.26     270      -79.4
   09/13/2017 21:20      64.3      64.0       67     53.2      0.00      0.09      84.7     0.37      1011.0     4       219         7       240        9.26     270      -80.2
   09/13/2017 21:10      64.8      64.3       66     53.1      0.00      0.09      84.7     0.37      1011.0     3       203         5       189        9.26     270      -80.9
   09/13/2017 21:00      65.2      64.9       65     52.9      0.00      0.09      84.8     0.37      1011.0     3       219         6       233        9.26     270      -81.1
   09/13/2017 20:50      65.7      65.2       64     52.8      0.00      0.09      85.0     0.37      1011.0     3       243         5       244        9.26     270      -81.2
   09/13/2017 20:40      66.0      65.7       63     52.8      0.00      0.09      84.7     0.37      1011.0     3       246         6       233        9.26     269      -79.8
   09/13/2017 20:30      66.3      66.1       62     52.8      0.00      0.09      84.8     0.37      1011.0     4       258         6       232        9.26     269      -77.9
   09/13/2017 20:20      66.6      66.2       61     52.4      0.00      0.09      84.9     0.37      1011.0     5       247         8       243        9.26     269      -81.1
   09/13/2017 20:10      67.1      66.8       58     51.6      0.00      0.09      84.8     0.37      1011.0     6       259         9       267        9.26     269      -79.8
   09/13/2017 20:00      67.7      67.2       58     52.4      0.00      0.09      84.9     0.37      1011.0     8       263        12       274        9.27     269      -77.9
   09/13/2017 19:50      68.2      67.7       58     52.6      0.00      0.09      84.9     0.37      1011.0     6       242         8       252        9.27     269      -82.0
   09/13/2017 19:40      69.3      68.3       56     52.5      0.00      0.09      84.7     0.37      1011.0     6       247         9       264        9.27     269      -82.7
   09/13/2017 19:30      70.0      69.5       56     53.4      0.00      0.09      85.0     0.37      1010.0     5       258         7       255        9.27     269      -83.3
   09/13/2017 19:20      70.6      70.1       56     53.9      0.00      0.09      85.0     0.37      1010.0     4       272         5       330        9.27     269      -81.3
   09/13/2017 19:10      70.6      70.4       56     53.9      0.00      0.09      84.9     0.37      1010.0     3       302         5       311        9.27     269      -79.8
   09/13/2017 19:00      71.5      70.6       55     54.1      0.00      0.09      84.8     0.37      1010.0     5       304         8       312        9.27     269      -80.7
   09/13/2017 18:50      71.8      71.5       54     54.2      0.00      0.09      84.9     0.37      1010.0     4       269         6       257        9.27     268      -75.7
   09/13/2017 18:40      73.2      71.8       53     54.2      0.00      0.09      84.8     0.37      1010.0     5       233         7       242        9.27     268      -70.3
   09/13/2017 18:30      73.5      73.2       51     54.1      0.00      0.09      84.8     0.37      1010.0     4       250         7       272        9.27     268      -44.9
   09/13/2017 18:20      73.9      73.5       50     54.2      0.00      0.09      84.7     0.37      1010.0     5       278         7       275        9.27     268      -33.0
   09/13/2017 18:10      74.7      73.7       50     54.3      0.00      0.09      84.6     0.37      1010.0     4       285         6       307        9.27     268       -8.8
   09/13/2017 18:00      75.8      74.5       48     53.9      0.00      0.09      84.9     0.37      1010.0     5       281         7       306        9.27     268       15.4
   09/13/2017 17:50      76.3      75.2       44     52.0      0.00      0.09      84.6     0.37      1010.0     3       244         5       184        9.27     268       43.0
   09/13/2017 17:40      75.4      74.8       45     52.2      0.00      0.09      84.6     0.37      1010.0     5       178         7       146        9.27     268       70.7
   09/13/2017 17:30      75.7      75.1       44     52.0      0.00      0.09      84.6     0.37      1010.0     6       176         8       187        9.27     268       92.2
   09/13/2017 17:20      76.8      75.4       43     51.8      0.00      0.09      84.7     0.37      1010.0     7       164         9       146        9.27     268      114.1
   09/13/2017 17:10      77.3      76.5       42     52.2      0.00      0.09      84.5     0.37      1010.0     6       163         8       176        9.27     268      138.3
   09/13/2017 17:00      77.2      76.3       43     52.4      0.00      0.09      84.6     0.37      1010.0     5       185         7       168        9.27     268      165.1
   09/13/2017 16:50      77.1      76.2       43     52.6      0.00      0.09      84.5     0.37      1010.0     6       166         8       137        9.27     268      190.6
   09/13/2017 16:40      77.5      76.9       42     52.5      0.00      0.09      84.4     0.37      1010.0     6       160         8       134        9.27     268      215.3
   09/13/2017 16:30      77.7      77.3       41     52.2      0.00      0.09      84.6     0.37      1010.0     5       195         7       180        9.27     268      237.6
   09/13/2017 16:20      78.3      77.6       41     52.8      0.00      0.09      84.5     0.37      1010.0     5       173         8       151        9.27     268      254.6
   09/13/2017 16:10      78.7      77.8       42     53.2      0.00      0.09      84.4     0.37      1010.0     6       194         8       149        9.27     268      270.0
   09/13/2017 16:00      79.2      78.8       41     53.4      0.00      0.09      84.2     0.37      1010.0     6       183        10       201        9.27     268      295.1
   09/13/2017 15:50      79.3      78.9       40     53.0      0.00      0.09      84.4     0.37      1010.0     6       168         8       171        9.27     268      319.7
   09/13/2017 15:40      79.7      79.3       40     53.1      0.00      0.09      84.2     0.37      1010.0     6       182         8       193        9.27     269      339.0
   09/13/2017 15:30      79.8      79.3       40     53.2      0.00      0.09      84.1     0.37      1010.0     5       129         9       115        9.27     268      359.2
   09/13/2017 15:20      79.7      79.2       40     53.1      0.00      0.09      84.1     0.37      1010.0     6       146         9       135        9.27     269      378.5
   09/13/2017 15:10      80.8      79.7       39     52.8      0.00      0.09      84.1     0.37      1010.0     6       154         8       138        9.27     269      396.6
   09/13/2017 15:00      82.0      80.4       39     53.5      0.00      0.09      84.2     0.37      1010.0     5       156         8       111        9.27     270      416.7
   09/13/2017 14:50      82.2      80.4       39     54.1      0.00      0.09      84.3     0.37      1010.0     5       119         8        74        9.27     270      431.3
   09/13/2017 14:40      81.5      80.7       41     54.7      0.00      0.09      84.1     0.37      1010.0     5       109         9        68        9.27     270      444.2
   09/13/2017 14:30      81.7      81.0       41     55.1      0.00      0.09      84.1     0.37      1010.0     5       154         7       178        9.27     270      455.7
   09/13/2017 14:20      82.0      80.5       41     55.2      0.00      0.09      84.0     0.37      1010.0     5       150         8       134        9.27     270      466.6
   09/13/2017 14:10      81.7      79.8       43     55.8      0.00      0.09      84.1     0.37      1011.0     3       117         5        80        9.27     270      480.0
   09/13/2017 14:00      80.9      80.0       44     56.3      0.00      0.09      84.0     0.37      1011.0     5       173         7       143        9.27     270      497.9
   09/13/2017 13:50      81.2      79.8       45     57.4      0.00      0.09      84.1     0.37      1011.0     6       137        11       206        9.27     270      506.3
   09/13/2017 13:40      80.5      79.7       46     57.6      0.00      0.09      84.2     0.37      1011.0     4       180         6       176        9.27     270      494.0
   09/13/2017 13:30      79.7      79.1       49     58.4      0.00      0.09      84.1     0.37      1011.0     4       135         6       117        9.27     270      531.1
   09/13/2017 13:20      80.7      79.7       48     58.5      0.00      0.09      84.1     0.37      1011.0     3       146         5       156        9.28     271      579.0
   09/13/2017 13:10      80.4      79.2       49     58.9      0.00      0.09      83.9     0.37      1011.0     3        36         6        89        9.28     271      618.5
   09/13/2017 13:00      79.5      77.6       50     58.7      0.00      0.09      83.7     0.37      1012.0     2        76         4        48        9.28     272      558.9
   09/13/2017 12:50      78.1      77.4       52     59.0      0.00      0.09      84.2     0.37      1012.0     3        18         4        36        9.27     272      217.7
   09/13/2017 12:40      77.6      76.8       54     59.4      0.00      0.09      84.1     0.37      1012.0     2        30         4        28        9.27     272      247.2
   09/13/2017 12:30      77.1      76.3       55     59.7      0.00      0.09      83.9     0.37      1012.0     2        58         3        63        9.27     272      239.2
   09/13/2017 12:20      76.6      75.9       56     59.5      0.00      0.09      84.0     0.37      1012.0     2        67         5       100        9.27     272      223.9
   09/13/2017 12:10      76.8      76.0       56     59.4      0.00      0.09      84.0     0.37      1012.0     3       146         5       180        9.27     272      391.8
   09/13/2017 12:00      76.2      75.8       56     59.2      0.00      0.09      84.2     0.37      1012.0     2       273         4        55        9.27     272      241.1
   09/13/2017 11:50      76.2      75.1       57     59.2      0.00      0.09      84.0     0.37      1012.0     2        27         4       102        9.28     272      264.0
   09/13/2017 11:40      77.4      75.5       55     59.4      0.00      0.09      84.0     0.37      1013.0     3        16         5       335        9.28     272      271.2
   09/13/2017 11:30      77.5      76.3       55     59.6      0.00      0.09      83.9     0.37      1013.0     3        10         5       345        9.28     272      456.6
   09/13/2017 11:20      76.2      74.8       58     59.4      0.00      0.09      84.2     0.37      1013.0     2       346         3       346        9.27     272      446.9
   09/13/2017 11:10      74.8      74.2       59     59.1      0.00      0.09      84.1     0.37      1013.0     2        17         3        23        9.27     272      370.4
   09/13/2017 11:00      74.6      73.2       61     59.3      0.00      0.09      84.2     0.37      1013.0     1        51         2        20        9.27     273      357.5
   09/13/2017 10:50      73.5      73.0       62     59.3      0.00      0.09      84.2     0.37      1013.0     3        68         5        74        9.27     273      376.9
   09/13/2017 10:40      73.5      71.8       63     59.4      0.00      0.09      84.2     0.37      1013.0     1        40         3        80        9.28     273      287.5
   09/13/2017 10:30      72.3      71.1       65     59.3      0.00      0.09      83.9     0.37      1013.0     2        17         3       320        9.27     273      244.9
   09/13/2017 10:20      71.6      71.3       66     59.4      0.00      0.09      84.2     0.37      1013.0     3        76         4        81        9.27     273      249.0
   09/13/2017 10:10      71.4      70.4       67     59.4      0.00      0.09      84.2     0.37      1013.0     1        10         3        78        9.27     273      266.6
   09/13/2017 10:00      70.6      69.4       70     59.5      0.00      0.09      84.5     0.37      1013.0     2        20         3        37        9.27     273      185.9
   09/13/2017 09:50      69.8      69.4       70     59.4      0.00      0.09      84.4     0.37      1013.0     2        53         3        48        9.27     273      158.7
   09/13/2017 09:40      69.4      68.3       72     59.4      0.00      0.09      84.1     0.37      1013.0     1        12         2        98        9.27     274      154.4
   09/13/2017 09:30      68.3      67.6       74     59.3      0.00      0.09      84.8     0.37      1013.0     2        86         3        96        9.04     274      127.6
   09/13/2017 09:20      67.8      67.3       75     59.5      0.00      0.09      84.3     0.38      1013.0     2        89         3        77        8.92     274       97.2
   09/13/2017 09:10      67.4      67.1       76     59.5      0.00      0.09      83.9     0.37      1013.0     2       131         3       136        8.92     273       65.3
   09/13/2017 09:00      67.3      66.8       77     59.5      0.00      0.09      84.5     0.38      1013.0     2       122         3       137        8.92     274       63.5
   09/13/2017 08:50      67.4      66.9       76     59.6      0.00      0.09      84.5     0.38      1013.0     2        93         4       143        8.92     274       65.0
   09/13/2017 08:40      67.1      66.7       77     59.5      0.00      0.09      84.4     0.38      1013.0     2        96         3        95        8.92     274       74.1
   09/13/2017 08:30      67.1      66.5       77     59.5      0.00      0.09      84.5     0.38      1013.0     2        54         2        98        8.92     274       63.3
   09/13/2017 08:20      66.7      66.0       79     59.4      0.00      0.09      84.6     0.38      1013.0     2        47         3        89        8.92     274       50.9
   09/13/2017 08:10      66.2      65.6       80     59.5      0.00      0.09      84.7     0.38      1013.0     2        68         3        84        8.92     274       38.0
   09/13/2017 08:00      65.9      65.4       81     59.5      0.00      0.09      84.6     0.38      1013.0     3        86         4        96        8.92     274       30.9
   09/13/2017 07:50      65.6      65.3       81     59.4      0.00      0.09      84.6     0.38      1013.0     3        91         4        73        8.92     274       25.9
   09/13/2017 07:40      65.4      65.1       82     59.5      0.00      0.09      84.8     0.38      1013.0     2        68         4        72        8.92     274       18.3
   09/13/2017 07:30      65.3      64.8       82     59.5      0.00      0.09      84.6     0.38      1013.0     3        60         4        84        8.92     274        4.9
   09/13/2017 07:20      65.2      64.9       82     59.4      0.00      0.09      84.6     0.38      1013.0     3        69         5        68        8.92     273        0.4
   09/13/2017 07:10      65.2      64.9       82     59.5      0.00      0.09      84.8     0.38      1013.0     2        38         4        36        8.92     273       -2.7
   09/13/2017 07:00      65.2      65.0       82     59.4      0.00      0.09      84.9     0.38      1013.0     2        31         3        45        8.92     273       -5.7
   09/13/2017 06:50      65.2      64.8       82     59.3      0.00      0.09      84.8     0.38      1013.0     2        28         3        13        8.92     273      -10.4
   09/13/2017 06:40      65.0      64.8       82     59.1      0.00      0.09      84.7     0.38      1013.0     2        32         3        20        8.92     273      -13.0
   09/13/2017 06:30      64.9      64.5       82     59.0      0.00      0.09      84.7     0.38      1013.0     2        32         3        21        8.92     273      -14.2
   09/13/2017 06:20      64.7      64.1       81     58.5      0.00      0.09      85.1     0.38      1013.0     1        35         2        32        8.92     273      -14.4
   09/13/2017 06:10      64.2      63.6       82     58.1      0.00      0.09      85.0     0.38      1013.0     0        22         1         2        8.93     273      -15.0
   09/13/2017 06:00      63.5      63.1       82     57.9      0.00      0.09      85.1     0.38      1013.0     0       136         1       241        8.93     273      -12.7
   09/13/2017 05:50      63.3      62.7       83     57.7      0.00      0.09      85.1     0.38      1012.0     1       180         1       225        8.93     273      -15.2
   09/13/2017 05:40      62.9      62.4       84     57.6      0.00      0.09      85.0     0.38      1012.0     1       204         2       251        8.93     273      -30.6
   09/13/2017 05:30      62.5      62.1       84     57.3      0.00      0.09      84.9     0.38      1012.0     1       285         2       267        8.93     273      -28.7
   09/13/2017 05:20      62.6      62.3       83     57.2      0.00      0.09      85.1     0.38      1012.0     1       215         1       199        8.93     273      -41.2
   09/13/2017 05:10      62.8      62.4       83     57.4      0.00      0.09      84.8     0.38      1012.0     1       205         1       268        8.93     273      -55.3
   09/13/2017 05:00      62.8      62.4       84     57.6      0.00      0.09      85.1     0.38      1012.0     1       290         2       299        8.93     273      -58.8
   09/13/2017 04:50      62.6      62.3       84     57.4      0.00      0.09      85.4     0.38      1012.0     1       355         1       313        8.93     273      -54.6
   09/13/2017 04:40      62.6      62.3       85     57.8      0.00      0.09      85.2     0.38      1012.0     1       354         1       276        8.93     273      -41.8
   09/13/2017 04:30      62.3      62.0       85     57.5      0.00      0.09      85.1     0.38      1012.0     0       235         1       319        8.93     273      -38.5
   09/13/2017 04:20      62.2      62.0       84     57.3      0.00      0.09      85.1     0.38      1012.0     1       128         1       131        8.93     272      -48.8
   09/13/2017 04:10      62.4      62.1       84     57.4      0.00      0.09      85.1     0.38      1012.0     1       160         1       218        8.93     272      -55.2
   09/13/2017 04:00      62.5      62.3       84     57.6      0.00      0.09      85.4     0.38      1012.0     1       180         2       173        8.93     272      -59.4
   09/13/2017 03:50      62.5      62.3       84     57.4      0.00      0.09      85.4     0.38      1012.0     1       190         1       195        8.93     272      -51.6
   09/13/2017 03:40      63.0      62.5       83     57.4      0.00      0.09      85.5     0.38      1012.0     1       202         1       234        8.93     272      -58.0
   09/13/2017 03:30      63.0      62.7       83     57.5      0.00      0.09      85.6     0.38      1012.0     1       231         2       240        8.93     272      -58.5
   09/13/2017 03:20      63.3      63.0       82     57.7      0.00      0.09      85.8     0.38      1012.0     1       225         1       250        8.93     272      -59.5
   09/13/2017 03:10      63.3      62.9       83     57.7      0.00      0.09      85.5     0.38      1012.0     2       234         2       242        8.94     272      -60.0
   09/13/2017 03:00      62.9      62.8       83     57.6      0.00      0.09      86.0     0.38      1012.0     1       232         2       237        8.94     272      -59.6
   09/13/2017 02:50      63.3      62.8       81     57.1      0.00      0.09      85.3     0.38      1012.0     1       208         1       180        8.94     272      -60.9
   09/13/2017 02:40      63.5      63.2       80     57.3      0.00      0.09      85.8     0.38      1012.0     1       151         2       228        8.94     272      -61.8
   09/13/2017 02:30      63.8      63.4       80     57.4      0.00      0.09      85.7     0.38      1012.0     2       236         3       241        8.94     272      -61.8
   09/13/2017 02:20      64.2      63.8       80     57.7      0.00      0.09      85.9     0.38      1012.0     1       247         2       256        8.94     272      -62.6
   09/13/2017 02:10      64.3      64.0       80     57.9      0.00      0.09      85.8     0.38      1012.0     2       240         3       216        8.94     272      -63.6
   09/13/2017 02:00      64.4      64.1       80     57.9      0.00      0.09      85.5     0.38      1012.0     2       240         4       245        8.94     272      -63.2
   09/13/2017 01:50      64.8      64.4       79     57.9      0.00      0.09      85.8     0.38      1012.0     1       234         2       246        8.94     272      -64.4
   09/13/2017 01:40      64.9      64.7       79     58.1      0.00      0.09      85.8     0.38      1012.0     2       249         3       251        8.94     272      -64.6
   09/13/2017 01:30      65.2      64.8       78     58.0      0.00      0.09      86.0     0.38      1013.0     3       252         3       256        8.94     272      -64.8
   09/13/2017 01:20      65.5      65.3       77     58.1      0.00      0.09      85.9     0.38      1013.0     2       269         3       272        8.94     272      -64.9
   09/13/2017 01:10      66.0      65.6       76     58.1      0.00      0.09      86.1     0.38      1012.0     2       258         3       296        8.94     272      -64.9
   09/13/2017 01:00      66.2      65.9       76     58.4      0.00      0.09      86.3     0.38      1012.0     2       261         3       251        8.94     272      -64.5
   09/13/2017 00:50      66.4      66.1       75     58.2      0.00      0.09      86.0     0.38      1012.0     1       339         2       281        8.94     272      -63.8
   09/13/2017 00:40      66.6      66.4       75     58.5      0.00      0.09      86.1     0.38      1012.0     1       196         2       233        8.94     271      -64.2
   09/13/2017 00:30      66.7      66.5       75     58.6      0.00      0.09      85.9     0.38      1012.0     1       198         2       166        8.94     272      -64.7
   09/13/2017 00:20      66.7      66.5       75     58.6      0.00      0.09      85.9     0.38      1012.0     2       227         3       247        8.94     271      -64.5
   09/13/2017 00:10      67.1      66.8       75     58.7      0.00      0.09      85.9     0.38      1012.0     2       193         4       205        8.95     272      -64.7
   09/13/2017 00:00      67.3      67.1       74     58.8      0.00      0.09      86.1     0.38      1012.0     1        98         2       126        8.95     271      -64.5
   09/12/2017 23:50      67.4      67.3       74     58.7      0.00      0.09      86.0     0.38      1012.0     2       181         4       290        8.95     271      -64.0
   09/12/2017 23:40      68.0      67.6       73     58.7      0.00      0.09      86.0     0.38      1012.0     2       196         6       255        8.95     271      -63.9
   09/12/2017 23:30      68.3      68.0       72     58.6      0.00      0.09      86.0     0.38      1012.0     2       238         3       244        8.95     271      -63.6
   09/12/2017 23:20      68.6      68.2       71     58.7      0.00      0.09      86.2     0.38      1012.0     2       243         4       210        8.95     271      -63.3
   09/12/2017 23:10      68.9      68.7       71     58.9      0.00      0.09      86.3     0.38      1012.0     2       236         3       231        8.95     271      -63.5
   09/12/2017 23:00      69.2      68.9       70     58.9      0.00      0.09      86.1     0.38      1012.0     3       245         5       244        8.95     271      -63.5
   09/12/2017 22:50      69.3      69.1       70     58.9      0.00      0.09      86.0     0.38      1012.0     3       238         5       289        8.95     271      -64.1
   09/12/2017 22:40      69.4      69.1       69     58.9      0.00      0.09      86.2     0.38      1012.0     2       218         3       202        8.96     271      -64.4
   09/12/2017 22:30      69.8      69.4       69     59.0      0.00      0.09      86.2     0.38      1012.0     4       239         6       228        8.96     270      -64.1
   09/12/2017 22:20      70.5      69.9       68     59.1      0.00      0.09      86.1     0.38      1012.0     4       225         7       239        8.96     270      -65.3
   09/12/2017 22:10      71.0      70.7       67     59.3      0.00      0.09      86.2     0.38      1012.0     3       218         5       188        8.96     270      -65.2
   09/12/2017 22:00      71.3      71.1       66     59.4      0.00      0.09      86.3     0.38      1012.0     3       205         3       207        8.96     270      -65.5
   09/12/2017 21:50      71.6      71.3       66     59.4      0.00      0.09      86.3     0.38      1012.0     3       205         4       190        8.96     270      -65.6
   09/12/2017 21:40      71.9      71.5       65     59.5      0.00      0.09      86.3     0.38      1012.0     3       207         4       202        8.96     270      -65.8
   09/12/2017 21:30      72.0      71.7       65     59.3      0.00      0.09      86.3     0.38      1012.0     3       225         4       235        8.96     270      -66.6
   09/12/2017 21:20      72.2      72.1       64     59.4      0.00      0.09      86.4     0.38      1012.0     5       234         7       243        8.96     270      -67.0
   09/12/2017 21:10      72.9      72.2       63     59.4      0.00      0.09      86.3     0.38      1012.0     3       214         5       221        8.96     270      -67.8
   09/12/2017 21:00      73.3      72.9       62     59.5      0.00      0.09      86.2     0.38      1012.0     3       218         5       251        8.97     270      -68.7
   09/12/2017 20:50      73.7      73.3       62     59.6      0.00      0.09      85.9     0.38      1012.0     5       234         6       239        8.97     270      -69.2
   09/12/2017 20:40      74.0      73.7       61     59.5      0.00      0.09      86.1     0.38      1011.0     3       220         4       248        8.97     270      -70.1
   09/12/2017 20:30      74.6      74.2       60     59.4      0.00      0.09      86.1     0.38      1011.0     3       207         5       206        8.97     270      -71.1
   09/12/2017 20:20      74.9      74.6       59     59.3      0.00      0.09      86.2     0.38      1011.0     3       220         5       218        8.97     270      -72.0
   09/12/2017 20:10      75.2      74.9       58     59.3      0.00      0.09      86.3     0.38      1011.0     4       219         5       199        8.98     269      -72.7
   09/12/2017 20:00      75.7      75.3       57     59.2      0.00      0.09      86.2     0.38      1011.0     4       212         6       197        8.98     270      -73.7
   09/12/2017 19:50      76.6      75.8       56     59.2      0.00      0.09      86.2     0.38      1011.0     4       216         6       243        8.98     269      -74.5
   09/12/2017 19:40      77.5      76.8       54     59.2      0.00      0.09      86.1     0.38      1011.0     5       241         6       247        8.98     269      -76.1
   09/12/2017 19:30      78.4      77.8       53     59.4      0.00      0.09      86.2     0.38      1011.0     3       235         6       224        8.98     269      -77.7
   09/12/2017 19:20      79.0      78.5       52     59.6      0.00      0.09      86.2     0.38      1011.0     4       231         6       233        8.98     269      -78.1
   09/12/2017 19:10      80.0      79.2       51     59.8      0.00      0.09      86.1     0.38      1010.0     4       231         6       228        8.99     269      -77.5
   09/12/2017 19:00      80.8      80.1       50     59.9      0.00      0.09      85.9     0.38      1010.0     4       255         6       250        8.99     269      -75.1
   09/12/2017 18:50      81.7      81.1       48     60.0      0.00      0.09      85.7     0.38      1010.0     4       258         5       258        8.99     269      -72.0
   09/12/2017 18:40      82.2      81.8       47     60.1      0.00      0.09      85.9     0.38      1010.0     3       290         5       243        8.99     269      -62.2
   09/12/2017 18:30      82.6      82.0       47     60.1      0.00      0.09      86.0     0.38      1010.0     4       303         9       306        8.99     269      -42.3
   09/12/2017 18:20      82.8      82.3       47     60.1      0.00      0.09      85.9     0.38      1010.0     4       303         8       293        8.99     269      -24.1
   09/12/2017 18:10      83.3      82.7       46     60.3      0.00      0.09      85.9     0.38      1010.0     4       304         7       321        8.99     269       -3.4
   09/12/2017 18:00      83.7      83.3       46     60.4      0.00      0.09      85.9     0.38      1010.0     4       308         6       314        8.99     268       18.6
   09/12/2017 17:50      85.0      83.6       45     60.5      0.00      0.09      85.8     0.38      1010.0     6       309         8       286        8.99     268       40.9
   09/12/2017 17:40      85.6      85.2       43     60.7      0.00      0.09      85.8     0.38      1010.0     5       308         8       304        8.99     268       65.2
   09/12/2017 17:30      86.7      85.8       43     60.8      0.00      0.09      85.6     0.38      1010.0     5       311         9       309        8.99     268       91.0
   09/12/2017 17:20      88.1      86.9       41     61.0      0.00      0.09      85.7     0.38      1010.0     4       264         7       271        8.99     268      116.5
   09/12/2017 17:10      88.3      87.9       40     61.1      0.00      0.09      85.6     0.38      1010.0     4       260         6       246        8.99     268      140.6
   09/12/2017 17:00      89.6      88.4       38     60.2      0.00      0.09      85.5     0.38      1010.0     4       240         6       280        9.00     268      165.7
   09/12/2017 16:50      89.5      88.9       36     58.6      0.00      0.09      85.6     0.38      1010.0     5       200         8       252        9.00     268      190.9
   09/12/2017 16:40      89.2      88.6       36     58.7      0.00      0.09      85.5     0.38      1010.0     5       155         8       155        9.22     268      214.3
   09/12/2017 16:30      89.6      88.6       37     59.3      0.00      0.09      85.4     0.38      1010.0     5       163         8       128        9.23     267      238.6
   09/12/2017 16:20      89.2      88.7       36     58.8      0.00      0.09      85.4     0.38      1010.0     6       149        10       129        9.23     267      258.1
   09/12/2017 16:10      89.6      88.9       36     58.5      0.00      0.09      85.3     0.37      1010.0     5       130         9       117        9.23     267      273.2
   09/12/2017 16:00      90.1      88.7       36     58.9      0.00      0.09      85.2     0.37      1010.0     6       127        10       133        9.23     268      298.5
   09/12/2017 15:50      90.4      89.7       35     58.6      0.00      0.09      85.2     0.37      1010.0     5       140         7       171        9.23     268      318.5
   09/12/2017 15:40      90.6      89.7       34     58.0      0.00      0.09      85.1     0.37      1011.0     5       163         8       166        9.24     268      338.2
   09/12/2017 15:30      91.0      89.8       34     58.3      0.00      0.09      85.0     0.37      1011.0     5       168         9       114        9.24     268      354.1
   09/12/2017 15:20      91.6      90.1       33     58.3      0.00      0.09      85.0     0.37      1011.0     4       199         8       201        9.24     269      371.2
   09/12/2017 15:10      91.9      90.2       34     59.1      0.00      0.09      84.9     0.37      1011.0     3       272         4       212        9.24     269      386.3
   09/12/2017 15:00      91.4      90.3       34     58.2      0.00      0.09      84.9     0.37      1011.0     6       168         9       178        9.24     269      407.4
   09/12/2017 14:50      90.8      89.9       33     57.7      0.00      0.09      84.8     0.37      1011.0     7       105        12        63        9.24     269      429.3
   09/12/2017 14:40      90.9      90.1       33     57.1      0.00      0.09      84.8     0.37      1011.0     5       125         7       125        9.24     269      444.2
   09/12/2017 14:30      91.0      90.3       32     56.5      0.00      0.09      84.7     0.37      1011.0     5       133         7       112        9.24     269      446.4
   09/12/2017 14:20      91.0      90.3       33     57.2      0.00      0.09      84.6     0.37      1011.0     5       149         9       136        9.24     269      467.5
   09/12/2017 14:10      90.8      89.8       33     57.6      0.00      0.09      84.6     0.37      1011.0     6       124        10       131        9.24     269      475.8
   09/12/2017 14:00      91.0      89.6       35     58.9      0.00      0.09      84.6     0.37      1011.0     5       148         8       146        9.25     269      484.5
   09/12/2017 13:50      91.6      89.9       36     60.3      0.00      0.09      84.7     0.37      1011.0     7       163        11       116        9.25     270      492.4
   09/12/2017 13:40      91.1      90.2       38     61.9      0.00      0.09      84.6     0.37      1011.0     4        17        11       315        9.25     270      487.3
   09/12/2017 13:30      90.3      89.6       40     62.6      0.00      0.09      84.6     0.37      1011.0     6         3         8        21        9.25     270      494.9
   09/12/2017 13:20      90.8      90.0       40     62.8      0.00      0.09      84.6     0.37      1012.0     4        34         7        61        9.25     270      497.5
   09/12/2017 13:10      91.0      89.5       40     62.8      0.00      0.09      84.6     0.37      1012.0     6        20         9       349        9.25     270      502.2
   09/12/2017 13:00      90.8      89.9       40     62.9      0.00      0.09      84.5     0.37      1012.0     4        49         8        59        9.25     270      508.5
   09/12/2017 12:50      90.1      89.6       41     62.8      0.00      0.09      84.5     0.37      1012.0     4        73         5        71        9.25     270      509.5
   09/12/2017 12:40      89.7      89.2       41     63.0      0.00      0.09      84.4     0.37      1012.0     5        79         8        75        9.25     270      505.5
   09/12/2017 12:30      90.3      88.7       42     63.3      0.00      0.09      84.3     0.37      1012.0     4        62         5        81        9.25     271      497.4
   09/12/2017 12:20      89.6      89.1       42     63.2      0.00      0.09      84.4     0.37      1012.0     3        75         6       142        9.25     271      494.6
   09/12/2017 12:10      89.8      88.6       41     62.2      0.00      0.09      84.5     0.37      1013.0     3        28         4        52        9.25     271      494.1
   09/12/2017 12:00      88.8      87.6       41     61.6      0.00      0.09      84.3     0.37      1013.0     3         6         4         4        9.25     271      490.5
   09/12/2017 11:50      88.8      87.5       40     61.2      0.00      0.09      84.4     0.37      1013.0     4        43        10       350        9.25     272      486.1
   09/12/2017 11:40      88.9      88.1       40     61.2      0.00      0.09      84.6     0.37      1013.0     3        24         5       330        9.25     271      480.1
   09/12/2017 11:30      88.1      87.4       41     60.9      0.00      0.09      84.5     0.37      1013.0     3         8         5         8        9.25     271      471.2
   09/12/2017 11:20      88.4      88.0       40     60.7      0.00      0.09      84.2     0.37      1013.0     2        50         4        21        9.25     271      463.6
   09/12/2017 11:10      87.9      86.8       40     60.3      0.00      0.09      84.6     0.37      1013.0     2        56         3        35        9.25     271      455.4
   09/12/2017 11:00      86.5      85.7       42     60.2      0.00      0.09      84.4     0.37      1013.0     3        58         4        66        9.25     271      446.6
   09/12/2017 10:50      85.6      85.1       43     60.3      0.00      0.09      84.6     0.37      1013.0     2       348         3         7        9.26     272      435.1
   09/12/2017 10:40      85.2      84.7       44     60.4      0.00      0.09      84.7     0.37      1013.0     2       358         3        40        9.26     271      422.3
   09/12/2017 10:30      85.1      83.5       44     60.5      0.00      0.09      84.6     0.37      1013.0     2        44         4        69        9.26     271      407.7
   09/12/2017 10:20      84.0      83.5       45     60.4      0.00      0.09      84.3     0.37      1014.0     2       113         3        87        9.26     272      393.3
   09/12/2017 10:10      83.8      82.4       46     60.3      0.00      0.09      84.7     0.37      1014.0     1       163         3       137        9.26     272      377.9
   09/12/2017 10:00      82.5      81.2       48     60.3      0.00      0.09      84.8     0.38      1014.0     2        40         3        81        9.26     273      360.2
   09/12/2017 09:50      81.5      80.9       49     60.0      0.00      0.09      85.1     0.38      1014.0     2       338         4       351        9.26     273      342.9
   09/12/2017 09:40      81.0      80.3       50     60.0      0.00      0.09      84.9     0.38      1014.0     2        30         3       356        9.26     273      325.6
   09/12/2017 09:30      81.3      79.7       49     59.7      0.00      0.09      84.7     0.38      1014.0     2       117         4       118        9.26     273      307.7
   09/12/2017 09:20      80.7      79.6       50     60.1      0.00      0.09      84.7     0.38      1014.0     2        97         4        93        9.26     273      289.3
   09/12/2017 09:10      79.6      79.2       51     59.8      0.00      0.09      85.1     0.38      1014.0     2       349         3       334        9.26     273      268.7
   09/12/2017 09:00      79.2      78.0       53     60.1      0.00      0.09      84.6     0.38      1014.0     1       342         3        13        9.26     274      249.2
   09/12/2017 08:50      79.2      78.1       53     60.0      0.00      0.09      84.7     0.38      1014.0     1       358         2       333        9.26     274      227.4
   09/12/2017 08:40      79.4      78.6       52     60.1      0.00      0.09      84.7     0.38      1014.0     1        85         2       113        9.26     274      205.9
   09/12/2017 08:30      78.5      77.1       54     59.9      0.00      0.09      85.0     0.38      1014.0     1        10         2        65        9.26     274      183.3
   09/12/2017 08:20      77.0      74.8       57     59.5      0.00      0.09      84.6     0.38      1014.0     1       149         1       115        9.26     274      158.4
   09/12/2017 08:10      74.9      74.1       59     59.3      0.00      0.09      85.2     0.38      1014.0     2       266         3       231        9.27     274      131.8
   09/12/2017 08:00      74.2      73.4       60     59.3      0.00      0.09      85.3     0.38      1014.0     2       271         3       253        9.26     274      105.0
   09/12/2017 07:50      73.5      72.3       63     59.4      0.00      0.09      84.9     0.38      1014.0     2       225         3       244        9.27     275       77.2
   09/12/2017 07:40      72.4      71.2       65     59.5      0.00      0.09      84.9     0.38      1014.0     2       182         3       185        9.27     275       50.1
   09/12/2017 07:30      71.0      69.7       68     59.2      0.00      0.09      84.9     0.38      1014.0     2       197         2       178        9.27     274       22.9
   09/12/2017 07:20      69.6      68.4       70     59.0      0.00      0.09      85.0     0.38      1014.0     2       222         3       227        9.27     274       -1.6
   09/12/2017 07:10      68.2      67.2       75     59.5      0.00      0.09      85.0     0.38      1014.0     2       205         3       253        9.27     274      -21.5
   09/12/2017 07:00      67.2      66.7       76     59.3      0.00      0.09      85.4     0.38      1013.0     1       148         1       167        9.27     274      -35.1
   09/12/2017 06:50      66.9      66.5       77     59.1      0.00      0.09      85.0     0.38      1013.0     1       171         1       202        9.27     273      -43.0
   09/12/2017 06:40      67.0      66.6       76     58.9      0.00      0.09      85.3     0.38      1013.0     1       154         1       204        9.27     274      -46.6
   09/12/2017 06:30      67.2      66.9       76     59.1      0.00      0.09      85.4     0.38      1013.0     1       229         1       213        9.27     273      -48.3
   09/12/2017 06:20      67.2      66.8       76     59.3      0.00      0.09      85.1     0.38      1013.0     0       194         1       174        9.27     273      -48.9
   09/12/2017 06:10      67.2      67.0       76     59.1      0.00      0.09      85.5     0.38      1013.0     0       107         0        86        9.27     273      -50.8
   09/12/2017 06:00      67.3      67.0       76     59.4      0.00      0.09      85.6     0.38      1013.0     1       213         2       167        9.27     273      -50.7
   09/12/2017 05:50      67.1      66.8       76     59.3      0.00      0.09      85.4     0.38      1013.0     2       144         2       157        9.27     273      -51.0
   09/12/2017 05:40      67.3      67.1       76     59.4      0.00      0.09      85.4     0.38      1013.0     1       151         2       142        9.27     273      -50.4
   09/12/2017 05:30      67.6      67.3       75     59.5      0.00      0.09      85.7     0.38      1013.0     1       136         2       134        9.27     273      -49.9
   09/12/2017 05:20      67.8      67.5       75     59.4      0.00      0.09      85.6     0.38      1013.0     1       142         1       128        9.27     273      -49.7
   09/12/2017 05:10      68.6      68.0       74     59.5      0.00      0.09      85.3     0.38      1013.0     1       151         1       162        9.27     273      -50.4
   09/12/2017 05:00      69.0      68.6       73     59.9      0.00      0.09      85.9     0.38      1013.0     1       153         2       147        9.27     273      -51.0
   09/12/2017 04:50      69.2      69.1       72     59.9      0.00      0.09      85.6     0.38      1013.0     2       173         2       194        9.27     273      -51.4
   09/12/2017 04:40      69.6      69.2       71     59.6      0.00      0.09      85.4     0.38      1013.0     1       204         2       215        9.27     273      -51.3
   09/12/2017 04:30      69.8      69.1       71     59.8      0.00      0.09      85.9     0.38      1013.0     2       220         2       205        9.27     273      -51.1
   09/12/2017 04:20      69.0      68.2       73     59.6      0.00      0.09      85.7     0.38      1013.0     2       232         2       244        9.27     273      -50.8
   09/12/2017 04:10      68.5      68.4       74     60.0      0.00      0.09      85.5     0.38      1013.0     1       216         2       213        9.27     273      -51.2
   09/12/2017 04:00      68.6      68.4       76     60.7      0.00      0.09      85.9     0.38      1013.0     1       190         1       232        9.27     273      -51.2
   09/12/2017 03:50      68.7      68.4       76     60.7      0.00      0.09      85.8     0.38      1013.0     1       153         1       155        9.27     273      -52.2
   09/12/2017 03:40      69.0      68.7       74     60.4      0.00      0.09      85.9     0.38      1013.0     1       138         2       135        9.27     273      -52.4
   09/12/2017 03:30      69.0      68.8       75     60.5      0.00      0.09      85.9     0.38      1013.0     0       222         0       257        9.27     273      -51.7
   09/12/2017 03:20      69.1      69.0       74     60.5      0.00      0.09      85.9     0.38      1013.0     2       145         2       139        9.27     273      -53.6
   09/12/2017 03:10      69.2      69.0       74     60.5      0.00      0.09      86.2     0.38      1013.0     1       141         2       143        9.27     273      -53.2
   09/12/2017 03:00      69.3      69.2       73     60.4      0.00      0.09      86.0     0.38      1013.0     1       159         2       145        9.27     273      -53.2
   09/12/2017 02:50      69.8      69.5       73     60.6      0.00      0.09      86.1     0.38      1013.0     1       158         1       142        9.27     273      -53.2
   09/12/2017 02:40      69.9      69.6       73     60.6      0.00      0.09      86.2     0.38      1013.0     1       173         1       160        9.27     273      -53.1
   09/12/2017 02:30      69.9      69.7       73     60.6      0.00      0.09      86.0     0.38      1013.0     1       154         1       148        9.27     273      -52.8
   09/12/2017 02:20      69.9      69.6       72     60.5      0.00      0.09      86.0     0.38      1013.0     2       149         2       144        9.27     273      -54.5
   09/12/2017 02:10      70.2      69.8       71     60.3      0.00      0.09      86.3     0.39      1013.0     2       143         2       151        9.27     273      -54.3
   09/12/2017 02:00      70.3      70.2       71     60.6      0.00      0.09      86.1     0.38      1013.0     2       133         2       140        9.27     273      -54.7
   09/12/2017 01:50      70.7      70.2       71     60.8      0.00      0.09      86.5     0.38      1013.0     1       141         2       136        9.27     273      -53.5
   09/12/2017 01:40      71.0      70.7       71     60.9      0.00      0.09      86.0     0.39      1014.0     1       159         2       143        9.27     273      -53.7
   09/12/2017 01:30      71.2      70.9       71     61.0      0.00      0.09      86.2     0.38      1014.0     1       142         1       144        9.27     273      -53.3
   09/12/2017 01:20      71.5      71.0       70     60.7      0.00      0.09      86.1     0.38      1014.0     1       160         1       158        9.27     273      -54.0
   09/12/2017 01:10      71.5      71.3       68     60.5      0.00      0.09      85.8     0.39      1014.0     1       166         1       161        9.27     273      -53.7
   09/12/2017 01:00      71.8      71.6       67     60.4      0.00      0.09      86.4     0.39      1014.0     1       181         2       191        9.28     272      -53.2
   09/12/2017 00:50      72.0      71.8       67     60.4      0.00      0.09      86.2     0.39      1014.0     1       159         1       163        9.28     272      -54.4
   09/12/2017 00:40      72.3      72.0       66     60.3      0.00      0.09      86.5     0.39      1014.0     1       178         1       167        9.28     272      -54.8
   09/12/2017 00:30      72.2      72.0       66     60.2      0.00      0.09      86.5     0.39      1014.0     1       156         2       156        9.28     272      -55.5
   09/12/2017 00:20      72.6      72.2       65     60.1      0.00      0.09      86.2     0.39      1014.0     1       124         2       126        9.28     272      -56.4
   09/12/2017 00:10      73.0      72.7       64     60.1      0.00      0.09      86.4     0.39      1014.0     1       128         1       123        9.28     272      -56.8
   09/12/2017 00:00      73.3      73.0       65     60.4      0.00      0.09      86.4     0.39      1014.0     1       134         1       140        9.28     272      -56.7
   09/11/2017 23:50      73.6      73.2       63     60.1      0.00      0.09      86.3     0.39      1014.0     1       106         1       116        9.28     272      -55.4
   09/11/2017 23:40      74.2      73.7       63     60.4      0.00      0.09      86.4     0.39      1014.0     0        82         1       103        9.28     272      -53.3
   09/11/2017 23:30      74.3      74.1       62     60.5      0.00      0.09      86.3     0.39      1014.0     0        83         1        80        9.28     272      -53.7
   09/11/2017 23:20      74.4      74.2       62     60.6      0.00      0.09      86.3     0.39      1014.0     2        83         3        75        9.28     272      -54.4
   09/11/2017 23:10      74.6      74.4       62     60.6      0.00      0.09      86.3     0.39      1014.0     1        88         2        62        9.28     272      -54.6
   09/11/2017 23:00      74.7      74.5       61     60.3      0.00      0.09      86.5     0.39      1014.0     2        89         2        62        9.28     272      -55.8
   09/11/2017 22:50      74.8      74.6       60     59.9      0.00      0.09      86.2     0.38      1014.0     1       117         2        98        9.28     271      -53.6
   09/11/2017 22:40      75.1      74.6       60     59.9      0.00      0.09      86.5     0.38      1014.0     1       106         1       123        9.28     271      -55.2
   09/11/2017 22:30      75.5      75.2       59     59.9      0.00      0.09      86.6     0.39      1014.0     1        68         1        60        9.28     271      -57.3
   09/11/2017 22:20      75.7      75.4       59     60.1      0.00      0.09      86.4     0.39      1014.0     1        75         1        74        9.28     271      -58.5
   09/11/2017 22:10      76.1      75.8       58     60.0      0.00      0.09      86.3     0.39      1014.0     1        76         1        66        9.28     271      -59.9
   09/11/2017 22:00      76.8      76.2       56     59.9      0.00      0.09      86.5     0.39      1013.0     1       107         2       108        9.28     271      -61.1
   09/11/2017 21:50      77.4      76.8       56     60.1      0.00      0.09      86.5     0.39      1013.0     2        77         3        81        9.28     271      -63.3
   09/11/2017 21:40      78.1      77.4       54     60.0      0.00      0.09      86.4     0.39      1013.0     2        67         3        67        9.29     271      -63.5
   09/11/2017 21:30      78.4      77.8       55     60.5      0.00      0.09      86.3     0.39      1013.0     2        66         4        73        9.29     271      -64.2
   09/11/2017 21:20      78.9      78.6       54     60.9      0.00      0.09      86.8     0.38      1013.0     1       167         1        75        9.29     271      -65.3
   09/11/2017 21:10      79.4      79.1       54     61.1      0.00      0.09      86.6     0.38      1013.0     1       211         2       229        9.29     271      -66.2
   09/11/2017 21:00      79.7      79.4       54     61.3      0.00      0.09      86.4     0.39      1013.0     2       197         2       192        9.29     271      -68.6
   09/11/2017 20:50      80.3      79.7       53     61.4      0.00      0.09      86.5     0.38      1013.0     2       217         4       234        9.29     270      -69.5
   09/11/2017 20:40      80.4      80.3       53     61.7      0.00      0.09      86.1     0.38      1013.0     3       237         4       233        9.29     270      -70.1
   09/11/2017 20:30      80.9      80.4       53     61.8      0.00      0.09      86.3     0.38      1013.0     3       209         4       217        9.29     270      -70.5
   09/11/2017 20:20      81.4      80.8       52     62.0      0.00      0.09      86.2     0.38      1012.0     2       213         4       230        9.29     270      -70.1
   09/11/2017 20:10      82.1      81.5       51     61.9      0.00      0.09      86.2     0.38      1012.0     3       223         5       233        9.30     270      -66.6
   09/11/2017 20:00      82.6      82.2       50     61.6      0.00      0.09      86.3     0.38      1012.0     4       233         5       227        9.30     270      -60.5
   09/11/2017 19:50      83.2      82.7       47     60.9      0.00      0.09      86.1     0.38      1012.0     4       229         6       229        9.30     270      -56.5
   09/11/2017 19:40      83.4      83.2       46     60.5      0.00      0.09      86.1     0.38      1012.0     3       241         5       247        9.30     270      -58.5
   09/11/2017 19:30      83.8      83.3       45     60.1      0.00      0.09      86.1     0.39      1011.0     5       232         9       243        9.30     270      -61.5
   09/11/2017 19:20      84.4      83.9       44     60.0      0.00      0.09      86.1     0.39      1011.0     6       237         7       238        9.30     270      -62.8
   09/11/2017 19:10      85.2      84.5       43     60.0      0.00      0.09      86.0     0.38      1011.0     5       229         6       235        9.31     270      -61.9
   09/11/2017 19:00      86.1      85.3       42     60.0      0.00      0.09      86.2     0.38      1011.0     4       233         6       224        9.31     270      -61.2
   09/11/2017 18:50      86.4      86.0       42     60.3      0.00      0.09      86.1     0.39      1011.0     4       259         6       277        9.31     270      -50.9
   09/11/2017 18:40      86.7      86.4       42     60.7      0.00      0.09      86.0     0.38      1011.0     3       286         5       280        9.31     270      -48.8
   09/11/2017 18:30      87.6      86.8       41     60.6      0.00      0.09      86.1     0.38      1011.0     3       280         5       265        9.31     269      -45.4
   09/11/2017 18:20      87.8      87.4       41     60.7      0.00      0.09      85.9     0.38      1011.0     4       257         6       243        9.31     269      -32.2
   09/11/2017 18:10      89.7      88.3       39     60.6      0.00      0.09      85.9     0.38      1011.0     5       278         6       275        9.32     269       -4.6
   09/11/2017 18:00      90.8      89.8       37     60.8      0.00      0.09      85.8     0.38      1011.0     5       290         8       294        9.32     269       52.3
   09/11/2017 17:50      90.6      90.0       37     60.8      0.00      0.09      85.8     0.38      1011.0     5       268         9       241        9.32     269      112.4
   09/11/2017 17:40      90.3      89.8       38     60.8      0.00      0.09      85.9     0.38      1010.0     4       263         7       304        9.32     269      120.6
   09/11/2017 17:30      90.8      90.0       37     60.8      0.00      0.09      85.9     0.38      1010.0     6       249         8       278        9.32     269       56.8
   09/11/2017 17:20      91.8      90.6       34     59.3      0.00      0.09      85.7     0.38      1010.0     5       221         8       190        9.32     269       97.0
   09/11/2017 17:10      92.1      91.1       34     59.3      0.00      0.09      85.7     0.38      1010.0     6       213         9       178        9.32     269      180.2
   09/11/2017 17:00      92.3      90.8       34     59.2      0.00      0.09      85.7     0.38      1010.0     7       208         9       193        9.32     269       92.1
   09/11/2017 16:50      92.8      92.3       33     59.1      0.00      0.09      85.5     0.38      1010.0     4       241         8       201        9.32     269       93.3
   09/11/2017 16:40      93.4      92.9       32     58.6      0.00      0.09      85.4     0.38      1010.0     5       227         7       211        9.32     269      148.0
   09/11/2017 16:30      93.8      93.2       30     57.2      0.00      0.09      85.5     0.38      1010.0     4       227         7       214        9.32     269      111.9
   09/11/2017 16:20      94.0      93.2       29     56.7      0.00      0.09      85.6     0.38      1010.0     5       190         8       231        9.32     269      154.8
   09/11/2017 16:10      93.3      92.7       31     57.7      0.00      0.09      85.5     0.38      1010.0     5       192         7       159        9.32     269      109.5
   09/11/2017 16:00      93.7      93.0       31     58.0      0.00      0.09      85.3     0.38      1010.0     5       189         8       195        9.32     269      162.2
   09/11/2017 15:50      94.1      93.7       30     58.0      0.00      0.09      85.4     0.38      1010.0     5       170         7       193        9.32     269      222.4
   09/11/2017 15:40      94.2      93.9       31     58.6      0.00      0.09      85.2     0.38      1011.0     6       149         8       134        9.32     269      369.6
   09/11/2017 15:30      93.9      92.0       32     58.8      0.00      0.09      85.0     0.38      1011.0     6       172         8       141        9.32     270      358.9
   09/11/2017 15:20      94.1      92.3       32     58.7      0.00      0.09      85.3     0.38      1011.0     7       178        11       174        9.32     270      376.2
   09/11/2017 15:10      97.0      94.5       27     56.2      0.00      0.09      85.1     0.38      1011.0     8       155        13       137        9.32     271      385.6
   09/11/2017 15:00      98.1      97.0       23     53.8      0.00      0.09      85.0     0.38      1010.0     8       153        13       151        9.32     271      403.3
   09/11/2017 14:50      98.4      97.7       25     56.2      0.00      0.09      85.0     0.38      1010.0     4        64         9       125        9.32     272      410.0
   09/11/2017 14:40      98.5      97.2       26     56.9      0.00      0.09      85.1     0.38      1010.0     4       115         6        87        9.32     273      419.1
   09/11/2017 14:30      98.1      97.5       27     58.3      0.00      0.09      85.1     0.38      1010.0     3        23         5       352        9.32     275      433.9
   09/11/2017 14:20      97.7      96.1       28     57.9      0.00      0.09      85.0     0.38      1011.0     3        42         5        80        9.32     275      444.3
   09/11/2017 14:10      96.6      95.1       28     58.0      0.00      0.09      85.0     0.38      1011.0     4        44         6        84        9.32     275      454.8
   09/11/2017 14:00      95.6      95.1       30     59.4      0.00      0.09      84.9     0.38      1011.0     5        17         9       345        9.32     277      469.0
   09/11/2017 13:50      96.2      95.1       30     59.7      0.00      0.09      84.9     0.38      1011.0     5       359         9         3        9.32     277      525.0
   09/11/2017 13:40      96.2      95.1       30     59.6      0.00      0.09      84.8     0.38      1011.0     3         5         5       335        9.32     279      560.8
   09/11/2017 13:30      95.0      93.9       32     59.6      0.00      0.09      84.9     0.38      1011.0     4        39         6         8        9.32     279      453.5
   09/11/2017 13:20      95.3      94.3       31     59.2      0.00      0.09      84.8     0.38      1011.0     3        26         4         2        9.32     280      452.6
   09/11/2017 13:10      94.3      93.2       31     58.7      0.00      0.09      84.8     0.38      1012.0     3        22         6        23        9.32     282      407.1
   09/11/2017 13:00      94.0      93.4       31     58.3      0.00      0.09      84.8     0.38      1012.0     3        19         5        23        9.32     283      474.8
   09/11/2017 12:50      93.8      93.1       30     57.8      0.00      0.09      84.7     0.38      1012.0     3        25         5       358        9.32     284      476.4
   09/11/2017 12:40      94.1      92.8       30     57.4      0.00      0.09      84.8     0.38      1012.0     3        43         5        24        9.32     285      581.4
   09/11/2017 12:30      92.8      92.0       31     57.1      0.00      0.09      84.9     0.38      1012.0     3        30         5        16        9.33     288      519.9
   09/11/2017 12:20      92.6      91.5       31     57.1      0.00      0.09      84.9     0.38      1012.0     3        55         5       100        9.32     289      459.2
   09/11/2017 12:10      92.0      90.3       32     57.2      0.00      0.09      84.6     0.38      1013.0     3        31         4        35        9.32     296      547.4
   09/11/2017 12:00      90.6      89.8       33     57.2      0.00      0.09      84.9     0.38      1013.0     3        51         6        91        9.32     299      523.8
   09/11/2017 11:50      89.8      88.9       34     56.8      0.00      0.09      84.9     0.38      1013.0     3        15         6         6        9.32     304      458.8
   09/11/2017 11:40      88.7      88.0       35     57.0      0.00      0.09      84.9     0.39      1013.0     3        34         6         2        9.32     307      393.4
   09/11/2017 11:30      88.6      87.5       35     56.9      0.00      0.09      85.0     0.39      1013.0     4        11         7       353        9.32     312      314.6
   09/11/2017 11:20      88.1      87.2       35     56.8      0.00      0.09      84.9     0.39      1013.0     3        47         6       113        9.32     319      444.8
   09/11/2017 11:10      87.8      86.0       35     56.6      0.00      0.09      84.8     0.39      1013.0     3        73         7       105        9.32     326      417.7
   09/11/2017 11:00      87.1      85.7       36     56.4      0.00      0.09      84.9     0.39      1013.0     3        91         5        84        9.32     334      469.5
   09/11/2017 10:50      86.5      85.8       37     56.7      0.00      0.09      85.0     0.39      1013.0     3        72         6       123        9.32     347      379.3
   09/11/2017 10:40      85.7      83.9       39     56.6      0.00      0.09      84.9     0.39      1013.0     3        19         5        22        9.32     362      399.8
   09/11/2017 10:30      84.5      83.7       39     56.4      0.00      0.09      85.0     0.39      1013.0     3        19         4         1        9.32     380      229.2
   09/11/2017 10:20      84.2      83.3       39     56.5      0.00      0.09      84.9     0.39      1013.0     3        61         5        62        9.32     406      244.4
   09/11/2017 10:10      83.4      82.5       41     56.7      0.00      0.09      84.9     0.39      1013.0     2        31         3       342        9.32     428      246.4
   09/11/2017 10:00      83.3      82.2       42     57.2      0.00      0.09      85.1     0.39      1013.0     2        24         4       346        9.32     443      286.8
   09/11/2017 09:50      82.6      81.9       43     57.4      0.00      0.09      85.4     0.39      1013.0     2        46         4        87        9.33     456      303.7
   09/11/2017 09:40      81.9      80.7       44     57.3      0.00      0.09      85.5     0.39      1014.0     3        55         5        80        9.32     474      256.5
   09/11/2017 09:30      80.7      80.2       45     57.1      0.00      0.09      85.3     0.39      1013.0     2        76         4         4        9.32     493      200.2
   09/11/2017 09:20      80.4      79.3       46     57.2      0.00      0.09      85.5     0.39      1013.0     3        48         4        76        9.32     507      196.7
   09/11/2017 09:10      79.3      78.7       48     57.8      0.00      0.09      85.2     0.39      1013.0     2        29         3        54        9.32     519      164.3
   09/11/2017 09:00      78.6      78.3       50     58.3      0.00      0.09      85.4     0.38      1013.0     2        13         3       352        9.32     657      138.6
   09/11/2017 08:50      78.3      76.8       52     58.4      0.00      0.09      85.6     0.36      1013.0     2        17         3         7        9.32     674      142.9
   09/11/2017 08:40      77.0      76.7       53     58.3      0.00      0.09      85.5     0.32      1013.0     2         3         4       343        9.32     432       87.8
   09/11/2017 08:30      77.8      76.9       51     58.1      0.00      0.09      85.2     0.32      1013.0     2        39         2        34        8.27     271       66.8
   09/11/2017 08:20      78.4      78.1       50     58.0      0.00      0.09      85.4     0.32      1013.0     2        18         3        19        8.27     271       98.0
   09/11/2017 08:10      78.4      77.6       50     57.8      0.00      0.09      85.5     0.32      1013.0     2         2         3       346        8.27     272      127.6
   09/11/2017 08:00      77.9      75.7       52     57.8      0.00      0.09      85.7     0.32      1013.0     1        48         3        89        8.27     271       97.4
   09/11/2017 07:50      75.7      74.6       54     57.7      0.00      0.09      85.5     0.32      1013.0     3        81         4        76        8.27     271       71.0
   09/11/2017 07:40      74.4      71.7       59     58.0      0.00      0.09      85.5     0.32      1013.0     2        97         2        77        8.27     271       44.4
   09/11/2017 07:30      71.8      70.2       64     58.1      0.00      0.09      85.5     0.32      1013.0     2       108         2        72        8.27     271       20.5
   09/11/2017 07:20      70.3      68.8       66     57.6      0.00      0.09      85.5     0.32      1012.0     2       140         3       146        8.27     271       -2.7
   09/11/2017 07:10      68.8      68.5       67     57.5      0.00      0.09      85.7     0.32      1012.0     1       152         2       174        8.27     271      -28.9
   09/11/2017 07:00      68.6      68.1       68     57.5      0.00      0.09      85.9     0.32      1012.0     1       144         2       145        8.27     271      -42.5
   09/11/2017 06:50      68.5      68.0       69     57.6      0.00      0.09      85.6     0.32      1012.0     1       169         2       144        8.27     271      -46.1
   09/11/2017 06:40      68.3      67.9       69     57.7      0.00      0.09      85.6     0.33      1012.0     2       169         3       130        8.27     271      -48.1
   09/11/2017 06:30      68.0      67.9       68     57.1      0.00      0.09      85.7     0.33      1012.0     2       169         3       155        8.27     271      -49.7
   09/11/2017 06:20      68.7      68.2       66     56.9      0.00      0.09      85.9     0.33      1012.0     2       166         3       159        8.27     271      -50.6
   09/11/2017 06:10      69.3      69.0       65     56.8      0.00      0.09      85.9     0.32      1012.0     1       187         2       196        8.27     271      -50.3
   09/11/2017 06:00      69.5      69.1       65     56.8      0.00      0.09      85.5     0.33      1012.0     0       201         1       145        8.27     271      -50.7
   09/11/2017 05:50      69.9      69.6       63     56.6      0.00      0.09      85.9     0.33      1012.0     1         4         2       353        8.27     270      -51.3
   09/11/2017 05:40      69.9      69.6       63     56.8      0.00      0.09      85.7     0.32      1012.0     1       174         2       289        8.27     270      -51.6
   09/11/2017 05:30      70.2      69.7       63     56.6      0.00      0.09      85.7     0.32      1012.0     1       294         1       124        8.27     270      -51.8
   09/11/2017 05:20      70.7      70.3       62     56.8      0.00      0.09      85.8     0.32      1012.0     1       285         2       205        8.27     270      -53.0
   09/11/2017 05:10      70.8      70.0       63     57.0      0.00      0.09      85.8     0.32      1012.0     3       208         4       205        8.27     270      -52.4
   09/11/2017 05:00      70.2      69.7       64     57.1      0.00      0.09      86.0     0.32      1012.0     2       195         3       207        8.27     270      -52.7
   09/11/2017 04:50      70.2      69.7       63     56.9      0.00      0.09      85.9     0.32      1012.0     1       161         2       162        8.28     270      -53.0
   09/11/2017 04:40      70.5      70.2       62     56.9      0.00      0.09      85.8     0.32      1012.0     1       135         2       139        8.28     270      -53.7
   09/11/2017 04:30      70.8      70.7       62     57.1      0.00      0.09      85.7     0.33      1012.0     2        85         2       138        8.28     270      -54.6
   09/11/2017 04:20      71.2      70.7       61     57.0      0.00      0.09      85.9     0.33      1012.0     2       155         3       168        8.28     270      -54.4
   09/11/2017 04:10      71.8      71.1       59     56.6      0.00      0.09      86.0     0.33      1012.0     1       121         2       134        8.28     270      -51.4
   09/11/2017 04:00      73.2      72.0       57     56.6      0.00      0.09      85.8     0.33      1012.0     1       121         1       127        8.28     270      -50.2
   09/11/2017 03:50      73.5      73.3       57     57.1      0.00      0.09      85.9     0.33      1012.0     1       323         1       286        8.28     270      -46.7
   09/11/2017 03:40      73.6      73.2       57     57.2      0.00      0.09      86.1     0.33      1012.0     1       318         2       304        8.28     270      -42.6
   09/11/2017 03:30      73.2      72.6       58     57.1      0.00      0.09      86.0     0.32      1012.0     1       313         2       318        8.28     270      -30.8
   09/11/2017 03:20      72.7      71.9       59     57.0      0.00      0.09      86.1     0.32      1012.0     2       302         2       312        8.28     270      -28.2
   09/11/2017 03:10      72.1      71.9       58     56.5      0.00      0.09      86.1     0.33      1012.0     0       332         1         2        8.28     270      -30.7
   09/11/2017 03:00      72.2      71.9       58     56.6      0.00      0.09      86.0     0.33      1012.0     1       137         2       209        8.28     270      -30.0
   09/11/2017 02:50      71.8      71.5       59     56.4      0.00      0.09      86.2     0.33      1012.0     1       213         2       214        8.28     270      -34.8
   09/11/2017 02:40      72.7      71.9       57     56.5      0.00      0.09      86.0     0.33      1012.0     1       165         2       148        8.28     270      -48.9
   09/11/2017 02:30      73.0      72.6       57     56.6      0.00      0.09      86.2     0.32      1012.0     2       188         2       197        8.28     270      -56.9
   09/11/2017 02:20      73.7      73.3       56     56.8      0.00      0.09      86.3     0.32      1012.0     1       247         2       337        8.28     270      -58.7
   09/11/2017 02:10      73.9      73.6       55     56.7      0.00      0.09      86.2     0.32      1012.0     2       281         4       300        8.28     270      -59.2
   09/11/2017 02:00      74.0      73.7       55     56.7      0.00      0.09      86.2     0.32      1012.0     3       255         5       230        8.28     270      -52.9
   09/11/2017 01:50      74.3      74.1       54     56.7      0.00      0.09      86.2     0.32      1012.0     3       282         5       267        8.28     270      -48.7
   09/11/2017 01:40      74.5      74.2       54     56.5      0.00      0.09      86.1     0.32      1012.0     3       247         5       247        8.28     270      -52.3
   09/11/2017 01:30      74.5      74.3       53     56.4      0.00      0.09      86.3     0.32      1012.0     2       282         4       252        8.28     269      -47.8
   09/11/2017 01:20      74.4      74.2       53     56.3      0.00      0.09      86.1     0.32      1012.0     2       232         3       210        8.28     270      -38.6
   09/11/2017 01:10      74.2      73.9       54     56.4      0.00      0.09      86.3     0.32      1012.0     2       204         3       190        8.28     269      -42.1
   09/11/2017 01:00      74.0      73.7       54     56.4      0.00      0.09      86.3     0.33      1012.0     3       196         5       189        8.28     269      -41.0
   09/11/2017 00:50      73.9      73.7       54     56.3      0.00      0.09      86.3     0.32      1012.0     4       192         6       200        8.28     269      -39.0
   09/11/2017 00:40      74.4      73.8       53     56.2      0.00      0.09      86.1     0.33      1012.0     4       195         6       189        8.28     269      -39.3
   09/11/2017 00:30      74.8      74.3       52     55.7      0.00      0.09      86.2     0.32      1012.0     4       201         7       166        8.28     269      -41.1
   09/11/2017 00:20      74.8      74.6       51     55.6      0.00      0.09      86.3     0.32      1012.0     4       215         6       186        8.28     269      -41.2
   09/11/2017 00:10      74.9      74.6       52     55.8      0.00      0.09      86.4     0.32      1012.0     2       203         4       237        8.28     269      -41.6
   09/11/2017 00:00      74.8      74.2       53     56.0      0.00      0.09      86.2     0.32      1012.0     4       251         6       253        8.28     269      -41.0
   09/10/2017 23:50      74.3      73.9       54     56.4      0.00      0.09      86.1     0.32      1013.0     2       264         6       225        8.28     269      -44.9
   09/10/2017 23:40      74.8      74.2       53     56.3      0.00      0.09      86.2     0.32      1013.0     3       295         5       271        8.29     269      -49.1
   09/10/2017 23:30      75.2      74.9       52     56.4      0.00      0.09      86.1     0.32      1013.0     3       309         6       315        8.29     269      -49.3
   09/10/2017 23:20      75.7      75.2       51     56.3      0.00      0.09      86.1     0.32      1012.0     3       316         4       300        8.29     269      -44.6
   09/10/2017 23:10      76.3      75.7       50     55.9      0.00      0.09      86.2     0.32      1013.0     5       294         7       306        8.29     269      -45.6
   09/10/2017 23:00      76.8      76.3       48     55.4      0.00      0.09      86.4     0.32      1013.0     5       296         7       297        8.29     269      -49.3
   09/10/2017 22:50      77.7      77.1       47     55.5      0.00      0.09      86.3     0.32      1013.0     5       300         8       305        8.29     269      -53.8
   09/10/2017 22:40      77.8      77.5       51     58.3      0.00      0.09      86.4     0.32      1013.0     2       257         5       325        8.29     269      -58.5
   09/10/2017 22:30      77.9      77.8       53     59.4      0.00      0.09      86.2     0.32      1012.0     1       343         3       287        8.29     268      -57.1
   09/10/2017 22:20      78.8      77.7       53     59.5      0.00      0.09      86.3     0.32      1012.0     2         8         3        44        8.29     268      -49.9
   09/10/2017 22:10      80.0      78.9       48     58.3      0.00      0.09      86.3     0.32      1012.0     3        27         4        25        8.29     268      -49.1
   09/10/2017 22:00      80.4      80.1       39     53.1      0.00      0.09      86.1     0.32      1012.0     2         2         3       302        8.29     268      -46.5
   09/10/2017 21:50      80.5      80.2       38     52.8      0.00      0.09      86.2     0.32      1012.0     1       344         2       320        8.29     268      -43.5
   09/10/2017 21:40      80.9      80.8       38     52.7      0.00      0.09      86.1     0.32      1012.0     1       279         2       293        8.29     268      -45.1
   09/10/2017 21:30      81.2      80.9       38     52.8      0.00      0.09      86.2     0.32      1011.0     1        31         2        39        8.29     268      -47.4
   09/10/2017 21:20      81.5      81.2       37     52.7      0.00      0.09      86.1     0.32      1011.0     1       228         2       251        8.29     268      -46.1
   09/10/2017 21:10      81.4      81.1       37     52.7      0.00      0.09      86.2     0.32      1011.0     1       198         3       181        8.29     268      -45.5
   09/10/2017 21:00      81.5      81.2       37     52.7      0.00      0.09      86.2     0.32      1011.0     3       176         4       144        8.29     268      -45.6
   09/10/2017 20:50      81.6      81.5       37     52.5      0.00      0.09      86.2     0.32      1011.0     3       234         4       235        8.29     268      -47.7
   09/10/2017 20:40      81.8      81.5       36     52.3      0.00      0.09      86.1     0.32      1011.0     4       207         7       217        8.29     268      -51.8
   09/10/2017 20:30      82.4      81.8       36     52.3      0.00      0.09      86.0     0.32      1011.0     4       220         7       214        8.29     268      -51.3
   09/10/2017 20:20      82.7      82.3       35     52.2      0.00      0.09      86.1     0.32      1011.0     4       203         6       201        8.29     268      -50.6
   09/10/2017 20:10      83.3      82.7       34     52.0      0.00      0.09      85.9     0.32      1011.0     3       206         6       207        8.29     268      -43.8
   09/10/2017 20:00      83.4      83.1       34     51.8      0.00      0.09      86.0     0.32      1011.0     3       195         4       208        8.30     268      -39.1
   09/10/2017 19:50      83.5      83.3       33     51.5      0.00      0.09      85.9     0.32      1011.0     3       207         3       236        8.30     268      -43.1
   09/10/2017 19:40      83.7      83.4       33     51.2      0.00      0.09      85.9     0.32      1011.0     1       210         2       242        8.30     267      -44.7
   09/10/2017 19:30      83.6      83.4       33     51.1      0.00      0.09      85.8     0.32      1011.0     2       190         3       193        8.30     267      -44.8
   09/10/2017 19:20      83.9      83.6       32     50.8      0.00      0.09      85.8     0.32      1010.0     3       207         4       217        8.30     267      -42.8
   09/10/2017 19:10      84.2      83.9       32     50.7      0.00      0.09      85.7     0.32      1010.0     4       205         5       191        8.30     267      -43.4
   09/10/2017 19:00      84.5      83.9       32     50.8      0.00      0.09      85.7     0.32      1010.0     3       200         4       203        8.30     267      -54.5
   09/10/2017 18:50      84.5      84.2       32     51.1      0.00      0.09      85.6     0.32      1010.0     4       216         6       213        8.30     267      -57.2
   09/10/2017 18:40      84.8      84.5       31     51.1      0.00      0.09      85.7     0.32      1010.0     3       211         5       223        8.30     267      -48.3
   09/10/2017 18:30      85.4      84.8       31     51.2      0.00      0.09      85.6     0.32      1010.0     5       229         9       252        8.30     267      -36.9
   09/10/2017 18:20      86.6      85.6       30     50.9      0.00      0.09      85.7     0.32      1010.0     5       230         8       255        8.31     267      -27.2
   09/10/2017 18:10      87.5      86.8       28     50.0      0.00      0.09      85.5     0.32      1010.0     6       249         9       221        8.31     267      -24.8
   09/10/2017 18:00      88.4      87.7       28     51.1      0.00      0.09      85.5     0.32      1010.0     6       257        10       248        8.31     267      -19.2
   09/10/2017 17:50      89.6      88.7       29     52.8      0.00      0.09      85.4     0.32      1010.0     5       250         9       238        8.31     267        1.6
   09/10/2017 17:40      90.4      89.8       29     53.4      0.00      0.09      85.2     0.32      1010.0     6       267         9       250        8.32     267       56.5
   09/10/2017 17:30      89.9      89.5       29     53.2      0.00      0.09      85.2     0.32      1010.0     5       283         9       287        8.32     267      104.6
   09/10/2017 17:20      90.7      89.7       28     52.8      0.00      0.09      85.2     0.32      1010.0     6       305         9       334        8.33     267      105.0
   09/10/2017 17:10      90.9      90.5       27     52.5      0.00      0.09      85.2     0.32      1010.0     6       301        10       318        8.33     267      135.4
   09/10/2017 17:00      92.3      91.1       27     52.8      0.00      0.09      85.4     0.32      1010.0     6       295         9       306        8.33     267       68.4
   09/10/2017 16:50      93.0      92.4       26     53.3      0.00      0.09      85.2     0.32      1010.0     6       290        10       315        8.33     267      168.6
   09/10/2017 16:40      94.6      92.9       26     53.6      0.00      0.09      85.1     0.32      1010.0     6       297        10       309        8.33     267      195.1
   09/10/2017 16:30      94.7      94.2       26     54.0      0.00      0.09      84.9     0.32      1010.0     6       255         9       234        8.34     267      182.4
   09/10/2017 16:20      95.2      93.9       26     54.0      0.00      0.09      84.9     0.32      1010.0     5       281         9       261        8.34     267      210.7
   09/10/2017 16:10      95.4      94.9       25     53.9      0.00      0.09      85.0     0.32      1010.0     5       232         8       224        8.34     267      224.1
   09/10/2017 16:00      95.5      94.8       25     53.7      0.00      0.09      84.8     0.32      1010.0     6       236         8       192        8.34     267      213.0
   09/10/2017 15:50      95.0      94.4       26     54.1      0.00      0.09      84.6     0.32      1010.0     6       201         7       212        8.34     267      293.9
   09/10/2017 15:40      95.1      94.4       25     54.0      0.00      0.09      84.6     0.32      1010.0     6       200        10       208        8.35     267      362.0
   09/10/2017 15:30      95.7      95.1       25     54.0      0.00      0.09      84.6     0.32      1010.0     8       216        11       245        8.35     267      377.8
   09/10/2017 15:20      96.7      95.9       24     53.6      0.00      0.09      84.5     0.32      1010.0     7       164        10       149        8.36     267      279.6
   09/10/2017 15:10      96.8      95.4       24     53.6      0.00      0.09      84.6     0.32      1010.0     6       161        10       162        8.36     268      383.6
   09/10/2017 15:00      96.5      95.6       24     53.9      0.00      0.09      84.4     0.32      1010.0     8       163        13       165        8.37     268      394.7
   09/10/2017 14:50      96.1      95.7       24     53.8      0.00      0.09      84.4     0.32      1010.0     6       158         9       150        8.37     268      341.9
   09/10/2017 14:40      96.7      95.6       24     53.5      0.00      0.09      84.4     0.32      1010.0     9       155        13       166        8.38     268      353.7
   09/10/2017 14:30      98.1      96.5       23     53.5      0.00      0.09      84.3     0.32      1010.0     8       165        10       160        8.38     268      434.3
   09/10/2017 14:20      99.6      97.7       22     53.5      0.00      0.09      84.1     0.32      1010.0     5       143         9       131        8.38     267      478.0
   09/10/2017 14:10      98.9      96.2       23     53.5      0.00      0.09      84.1     0.32      1011.0     3       224         7       191        8.38     268      495.9
   09/10/2017 14:00      98.3      96.4       23     53.8      0.00      0.09      84.1     0.32      1011.0     6       135        10       137        8.39     267      500.1
   09/10/2017 13:50      99.2      98.1       23     53.9      0.00      0.09      84.1     0.31      1011.0     2       139         6       144        8.39     268      430.2
   09/10/2017 13:40      99.8      98.4       22     54.0      0.00      0.09      84.0     0.31      1011.0     3        70         6        78        8.39     268      417.6
   09/10/2017 13:30      98.8      96.5       23     53.8      0.00      0.09      84.2     0.31      1011.0     2         8         4       311        8.39     267      499.6
   09/10/2017 13:20      97.0      95.5       23     52.8      0.00      0.09      84.0     0.31      1011.0     4       132         6       135        8.39     267      445.3
   09/10/2017 13:10      97.5      96.0       22     52.0      0.00      0.09      84.1     0.31      1011.0     5       128         8       138        8.39     268      466.8
   09/10/2017 13:00      96.8      95.4       22     51.0      0.00      0.09      84.0     0.31      1012.0     3       193         6       147        8.40     269      402.8
   09/10/2017 12:50      96.1      94.7       22     50.8      0.00      0.09      83.9     0.31      1012.0     4       137         7       140        8.40     268      542.3
   09/10/2017 12:40      95.5      94.9       23     51.0      0.00      0.09      84.0     0.31      1012.0     4       160         7       136        8.40     268      453.2
   09/10/2017 12:30      95.1      94.4       22     50.3      0.00      0.09      83.9     0.31      1012.0     2        83         4       115        8.40     268      461.0
   09/10/2017 12:20      95.3      94.7       22     50.4      0.00      0.09      83.9     0.31      1012.0     4       127         6       128        8.41     268      489.0
   09/10/2017 12:10      96.2      94.8       22     50.5      0.00      0.09      84.1     0.31      1012.0     3        56         5       134        8.44     269      519.6
   09/10/2017 12:00      94.8      94.1       22     49.7      0.00      0.09      84.0     0.31      1012.0     2       177         5       133        8.45     269      493.2
   09/10/2017 11:50      95.1      93.8       22     49.8      0.00      0.09      84.1     0.31      1012.0     3        47         5        65        8.45     269      492.9
   09/10/2017 11:40      94.0      93.1       22     49.3      0.00      0.09      83.9     0.31      1013.0     2        38         5        91        8.45     269      471.0
   09/10/2017 11:30      93.4      92.9       21     47.7      0.00      0.09      83.9     0.31      1013.0     3        18         4       130        8.45     269      473.5
   09/10/2017 11:20      93.5      92.1       22     48.2      0.00      0.09      83.9     0.31      1013.0     2       335         3        25        8.45     269      466.0
   09/10/2017 11:10      92.5      91.7       20     45.1      0.00      0.09      84.1     0.32      1013.0     2       171         3       204        8.45     269      453.5
   09/10/2017 11:00      92.9      90.6       22     47.6      0.00      0.09      84.1     0.32      1013.0     2       115         4       108        8.45     269      442.7
   09/10/2017 10:50      90.4      88.2       28     51.4      0.00      0.09      84.0     0.32      1013.0     1        82         2         2        8.46     269      433.3
   09/10/2017 10:40      88.1      86.9       31     53.1      0.00      0.09      84.0     0.32      1013.0     3       128         5       143        8.46     269      422.4
   09/10/2017 10:30      87.5      86.7       33     54.8      0.00      0.09      84.1     0.32      1013.0     3       138         5       132        8.46     270      406.1
   09/10/2017 10:20      87.1      85.3       35     55.4      0.00      0.09      84.2     0.32      1014.0     2        73         3       104        8.46     271      391.7
   09/10/2017 10:10      85.8      84.8       37     56.0      0.00      0.09      84.3     0.32      1014.0     2       154         4       210        8.46     271      378.2
   09/10/2017 10:00      84.8      83.0       38     55.8      0.00      0.09      84.0     0.32      1014.0     1       335         2         3        8.46     272      378.4
   09/10/2017 09:50      83.2      82.7       40     56.1      0.00      0.09      84.1     0.32      1014.0     2        74         3        32        8.47     272      263.6
   09/10/2017 09:40      83.0      82.5       40     56.2      0.00      0.09      84.3     0.32      1014.0     2        65         2        63        8.47     272      237.3
   09/10/2017 09:30      82.7      80.2       42     56.4      0.00      0.09      84.4     0.32      1014.0     2        34         2         2        8.47     272      277.2
   09/10/2017 09:20      80.0      78.8       46     56.7      0.00      0.09      84.3     0.32      1014.0     2        18         3        15        8.47     272      266.7
   09/10/2017 09:10      79.0      78.0       48     57.1      0.00      0.09      84.2     0.32      1014.0     2        23         3        26        8.47     272      276.9
   09/10/2017 09:00      78.2      77.3       49     56.9      0.00      0.09      84.3     0.32      1014.0     2        30         3        80        8.48     272      203.2
   09/10/2017 08:50      77.1      75.2       51     57.0      0.00      0.09      84.5     0.32      1014.0     1        35         2        33        8.48     272      227.1
   09/10/2017 08:40      74.9      72.7       55     56.5      0.00      0.09      84.3     0.32      1014.0     1        90         2        66        8.48     272      225.8
   09/10/2017 08:30      72.8      71.2       57     55.9      0.00      0.09      84.5     0.32      1014.0     1        46         2         3        8.49     272      131.4
   09/10/2017 08:20      71.0      70.1       59     55.5      0.00      0.09      84.6     0.32      1014.0     1        56         2        97        8.49     272       46.5
   09/10/2017 08:10      70.1      69.2       60     55.1      0.00      0.09      84.5     0.32      1014.0     1         7         1       354        8.49     272       25.6
   09/10/2017 08:00      69.3      69.2       60     54.6      0.00      0.09      84.4     0.32      1014.0     1        64         2         2        8.49     272        3.9
   09/10/2017 07:50      69.5      68.8       59     54.3      0.00      0.09      84.4     0.32      1014.0     1        47         2         4        8.49     272       -0.6
   09/10/2017 07:40      68.7      66.8       61     54.0      0.00      0.09      84.5     0.32      1014.0     1       130         2       140        8.50     272       21.2
   09/10/2017 07:30      66.9      66.0       64     53.8      0.00      0.09      84.7     0.32      1014.0     1       131         1       142        8.50     272       -7.4
   09/10/2017 07:20      66.1      65.2       65     53.7      0.00      0.09      84.3     0.32      1014.0     1       135         1       144        8.50     272        5.8
   09/10/2017 07:10      65.1      64.3       67     53.3      0.00      0.09      84.6     0.32      1014.0     1       150         2       140        8.50     271      -20.8
   09/10/2017 07:00      64.5      64.0       66     52.8      0.00      0.09      84.7     0.32      1014.0     1       160         1       145        8.50     271      -27.8
   09/10/2017 06:50      64.3      64.1       67     52.9      0.00      0.09      84.5     0.32      1014.0     1       139         1       124        8.50     271      -38.7
   09/10/2017 06:40      64.4      64.2       67     53.0      0.00      0.09      84.6     0.32      1014.0     1         2         1       355        8.51     271      -44.1
   09/10/2017 06:30      64.4      64.1       67     53.0      0.00      0.09      84.6     0.32      1013.0     1       158         2       196        8.51     271      -45.6
   09/10/2017 06:20      64.3      63.6       68     53.1      0.00      0.09      84.7     0.32      1013.0     2       155         3       170        8.52     271      -45.3
   09/10/2017 06:10      63.8      63.5       70     53.5      0.00      0.09      84.6     0.32      1013.0     2       160         2       132        8.52     271      -43.3
   09/10/2017 06:00      63.6      63.2       70     53.5      0.00      0.09      84.9     0.32      1013.0     2       142         3       161        8.52     271      -43.1
   09/10/2017 05:50      63.3      62.9       70     53.3      0.00      0.09      84.8     0.32      1013.0     2       164         3       168        8.52     271      -45.5
   09/10/2017 05:40      63.3      63.0       71     53.5      0.00      0.09      85.0     0.33      1013.0     2       143         2       161        8.52     271      -48.6
   09/10/2017 05:30      63.5      63.3       70     53.5      0.00      0.09      84.6     0.32      1013.0     1        78         1       116        8.52     271      -47.7
   09/10/2017 05:20      63.8      63.5       68     53.1      0.00      0.09      84.9     0.33      1013.0     1       110         2       122        8.52     271      -47.1
   09/10/2017 05:10      63.6      63.3       70     53.6      0.00      0.09      84.9     0.33      1013.0     1       167         2       199        8.52     271      -50.5
   09/10/2017 05:00      63.9      63.4       70     53.8      0.00      0.09      85.0     0.32      1013.0     1       123         2       123        8.52     271      -52.0
   09/10/2017 04:50      63.8      63.5       70     53.9      0.00      0.09      84.9     0.32      1013.0     1       177         1       140        8.53     271      -52.5
   09/10/2017 04:40      64.3      63.7       70     53.8      0.00      0.09      84.9     0.32      1013.0     1        69         1       108        8.53     271      -53.9
   09/10/2017 04:30      64.4      64.0       70     54.4      0.00      0.09      85.0     0.33      1013.0     1        38         2       348        8.53     271      -53.3
   09/10/2017 04:20      64.3      63.8       70     54.1      0.00      0.09      85.3     0.33      1013.0     2       148         3       147        8.53     271      -53.4
   09/10/2017 04:10      65.0      64.3       69     54.4      0.00      0.09      85.1     0.33      1013.0     1       151         2       154        8.53     271      -55.0
   09/10/2017 04:00      65.0      64.1       72     55.2      0.00      0.09      85.0     0.33      1013.0     2       187         2       147        8.53     271      -54.1
   09/10/2017 03:50      64.2      64.0       73     55.4      0.00      0.09      85.1     0.33      1013.0     1       165         1       151        8.53     271      -43.0
   09/10/2017 03:40      64.3      63.8       72     55.0      0.00      0.09      85.2     0.33      1013.0     2       145         2       143        8.53     271      -44.0
   09/10/2017 03:30      64.5      64.2       72     55.3      0.00      0.09      84.9     0.33      1014.0     0       180         1       119        8.53     271      -52.7
   09/10/2017 03:20      64.6      64.3       72     55.1      0.00      0.09      85.3     0.33      1014.0     0       119         1       140        8.53     271      -55.2
   09/10/2017 03:10      64.6      64.3       71     54.7      0.00      0.09      85.3     0.33      1014.0     1       203         2       222        8.53     271      -55.5
   09/10/2017 03:00      64.7      64.3       70     54.5      0.00      0.09      85.4     0.33      1014.0     1       261         1       216        8.54     271      -55.1
   09/10/2017 02:50      64.4      64.2       71     54.5      0.00      0.09      84.9     0.33      1014.0     1       199         2       135        8.54     271      -56.5
   09/10/2017 02:40      64.4      64.2       71     54.7      0.00      0.09      85.2     0.33      1014.0     2       132         2       171        8.54     271      -58.8
   09/10/2017 02:30      64.4      64.2       71     54.7      0.00      0.09      85.0     0.33      1014.0     2       161         3       169        8.54     271      -59.5
   09/10/2017 02:20      64.5      64.0       70     54.3      0.00      0.09      85.4     0.33      1014.0     2       185         3       178        8.54     271      -60.1
   09/10/2017 02:10      65.0      64.7       70     54.9      0.00      0.09      85.4     0.33      1014.0     1       156         3       156        8.54     271      -60.7
   09/10/2017 02:00      65.2      64.8       70     55.2      0.00      0.09      85.5     0.33      1014.0     1       234         1       213        8.54     270      -59.5
   09/10/2017 01:50      65.2      64.9       71     55.3      0.00      0.09      85.5     0.33      1014.0     1        98         1       168        8.54     271      -60.7
   09/10/2017 01:40      65.3      65.2       70     55.4      0.00      0.09      85.5     0.33      1014.0     2       164         3       164        8.54     271      -60.8
   09/10/2017 01:30      65.6      65.2       72     56.0      0.00      0.09      85.3     0.33      1014.0     1       151         3       136        8.54     270      -59.8
   09/10/2017 01:20      66.1      65.4       70     55.7      0.00      0.09      85.2     0.33      1014.0     1        92         1       119        8.60     270      -61.4
   09/10/2017 01:10      66.1      65.8       70     55.9      0.00      0.09      85.5     0.33      1014.0     1       188         2       208        8.61     271      -61.5
   09/10/2017 01:00      65.9      65.7       71     56.3      0.00      0.09      85.5     0.33      1014.0     1       174         2       202        8.61     270      -61.8
   09/10/2017 00:50      66.2      65.6       71     56.2      0.00      0.09      85.5     0.33      1014.0     1       131         1       125        8.61     270      -62.8
   09/10/2017 00:40      66.3      66.2       71     56.5      0.00      0.09      85.8     0.33      1014.0     1       360         1       343        8.62     270      -64.1
   09/10/2017 00:30      66.8      66.4       70     56.7      0.00      0.09      85.4     0.33      1014.0     1        24         1       336        8.62     270      -64.7
   09/10/2017 00:20      67.3      67.0       70     57.1      0.00      0.09      85.5     0.33      1014.0     1       124         1       164        8.62     270      -65.7
   09/10/2017 00:10      67.5      67.3       70     57.3      0.00      0.09      85.7     0.33      1014.0     1       182         3       169        8.62     270      -66.4
   09/10/2017 00:00      67.7      67.4       70     57.3      0.00      0.09      85.5     0.33      1014.0     1       173         2       167        8.62     270      -68.0
   09/09/2017 23:50      68.3      67.8       69     57.4      0.00      0.09      85.5     0.33      1014.0     1       110         1       134        8.62     270      -70.1
   09/09/2017 23:40      68.7      68.3       68     57.5      0.00      0.09      85.7     0.33      1014.0     1       167         2       168        8.62     270      -71.1
   09/09/2017 23:30      69.5      68.8       66     57.5      0.00      0.09      85.6     0.33      1014.0     1       200         2       210        8.63     270      -72.6
   09/09/2017 23:20      70.1      69.6       65     57.6      0.00      0.09      85.6     0.33      1014.0     2       218         4       237        8.63     270      -73.6
   09/09/2017 23:10      70.3      70.0       64     57.7      0.00      0.09      85.9     0.33      1014.0     2       287         3       267        8.63     270      -72.5
   09/09/2017 23:00      70.5      70.3       64     57.5      0.00      0.09      85.7     0.33      1014.0     2       307         2       264        8.63     270      -71.1
   09/09/2017 22:50      70.8      70.5       62     57.1      0.00      0.09      85.8     0.33      1014.0     2       290         2       264        8.63     270      -69.2
   09/09/2017 22:40      70.9      70.5       62     57.0      0.00      0.09      85.6     0.33      1014.0     1       339         2       300        8.63     269      -72.7
   09/09/2017 22:30      70.9      70.5       61     56.9      0.00      0.09      85.5     0.33      1014.0     1       238         3       240        8.63     269      -74.3
   09/09/2017 22:20      71.0      70.7       62     57.4      0.00      0.09      85.7     0.33      1014.0     1       312         2       297        8.63     269      -76.8
   09/09/2017 22:10      71.1      70.8       62     57.4      0.00      0.09      85.7     0.33      1014.0     1       171         2       203        8.64     269      -78.1
   09/09/2017 22:00      71.3      71.0       62     57.7      0.00      0.09      85.7     0.33      1014.0     2       180         4       203        8.64     269      -78.3
   09/09/2017 21:50      71.4      71.1       62     57.8      0.00      0.09      85.6     0.33      1014.0     3       207         5       193        8.64     269      -71.5
   09/09/2017 21:40      71.7      71.3       62     57.8      0.00      0.09      85.7     0.33      1014.0     3       203         4       253        8.64     269      -70.0
   09/09/2017 21:30      72.1      71.9       61     58.0      0.00      0.09      85.4     0.33      1014.0     4       272         5       308        8.64     269      -70.0
   09/09/2017 21:20      72.2      72.0       61     58.0      0.00      0.09      85.6     0.33      1014.0     3       238         5       243        8.64     269      -74.2
   09/09/2017 21:10      72.5      72.2       61     58.0      0.00      0.09      85.8     0.33      1014.0     4       242         7       259        8.64     269      -76.6
   09/09/2017 21:00      73.3      72.4       59     57.9      0.00      0.09      85.6     0.33      1014.0     5       233         7       236        8.64     268      -77.8
   09/09/2017 20:50      73.7      73.2       58     57.6      0.00      0.09      85.7     0.33      1014.0     4       243         8       214        8.64     268      -77.6
   09/09/2017 20:40      74.8      73.8       56     57.4      0.00      0.09      85.7     0.33      1013.0     5       209         8       203        8.65     268      -82.6
   09/09/2017 20:30      75.0      74.8       54     57.2      0.00      0.09      85.8     0.32      1013.0     3       227         6       218        8.65     268      -82.8
   09/09/2017 20:20      75.8      75.2       53     57.0      0.00      0.09      85.5     0.33      1013.0     5       209         7       219        8.67     268      -80.6
   09/09/2017 20:10      76.5      76.0       51     56.8      0.00      0.09      85.5     0.32      1013.0     3       229         4       236        8.68     268      -83.9
   09/09/2017 20:00      77.4      76.6       49     56.6      0.00      0.09      85.6     0.33      1013.0     4       230         6       244        8.69     268      -88.3
   09/09/2017 19:50      78.5      77.5       47     56.4      0.00      0.09      85.8     0.33      1013.0     3       235         5       245        8.69     268      -90.7
   09/09/2017 19:40      79.1      78.5       46     56.2      0.00      0.09      85.6     0.32      1013.0     3       247         4       237        8.69     268      -92.4
   09/09/2017 19:30      79.8      79.2       45     56.1      0.00      0.09      85.6     0.32      1013.0     4       247         7       236        8.69     267      -94.6
   09/09/2017 19:20      80.7      80.1       43     55.7      0.00      0.09      85.5     0.32      1013.0     4       245         4       279        8.70     267      -94.9
   09/09/2017 19:10      81.0      80.8       42     55.7      0.00      0.09      85.6     0.32      1013.0     3       264         4       259        8.70     267      -93.7
   09/09/2017 19:00      81.4      80.9       42     55.6      0.00      0.09      85.4     0.32      1013.0     4       286         7       305        8.70     267      -90.8
   09/09/2017 18:50      82.3      81.7       41     55.8      0.00      0.09      85.4     0.32      1013.0     4       291         6       287        8.70     266      -89.3
   09/09/2017 18:40      84.0      82.4       39     55.8      0.00      0.09      85.6     0.32      1013.0     5       301         8       309        8.71     266      -79.7
   09/09/2017 18:30      87.0      84.2       32     52.3      0.00      0.09      85.4     0.32      1013.0     4       280         7       309        8.71     266      -57.5
   09/09/2017 18:20      87.7      87.1       11     27.3      0.00      0.09      85.5     0.32      1012.0     4       246         5       249        8.71     265      -43.3
   09/09/2017 18:10      88.8      87.9       11     27.0      0.00      0.09      85.6     0.32      1012.0     2       215         5       240        8.72     265      -22.2
   09/09/2017 18:00      88.1      87.8       11     27.7      0.00      0.09      85.4     0.32      1012.0     2       175         5       169        8.72     265        3.8
   09/09/2017 17:50      88.5      87.9       12     29.0      0.00      0.09      85.3     0.32      1012.0     3       192         5       221        8.73     265       28.9
   09/09/2017 17:40      88.8      88.5       13     31.4      0.00      0.09      85.3     0.32      1012.0     2       175         5       154        8.74     265       53.1
   09/09/2017 17:30      88.9      88.2       13     31.9      0.00      0.09      85.2     0.32      1012.0     3       133         4       172        8.75     265       78.5
   09/09/2017 17:20      89.1      88.4       12     30.4      0.00      0.09      85.2     0.32      1012.0     3       184         5       229        8.75     265      103.7
   09/09/2017 17:10      88.4      87.9       12     28.4      0.00      0.09      85.1     0.32      1012.0     3       133         5       136        8.76     265      130.1
   09/09/2017 17:00      88.8      88.0       10     25.6      0.00      0.09      85.2     0.32      1012.0     4       114         6       142        8.77     265      155.3
   09/09/2017 16:50      88.1      87.5       11     27.3      0.00      0.09      85.1     0.32      1012.0     4       156         7       116        8.77     265      183.5
   09/09/2017 16:40      87.8      87.5       11     27.2      0.00      0.09      85.0     0.32      1012.0     6       181         8       156        8.78     265      209.1
   09/09/2017 16:30      87.9      87.4       11     26.6      0.00      0.09      85.0     0.32      1012.0     6       188         7       199        8.79     265      231.8
   09/09/2017 16:20      88.3      87.0       11     27.4      0.00      0.09      85.0     0.32      1012.0     5       177         7       199        8.79     265      251.5
   09/09/2017 16:10      89.2      87.7       13     30.7      0.00      0.09      84.8     0.32      1012.0     6       187        10       215        8.79     265      270.6
   09/09/2017 16:00      89.5      88.9       14     33.2      0.00      0.09      84.8     0.32      1012.0     4       148         8       128        8.79     265      287.5
   09/09/2017 15:50      90.1      89.1       12     30.7      0.00      0.09      84.8     0.32      1012.0     4        94         6        70        8.90     266      305.3
   09/09/2017 15:40      89.5      88.7       13     31.4      0.00      0.09      84.6     0.32      1012.0     4       107         6        61        8.91     266      327.0
   09/09/2017 15:30      88.7      87.8       13     31.6      0.00      0.09      84.7     0.32      1013.0     5        99         8        82        8.92     266      347.4
   09/09/2017 15:20      88.4      88.0       14     32.3      0.00      0.09      84.7     0.32      1013.0     6       115         9       131        8.92     267      367.5
   09/09/2017 15:10      88.5      87.3       14     32.5      0.00      0.09      84.5     0.32      1013.0     6       127         9       139        8.92     267      387.1
   09/09/2017 15:00      89.5      87.6       14     32.6      0.00      0.09      84.7     0.32      1013.0     7       133        11       162        8.92     267      404.2
   09/09/2017 14:50      89.8      88.5       14     33.0      0.00      0.09      84.5     0.32      1013.0     4        85         9       147        8.93     267      420.4
   09/09/2017 14:40      89.5      88.4       19     41.9      0.00      0.09      84.5     0.32      1013.0     4        65         7        86        8.93     267      370.2
   09/09/2017 14:30      89.4      88.4       21     44.5      0.00      0.09      84.4     0.32      1013.0     3        43         5        17        8.93     268      458.5
   09/09/2017 14:20      89.6      88.6       21     43.4      0.00      0.09      84.2     0.32      1013.0     4        38         7        55        8.93     268      471.3
   09/09/2017 14:10      89.6      88.8       20     42.9      0.00      0.09      84.4     0.32      1013.0     4        45         5        68        8.93     268      469.3
   09/09/2017 14:00      90.2      89.6       19     41.6      0.00      0.09      84.3     0.32      1014.0     5        53         8        71        8.93     267      477.9
   09/09/2017 13:50      89.7      89.0       20     43.4      0.00      0.09      84.3     0.32      1014.0     4        59         6        49        8.93     268      484.4
   09/09/2017 13:40      89.0      87.4       22     44.4      0.00      0.09      84.1     0.32      1014.0     3        93         7        97        8.94     267      492.7
   09/09/2017 13:30      88.1      87.1       25     47.7      0.00      0.09      84.2     0.32      1014.0     4        51         8        81        8.94     267      497.1
   09/09/2017 13:20      87.2      86.4       27     48.8      0.00      0.09      84.2     0.32      1014.0     4        45         7        66        8.94     268      505.0
   09/09/2017 13:10      86.6      85.7       28     49.6      0.00      0.09      84.1     0.32      1014.0     3        10         6        58        8.94     269      504.4
   09/09/2017 13:00      86.6      85.8       29     50.1      0.00      0.09      84.2     0.32      1014.0     4        67         4        76        8.94     269      511.7
   09/09/2017 12:50      86.1      85.5       29     49.9      0.00      0.09      84.2     0.32      1014.0     3        24         6         4        8.94     269      509.0
   09/09/2017 12:40      86.0      84.5       30     50.0      0.00      0.09      84.4     0.32      1014.0     4        26         7        68        8.94     269      512.7
   09/09/2017 12:30      85.2      84.3       31     51.1      0.00      0.09      84.2     0.32      1014.0     4        28         6         1        8.94     270      510.6
   09/09/2017 12:20      84.3      83.1       35     52.9      0.00      0.09      84.2     0.32      1015.0     3        59         6        84        8.95     270      511.0
   09/09/2017 12:10      83.6      82.9       38     55.1      0.00      0.09      84.2     0.32      1015.0     3        49         5         7        8.95     271      504.5
   09/09/2017 12:00      83.4      80.8       41     56.3      0.00      0.09      84.0     0.32      1015.0     3        34         3        73        8.95     271      500.8
   09/09/2017 11:50      81.4      80.9       44     57.0      0.00      0.09      84.2     0.32      1015.0     3         7         6         6        8.95     271      493.7
   09/09/2017 11:40      81.1      79.8       45     57.2      0.00      0.09      84.2     0.32      1015.0     3        39         5       126        8.95     271      496.0
   09/09/2017 11:30      79.7      79.2       47     57.6      0.00      0.09      84.4     0.32      1015.0     3        12         5        24        8.95     271      471.8
   09/09/2017 11:20      79.1      78.3       49     58.1      0.00      0.09      84.2     0.32      1015.0     3        36         5       350        8.95     271      476.5
   09/09/2017 11:10      79.1      78.3       50     58.3      0.00      0.09      84.2     0.32      1015.0     3        14         4       354        8.95     271      460.9
   09/09/2017 11:00      78.0      76.5       51     58.0      0.00      0.09      84.2     0.32      1015.0     2        28         5       342        8.96     271      456.8
   09/09/2017 10:50      76.5      75.3       54     58.1      0.00      0.09      84.1     0.32      1015.0     3        34         4       357        8.96     271      444.2
   09/09/2017 10:40      75.4      74.8       56     58.6      0.00      0.09      84.4     0.32      1015.0     3        13         7        38        8.96     271      423.5
   09/09/2017 10:30      75.0      73.7       57     58.6      0.00      0.09      84.0     0.32      1015.0     2       302         3       324        8.96     272      402.9
   09/09/2017 10:20      74.1      73.5       59     58.4      0.00      0.09      84.2     0.32      1015.0     3        67         4        78        8.96     272      382.0
   09/09/2017 10:10      73.6      72.8       60     58.5      0.00      0.09      84.1     0.32      1016.0     3        37         4       339        8.96     272      373.6
   09/09/2017 10:00      73.3      72.8       60     58.5      0.00      0.09      84.7     0.32      1016.0     3        41         6        82        8.96     272      352.9
   09/09/2017 09:50      73.0      71.7       62     58.5      0.00      0.09      84.4     0.32      1016.0     2       111         4        95        8.96     272      296.4
   09/09/2017 09:40      71.7      70.7       64     58.1      0.00      0.09      84.6     0.32      1016.0     2       349         6         7        8.96     272      308.3
   09/09/2017 09:30      71.7      70.9       63     58.0      0.00      0.09      84.4     0.32      1015.0     3        36         5         4        8.96     273      290.9
   09/09/2017 09:20      71.5      70.3       63     57.8      0.00      0.09      84.4     0.32      1015.0     3        77         6        94        8.96     272      274.9
   09/09/2017 09:10      70.6      69.8       65     57.8      0.00      0.09      84.7     0.32      1015.0     2        67         4        69        8.97     272      249.8
   09/09/2017 09:00      69.8      68.5       68     57.8      0.00      0.09      84.8     0.32      1015.0     3       117         5       128        8.97     273      226.2
   09/09/2017 08:50      69.4      69.1       67     57.7      0.00      0.09      84.5     0.32      1015.0     4        98         6       120        8.97     273      212.0
   09/09/2017 08:40      69.3      68.3       68     57.8      0.00      0.09      84.6     0.32      1015.0     2        82         4       128        8.97     273      200.9
   09/09/2017 08:30      68.4      67.0       70     57.5      0.00      0.09      84.8     0.32      1015.0     2        43         5        60        8.97     273      192.9
   09/09/2017 08:20      66.9      66.7       72     57.4      0.00      0.09      85.0     0.32      1015.0     2        63         3        68        8.97     273       63.8
   09/09/2017 08:10      66.7      65.7       74     57.4      0.00      0.09      85.0     0.32      1015.0     2        68         4       123        8.97     273       43.0
   09/09/2017 08:00      65.9      65.3       74     57.2      0.00      0.09      84.5     0.32      1015.0     2       107         5        78        8.97     273       39.6
   09/09/2017 07:50      65.3      65.2       75     57.2      0.00      0.09      84.6     0.32      1015.0     2        92         3        69        8.97     273        9.1
   09/09/2017 07:40      65.3      64.8       76     57.2      0.00      0.09      85.1     0.32      1015.0     1       101         2        93        8.97     273       13.6
   09/09/2017 07:30      65.0      64.6       77     57.3      0.00      0.09      85.1     0.33      1015.0     2       109         3       128        8.97     273       13.8
   09/09/2017 07:20      64.7      64.3       78     57.4      0.00      0.09      84.7     0.33      1015.0     1       108         2       144        8.97     273        2.1
   09/09/2017 07:10      64.4      64.1       79     57.6      0.00      0.09      84.9     0.33      1015.0     1       150         2       128        8.98     273       -4.2
   09/09/2017 07:00      64.2      63.8       80     57.7      0.00      0.09      85.1     0.33      1015.0     1       109         1       137        8.98     273      -12.4
   09/09/2017 06:50      63.9      63.8       81     57.8      0.00      0.09      84.9     0.33      1015.0     1        98         2       128        8.98     273      -32.9
   09/09/2017 06:40      63.8      63.6       81     58.0      0.00      0.09      85.3     0.33      1015.0     1       116         3       110        8.98     273      -34.9
   09/09/2017 06:30      63.9      63.6       82     58.3      0.00      0.09      84.9     0.33      1015.0     2        98         3        95        8.98     273      -34.7
   09/09/2017 06:20      63.9      63.4       84     58.7      0.00      0.09      85.0     0.33      1015.0     1        77         3        95        8.98     273      -16.7
   09/09/2017 06:10      63.6      63.3       85     58.8      0.00      0.09      84.7     0.33      1015.0     2        79         3       124        8.98     273      -13.5
   09/09/2017 06:00      63.4      63.2       86     59.2      0.00      0.09      84.6     0.33      1015.0     3        79         5       110        8.98     273      -10.9
   09/09/2017 05:50      63.4      62.9       88     59.4      0.00      0.09      84.9     0.33      1014.0     2        58         4        74        8.98     272       -8.2
   09/09/2017 05:40      62.9      62.3       88     59.1      0.00      0.09      84.9     0.33      1014.0     1        79         3        84        8.98     272       -7.2
   09/09/2017 05:30      62.3      61.5       89     58.5      0.00      0.09      85.1     0.33      1014.0     1        82         2        85        8.98     272       -6.5
   09/09/2017 05:20      61.4      60.4       89     57.8      0.00      0.09      84.7     0.33      1014.0     1       115         2        83        8.98     272       -6.0
   09/09/2017 05:10      60.3      59.4       90     56.7      0.00      0.09      85.5     0.33      1014.0     1       117         1        94        8.98     272       -4.8
   09/09/2017 05:00      59.6      58.9       90     56.3      0.00      0.09      85.5     0.33      1014.0     0        82         1        77        8.98     272       -6.9
   09/09/2017 04:50      59.1      58.8       89     55.7      0.00      0.09      85.2     0.33      1014.0     1       114         2       142        8.98     271      -17.7
   09/09/2017 04:40      59.5      59.2       89     56.1      0.00      0.09      85.4     0.33      1014.0     1       143         2       143        8.98     271      -25.7
   09/09/2017 04:30      59.7      59.3       88     56.0      0.00      0.09      85.6     0.33      1014.0     1       128         2       142        8.98     271      -30.0
   09/09/2017 04:20      60.1      59.8       88     56.5      0.00      0.09      85.2     0.33      1014.0     1       154         1       121        8.98     271      -30.1
   09/09/2017 04:10      60.3      59.9       89     56.9      0.00      0.09      85.6     0.33      1014.0     1       217         1       234        8.98     271      -30.1
   09/09/2017 04:00      60.2      59.7       89     56.5      0.00      0.09      85.2     0.33      1014.0     1       189         2       156        8.99     271      -32.8
   09/09/2017 03:50      60.5      59.9       88     56.8      0.00      0.09      85.7     0.33      1013.0     2       159         3       154        8.99     272      -35.0
   09/09/2017 03:40      61.0      60.4       88     57.0      0.00      0.09      85.4     0.33      1013.0     2       146         2       153        8.99     272      -35.6
   09/09/2017 03:30      61.3      60.7       87     57.0      0.00      0.09      85.2     0.33      1013.0     2       166         2       161        8.99     271      -36.3
   09/09/2017 03:20      61.7      61.3       86     57.4      0.00      0.09      85.8     0.33      1013.0     1       163         1       128        8.99     271      -36.9
   09/09/2017 03:10      62.5      61.8       86     57.9      0.00      0.09      85.7     0.33      1013.0     1       237         2       261        8.99     271      -37.5
   09/09/2017 03:00      62.6      62.2       86     58.2      0.00      0.09      85.3     0.33      1013.0     1       251         2       234        8.99     271      -37.7
   09/09/2017 02:50      62.9      62.3       85     58.2      0.00      0.09      85.5     0.33      1013.0     0       341         1       356        8.99     271      -42.3
   09/09/2017 02:40      62.8      62.5       86     58.5      0.00      0.09      85.7     0.33      1013.0     1       126         3       163        8.99     271      -45.6
   09/09/2017 02:30      62.6      61.6       87     58.0      0.00      0.09      85.9     0.33      1013.0     3       145         4       144        8.99     271      -47.9
   09/09/2017 02:20      62.1      61.7       86     57.8      0.00      0.09      85.6     0.33      1013.0     3       150         3       147        8.99     271      -48.1
   09/09/2017 02:10      62.1      61.7       86     57.8      0.00      0.09      85.7     0.33      1013.0     1       163         2       174        8.99     271      -49.7
   09/09/2017 02:00      62.3      62.2       86     58.0      0.00      0.09      85.7     0.33      1013.0     1       151         1       177        8.99     271      -55.1
   09/09/2017 01:50      62.3      62.0       86     57.9      0.00      0.09      86.0     0.33      1013.0     2       173         3       175        8.99     271      -59.9
   09/09/2017 01:40      62.3      61.8       85     57.5      0.00      0.09      85.8     0.33      1013.0     2       156         3       157        8.99     271      -64.0
   09/09/2017 01:30      62.4      62.3       85     57.8      0.00      0.09      86.1     0.33      1013.0     1       161         2       151        8.99     271      -64.2
   09/09/2017 01:20      62.8      62.3       84     57.6      0.00      0.09      86.2     0.33      1013.0     1       135         1       151        8.99     271      -67.4
   09/09/2017 01:10      63.0      62.9       84     58.1      0.00      0.09      86.1     0.33      1013.0     1       164         2       181        8.99     271      -67.6
   09/09/2017 01:00      63.3      63.1       83     58.1      0.00      0.09      85.7     0.33      1013.0     2       155         2       159        8.99     271      -69.0
   09/09/2017 00:50      63.8      63.3       83     58.1      0.00      0.09      86.1     0.33      1013.0     2       140         2       129        9.00     271      -69.2
   09/09/2017 00:40      64.1      63.8       82     58.1      0.00      0.09      86.0     0.33      1013.0     1       133         2       114        9.00     271      -69.2
   09/09/2017 00:30      65.0      64.2       81     58.3      0.00      0.09      86.3     0.33      1013.0     2        98         2        99        9.00     271      -70.4
   09/09/2017 00:20      65.0      64.9       81     58.9      0.00      0.09      86.2     0.33      1013.0     1        81         2        82        9.00     271      -72.6
   09/09/2017 00:10      65.0      64.8       81     58.9      0.00      0.09      86.2     0.33      1013.0     2        99         2        88        9.00     271      -75.2
   09/09/2017 00:00      65.0      64.8       80     58.7      0.00      0.09      86.2     0.33      1013.0     2        99         2        89        9.00     271      -74.7
   09/08/2017 23:50      65.2      64.8       79     58.5      0.00      0.09      86.2     0.33      1013.0     2       106         2       109        9.00     271      -74.6
   09/08/2017 23:40      65.3      65.0       79     58.3      0.00      0.09      86.1     0.33      1013.0     1        81         2        98        9.00     271      -74.2
   09/08/2017 23:30      65.4      65.1       79     58.5      0.00      0.09      86.0     0.33      1013.0     1        57         1         4        9.00     270      -74.5
   09/08/2017 23:20      65.5      65.2       78     58.3      0.00      0.09      86.2     0.33      1013.0     1        40         3         0        9.00     270      -73.8
   09/08/2017 23:10      65.9      65.2       77     58.2      0.00      0.09      86.3     0.33      1013.0     1        59         2       126        9.00     270      -73.0
   09/08/2017 23:00      66.3      66.0       77     58.6      0.00      0.09      86.4     0.33      1013.0     1       359         2         5        9.00     270      -74.1
   09/08/2017 22:50      66.4      66.3       76     58.6      0.00      0.09      86.3     0.33      1013.0     1       123         2        99        9.00     270      -74.7
   09/08/2017 22:40      66.7      66.5       75     58.6      0.00      0.09      86.6     0.33      1013.0     2        76         3        81        9.00     270      -76.0
   09/08/2017 22:30      66.8      66.5       75     58.5      0.00      0.09      86.2     0.33      1013.0     2        89         3        53        9.00     270      -75.9
   09/08/2017 22:20      67.3      66.9       74     58.5      0.00      0.09      86.3     0.33      1013.0     1        61         2        78        9.00     270      -75.1
   09/08/2017 22:10      67.9      67.4       73     58.6      0.00      0.09      86.3     0.33      1013.0     1        91         1       107        9.00     269      -76.2
   09/08/2017 22:00      68.3      68.1       72     59.0      0.00      0.09      86.1     0.33      1013.0     1        79         2        83        9.01     269      -77.5
   09/08/2017 21:50      68.7      68.4       71     58.9      0.00      0.09      86.1     0.33      1013.0     2        89         4        78        9.01     269      -77.4
   09/08/2017 21:40      68.7      67.6       70     58.0      0.00      0.09      86.4     0.33      1013.0     2        38         4        38        9.01     269      -76.2
   09/08/2017 21:30      67.8      67.6       67     56.2      0.00      0.09      86.4     0.33      1012.0     1        56         2        41        9.01     268      -75.2
   09/08/2017 21:20      68.1      67.6       65     55.8      0.00      0.09      86.4     0.33      1012.0     1        92         2        77        9.01     268      -76.5
   09/08/2017 21:10      69.1      68.2       64     56.0      0.00      0.09      86.4     0.33      1012.0     1        93         2       104        9.01     268      -78.1
   09/08/2017 21:00      69.7      69.1       63     56.1      0.00      0.09      86.4     0.33      1012.0     0       314         1       198        9.01     268      -79.2
   09/08/2017 20:50      70.3      70.0       62     56.4      0.00      0.09      86.3     0.33      1012.0     0        83         1        21        9.01     268      -81.4
   09/08/2017 20:40      70.8      70.3       60     56.0      0.00      0.09      86.4     0.33      1012.0     2       159         3       166        9.01     268      -84.6
   09/08/2017 20:30      71.2      70.8       59     55.7      0.00      0.09      86.3     0.33      1011.0     3       155         4       151        9.01     268      -86.7
   09/08/2017 20:20      71.6      71.3       56     54.9      0.00      0.09      86.3     0.33      1011.0     3       181         4       169        9.01     268      -87.9
   09/08/2017 20:10      71.8      71.4       55     54.5      0.00      0.09      86.2     0.33      1011.0     2       189         3       203        9.01     268      -88.3
   09/08/2017 20:00      72.6      71.8       53     54.1      0.00      0.09      86.3     0.33      1011.0     2       192         2       202        9.01     268      -90.9
   09/08/2017 19:50      73.0      72.4       52     54.1      0.00      0.09      86.3     0.33      1011.0     2       188         4       199        9.01     268      -93.7
   09/08/2017 19:40      73.8      73.2       50     53.7      0.00      0.09      86.3     0.33      1011.0     1       202         3       198        9.01     268      -96.6
   09/08/2017 19:30      74.5      73.9       49     53.6      0.00      0.09      86.4     0.33      1011.0     2       155         4       185        9.02     268     -101.3
   09/08/2017 19:20      75.5      74.6       44     51.9      0.00      0.09      86.3     0.33      1010.0     3       185         5       184        9.01     267     -103.2
   09/08/2017 19:10      76.0      75.3       41     50.6      0.00      0.09      86.2     0.33      1010.0     4       174         6       173        9.01     267     -102.2
   09/08/2017 19:00      76.9      76.3       40     50.7      0.00      0.09      86.2     0.33      1010.0     4       154         7       135        9.02     267      -99.9
   09/08/2017 18:50      78.2      77.2       38     49.9      0.00      0.09      86.3     0.33      1010.0     5       127         9       121        9.02     267      -96.7
   09/08/2017 18:40      79.4      78.5       33     47.8      0.00      0.09      86.2     0.33      1010.0     5       113         7       143        9.02     267      -76.1
   09/08/2017 18:30      80.7      79.3       30     46.0      0.00      0.09      86.2     0.33      1010.0     5       123         7       126        9.02     266      -57.0
   09/08/2017 18:20      81.4      80.9       27     43.8      0.00      0.09      86.1     0.33      1010.0     4       115         6        66        9.02     266      -37.3
   09/08/2017 18:10      82.2      81.2       25     42.5      0.00      0.09      86.1     0.33      1010.0     4       121         7       121        9.02     266      -14.4
   09/08/2017 18:00      83.8      82.3       22     40.4      0.00      0.09      86.1     0.33      1010.0     5       104         8       122        9.20     266       10.2
   09/08/2017 17:50      83.9      83.7       24     43.4      0.00      0.09      86.1     0.33      1010.0     5       103         7       134        9.20     266       34.4
   09/08/2017 17:40      84.7      84.1       24     43.6      0.00      0.09      85.9     0.33      1010.0     6        87         8       124        9.21     266       61.0
   09/08/2017 17:30      85.3      84.8       23     43.6      0.00      0.09      86.0     0.33      1010.0     5        90         8        76        9.21     266       86.5
   09/08/2017 17:20      86.5      85.5       26     46.8      0.00      0.09      85.9     0.33      1010.0     4        62         8        69        9.21     266      111.8
   09/08/2017 17:10      86.5      86.2       25     46.7      0.00      0.09      85.8     0.33      1010.0     4        63         7        80        9.22     266      136.4
   09/08/2017 17:00      87.1      86.6       18     38.6      0.00      0.09      85.8     0.32      1010.0     3       111         6        84        9.22     266      160.6
   09/08/2017 16:50      87.7      87.2       16     35.1      0.00      0.09      86.0     0.32      1010.0     4       121         5       132        9.22     266      183.9
   09/08/2017 16:40      87.5      86.6       14     32.4      0.00      0.09      85.7     0.32      1009.0     4        84         5        74        9.22     266      207.5
   09/08/2017 16:30      86.8      86.3       17     36.5      0.00      0.09      85.9     0.32      1009.0     4        80         7        73        9.22     266      230.5
   09/08/2017 16:20      86.7      85.1       20     40.6      0.00      0.09      85.6     0.32      1010.0     4        98         6        63        9.22     266      254.0
   09/08/2017 16:10      85.7      85.0       24     44.4      0.00      0.09      85.7     0.32      1010.0     6       113         8        82        9.22     267      275.4
   09/08/2017 16:00      85.8      85.6       24     45.2      0.00      0.09      85.4     0.32      1010.0     6       110         8       128        9.23     267      297.4
   09/08/2017 15:50      86.2      85.2       26     47.4      0.00      0.09      85.5     0.32      1010.0     5       133         8       147        9.23     267      317.2
   09/08/2017 15:40      86.4      86.0       26     47.5      0.00      0.09      85.6     0.32      1010.0     5       122         7       136        9.23     267      335.9
   09/08/2017 15:30      86.7      85.9       27     48.8      0.00      0.09      85.4     0.32      1010.0     4       149         6       136        9.23     267      356.6
   09/08/2017 15:20      86.9      86.1       30     51.1      0.00      0.09      85.4     0.32      1010.0     6       164         9       164        9.23     268      373.6
   09/08/2017 15:10      87.6      86.6       31     53.0      0.00      0.09      85.4     0.32      1010.0     6       127        10        90        9.23     268      390.2
   09/08/2017 15:00      87.9      87.0       32     53.7      0.00      0.09      85.4     0.32      1010.0     5       109        14        83        9.23     268      403.0
   09/08/2017 14:50      87.2      86.7       35     55.9      0.00      0.09      85.3     0.32      1010.0     5       161         7       134        9.23     269      416.7
   09/08/2017 14:40      88.1      86.9       34     55.4      0.00      0.09      85.2     0.32      1011.0     5       139         8       143        9.23     269      429.4
   09/08/2017 14:30      88.6      87.7       22     44.9      0.00      0.09      85.2     0.32      1011.0     6       120         9       122        9.24     268      442.8
   09/08/2017 14:20      88.1      87.3       26     48.1      0.00      0.09      85.3     0.32      1011.0     4       124         8       143        9.24     268      458.0
   09/08/2017 14:10      89.6      88.1       26     49.0      0.00      0.09      85.2     0.32      1011.0     6       112         8        86        9.24     268      470.6
   09/08/2017 14:00      89.7      88.4       32     55.5      0.00      0.09      85.2     0.32      1011.0     4        73         6       104        9.24     269      475.8
   09/08/2017 13:50      88.7      88.2       33     55.8      0.00      0.09      85.1     0.32      1011.0     5        63         8        73        9.24     269      482.5
   09/08/2017 13:40      89.0      88.6       34     57.0      0.00      0.09      85.0     0.32      1011.0     4        47         6        59        9.24     269      486.6
   09/08/2017 13:30      89.0      88.1       35     57.5      0.00      0.09      84.9     0.32      1011.0     4        59         6        59        9.24     269      490.9
   09/08/2017 13:20      88.1      87.0       39     59.4      0.00      0.09      85.0     0.32      1011.0     5        33         6        74        9.24     269      497.0
   09/08/2017 13:10      87.7      87.0       40     60.1      0.00      0.09      85.0     0.32      1011.0     5       358        11       351        9.24     270      497.9
   09/08/2017 13:00      87.2      86.7       40     59.6      0.00      0.09      84.9     0.32      1011.0     3        41         4         7        9.24     270      502.6
   09/08/2017 12:50      86.9      86.3       41     59.8      0.00      0.09      85.2     0.32      1011.0     4        25         6       339        9.24     270      503.4
   09/08/2017 12:40      86.3      84.7       43     60.2      0.00      0.09      85.0     0.32      1012.0     3        17         5        92        9.24     270      506.0
   09/08/2017 12:30      84.5      83.5       44     59.7      0.00      0.09      85.1     0.32      1012.0     3        56         6        81        9.24     271      508.5
   09/08/2017 12:20      84.1      82.5       46     60.2      0.00      0.09      85.0     0.32      1012.0     4        53         7        54        9.24     270      503.6
   09/08/2017 12:10      83.5      82.5       47     60.9      0.00      0.09      84.9     0.32      1012.0     4         7         6         5        9.24     271      494.1
   09/08/2017 12:00      83.1      82.3       47     60.6      0.00      0.09      85.2     0.32      1012.0     2        40         5        78        9.25     271      491.2
   09/08/2017 11:50      82.4      81.6       48     60.5      0.00      0.09      85.0     0.32      1012.0     3        49         6        71        9.24     271      490.5
   09/08/2017 11:40      82.3      81.6       48     60.5      0.00      0.09      85.0     0.32      1012.0     3        39         6        37        9.25     271      482.9
   09/08/2017 11:30      81.6      79.5       51     60.7      0.00      0.09      85.0     0.32      1012.0     3        33         5        34        9.25     271      470.8
   09/08/2017 11:20      79.7      79.2       52     60.3      0.00      0.09      85.1     0.32      1012.0     3        65         6        82        9.25     271      470.5
   09/08/2017 11:10      79.8      78.5       53     60.3      0.00      0.09      84.9     0.32      1012.0     3        84         6        50        9.25     271      459.8
   09/08/2017 11:00      79.2      78.1       53     60.2      0.00      0.09      85.1     0.32      1012.0     4        71         7        70        9.25     271      446.7
   09/08/2017 10:50      78.3      77.8       53     59.8      0.00      0.09      85.0     0.32      1013.0     4        44         7        74        9.25     271      431.4
   09/08/2017 10:40      78.0      77.5       54     59.7      0.00      0.09      85.0     0.32      1013.0     4        56         5        18        9.25     271      417.5
   09/08/2017 10:30      77.5      76.8       54     59.2      0.00      0.09      85.0     0.32      1013.0     3        55         5        81        9.25     271      404.5
   09/08/2017 10:20      77.0      76.5       54     58.9      0.00      0.09      85.0     0.32      1013.0     4        52         5        45        9.25     272      389.9
   09/08/2017 10:10      77.7      77.2       55     60.0      0.00      0.09      85.4     0.32      1013.0     4        62         7        91        9.25     272      370.4
   09/08/2017 10:00      77.3      76.8       56     60.1      0.00      0.09      85.1     0.32      1013.0     3        49         5       106        9.25     272      350.4
   09/08/2017 09:50      76.8      76.3       57     60.0      0.00      0.09      85.5     0.32      1013.0     3        46         4        69        9.25     272      332.0
   09/08/2017 09:40      76.2      75.2       58     59.9      0.00      0.09      85.4     0.32      1013.0     3        17         4        11        9.25     272      313.3
   09/08/2017 09:30      75.3      74.1       59     59.7      0.00      0.09      85.2     0.32      1013.0     3        52         5        29        9.25     272      297.8
   09/08/2017 09:20      74.0      73.6       61     59.6      0.00      0.09      85.6     0.32      1012.0     3        22         4        11        9.25     272      278.4
   09/08/2017 09:10      73.9      73.3       62     59.7      0.00      0.09      85.4     0.33      1012.0     2        46         3         5        9.25     272      257.3
   09/08/2017 09:00      73.4      72.7       63     59.6      0.00      0.09      85.3     0.33      1012.0     2        36         3        31        9.25     272      236.5
   09/08/2017 08:50      72.8      72.1       64     59.4      0.00      0.09      85.8     0.33      1012.0     3        61         4        60        9.25     272      215.1
   09/08/2017 08:40      72.3      71.6       64     59.5      0.00      0.09      85.7     0.33      1012.0     2        45         4        39        9.25     272      193.7
   09/08/2017 08:30      72.5      71.8       65     59.6      0.00      0.09      85.3     0.33      1012.0     2        52         5        70        9.26     272      168.2
   09/08/2017 08:20      71.9      71.2       65     59.1      0.00      0.09      85.6     0.33      1012.0     2        42         3        17        9.26     273      144.1
   09/08/2017 08:10      71.2      70.7       65     58.6      0.00      0.09      85.8     0.33      1012.0     2        33         2        64        9.26     273      118.1
   09/08/2017 08:00      70.8      69.8       66     58.5      0.00      0.09      85.5     0.33      1012.0     1        44         2        73        9.26     273       90.3
   09/08/2017 07:50      69.7      67.5       70     58.6      0.00      0.09      85.3     0.33      1012.0     1        54         2        69        9.26     273       60.7
   09/08/2017 07:40      67.5      64.2       79     59.2      0.00      0.09      85.8     0.33      1012.0     1        16         1        34        9.26     273       35.7
   09/08/2017 07:30      64.1      62.8       83     58.1      0.00      0.09      85.9     0.33      1012.0     0       151         1       325        9.26     272       11.9
   09/08/2017 07:20      62.9      62.3       84     57.6      0.00      0.09      85.5     0.33      1012.0     1       111         1       116        9.26     272      -22.8
   09/08/2017 07:10      62.4      61.3       86     57.6      0.00      0.09      85.9     0.33      1012.0     1       152         1       122        9.26     272      -27.2
   09/08/2017 07:00      61.5      61.2       86     57.2      0.00      0.09      85.8     0.33      1012.0     1       151         2       143        9.26     272      -32.9
   09/08/2017 06:50      61.4      61.2       86     57.1      0.00      0.09      85.8     0.33      1011.0     1       132         2       131        9.26     272      -44.9
   09/08/2017 06:40      61.3      61.0       86     56.8      0.00      0.09      85.7     0.33      1011.0     1       193         2       148        9.26     272      -52.7
   09/08/2017 06:30      61.3      61.0       84     56.4      0.00      0.09      85.9     0.33      1011.0     1       149         2       147        9.26     272      -58.8
   09/08/2017 06:20      61.9      61.4       84     56.6      0.00      0.09      85.8     0.33      1011.0     2       140         2       154        9.26     272      -61.3
   09/08/2017 06:10      61.8      61.6       84     56.9      0.00      0.09      85.7     0.33      1011.0     1       151         2       133        9.26     272      -60.7
   09/08/2017 06:00      61.8      61.5       84     56.8      0.00      0.09      86.1     0.33      1011.0     1       185         2       183        9.26     272      -61.1
   09/08/2017 05:50      61.8      61.6       83     56.6      0.00      0.09      86.2     0.33      1011.0     2       151         2       133        9.26     271      -61.9
   09/08/2017 05:40      62.0      61.8       83     56.6      0.00      0.09      86.3     0.33      1011.0     1       171         2       150        9.26     272      -61.4
   09/08/2017 05:30      62.3      62.1       82     56.8      0.00      0.09      86.0     0.33      1011.0     2       138         2       137        9.26     271      -62.7
   09/08/2017 05:20      62.9      62.4       81     56.6      0.00      0.09      86.2     0.33      1011.0     2       144         2       123        9.26     271      -62.5
   09/08/2017 05:10      63.7      62.8       80     56.9      0.00      0.09      86.1     0.33      1011.0     2       189         3       224        9.26     271      -61.5
   09/08/2017 05:00      62.7      62.4       81     56.5      0.00      0.09      85.9     0.33      1011.0     2       212         2       224        9.26     271      -61.3
   09/08/2017 04:50      62.9      62.6       81     56.9      0.00      0.09      86.2     0.33      1011.0     1       161         2       186        9.26     271      -60.6
   09/08/2017 04:40      62.9      62.6       81     57.0      0.00      0.09      86.4     0.33      1011.0     1       331         2       333        9.26     271      -60.7
   09/08/2017 04:30      63.2      62.8       81     57.0      0.00      0.09      86.1     0.33      1011.0     1       221         2       219        9.26     271      -62.2
   09/08/2017 04:20      63.4      63.2       81     57.3      0.00      0.09      86.2     0.33      1011.0     1       189         1       175        9.26     271      -61.9
   09/08/2017 04:10      63.3      62.8       81     57.2      0.00      0.09      86.5     0.33      1011.0     1       160         2       143        9.26     271      -61.9
   09/08/2017 04:00      63.3      62.9       81     57.0      0.00      0.09      86.6     0.33      1011.0     1       120         1       164        9.26     271      -62.3
   09/08/2017 03:50      63.5      63.3       80     57.2      0.00      0.09      86.3     0.33      1011.0     1       105         2       136        9.26     271      -63.2
   09/08/2017 03:40      63.6      63.4       80     57.3      0.00      0.09      86.4     0.33      1011.0     2       150         2       163        9.26     271      -64.1
   09/08/2017 03:30      63.6      63.3       80     57.2      0.00      0.09      86.6     0.33      1011.0     2       131         2       132        9.26     271      -64.2
   09/08/2017 03:20      63.6      63.2       80     57.1      0.00      0.09      86.5     0.33      1011.0     1       172         2       186        9.26     271      -63.8
   09/08/2017 03:10      63.6      63.3       79     56.8      0.00      0.09      86.5     0.33      1011.0     2       147         2       154        9.26     271      -64.3
   09/08/2017 03:00      64.0      63.5       79     57.0      0.00      0.09      86.6     0.33      1011.0     2       160         2       160        9.26     271      -65.3
   09/08/2017 02:50      64.4      64.1       79     57.5      0.00      0.09      86.3     0.33      1011.0     2       154         3       142        9.26     271      -65.3
   09/08/2017 02:40      64.6      64.4       77     57.3      0.00      0.09      86.7     0.33      1011.0     1       173         2       186        9.26     271      -65.2
   09/08/2017 02:30      64.9      64.5       77     57.5      0.00      0.09      86.8     0.33      1011.0     1       183         1       213        9.26     271      -64.7
   09/08/2017 02:20      65.3      64.9       76     57.4      0.00      0.09      86.7     0.33      1011.0     1       143         1       137        9.26     271      -65.3
   09/08/2017 02:10      65.8      65.4       75     57.5      0.00      0.09      86.7     0.33      1011.0     1       141         1       134        9.26     271      -65.8
   09/08/2017 02:00      66.1      65.8       74     57.5      0.00      0.09      86.8     0.33      1011.0     0       191         1       234        9.27     271      -65.0
   09/08/2017 01:50      66.5      66.1       73     57.5      0.00      0.09      86.8     0.33      1011.0     0       126         1       100        9.27     271      -65.8
   09/08/2017 01:40      67.1      66.5       72     57.5      0.00      0.09      86.7     0.33      1011.0     1       139         2       151        9.27     271      -66.8
   09/08/2017 01:30      67.8      67.1       71     57.7      0.00      0.09      86.9     0.33      1011.0     2       136         2       151        9.27     271      -66.9
   09/08/2017 01:20      68.1      67.6       69     57.5      0.00      0.09      86.9     0.33      1011.0     1        96         2        75        9.27     271      -68.8
   09/08/2017 01:10      68.8      68.2       68     57.6      0.00      0.09      87.1     0.33      1011.0     1        67         1        51        9.27     271      -70.0
   09/08/2017 01:00      68.9      68.7       68     57.7      0.00      0.09      86.9     0.33      1011.0     2        53         3        66        9.27     271      -69.8
   09/08/2017 00:50      69.0      68.5       68     57.8      0.00      0.09      87.3     0.33      1011.0     2        34         3        57        9.27     270      -69.4
   09/08/2017 00:40      68.8      68.5       69     58.2      0.00      0.09      87.0     0.33      1011.0     2        33         3         7        9.27     270      -69.9
   09/08/2017 00:30      68.4      68.2       70     58.1      0.00      0.09      87.1     0.33      1011.0     1        25         2        34        9.27     270      -69.7
   09/08/2017 00:20      68.4      68.1       70     58.1      0.00      0.09      87.0     0.33      1011.0     1        44         2        31        9.27     270      -70.3
   09/08/2017 00:10      68.5      68.1       68     57.4      0.00      0.09      87.0     0.33      1011.0     1        53         2        21        9.27     270      -69.9
   09/08/2017 00:00      68.9      68.6       66     57.0      0.00      0.09      87.1     0.33      1011.0     2        84         3        76        9.27     270      -69.3
   09/07/2017 23:50      69.3      69.1       66     57.3      0.00      0.09      87.2     0.33      1011.0     2        83         3        83        9.27     270      -69.8
   09/07/2017 23:40      69.6      69.2       66     57.3      0.00      0.09      87.1     0.33      1011.0     2       120         2       150        9.27     270      -72.2
   09/07/2017 23:30      69.5      69.1       66     57.7      0.00      0.09      87.1     0.33      1011.0     2       120         2        88        9.27     270      -72.2
   09/07/2017 23:20      68.8      68.6       64     55.9      0.00      0.09      87.0     0.33      1011.0     2       109         3       111        9.27     269      -71.9
   09/07/2017 23:10      69.6      69.1       62     55.7      0.00      0.09      87.0     0.33      1011.0     1       112         2        78        9.27     269      -71.7
   09/07/2017 23:00      69.8      69.6       60     55.2      0.00      0.09      87.1     0.33      1011.0     1       144         1       130        9.27     269      -73.0
   09/07/2017 22:50      70.1      69.7       59     54.8      0.00      0.09      87.1     0.33      1011.0     1       175         1       141        9.27     269      -73.5
   09/07/2017 22:40      70.5      70.2       59     55.1      0.00      0.09      87.1     0.33      1011.0     1       117         1       143        9.27     269      -74.0
   09/07/2017 22:30      71.3      70.8       58     55.3      0.00      0.09      86.9     0.33      1011.0     1       135         1       100        9.27     269      -73.8
   09/07/2017 22:20      71.8      71.3       56     55.1      0.00      0.09      87.2     0.33      1010.0     1       153         1       174        9.28     269      -74.4
   09/07/2017 22:10      72.2      71.7       55     54.9      0.00      0.09      87.2     0.33      1011.0     1       169         1       183        9.28     269      -73.7
   09/07/2017 22:00      72.8      72.3       54     55.1      0.00      0.09      87.1     0.33      1011.0     1       130         1       115        9.28     269      -74.3
   09/07/2017 21:50      73.6      72.8       53     55.0      0.00      0.09      87.0     0.33      1010.0     1        92         2       197        9.28     269      -74.6
   09/07/2017 21:40      74.6      73.8       51     55.0      0.00      0.09      87.1     0.33      1010.0     1       108         1        87        9.28     268      -76.8
   09/07/2017 21:30      75.1      74.7       50     55.2      0.00      0.09      87.2     0.33      1010.0     1        60         2        66        9.28     269      -79.6
   09/07/2017 21:20      75.2      74.9       50     55.3      0.00      0.09      87.3     0.33      1010.0     2       112         3       164        9.28     268      -80.5
   09/07/2017 21:10      75.4      75.2       50     55.5      0.00      0.09      87.2     0.33      1010.0     4       198         5       185        9.28     269      -79.6
   09/07/2017 21:00      75.6      75.3       50     55.5      0.00      0.09      87.1     0.33      1010.0     3       196         5       198        9.28     268      -79.8
   09/07/2017 20:50      76.1      75.7       49     55.4      0.00      0.09      87.1     0.33      1010.0     2       200         3       176        9.29     268      -80.8
   09/07/2017 20:40      76.6      76.2       48     55.3      0.00      0.09      87.2     0.33      1010.0     2       210         3       212        9.29     268      -82.4
   09/07/2017 20:30      76.9      76.6       47     55.2      0.00      0.09      86.9     0.33      1010.0     3       208         4       200        9.29     268      -83.1
   09/07/2017 20:20      77.5      77.2       46     55.0      0.00      0.09      87.1     0.33      1010.0     2       211         2       229        9.29     268      -84.5
   09/07/2017 20:10      78.4      77.8       45     54.6      0.00      0.09      87.1     0.33      1010.0     3       216         5       226        9.29     268      -86.5
   09/07/2017 20:00      79.0      78.4       43     54.4      0.00      0.09      87.0     0.33      1010.0     3       216         6       219        9.29     268      -87.7
   09/07/2017 19:50      80.2      79.2       44     55.6      0.00      0.09      86.9     0.33      1010.0     3       209         5       210        9.29     268      -88.2
   09/07/2017 19:40      80.8      80.2       43     56.1      0.00      0.09      86.9     0.33      1010.0     3       289         6       315        9.30     268      -89.9
   09/07/2017 19:30      81.5      80.9       42     56.1      0.00      0.09      86.8     0.33      1010.0     3       264         6       292        9.30     268      -90.5
   09/07/2017 19:20      82.3      81.8       41     55.9      0.00      0.09      86.9     0.33      1009.0     5       270         6       300        9.30     268      -90.8
   09/07/2017 19:10      83.2      82.5       39     55.4      0.00      0.09      86.8     0.33      1009.0     5       279         8       293        9.30     268      -88.8
   09/07/2017 19:00      84.8      83.4       37     55.1      0.00      0.09      86.8     0.33      1009.0     4       296         6       303        9.30     267      -85.8
   09/07/2017 18:50      86.0      85.0       35     54.7      0.00      0.09      86.7     0.33      1009.0     3       284         6       231        9.30     267      -82.6
   09/07/2017 18:40      86.9      86.2       33     54.5      0.00      0.09      86.7     0.33      1009.0     4       266         6       267        9.30     267      -63.9
   09/07/2017 18:30      88.6      87.2       31     53.6      0.00      0.09      86.8     0.33      1009.0     5       271         6       272        9.31     267      -47.5
   09/07/2017 18:20      88.6      88.3       28     51.6      0.00      0.09      86.8     0.33      1009.0     3       261         4       300        9.30     267      -27.3
   09/07/2017 18:10      89.0      88.6       27     50.8      0.00      0.09      86.8     0.33      1009.0     6       240         8       244        9.31     267       -3.9
   09/07/2017 18:00      89.9      89.2       27     51.3      0.00      0.09      86.8     0.33      1009.0     5       226         8       236        9.31     267       20.3
   09/07/2017 17:50      90.6      90.3       28     52.7      0.00      0.09      86.6     0.33      1009.0     5       269         8       288        9.31     267       44.3
   09/07/2017 17:40      90.9      90.3       28     53.3      0.00      0.09      86.5     0.33      1009.0     5       256         8       232        9.31     267       69.5
   09/07/2017 17:30      91.0      90.3       28     53.5      0.00      0.09      86.6     0.33      1009.0     5       278         8       271        9.31     267       95.8
   09/07/2017 17:20      91.8      91.1       27     53.0      0.00      0.09      86.5     0.33      1009.0     5       283         7       300        9.31     267      118.5
   09/07/2017 17:10      92.4      91.9       26     52.3      0.00      0.09      86.6     0.33      1009.0     5       284         7       277        9.31     267      142.1
   09/07/2017 17:00      93.2      92.2       26     52.8      0.00      0.09      86.4     0.33      1009.0     7       296         9       328        9.31     267      165.4
   09/07/2017 16:50      93.8      92.9       26     53.2      0.00      0.09      86.3     0.33      1009.0     4       290         9       333        9.31     267      189.1
   09/07/2017 16:40      93.9      93.0       26     53.0      0.00      0.09      86.2     0.33      1009.0     5       303         8       312        9.31     267      212.5
   09/07/2017 16:30      95.6      94.1       22     50.6      0.00      0.09      86.2     0.32      1009.0     6       260         9       231        9.31     267      231.7
   09/07/2017 16:20      95.2      94.4       23     51.6      0.00      0.09      86.2     0.32      1009.0     4       269         7       268        9.31     267      249.2
   09/07/2017 16:10      94.6      94.0       24     52.2      0.00      0.09      86.2     0.32      1009.0     5       300         7       258        9.31     267      271.5
   09/07/2017 16:00      95.1      94.6       24     52.6      0.00      0.09      86.1     0.32      1009.0     5       315         7       318        9.31     267      288.8
   09/07/2017 15:50      95.5      94.9       24     52.7      0.00      0.09      86.1     0.32      1009.0     5       312         8       332        9.31     267      306.6
   09/07/2017 15:40      95.9      94.7       24     52.7      0.00      0.09      86.0     0.32      1009.0     5       300         8       297        9.31     268      326.9
   09/07/2017 15:30      95.6      95.0       24     52.8      0.00      0.09      85.9     0.32      1010.0     4       324         8       326        9.31     268      343.6
   09/07/2017 15:20      96.4      96.0       26     56.0      0.00      0.09      85.7     0.32      1010.0     4       343         6       242        9.31     269      359.0
   09/07/2017 15:10      96.7      95.5       27     56.8      0.00      0.09      86.0     0.32      1010.0     3        39         5        12        9.31     269      370.0
   09/07/2017 15:00      96.0      95.2       27     56.2      0.00      0.09      85.8     0.32      1010.0     3        76         5       134        9.31     269      387.7
   09/07/2017 14:50      95.3      94.2       28     56.0      0.00      0.09      85.6     0.32      1010.0     4        77         6        69        9.31     268      406.1
   09/07/2017 14:40      96.7      94.7       26     55.4      0.00      0.09      85.6     0.32      1010.0     4        68         9        88        9.31     268      414.7
   09/07/2017 14:30      96.6      95.1       26     55.4      0.00      0.09      85.6     0.32      1010.0     2        63         4       119        9.31     269      429.9
   09/07/2017 14:20      95.3      94.6       24     53.0      0.00      0.09      85.7     0.32      1011.0     2        65         4        71        9.31     268      438.6
   09/07/2017 14:10      95.8      94.7       25     54.5      0.00      0.09      85.6     0.32      1011.0     3        58         6         5        9.31     268      451.9
   09/07/2017 14:00      96.2      94.9       25     54.4      0.00      0.09      85.5     0.32      1011.0     3        46         4        14        9.31     268      467.4
   09/07/2017 13:50      95.0      93.7       26     53.8      0.00      0.09      85.6     0.32      1011.0     2        29         4        33        9.31     268      474.5
   09/07/2017 13:40      94.7      93.9       26     54.5      0.00      0.09      85.4     0.32      1011.0     4        63         6        65        9.31     268      482.7
   09/07/2017 13:30      94.4      93.2       26     53.9      0.00      0.09      85.5     0.32      1011.0     2        68         6        84        9.31     268      491.4
   09/07/2017 13:20      94.1      93.3       25     52.8      0.00      0.09      85.2     0.32      1011.0     3        16         5        32        9.31     269      493.1
   09/07/2017 13:10      93.3      92.3       26     53.2      0.00      0.09      85.4     0.32      1011.0     3        55         6        65        9.31     269      495.1
   09/07/2017 13:00      92.3      91.8       27     53.3      0.00      0.09      85.4     0.32      1012.0     3         2         4        59        9.31     269      495.6
   09/07/2017 12:50      91.9      90.5       28     54.0      0.00      0.09      85.2     0.32      1012.0     2       352         4         8        9.31     269      498.3
   09/07/2017 12:40      90.7      90.0       30     54.7      0.00      0.09      85.3     0.32      1012.0     3        50         4       124        9.31     269      506.7
   09/07/2017 12:30      91.6      90.2       29     54.5      0.00      0.09      85.4     0.32      1012.0     3        51         5        78        9.31     270      503.6
   09/07/2017 12:20      91.4      89.2       30     54.7      0.00      0.09      85.5     0.32      1012.0     2       336         3       309        9.31     270      500.8
   09/07/2017 12:10      89.7      89.1       31     54.9      0.00      0.09      85.5     0.32      1012.0     2        18         5       345        9.31     270      500.6
   09/07/2017 12:00      89.7      88.9       31     54.8      0.00      0.09      85.5     0.32      1012.0     2        40         4        37        9.31     270      495.3
   09/07/2017 11:50      89.0      87.8       31     54.1      0.00      0.09      85.3     0.32      1012.0     3        42         3        71        9.31     270      489.5
   09/07/2017 11:40      87.7      86.9       31     53.0      0.00      0.09      85.4     0.32      1013.0     3         2         6       351        9.31     270      482.1
   09/07/2017 11:30      87.2      86.6       31     52.2      0.00      0.09      85.4     0.32      1013.0     3        17         4        54        9.31     270      475.3
   09/07/2017 11:20      87.2      85.9       31     52.0      0.00      0.09      85.4     0.32      1013.0     3        28         5       346        9.31     270      467.0
   09/07/2017 11:10      85.6      85.2       33     52.8      0.00      0.09      85.3     0.32      1013.0     2        17         4        11        9.31     270      455.2
   09/07/2017 11:00      85.6      84.1       34     53.3      0.00      0.09      85.5     0.32      1013.0     3        39         4        20        9.31     270      442.4
   09/07/2017 10:50      84.6      83.7       37     55.3      0.00      0.09      85.7     0.32      1013.0     3        26         4        28        9.31     270      433.7
   09/07/2017 10:40      84.0      82.9       38     55.5      0.00      0.09      85.7     0.32      1013.0     3        14         6         2        9.31     270      420.0
   09/07/2017 10:30      82.5      81.3       40     55.4      0.00      0.09      85.4     0.32      1013.0     3        40         5        69        9.31     271      406.4
   09/07/2017 10:20      81.3      80.7       42     56.0      0.00      0.09      85.5     0.32      1013.0     4       356         6       359        9.31     272      390.1
   09/07/2017 10:10      80.8      80.5       42     55.2      0.00      0.09      85.6     0.32      1013.0     3        21         4         1        9.31     272      374.2
   09/07/2017 10:00      80.8      79.7       44     56.2      0.00      0.09      85.8     0.32      1013.0     3        48         4        83        9.31     272      358.7
   09/07/2017 09:50      79.4      79.2       47     57.6      0.00      0.09      85.9     0.32      1013.0     2         3         3       349        9.31     272      340.2
   09/07/2017 09:40      79.5      79.0       49     58.3      0.00      0.09      85.8     0.32      1013.0     2        56         3        62        9.31     272      322.0
   09/07/2017 09:30      79.5      77.7       50     58.3      0.00      0.09      85.9     0.33      1013.0     1       135         2        59        9.31     273      303.5
   09/07/2017 09:20      77.8      75.3       53     58.4      0.00      0.09      85.6     0.33      1013.0     1        38         2       115        9.31     272      283.9
   09/07/2017 09:10      75.5      74.9       55     58.1      0.00      0.09      85.6     0.33      1013.0     2       318         3       350        9.31     273      264.1
   09/07/2017 09:00      75.5      74.9       55     58.2      0.00      0.09      86.1     0.33      1013.0     2       354         3        10        9.31     272      243.6
   09/07/2017 08:50      74.8      73.6       57     58.1      0.00      0.09      86.2     0.33      1013.0     1        15         2        69        9.31     273      221.4
   09/07/2017 08:40      73.8      73.2       58     58.0      0.00      0.09      86.1     0.33      1013.0     1        11         2        56        9.31     272      199.7
   09/07/2017 08:30      74.2      73.3       58     58.0      0.00      0.09      86.1     0.33      1013.0     2        26         3        68        8.97     272      176.5
   09/07/2017 08:20      74.5      73.2       57     57.9      0.00      0.09      86.1     0.33      1013.0     1       104         2        61        8.97     273      150.8
   09/07/2017 08:10      72.9      71.4       61     57.6      0.00      0.09      86.0     0.33      1013.0     1       227         1        91        8.98     273      126.5
   09/07/2017 08:00      71.4      68.5       65     57.6      0.00      0.09      86.1     0.33      1013.0     1       139         1       187        8.98     273       97.9
   09/07/2017 07:50      68.8      67.2       69     57.6      0.00      0.09      86.0     0.33      1013.0     1       126         2       116        8.98     273       68.0
   09/07/2017 07:40      66.9      64.3       76     57.8      0.00      0.09      86.2     0.33      1013.0     1       151         1       107        8.98     273       41.6
   09/07/2017 07:30      64.3      62.8       80     57.1      0.00      0.09      86.1     0.33      1013.0     1        43         1        82        8.98     273        5.6
   09/07/2017 07:20      62.9      62.3       81     56.6      0.00      0.09      86.2     0.33      1013.0     1       110         1       135        8.98     273      -38.4
   09/07/2017 07:10      62.4      61.8       82     56.4      0.00      0.09      86.2     0.33      1013.0     1       136         2       138        8.98     273      -40.3
   09/07/2017 07:00      61.8      60.9       84     56.3      0.00      0.09      86.3     0.33      1013.0     1       186         1       185        8.98     272      -41.2
   09/07/2017 06:50      61.2      60.8       84     56.3      0.00      0.09      86.1     0.33      1013.0     1       146         2       134        8.98     272      -48.7
   09/07/2017 06:40      60.9      60.7       83     55.8      0.00      0.09      86.2     0.33      1013.0     1        65         1        43        8.98     272      -56.1
   09/07/2017 06:30      61.2      60.9       83     55.9      0.00      0.09      86.2     0.33      1013.0     1        88         1       107        8.98     272      -58.7
   09/07/2017 06:20      61.4      61.1       83     56.0      0.00      0.09      86.1     0.33      1013.0     1       197         1       219        8.98     272      -58.8
   09/07/2017 06:10      61.6      61.3       83     56.1      0.00      0.09      86.2     0.33      1013.0     1       141         2       190        8.98     272      -59.7
   09/07/2017 06:00      61.5      61.1       84     56.5      0.00      0.09      86.6     0.33      1013.0     1       195         1       144        8.98     272      -56.6
   09/07/2017 05:50      61.5      61.3       84     56.5      0.00      0.09      86.7     0.33      1013.0     1       158         2       132        8.98     272      -57.7
   09/07/2017 05:40      61.9      61.3       83     56.4      0.00      0.09      86.9     0.33      1013.0     1       135         2       140        8.98     272      -60.5
   09/07/2017 05:30      61.7      61.3       83     56.4      0.00      0.09      86.7     0.33      1013.0     1       194         1       210        8.98     272      -60.3
   09/07/2017 05:20      61.9      61.6       83     56.5      0.00      0.09      86.7     0.33      1013.0     1       180         1       189        8.98     272      -61.1
   09/07/2017 05:10      62.1      61.8       82     56.5      0.00      0.09      86.8     0.33      1013.0     1       153         1       154        8.98     272      -62.4
   09/07/2017 05:00      62.0      61.7       82     56.4      0.00      0.09      87.1     0.33      1013.0     1       198         1       202        8.98     272      -63.2
   09/07/2017 04:50      62.2      61.8       82     56.3      0.00      0.09      86.8     0.33      1013.0     1       165         1       146        8.98     272      -64.2
   09/07/2017 04:40      62.4      62.0       80     56.0      0.00      0.09      86.8     0.33      1013.0     1       183         2       131        8.99     272      -65.1
   09/07/2017 04:30      62.1      61.8       81     56.1      0.00      0.09      86.7     0.33      1013.0     1       216         2       173        8.99     272      -65.0
   09/07/2017 04:20      62.6      62.1       80     56.2      0.00      0.09      87.0     0.33      1013.0     1       127         2       138        8.99     272      -65.7
   09/07/2017 04:10      62.6      62.3       80     56.3      0.00      0.09      86.8     0.33      1013.0     1       189         1       201        8.99     271      -64.2
   09/07/2017 04:00      63.0      62.3       80     56.3      0.00      0.09      86.9     0.33      1013.0     1       102         1        84        8.99     271      -64.7
   09/07/2017 03:50      63.1      62.9       80     56.6      0.00      0.09      87.0     0.33      1013.0     0       128         1       219        8.99     271      -64.9
   09/07/2017 03:40      63.0      62.6       79     56.3      0.00      0.09      87.3     0.33      1013.0     2       193         2       155        8.99     271      -65.3
   09/07/2017 03:30      63.2      62.8       79     56.3      0.00      0.09      87.0     0.33      1013.0     1       131         2       136        8.99     271      -66.1
   09/07/2017 03:20      63.5      63.2       78     56.4      0.00      0.09      87.0     0.33      1013.0     1       146         1       159        8.99     271      -66.1
   09/07/2017 03:10      63.8      63.4       76     56.1      0.00      0.09      87.0     0.33      1013.0     1       168         2       183        8.99     271      -65.3
   09/07/2017 03:00      64.2      63.8       76     56.2      0.00      0.09      87.1     0.33      1013.0     1       158         2       126        8.99     271      -65.5
   09/07/2017 02:50      64.3      63.5       77     56.3      0.00      0.09      87.3     0.33      1013.0     0       220         1       225        8.99     271      -64.3
   09/07/2017 02:40      64.3      63.8       75     56.1      0.00      0.09      87.3     0.33      1013.0     1        72         1       106        8.99     271      -65.8
   09/07/2017 02:30      64.5      64.3       75     56.4      0.00      0.09      87.4     0.33      1013.0     1       143         2       164        8.99     271      -65.7
   09/07/2017 02:20      64.7      64.3       76     56.7      0.00      0.09      87.4     0.33      1013.0     1       110         1       142        8.99     271      -67.3
   09/07/2017 02:10      64.7      64.5       76     57.0      0.00      0.09      87.2     0.33      1013.0     1       184         2       167        9.00     271      -68.8
   09/07/2017 02:00      64.5      64.1       77     57.0      0.00      0.09      87.5     0.33      1013.0     2       152         2       160        9.00     271      -68.8
   09/07/2017 01:50      65.1      64.5       77     57.3      0.00      0.09      87.3     0.33      1013.0     2       146         2       158        9.00     271      -69.6
   09/07/2017 01:40      65.9      65.2       77     58.1      0.00      0.09      87.3     0.33      1013.0     1       156         2       183        9.00     271      -69.8
   09/07/2017 01:30      65.6      65.3       76     57.5      0.00      0.09      87.4     0.33      1014.0     1       154         2       155        9.00     271      -69.2
   09/07/2017 01:20      66.3      65.8       74     57.7      0.00      0.09      87.6     0.33      1014.0     2       162         2       134        9.00     271      -70.1
   09/07/2017 01:10      66.4      65.9       74     57.6      0.00      0.09      87.6     0.33      1014.0     1       179         1       181        9.00     271      -69.9
   09/07/2017 01:00      66.5      66.2       72     57.0      0.00      0.09      87.5     0.33      1014.0     1       178         2       174        9.00     271      -70.3
   09/07/2017 00:50      66.7      66.4       71     56.7      0.00      0.09      87.6     0.33      1014.0     1       149         2       153        9.00     271      -70.9
   09/07/2017 00:40      67.2      66.5       69     56.1      0.00      0.09      87.2     0.33      1014.0     1       202         2       189        9.01     271      -71.0
   09/07/2017 00:30      67.5      67.2       68     56.3      0.00      0.09      87.8     0.33      1014.0     1       155         2       157        9.01     271      -71.1
   09/07/2017 00:20      67.5      67.1       68     56.2      0.00      0.09      87.6     0.33      1014.0     1       162         1       142        9.01     271      -70.4
   09/07/2017 00:10      67.8      67.3       66     56.0      0.00      0.09      87.8     0.33      1014.0     2       132         2       127        9.01     270      -72.7
   09/07/2017 00:00      68.1      67.9       66     56.1      0.00      0.09      87.7     0.33      1014.0     1       142         2       128        9.01     271      -72.1
   09/06/2017 23:50      68.3      68.0       65     55.8      0.00      0.09      87.7     0.33      1014.0     1       163         2       126        9.01     271      -72.0
   09/06/2017 23:40      68.7      68.2       64     55.8      0.00      0.09      87.9     0.33      1014.0     2       153         3       136        9.01     270      -72.8
   09/06/2017 23:30      69.5      68.8       63     56.0      0.00      0.09      87.6     0.33      1014.0     1       147         3       148        9.01     270      -71.8
   09/06/2017 23:20      69.6      69.1       62     55.8      0.00      0.09      87.8     0.33      1014.0     1       106         1        20        9.01     270      -71.5
   09/06/2017 23:10      69.8      69.3       61     55.6      0.00      0.09      87.7     0.33      1014.0     1        29         2        39        9.01     270      -73.0
   09/06/2017 23:00      71.0      69.9       59     55.4      0.00      0.09      88.1     0.33      1014.0     1        68         1        67        9.02     270      -74.5
   09/06/2017 22:50      73.1      71.4       55     55.5      0.00      0.09      87.7     0.33      1014.0     1        81         1       240        9.02     270      -76.6
   09/06/2017 22:40      73.3      73.1       55     56.1      0.00      0.09      87.8     0.33      1014.0     2       285         3       287        9.02     270      -78.5
   09/06/2017 22:30      73.3      73.0       55     56.1      0.00      0.09      87.6     0.33      1014.0     2       237         5       251        9.02     270      -79.1
   09/06/2017 22:20      73.2      72.7       56     56.3      0.00      0.09      88.0     0.33      1014.0     2       279         2       263        9.02     270      -78.7
   09/06/2017 22:10      72.7      72.4       57     56.2      0.00      0.09      88.1     0.33      1013.0     2       255         4       263        9.02     270      -77.7
   09/06/2017 22:00      72.7      72.5       57     56.4      0.00      0.09      87.9     0.33      1014.0     1       236         4       247        9.02     270      -79.5
   09/06/2017 21:50      73.2      72.7       56     56.5      0.00      0.09      87.7     0.33      1014.0     1       222         2       233        9.02     269      -80.3
   09/06/2017 21:40      73.6      73.1       56     56.6      0.00      0.09      87.9     0.33      1014.0     2       240         4       236        9.02     269      -81.7
   09/06/2017 21:30      73.8      73.6       55     56.6      0.00      0.09      87.8     0.33      1014.0     2       219         4       234        9.02     269      -82.5
   09/06/2017 21:20      74.2      73.9       55     56.7      0.00      0.09      87.8     0.33      1014.0     2       232         3       248        9.02     269      -83.1
   09/06/2017 21:10      74.4      74.2       54     56.6      0.00      0.09      87.8     0.33      1014.0     3       235         5       267        9.02     269      -83.6
   09/06/2017 21:00      74.5      74.2       54     56.7      0.00      0.09      87.9     0.33      1013.0     5       230         6       244        9.02     269      -84.2
   09/06/2017 20:50      75.1      74.4       53     56.6      0.00      0.09      87.8     0.33      1013.0     4       216         6       233        9.02     269      -85.5
   09/06/2017 20:40      75.7      75.2       52     56.7      0.00      0.09      87.8     0.33      1014.0     5       230         6       239        9.02     269      -87.0
   09/06/2017 20:30      76.0      75.8       51     56.7      0.00      0.09      87.7     0.33      1013.0     4       245         8       250        9.02     269      -88.1
   09/06/2017 20:20      76.3      76.1       51     56.6      0.00      0.09      87.7     0.33      1013.0     5       239         9       235        9.02     269      -89.0
   09/06/2017 20:10      76.6      76.2       50     56.7      0.00      0.09      87.6     0.33      1013.0     6       232         7       229        9.03     268      -89.4
   09/06/2017 20:00      76.9      76.5       50     56.6      0.00      0.09      87.7     0.33      1013.0     5       232         7       230        9.03     269      -90.3
   09/06/2017 19:50      77.2      76.9       49     56.7      0.00      0.09      87.7     0.33      1013.0     4       230         6       206        9.03     268      -91.7
   09/06/2017 19:40      77.9      77.4       49     56.9      0.00      0.09      87.8     0.33      1013.0     5       231         9       228        9.03     268      -93.7
   09/06/2017 19:30      78.4      77.9       48     57.0      0.00      0.09      87.6     0.33      1013.0     5       238         7       231        9.03     268      -95.4
   09/06/2017 19:20      79.3      78.5       47     56.8      0.00      0.09      87.6     0.33      1013.0     5       231         8       242        9.03     268      -95.5
   09/06/2017 19:10      80.3      79.5       44     56.0      0.00      0.09      87.6     0.33      1013.0     6       231         9       244        9.03     268      -93.5
   09/06/2017 19:00      81.1      80.3       42     55.3      0.00      0.09      87.6     0.33      1012.0     6       237        10       246        9.03     268      -87.2
   09/06/2017 18:50      82.3      81.3       40     54.9      0.00      0.09      87.6     0.33      1012.0     5       231         7       214        9.03     267      -84.7
   09/06/2017 18:40      85.2      82.6       34     52.8      0.00      0.09      87.4     0.33      1012.0     7       241        10       269        9.03     267      -63.3
   09/06/2017 18:30      87.2      85.6       30     51.3      0.00      0.09      87.5     0.33      1012.0     5       263         7       258        9.03     267      -47.5
   09/06/2017 18:20      87.3      87.1       28     50.6      0.00      0.09      87.5     0.33      1012.0     4       254         6       284        9.03     267      -28.5
   09/06/2017 18:10      87.9      87.3       28     50.1      0.00      0.09      87.5     0.33      1012.0     4       250         8       202        9.03     267       -5.2
   09/06/2017 18:00      88.0      87.4       26     48.9      0.00      0.09      87.3     0.33      1012.0     5       256         7       231        9.03     267       21.0
   09/06/2017 17:50      88.2      87.5       26     49.0      0.00      0.09      87.4     0.33      1012.0     4       295         6       312        9.03     267       44.3
   09/06/2017 17:40      87.7      87.3       27     49.4      0.00      0.09      87.2     0.33      1012.0     6       263        10       255        9.03     267       71.2
   09/06/2017 17:30      87.9      87.5       27     49.9      0.00      0.09      87.3     0.33      1012.0     7       253        10       247        9.03     267       97.2
   09/06/2017 17:20      89.1      87.5       28     51.0      0.00      0.09      87.2     0.33      1012.0     7       242        11       238        9.03     267      123.1
   09/06/2017 17:10      89.5      88.9       29     52.6      0.00      0.09      87.1     0.33      1012.0     5       268        10       263        9.03     267      147.1
   09/06/2017 17:00      89.2      88.6       29     52.6      0.00      0.09      87.1     0.33      1012.0     6       293        11       236        9.03     267      169.7
   09/06/2017 16:50      89.1      88.7       28     52.0      0.00      0.09      87.0     0.33      1012.0     6       308        10       314        9.03     267      194.0
   09/06/2017 16:40      89.3      88.9       28     51.7      0.00      0.09      87.0     0.33      1012.0     7       309         9       276        9.03     267      216.7
   09/06/2017 16:30      89.3      88.7       28     51.4      0.00      0.09      86.8     0.33      1012.0     8       306        15       302        9.03     267      240.0
   09/06/2017 16:20      90.6      89.2       26     50.7      0.00      0.09      86.9     0.33      1012.0     8       302        12       298        9.03     267      261.5
   09/06/2017 16:10      91.1      90.7       25     50.3      0.00      0.09      87.0     0.33      1012.0     7       321        10       327        9.03     267      281.8
   09/06/2017 16:00      91.3      90.8       26     51.1      0.00      0.09      86.9     0.33      1012.0     8       323        12       323        9.03     267      301.0
   09/06/2017 15:50      91.8      90.8       25     50.6      0.00      0.09      86.7     0.33      1012.0     7       322        12       317        9.03     267      323.0
   09/06/2017 15:40      92.6      91.9       25     51.1      0.00      0.09      86.7     0.33      1012.0     7       302        10       297        9.03     267      342.4
   09/06/2017 15:30      92.7      92.2       24     51.1      0.00      0.09      86.8     0.33      1012.0     6       309         9       294        9.03     268      361.4
   09/06/2017 15:20      94.3      93.2       24     51.2      0.00      0.09      86.6     0.33      1012.0     6       296         8       284        9.03     268      373.8
   09/06/2017 15:10      94.3      93.7       23     50.7      0.00      0.09      86.6     0.33      1012.0     6       261         9       249        9.03     269      394.7
   09/06/2017 15:00      93.7      92.7       24     51.4      0.00      0.09      86.4     0.33      1012.0     5       223         8       203        9.03     268      411.1
   09/06/2017 14:50      93.0      92.4       25     52.1      0.00      0.09      86.3     0.32      1012.0     7       259        11       267        9.03     269      426.5
   09/06/2017 14:40      93.6      92.7       25     51.8      0.00      0.09      86.3     0.32      1013.0     6       230        10       225        9.03     269      441.9
   09/06/2017 14:30      94.3      93.3       24     51.3      0.00      0.09      86.2     0.32      1013.0     6       243        11       286        9.03     269      454.0
   09/06/2017 14:20      94.1      92.7       24     51.2      0.00      0.09      86.3     0.32      1013.0     6       227         9       271        9.03     269      465.8
   09/06/2017 14:10      93.5      92.9       25     52.4      0.00      0.09      86.3     0.32      1013.0     6       229         9       232        9.03     269      475.9
   09/06/2017 14:00      93.3      92.6       26     52.8      0.00      0.09      86.3     0.32      1013.0     6       222         9       196        9.03     268      484.6
   09/06/2017 13:50      93.5      92.9       26     53.3      0.00      0.09      86.1     0.32      1013.0     7       233        11       217        9.03     268      496.6
   09/06/2017 13:40      94.0      93.5       25     52.9      0.00      0.09      86.1     0.32      1013.0     6       246         9       246        9.03     268      498.2
   09/06/2017 13:30      94.0      93.2       25     52.8      0.00      0.09      86.1     0.32      1013.0     4       236         8       234        9.03     268      507.2
   09/06/2017 13:20      93.2      92.4       27     53.7      0.00      0.09      86.0     0.32      1013.0     5       232         7       245        9.03     269      513.9
   09/06/2017 13:10      92.7      91.9       27     53.5      0.00      0.09      86.1     0.32      1013.0     7       209        12       190        9.03     269      522.1
   09/06/2017 13:00      93.0      92.6       26     52.5      0.00      0.09      86.1     0.32      1013.0     6       231        11       220        9.03     269      521.4
   09/06/2017 12:50      93.2      92.4       24     51.0      0.00      0.09      85.8     0.32      1013.0     5       237         8       202        9.03     269      519.6
   09/06/2017 12:40      92.9      91.8       24     50.2      0.00      0.09      86.0     0.32      1013.0     7       218        11       185        9.03     269      521.6
   09/06/2017 12:30      93.2      92.1       23     49.8      0.00      0.09      85.8     0.32      1014.0     7       198        11       201        9.03     270      517.4
   09/06/2017 12:20      93.2      92.1       26     52.5      0.00      0.09      85.9     0.32      1014.0     4       247         7       310        9.03     270      510.5
   09/06/2017 12:10      92.3      91.1       29     55.3      0.00      0.09      86.1     0.32      1014.0     4       112         8       164        9.03     271      505.5
   09/06/2017 12:00      91.8      90.2       33     57.9      0.00      0.09      85.9     0.32      1014.0     3       262         5       227        9.03     271      495.6
   09/06/2017 11:50      90.7      89.2       36     59.3      0.00      0.09      86.1     0.32      1014.0     2        12         4       352        9.03     271      493.5
   09/06/2017 11:40      89.4      88.6       37     59.5      0.00      0.09      86.1     0.32      1014.0     2       140         4       223        9.03     271      487.8
   09/06/2017 11:30      88.5      87.7       39     59.6      0.00      0.09      85.9     0.32      1014.0     2       275         5       228        9.03     271      479.0
   09/06/2017 11:20      88.6      87.1       40     60.3      0.00      0.09      86.0     0.32      1014.0     2       346         4       338        9.03     271      470.4
   09/06/2017 11:10      87.4      86.6       40     59.7      0.00      0.09      86.2     0.32      1014.0     2       295         5       251        9.03     271      460.7
   09/06/2017 11:00      86.4      85.4       42     60.0      0.00      0.09      86.4     0.32      1014.0     2       217         4       243        9.03     271      450.9
   09/06/2017 10:50      85.6      84.6       43     60.4      0.00      0.09      86.2     0.32      1014.0     3       302         5       309        9.03     271      438.2
   09/06/2017 10:40      84.7      83.4       44     60.0      0.00      0.09      86.2     0.32      1014.0     3       277         5       264        9.03     271      432.9
   09/06/2017 10:30      83.3      82.1       45     59.5      0.00      0.09      86.1     0.32      1015.0     3       230         4       221        9.03     272      422.9
   09/06/2017 10:20      82.3      81.9       47     59.8      0.00      0.09      86.3     0.33      1014.0     4       191         6       192        9.03     272      403.7
   09/06/2017 10:10      82.4      81.9       47     59.8      0.00      0.09      86.4     0.33      1015.0     4       202         7       212        9.03     272      298.1
   09/06/2017 10:00      82.5      81.6       47     59.9      0.00      0.09      86.8     0.33      1014.0     5       237         6       183        9.03     273      376.6
   09/06/2017 09:50      81.9      80.8       48     59.9      0.00      0.09      86.1     0.33      1015.0     3       252         4       232        9.03     273      341.7
   09/06/2017 09:40      80.6      79.7       49     59.4      0.00      0.09      86.4     0.33      1015.0     3       290         5       260        9.03     273      290.0
   09/06/2017 09:30      79.7      79.2       50     59.1      0.00      0.09      86.1     0.33      1015.0     3       313         6       283        9.02     273      326.3
   09/06/2017 09:20      79.3      78.6       50     58.8      0.00      0.09      86.2     0.33      1015.0     3       294         5       282        9.02     273      313.1
   09/06/2017 09:10      78.5      77.0       51     58.6      0.00      0.09      86.2     0.33      1015.0     4       267         5       244        9.02     273      276.7
   09/06/2017 09:00      77.2      76.6       52     58.1      0.00      0.09      86.4     0.33      1015.0     3       253         5       266        9.02     273      243.0
   09/06/2017 08:50      76.8      75.6       53     57.9      0.00      0.09      86.0     0.33      1015.0     3       225         6       215        9.02     273      220.7
   09/06/2017 08:40      75.6      75.0       54     57.6      0.00      0.09      86.6     0.33      1015.0     4       221         5       249        9.01     273      197.2
   09/06/2017 08:30      75.3      74.7       54     57.4      0.00      0.09      86.2     0.33      1015.0     4       226         7       243        8.93     273      172.3
   09/06/2017 08:20      75.2      74.8       55     57.7      0.00      0.09      86.6     0.33      1015.0     4       234         6       236        8.93     273      145.7
   09/06/2017 08:10      75.3      75.2       55     58.1      0.00      0.09      86.5     0.33      1014.0     2       239         4       225        8.93     274      120.5
   09/06/2017 08:00      75.3      74.7       56     58.4      0.00      0.09      86.3     0.33      1014.0     1       255         3       257        8.93     274       95.2
   09/06/2017 07:50      74.6      73.2       60     59.2      0.00      0.09      86.6     0.33      1014.0     1       100         2        78        8.93     274       69.1
   09/06/2017 07:40      73.0      70.6       64     59.3      0.00      0.09      86.5     0.33      1014.0     1        65         2        54        8.93     274       45.2
   09/06/2017 07:30      70.3      69.0       68     58.6      0.00      0.09      86.6     0.33      1014.0     1       194         1       157        8.93     274       11.1
   09/06/2017 07:20      69.2      68.6       70     58.5      0.00      0.09      86.5     0.33      1014.0     1       233         2       271        8.93     273      -30.7
   09/06/2017 07:10      68.7      67.8       71     58.5      0.00      0.09      86.9     0.33      1014.0     2       266         2       219        8.93     274      -38.0
   09/06/2017 07:00      67.8      66.4       73     58.4      0.00      0.09      86.9     0.33      1014.0     2       254         3       237        8.93     273      -43.1
   09/06/2017 06:50      66.4      65.5       78     58.5      0.00      0.09      87.1     0.33      1014.0     2       244         4       247        8.93     273      -46.5
   09/06/2017 06:40      65.6      65.4       78     58.6      0.00      0.09      87.1     0.33      1014.0     1       242         2       250        8.93     273      -50.9
   09/06/2017 06:30      65.8      65.3       77     58.1      0.00      0.09      86.9     0.33      1014.0     1       198         3       246        8.93     273      -52.9
   09/06/2017 06:20      65.5      65.1       79     58.7      0.00      0.09      87.0     0.33      1014.0     2       182         2       200        8.93     273      -53.4
   09/06/2017 06:10      65.3      65.2       79     58.7      0.00      0.09      86.8     0.33      1014.0     1       164         1       126        8.93     273      -54.0
   09/06/2017 06:00      65.5      65.2       79     58.8      0.00      0.09      86.7     0.33      1014.0     1       161         1       177        8.93     273      -54.3
   09/06/2017 05:50      65.5      65.2       79     58.5      0.00      0.09      86.9     0.33      1014.0     1       137         2       143        8.93     273      -55.2
   09/06/2017 05:40      65.7      65.3       78     58.4      0.00      0.09      87.1     0.33      1014.0     2       179         2       201        8.93     273      -54.6
   09/06/2017 05:30      65.5      65.3       79     58.6      0.00      0.09      87.2     0.33      1014.0     1       184         1       179        8.93     273      -54.9
   09/06/2017 05:20      65.5      65.3       78     58.4      0.00      0.09      86.8     0.33      1014.0     1       143         1       150        8.93     273      -55.3
   09/06/2017 05:10      65.7      65.5       77     58.1      0.00      0.09      87.1     0.33      1014.0     1       105         2       163        8.93     273      -56.5
   09/06/2017 05:00      65.9      65.7       76     58.1      0.00      0.09      87.1     0.33      1014.0     1       176         2       173        8.93     273      -56.5
   09/06/2017 04:50      65.9      65.7       76     58.1      0.00      0.09      87.4     0.33      1014.0     1       165         2       165        8.94     273      -56.2
   09/06/2017 04:40      66.5      66.0       75     58.1      0.00      0.09      87.1     0.33      1014.0     1       129         2       123        8.94     273      -56.6
   09/06/2017 04:30      66.8      66.5       74     58.3      0.00      0.09      86.9     0.33      1014.0     1        72         1        79        8.94     273      -57.0
   09/06/2017 04:20      67.8      66.9       72     58.0      0.00      0.09      87.2     0.33      1014.0     1       117         1        71        8.94     273      -57.6
   09/06/2017 04:10      68.0      67.8       71     58.2      0.00      0.09      87.1     0.33      1014.0     1       202         3       204        8.94     273      -58.3
   09/06/2017 04:00      67.8      67.1       72     58.1      0.00      0.09      87.3     0.33      1014.0     3       194         3       209        8.94     273      -57.9
   09/06/2017 03:50      67.6      67.3       72     58.0      0.00      0.09      87.2     0.33      1014.0     1       146         1       150        8.94     273      -57.9
   09/06/2017 03:40      68.7      67.9       69     57.6      0.00      0.09      87.2     0.33      1014.0     1        97         2       118        8.93     273      -59.5
   09/06/2017 03:30      69.4      68.8       67     57.9      0.00      0.09      87.1     0.33      1014.0     1       202         2       245        8.94     273      -59.3
   09/06/2017 03:20      70.3      69.6       65     57.9      0.00      0.09      87.5     0.33      1014.0     1       269         2       249        8.94     273      -61.1
   09/06/2017 03:10      70.8      70.5       64     58.1      0.00      0.09      87.3     0.33      1014.0     2       263         3       256        8.94     273      -63.1
   09/06/2017 03:00      71.0      70.6       64     58.2      0.00      0.09      87.4     0.33      1014.0     3       241         4       235        8.94     273      -63.4
   09/06/2017 02:50      71.0      70.8       64     58.2      0.00      0.09      87.4     0.33      1014.0     2       212         3       205        8.94     273      -62.3
   09/06/2017 02:40      71.4      70.9       63     58.1      0.00      0.09      87.5     0.33      1014.0     3       227         5       232        8.94     273      -62.5
   09/06/2017 02:30      71.3      71.1       63     58.0      0.00      0.09      88.1     0.33      1014.0     4       244         6       238        8.94     273      -62.3
   09/06/2017 02:20      71.5      71.3       63     57.9      0.00      0.09      87.7     0.33      1014.0     5       243         7       238        8.94     273      -62.6
   09/06/2017 02:10      71.5      71.3       62     57.9      0.00      0.09      87.8     0.33      1014.0     2       224         4       240        8.94     273      -56.9
   09/06/2017 02:00      71.5      71.2       63     57.9      0.00      0.09      87.8     0.33      1014.0     3       246         5       238        8.94     273      -52.5
   09/06/2017 01:50      71.4      71.3       63     58.1      0.00      0.09      87.7     0.33      1014.0     3       249         3       233        8.94     272      -55.7
   09/06/2017 01:40      71.5      71.3       63     58.2      0.00      0.09      87.7     0.33      1014.0     2       293         3       289        8.94     272      -56.8
   09/06/2017 01:30      71.6      71.3       63     58.2      0.00      0.09      87.7     0.33      1014.0     1       264         3       241        8.94     272      -57.3
   09/06/2017 01:20      71.6      71.5       63     58.3      0.00      0.09      87.7     0.33      1014.0     2       292         2       287        8.94     272      -60.2
   09/06/2017 01:10      71.8      71.6       62     58.2      0.00      0.09      87.6     0.33      1014.0     2       279         4       243        8.94     272      -58.3
   09/06/2017 01:00      71.9      71.6       62     58.1      0.00      0.09      87.5     0.33      1014.0     4       243         6       239        8.94     272      -59.4
   09/06/2017 00:50      71.8      71.4       62     57.9      0.00      0.09      87.7     0.33      1014.0     4       247         5       250        8.94     272      -62.9
   09/06/2017 00:40      71.8      71.5       61     57.5      0.00      0.09      88.0     0.33      1014.0     2       256         3       250        8.94     272      -63.0
   09/06/2017 00:30      72.1      71.8       60     57.4      0.00      0.09      88.0     0.33      1014.0     2       242         3       244        8.94     272      -65.8
   09/06/2017 00:20      72.3      72.0       60     57.4      0.00      0.09      87.8     0.33      1015.0     1       241         3       290        8.94     272      -66.4
   09/06/2017 00:10      72.5      72.2       59     57.2      0.00      0.09      88.0     0.33      1015.0     2       233         4       258        8.94     272      -67.0
   09/06/2017 00:00      72.8      72.6       58     57.1      0.00      0.09      87.9     0.33      1015.0     1       235         3       190        8.94     272      -67.8
   09/05/2017 23:50      72.8      72.7       58     57.0      0.00      0.09      87.6     0.33      1015.0     2       286         4       262        8.94     272      -67.9
   09/05/2017 23:40      73.0      72.7       57     57.0      0.00      0.09      87.7     0.33      1015.0     2       244         5       221        8.94     271      -68.3
   09/05/2017 23:30      73.1      72.8       57     56.9      0.00      0.09      87.9     0.33      1015.0     2       231         3       198        8.94     271      -68.8
   09/05/2017 23:20      73.1      72.9       57     56.9      0.00      0.09      88.2     0.33      1015.0     4       216         5       196        8.94     271      -68.6
   09/05/2017 23:10      73.1      72.8       57     56.8      0.00      0.09      87.8     0.33      1015.0     5       214         7       209        8.94     271      -68.7
   09/05/2017 23:00      73.1      72.9       57     56.7      0.00      0.09      88.0     0.33      1015.0     5       203         8       213        8.95     271      -69.5
   09/05/2017 22:50      73.3      73.0       56     56.6      0.00      0.09      88.1     0.33      1015.0     5       202         7       216        8.95     271      -69.7
   09/05/2017 22:40      73.2      73.1       56     56.6      0.00      0.09      87.9     0.33      1015.0     5       199         7       216        8.95     271      -69.5
   09/05/2017 22:30      73.2      73.0       56     56.4      0.00      0.09      87.9     0.33      1015.0     6       198        10       200        8.95     271      -70.1
   09/05/2017 22:20      73.3      73.1       55     56.3      0.00      0.09      88.2     0.33      1015.0     4       212         6       211        8.95     271      -70.9
   09/05/2017 22:10      73.3      73.1       55     56.3      0.00      0.09      88.0     0.33      1014.0     6       202        10       211        8.95     271      -71.5
   09/05/2017 22:00      73.3      73.1       55     56.3      0.00      0.09      88.2     0.33      1014.0     7       208         9       179        8.95     271      -73.0
   09/05/2017 21:50      73.4      73.2       55     56.4      0.00      0.09      87.9     0.33      1014.0     7       209        10       218        8.95     271      -73.8
   09/05/2017 21:40      73.6      73.4       55     56.4      0.00      0.09      87.9     0.33      1014.0     7       203        10       218        8.95     271      -74.2
   09/05/2017 21:30      73.7      73.4       55     56.3      0.00      0.09      87.9     0.33      1014.0     8       208        12       208        8.95     271      -74.4
   09/05/2017 21:20      73.7      73.5       55     56.3      0.00      0.09      88.3     0.33      1014.0     8       206        11       200        8.96     271      -74.8
   09/05/2017 21:10      73.8      73.6       55     56.4      0.00      0.09      88.0     0.33      1014.0     7       192        10       174        8.96     271      -75.9
   09/05/2017 21:00      74.2      73.7       55     56.7      0.00      0.09      88.3     0.33      1014.0     6       198        10       192        8.96     271      -76.9
   09/05/2017 20:50      74.3      74.1       56     57.4      0.00      0.09      88.0     0.33      1014.0     5       210         8       203        8.96     271      -77.8
   09/05/2017 20:40      74.5      74.3       57     58.2      0.00      0.09      87.9     0.33      1014.0     5       214         7       211        8.96     271      -78.5
   09/05/2017 20:30      74.9      74.6       59     59.5      0.00      0.09      87.8     0.33      1014.0     5       225         8       238        8.96     271      -79.1
   09/05/2017 20:20      75.7      75.1       60     60.6      0.00      0.09      88.0     0.33      1014.0     4       219         6       234        8.97     271      -79.7
   09/05/2017 20:10      76.4      75.8       60     61.0      0.00      0.09      88.0     0.33      1014.0     5       232         8       239        8.97     271      -80.0
   09/05/2017 20:00      77.2      76.7       60     62.1      0.00      0.09      88.2     0.33      1013.0     6       253         9       249        8.97     271      -81.0
   09/05/2017 19:50      77.7      77.3       60     62.4      0.00      0.09      88.0     0.33      1013.0     7       250        13       261        8.97     271      -81.5
   09/05/2017 19:40      78.5      77.8       59     62.6      0.00      0.09      87.8     0.33      1013.0     7       260        12       259        8.97     271      -82.2
   09/05/2017 19:30      79.3      78.5       57     62.6      0.00      0.09      87.7     0.33      1013.0     7       253         9       255        8.98     270      -82.4
   09/05/2017 19:20      80.4      79.6       55     62.5      0.00      0.09      87.8     0.33      1013.0     5       242         8       260        8.98     270      -81.1
   09/05/2017 19:10      81.4      80.5       53     62.1      0.00      0.09      87.8     0.33      1013.0     6       244        10       253        8.98     270      -78.2
   09/05/2017 19:00      82.2      81.4       52     62.3      0.00      0.09      88.0     0.33      1013.0     7       259        11       267        8.99     270      -70.5
   09/05/2017 18:50      83.2      82.3       51     62.8      0.00      0.09      87.6     0.33      1013.0     6       289         8       311        8.99     270      -63.0
   09/05/2017 18:40      84.0      83.4       49     62.7      0.00      0.09      87.8     0.33      1013.0     5       279         7       296        8.99     270      -47.5
   09/05/2017 18:30      85.4      84.2       48     62.9      0.00      0.09      87.7     0.33      1013.0     6       290         8       298        8.99     270      -31.4
   09/05/2017 18:20      86.1      85.2       47     63.1      0.00      0.09      87.6     0.33      1012.0     5       307         8       290        8.99     270      -11.2
   09/05/2017 18:10      86.6      86.3       46     63.4      0.00      0.09      87.5     0.33      1012.0     6       292         9       296        8.99     270       13.0
   09/05/2017 18:00      86.9      86.4       46     63.7      0.00      0.09      87.6     0.33      1012.0     6       303         8       308        9.00     269       35.1
   09/05/2017 17:50      87.8      87.0       45     63.7      0.00      0.09      87.4     0.33      1012.0     8       315        10       335        8.99     269       57.5
   09/05/2017 17:40      90.1      88.1       42     63.1      0.00      0.09      87.4     0.33      1012.0     7       311         9       325        8.99     269       83.0
   09/05/2017 17:30      89.8      89.4       41     62.8      0.00      0.09      87.7     0.33      1012.0     5       282         9       311        8.99     269      109.1
   09/05/2017 17:20      90.4      89.6       40     62.3      0.00      0.09      87.5     0.33      1012.0     8       311        11       327        8.99     269      134.1
   09/05/2017 17:10      91.0      90.7       38     61.9      0.00      0.09      87.2     0.33      1012.0     6       307        11       310        8.99     269      156.7
   09/05/2017 17:00      91.6      90.9       37     61.7      0.00      0.09      87.3     0.33      1012.0     6       317        10       293        8.99     269      178.9
   09/05/2017 16:50      92.2      90.9       38     62.1      0.00      0.09      87.3     0.33      1012.0     6       308         9       310        8.99     269      203.7
   09/05/2017 16:40      92.9      92.0       37     62.7      0.00      0.09      87.3     0.33      1012.0     5       307         7       264        8.99     269      224.7
   09/05/2017 16:30      93.1      92.3       37     62.7      0.00      0.09      87.2     0.33      1012.0     5       305        11       327        8.99     269      246.6
   09/05/2017 16:20      93.6      92.5       37     62.8      0.00      0.09      87.0     0.33      1012.0     5       282         8       242        8.99     269      265.7
   09/05/2017 16:10      92.7      92.4       37     62.4      0.00      0.09      87.2     0.33      1012.0     6       306        10       322        9.00     269      286.6
   09/05/2017 16:00      93.2      92.8       37     62.6      0.00      0.09      87.1     0.33      1012.0     5       316         7       347        9.00     270      306.3
   09/05/2017 15:50      93.3      92.8       37     62.8      0.00      0.09      87.0     0.33      1012.0     5       282         9       262        9.00     270      326.5
   09/05/2017 15:40      92.9      91.8       38     63.2      0.00      0.09      86.9     0.33      1013.0     5       311         8       288        9.00     270      345.2
   09/05/2017 15:30      92.7      92.0       39     63.5      0.00      0.09      86.8     0.33      1013.0     6       307         8       328        8.99     270      362.5
   09/05/2017 15:20      92.6      91.7       39     63.7      0.00      0.09      86.9     0.33      1013.0     5       309         7       309        8.99     271      377.0
   09/05/2017 15:10      92.7      92.2       40     64.3      0.00      0.09      86.8     0.33      1013.0     5       318         9       299        9.00     271      393.3
   09/05/2017 15:00      92.6      91.8       40     64.6      0.00      0.09      86.8     0.33      1013.0     6       308         8       304        9.00     271      410.6
   09/05/2017 14:50      93.1      92.5       40     65.2      0.00      0.09      86.8     0.33      1013.0     4       326         7       313        9.00     271      420.8
   09/05/2017 14:40      92.9      91.6       41     65.3      0.00      0.09      86.8     0.33      1013.0     3       308         4       348        9.00     272      435.1
   09/05/2017 14:30      91.6      90.9       43     65.3      0.00      0.09      86.5     0.33      1013.0     6       278         8       304        8.99     272      455.1
   09/05/2017 14:20      93.8      91.3       41     65.1      0.00      0.09      86.6     0.33      1013.0     6       259        11       248        9.00     272      466.3
   09/05/2017 14:10      92.4      91.1       41     64.6      0.00      0.09      86.2     0.32      1013.0     3       234         6       218        9.00     272      477.3
   09/05/2017 14:00      92.8      91.5       39     63.6      0.00      0.09      86.4     0.32      1014.0     3       245        10       239        9.00     272      483.9
   09/05/2017 13:50      93.1      91.8       38     63.1      0.00      0.09      86.5     0.32      1014.0     3       165         5       137        9.00     271      495.6
   09/05/2017 13:40      93.2      91.2       38     62.8      0.00      0.09      86.5     0.32      1014.0     3       266         5       250        9.00     271      504.0
   09/05/2017 13:30      91.3      90.1       40     63.4      0.00      0.09      86.2     0.32      1014.0     3       219         5       301        9.00     271      513.2
   09/05/2017 13:20      91.0      90.3       41     63.9      0.00      0.09      86.4     0.32      1014.0     3       195         6       201        9.00     272      512.6
   09/05/2017 13:10      91.2      89.6       42     64.2      0.00      0.09      86.3     0.32      1014.0     3       298         5       287        9.00     273      518.9
   09/05/2017 13:00      91.3      89.3       42     64.0      0.00      0.09      86.5     0.32      1014.0     3       228         7       279        9.00     273      516.1
   09/05/2017 12:50      91.5      89.2       42     64.3      0.00      0.09      86.4     0.32      1014.0     1       309         3       270        9.00     273      515.7
   09/05/2017 12:40      90.4      89.5       43     64.1      0.00      0.09      86.1     0.32      1014.0     3       308         3       288        9.00     273      518.9
   09/05/2017 12:30      90.4      87.9       44     64.3      0.00      0.09      86.3     0.32      1014.0     2        53         5       332        9.00     273      515.1
   09/05/2017 12:20      88.6      87.8       45     64.2      0.00      0.09      86.0     0.32      1015.0     4        18         6        18        9.00     273      511.5
   09/05/2017 12:10      88.6      87.7       45     64.1      0.00      0.09      86.2     0.32      1015.0     4       311         6       316        9.00     274      510.0
   09/05/2017 12:00      88.1      86.6       46     63.9      0.00      0.09      86.3     0.32      1015.0     2        69         4       132        9.00     274      508.9
   09/05/2017 11:50      86.5      85.9       47     63.7      0.00      0.09      86.3     0.32      1015.0     4       184         5       245        9.00     274      504.3
   09/05/2017 11:40      86.1      85.5       48     63.5      0.00      0.09      86.2     0.32      1015.0     3       258         5       245        9.00     274      499.6
   09/05/2017 11:30      85.6      85.0       48     63.6      0.00      0.09      86.3     0.32      1015.0     3       252         5       254        9.00     274      490.5
   09/05/2017 11:20      86.3      85.6       48     63.7      0.00      0.09      86.2     0.32      1015.0     2        63         4        43        9.00     274      481.0
   09/05/2017 11:10      86.3      85.0       48     63.7      0.00      0.09      86.0     0.33      1015.0     2        60         3        99        9.00     274      466.6
   09/05/2017 11:00      85.0      84.2       50     63.6      0.00      0.09      86.3     0.33      1015.0     2        20         4         9        9.00     274      455.3
   09/05/2017 10:50      84.5      83.8       51     64.0      0.00      0.09      85.8     0.33      1015.0     3        24         4         5        9.00     274      444.1
   09/05/2017 10:40      83.9      82.8       52     64.0      0.00      0.09      86.2     0.33      1015.0     3        23         5        76        9.00     275      431.0
   09/05/2017 10:30      82.8      82.1       54     63.9      0.00      0.09      86.4     0.33      1015.0     3        33         4       356        9.00     275      418.3
   09/05/2017 10:20      82.5      82.3       53     63.8      0.00      0.09      86.5     0.33      1015.0     2        18         4        20        9.00     276      399.0
   09/05/2017 10:10      82.5      81.4       54     63.7      0.00      0.09      86.5     0.33      1015.0     2        53         3        38        9.00     277      384.0
   09/05/2017 10:00      82.3      81.1       55     63.7      0.00      0.09      86.5     0.33      1015.0     3         2         5        61        9.00     278      368.3
   09/05/2017 09:50      81.2      79.6       57     63.8      0.00      0.09      86.7     0.33      1015.0     2        96         5       124        9.00     278      354.9
   09/05/2017 09:40      80.0      79.3       59     64.2      0.00      0.09      86.5     0.33      1015.0     2       327         3        11        9.00     278      334.9
   09/05/2017 09:30      79.4      78.7       61     64.4      0.00      0.09      87.1     0.33      1015.0     2        10         3       325        9.00     278      316.4
   09/05/2017 09:20      78.8      76.9       63     64.4      0.00      0.09      86.5     0.33      1015.0     2       100         3        81        9.00     278      296.5
   09/05/2017 09:10      77.0      75.2       67     64.2      0.00      0.09      86.7     0.33      1015.0     1       255         3       287        9.00     278      276.6
   09/05/2017 09:00      75.3      74.8       69     64.0      0.00      0.09      86.4     0.33      1015.0     2       298         3       293        8.99     278      254.8
   09/05/2017 08:50      74.9      73.7       71     64.2      0.00      0.09      86.8     0.33      1015.0     2       252         3       187        8.99     278      233.7
   09/05/2017 08:40      73.7      72.5       74     64.0      0.00      0.09      86.6     0.33      1015.0     2       282         4       239        8.26     278      210.1
   09/05/2017 08:30      72.5      71.7       75     64.0      0.00      0.09      86.7     0.33      1015.0     3       262         4       277        8.26     278      187.1
   09/05/2017 08:20      71.8      71.0       77     63.8      0.00      0.09      87.0     0.33      1015.0     3       263         6       249        8.26     278      161.1
   09/05/2017 08:10      71.0      70.3       78     63.4      0.00      0.09      86.3     0.33      1015.0     3       261         4       284        8.27     279      136.7
   09/05/2017 08:00      70.2      69.6       79     63.2      0.00      0.09      87.0     0.33      1015.0     3       280         4       263        8.26     279      108.5
   09/05/2017 07:50      69.8      69.3       80     63.0      0.00      0.09      87.0     0.33      1015.0     3       248         5       220        8.26     279       78.5
   09/05/2017 07:40      69.6      69.1       80     63.1      0.00      0.09      86.3     0.33      1015.0     3       242         5       221        8.26     279       51.0
   09/05/2017 07:30      69.3      68.7       81     63.1      0.00      0.09      87.0     0.33      1014.0     4       247         5       254        8.26     279       13.8
   09/05/2017 07:20      68.8      68.2       84     63.4      0.00      0.09      87.0     0.33      1014.0     3       249         6       230        8.26     279      -29.8
   09/05/2017 07:10      68.2      67.6       85     63.4      0.00      0.09      86.6     0.33      1014.0     2       326         4       277        8.26     279      -31.3
   09/05/2017 07:00      67.6      66.9       87     63.1      0.00      0.09      87.0     0.33      1014.0     3       253         6       269        8.27     279      -27.9
   09/05/2017 06:50      67.2      66.8       87     63.0      0.00      0.09      86.8     0.33      1014.0     1        69         3       181        8.27     279      -35.0
   09/05/2017 06:40      67.0      66.8       88     63.1      0.00      0.09      87.2     0.33      1014.0     1       248         2       198        8.27     279      -38.7
   09/05/2017 06:30      67.0      66.7       88     63.1      0.00      0.09      86.8     0.33      1014.0     2       190         2       196        8.27     279      -41.7
   09/05/2017 06:20      66.7      66.2       88     62.9      0.00      0.09      86.8     0.33      1014.0     3       189         3       192        8.27     279      -42.7
   09/05/2017 06:10      66.4      65.8       89     62.8      0.00      0.09      86.8     0.33      1014.0     3       179         4       198        8.27     279      -42.9
   09/05/2017 06:00      65.9      65.7       88     62.1      0.00      0.09      87.3     0.33      1014.0     2       120         3       148        8.27     279      -47.6
   09/05/2017 05:50      66.3      65.7       87     62.2      0.00      0.09      87.0     0.33      1014.0     1       106         2       132        8.27     279      -49.7
   09/05/2017 05:40      66.4      66.2       87     62.2      0.00      0.09      87.2     0.33      1014.0     1       135         2       126        8.27     279      -50.8
   09/05/2017 05:30      67.0      66.7       86     62.4      0.00      0.09      87.3     0.33      1014.0     1        47         2        55        8.27     279      -52.1
   09/05/2017 05:20      67.3      67.0       86     62.7      0.00      0.09      87.6     0.33      1014.0     1       195         2       202        8.27     279      -53.3
   09/05/2017 05:10      67.4      67.2       85     62.8      0.00      0.09      87.6     0.33      1013.0     2       208         3       247        8.27     279      -54.0
   09/05/2017 05:00      67.4      67.1       86     62.9      0.00      0.09      87.1     0.33      1014.0     2       257         3       255        8.27     278      -51.5
   09/05/2017 04:50      67.3      66.9       87     63.0      0.00      0.09      87.6     0.33      1014.0     2       240         3       262        8.27     278      -49.9
   09/05/2017 04:40      67.0      66.7       87     62.9      0.00      0.09      87.9     0.33      1014.0     2       196         2       225        8.27     278      -49.2
   09/05/2017 04:30      66.9      66.5       87     62.6      0.00      0.09      87.7     0.34      1014.0     1       156         2       141        8.27     278      -50.6
   09/05/2017 04:20      67.0      66.7       87     62.9      0.00      0.09      87.6     0.34      1014.0     1       195         2       197        8.27     278      -49.5
   09/05/2017 04:10      67.0      66.7       86     62.6      0.00      0.09      87.7     0.33      1014.0     2       148         2       162        8.27     278      -50.2
   09/05/2017 04:00      67.3      66.8       87     63.0      0.00      0.09      88.0     0.34      1014.0     1       194         2       217        8.27     278      -48.4
   09/05/2017 03:50      67.2      66.8       86     62.8      0.00      0.09      87.4     0.34      1014.0     1       148         1       198        8.27     278      -49.1
   09/05/2017 03:40      67.5      67.3       86     63.1      0.00      0.09      87.4     0.34      1014.0     1       165         2       243        8.27     278      -48.4
   09/05/2017 03:30      67.4      67.0       87     63.4      0.00      0.09      87.5     0.34      1014.0     1       207         2       219        8.27     278      -47.0
   09/05/2017 03:20      67.0      66.7       88     63.1      0.00      0.09      87.3     0.34      1014.0     1       191         2       162        8.27     278      -48.3
   09/05/2017 03:10      67.1      66.9       87     63.1      0.00      0.09      87.8     0.34      1014.0     1       172         1       137        8.27     278      -49.5
   09/05/2017 03:00      67.3      67.0       87     63.1      0.00      0.09      88.1     0.34      1014.0     1       148         1       142        8.27     277      -51.8
   09/05/2017 02:50      67.2      66.8       86     62.8      0.00      0.09      87.7     0.34      1014.0     1       170         2       147        8.27     277      -52.7
   09/05/2017 02:40      67.5      66.8       87     63.1      0.00      0.09      88.1     0.34      1014.0     1       193         2       207        8.27     277      -51.4
   09/05/2017 02:30      66.9      66.7       87     62.8      0.00      0.09      87.5     0.34      1014.0     1       138         2       132        8.27     277      -53.1
   09/05/2017 02:20      67.0      66.9       86     62.8      0.00      0.09      88.0     0.34      1014.0     1       136         2       144        8.27     277      -53.9
   09/05/2017 02:10      67.4      67.1       86     62.9      0.00      0.09      87.8     0.34      1013.0     1       137         2       142        8.27     277      -54.6
   09/05/2017 02:00      67.7      67.3       85     63.0      0.00      0.09      88.1     0.34      1013.0     1       174         2       148        8.27     277      -55.1
   09/05/2017 01:50      67.8      67.5       86     63.2      0.00      0.09      88.5     0.34      1014.0     1       184         2       203        8.27     277      -54.8
   09/05/2017 01:40      67.8      67.6       85     63.0      0.00      0.09      88.4     0.34      1014.0     1       158         2       178        8.27     277      -55.2
   09/05/2017 01:30      68.1      67.8       85     63.1      0.00      0.09      88.6     0.34      1014.0     1       133         1       116        8.27     277      -55.0
   09/05/2017 01:20      68.3      68.0       85     63.3      0.00      0.09      88.2     0.34      1014.0     1       160         1       209        8.27     277      -55.5
   09/05/2017 01:10      68.2      67.9       84     63.1      0.00      0.09      88.0     0.34      1014.0     2       159         2       175        8.27     277      -55.9
   09/05/2017 01:00      68.6      68.4       84     63.5      0.00      0.09      88.0     0.34      1014.0     1       158         2       142        8.27     277      -56.0
   09/05/2017 00:50      68.7      68.4       84     63.4      0.00      0.09      88.6     0.34      1014.0     1       182         1       195        8.27     277      -56.0
   09/05/2017 00:40      68.8      68.6       83     63.4      0.00      0.09      88.8     0.34      1014.0     1       172         1       185        8.27     277      -56.1
   09/05/2017 00:30      68.9      68.8       83     63.4      0.00      0.09      88.5     0.34      1014.0     1       198         1       199        8.27     277      -55.7
   09/05/2017 00:20      69.2      68.9       82     63.3      0.00      0.09      88.3     0.34      1014.0     1       193         1       215        8.27     277      -55.8
   09/05/2017 00:10      69.2      69.0       82     63.5      0.00      0.09      88.7     0.34      1014.0     1       178         1       212        8.28     277      -55.6
   09/05/2017 00:00      69.2      68.9       82     63.4      0.00      0.09      88.7     0.34      1014.0     1       145         1       169        8.28     276      -55.6
   09/04/2017 23:50      69.5      69.1       82     63.5      0.00      0.09      88.7     0.34      1014.0     1       126         1       110        8.28     277      -56.5
   09/04/2017 23:40      69.7      69.4       81     63.4      0.00      0.09      88.6     0.34      1014.0     1       124         1       119        8.28     276      -57.1
   09/04/2017 23:30      69.8      69.5       81     63.5      0.00      0.09      88.3     0.34      1014.0     2       154         2       142        8.28     276      -57.1
   09/04/2017 23:20      69.8      69.6       81     63.5      0.00      0.09      88.6     0.34      1014.0     1       132         1       129        8.28     276      -56.8
   09/04/2017 23:10      70.1      69.8       80     63.5      0.00      0.09      88.6     0.34      1014.0     1       106         2        99        8.28     276      -54.4
   09/04/2017 23:00      70.3      70.0       79     63.5      0.00      0.09      88.7     0.34      1014.0     1       101         2        66        8.28     276      -51.5
   09/04/2017 22:50      70.3      70.1       79     63.6      0.00      0.09      88.8     0.34      1014.0     1       110         1        99        8.28     276      -56.0
   09/04/2017 22:40      70.5      70.3       79     63.7      0.00      0.09      88.8     0.34      1014.0     1       146         2       175        8.28     276      -57.5
   09/04/2017 22:30      70.5      70.0       80     63.7      0.00      0.09      88.9     0.34      1014.0     2       199         2       203        8.28     276      -56.8
   09/04/2017 22:20      70.3      70.2       80     63.6      0.00      0.09      88.5     0.34      1014.0     1       206         2       196        8.28     276      -56.9
   09/04/2017 22:10      70.4      70.3       79     63.6      0.00      0.09      89.0     0.34      1014.0     1       171         1       184        8.28     276      -58.0
   09/04/2017 22:00      70.7      70.5       79     63.8      0.00      0.09      88.8     0.34      1014.0     1       196         1       184        8.28     276      -57.9
   09/04/2017 21:50      70.8      70.6       79     63.9      0.00      0.09      89.0     0.34      1014.0     1       195         1       196        8.28     276      -58.3
   09/04/2017 21:40      70.8      70.7       79     63.9      0.00      0.09      88.8     0.34      1014.0     1       236         1       205        8.28     275      -58.4
   09/04/2017 21:30      70.8      70.7       79     63.9      0.00      0.09      88.7     0.34      1014.0     1       220         1       224        8.28     276      -59.5
   09/04/2017 21:20      71.1      70.8       79     63.9      0.00      0.09      88.8     0.34      1014.0     1       163         1       134        8.28     275      -60.7
   09/04/2017 21:10      71.2      71.0       78     64.1      0.00      0.09      88.7     0.34      1014.0     1       186         1       201        8.28     275      -61.8
   09/04/2017 21:00      71.2      71.0       79     64.2      0.00      0.09      89.3     0.34      1014.0     1       211         2       194        8.28     275      -61.6
   09/04/2017 20:50      71.4      71.1       78     64.2      0.00      0.09      89.0     0.34      1014.0     2       173         3       167        8.28     275      -61.5
   09/04/2017 20:40      71.5      71.2       78     64.2      0.00      0.09      89.3     0.34      1014.0     3       155         5       170        8.28     275      -61.7
   09/04/2017 20:30      71.8      71.4       77     64.2      0.00      0.09      88.9     0.34      1014.0     4       159         5       147        8.28     274      -62.3
   09/04/2017 20:20      72.0      71.7       77     64.2      0.00      0.09      89.0     0.34      1013.0     3       165         4       161        8.28     274      -62.5
   09/04/2017 20:10      72.5      72.2       75     64.1      0.00      0.09      88.7     0.34      1013.0     3       181         4       165        8.28     274      -63.2
   09/04/2017 20:00      72.8      72.6       74     64.0      0.00      0.09      89.0     0.34      1013.0     3       158         5       143        8.28     274      -63.8
   09/04/2017 19:50      73.0      72.7       74     64.0      0.00      0.09      89.0     0.34      1013.0     4       168         4       150        8.28     274      -64.0
   09/04/2017 19:40      73.3      73.1       73     63.9      0.00      0.09      89.0     0.34      1013.0     3       161         6       161        8.28     274      -64.3
   09/04/2017 19:30      73.6      73.4       72     63.9      0.00      0.09      89.1     0.34      1013.0     4       166         7       162        8.28     274      -62.8
   09/04/2017 19:20      74.1      73.7       71     64.0      0.00      0.09      88.9     0.34      1013.0     4       160         5       163        8.29     274      -61.9
   09/04/2017 19:10      74.4      73.9       71     64.1      0.00      0.09      88.7     0.34      1013.0     4       139         7       146        8.29     274      -58.0
   09/04/2017 19:00      74.6      74.3       70     64.1      0.00      0.09      88.8     0.34      1013.0     4       132         5       124        8.29     273      -47.9
   09/04/2017 18:50      75.3      74.3       70     64.2      0.00      0.09      88.8     0.34      1013.0     6       141         8       137        8.29     274      -36.1
   09/04/2017 18:40      75.9      75.3       68     64.3      0.00      0.09      88.7     0.34      1013.0     6       146         8       137        8.29     273       -9.1
   09/04/2017 18:30      76.9      76.0       67     64.6      0.00      0.09      88.9     0.34      1013.0     6       133         9       143        8.29     273       10.8
   09/04/2017 18:20      77.9      77.2       65     65.0      0.00      0.09      89.0     0.34      1013.0     5       116         8       112        8.29     273        2.9
   09/04/2017 18:10      78.0      77.6       65     65.0      0.00      0.09      88.9     0.34      1013.0     3       105         6       104        8.29     273       13.1
   09/04/2017 18:00      78.2      77.7       65     65.0      0.00      0.09      89.2     0.34      1013.0     4       122         6       119        8.29     273       35.2
   09/04/2017 17:50      79.2      78.1       63     65.1      0.00      0.09      88.8     0.34      1013.0     5       130         8       146        8.29     273       35.4
   09/04/2017 17:40      79.5      79.1       62     65.1      0.00      0.09      89.0     0.34      1012.0     5       116         8        86        8.30     273      152.3
   09/04/2017 17:30      79.7      79.1       62     65.2      0.00      0.09      88.8     0.33      1013.0     4       114         6        98        8.30     273      183.2
   09/04/2017 17:20      79.8      79.4       61     65.2      0.00      0.09      88.9     0.34      1013.0     5       106         9       130        8.30     273      196.7
   09/04/2017 17:10      80.6      79.7       61     65.3      0.00      0.09      88.9     0.33      1012.0     4       124         7       152        8.30     273      202.9
   09/04/2017 17:00      80.0      79.4       61     65.3      0.00      0.09      88.4     0.33      1013.0     5       110        10        54        8.30     273      218.8
   09/04/2017 16:50      80.3      79.7       61     65.1      0.00      0.09      88.6     0.33      1013.0     4       139         7       129        8.32     273      232.0
   09/04/2017 16:40      80.1      79.4       61     65.2      0.00      0.09      88.4     0.33      1013.0     6       143         9       156        8.33     273      241.1
   09/04/2017 16:30      80.4      79.8       61     65.2      0.00      0.09      88.8     0.33      1013.0     5       113         6        70        8.33     273      272.0
   09/04/2017 16:20      80.8      79.7       61     65.1      0.00      0.09      88.6     0.33      1013.0     5       134         9       134        8.33     273      300.7
   09/04/2017 16:10      80.5      79.8       60     65.1      0.00      0.09      88.6     0.33      1013.0     4       125         7       140        8.33     273      315.5
   09/04/2017 16:00      80.0      79.4       61     65.1      0.00      0.09      88.4     0.33      1013.0     5       146         8       123        8.33     274      340.2
   09/04/2017 15:50      80.9      80.2       59     65.2      0.00      0.09      88.6     0.33      1013.0     5       161        10       134        8.33     274      349.9
   09/04/2017 15:40      81.7      80.9       58     65.2      0.00      0.09      88.6     0.33      1013.0     5       109         9       105        8.34     274      372.6
   09/04/2017 15:30      81.4      80.9       58     65.2      0.00      0.09      88.7     0.33      1013.0     5       106         7        73        8.34     274      396.0
   09/04/2017 15:20      81.9      80.6       59     65.3      0.00      0.09      88.7     0.33      1013.0     6       139         9       164        8.34     275      412.6
   09/04/2017 15:10      81.9      80.2       59     65.2      0.00      0.09      88.5     0.33      1013.0     6       151         9       152        8.34     277      432.0
   09/04/2017 15:00      81.2      80.9       59     65.4      0.00      0.09      88.4     0.33      1013.0     6       145         9       172        8.34     277      446.2
   09/04/2017 14:50      81.7      81.0       59     65.5      0.00      0.09      88.3     0.33      1013.0     7       160         9       154        8.34     278      462.2
   09/04/2017 14:40      82.6      81.4       58     65.8      0.00      0.09      88.6     0.33      1013.0     7       146        11       162        8.34     279      479.2
   09/04/2017 14:30      82.3      81.6       58     65.8      0.00      0.09      88.4     0.33      1013.0     6       174        11       156        8.34     280      496.8
   09/04/2017 14:20      82.6      81.1       59     65.7      0.00      0.09      88.1     0.33      1013.0     5       151         7       169        8.34     281      456.5
   09/04/2017 14:10      81.8      81.1       59     65.6      0.00      0.09      88.5     0.33      1013.0     6       156         9       155        8.34     281      428.9
   09/04/2017 14:00      82.9      81.4       58     65.7      0.00      0.09      88.3     0.33      1013.0     7       149        10       142        8.34     282      470.7
   09/04/2017 13:50      82.7      81.7       58     66.0      0.00      0.09      88.1     0.33      1013.0     7       161         8       170        8.34     282      527.5
   09/04/2017 13:40      82.2      81.5       59     66.0      0.00      0.09      88.2     0.33      1013.0     7       183        12       178        8.34     283      540.6
   09/04/2017 13:30      81.9      81.0       60     66.2      0.00      0.09      88.4     0.33      1013.0     8       163        11       150        8.34     283      548.8
   09/04/2017 13:20      81.6      81.0       61     66.5      0.00      0.09      88.5     0.33      1013.0     6       171         8       180        8.34     284      551.9
   09/04/2017 13:10      82.4      81.5       60     66.8      0.00      0.09      88.3     0.33      1013.0     8       174        11       177        8.34     286      552.1
   09/04/2017 13:00      83.5      82.5       58     66.8      0.00      0.09      88.3     0.33      1013.0     7       162        10       164        8.34     287      547.2
   09/04/2017 12:50      84.4      83.6       53     65.1      0.00      0.09      88.2     0.33      1013.0     5       146        10       147        8.34     288      553.2
   09/04/2017 12:40      84.6      83.6       53     65.2      0.00      0.09      88.1     0.33      1013.0     5       140         9       133        8.34     289      552.2
   09/04/2017 12:30      85.1      84.2       52     65.4      0.00      0.09      88.3     0.33      1013.0     5       131         9       128        8.34     290      560.5
   09/04/2017 12:20      85.8      84.9       53     66.3      0.00      0.09      88.0     0.33      1013.0     4       122         7       172        8.35     291      476.8
   09/04/2017 12:10      85.2      84.3       54     66.4      0.00      0.09      88.3     0.33      1013.0     3       112         5        94        8.35     293      535.0
   09/04/2017 12:00      85.0      83.5       55     66.3      0.00      0.09      88.0     0.33      1013.0     3        83         6       114        8.35     296      516.2
   09/04/2017 11:50      84.7      83.1       56     66.5      0.00      0.09      88.1     0.33      1013.0     3        64         7       136        8.35     297      578.6
   09/04/2017 11:40      84.5      83.0       57     67.2      0.00      0.09      88.3     0.33      1013.0     5       113         8       127        8.35     299      564.4
   09/04/2017 11:30      84.4      82.4       59     67.4      0.00      0.09      88.2     0.33      1014.0     3        80         6        80        8.35     303      581.6
   09/04/2017 11:20      82.8      81.8       61     67.5      0.00      0.09      88.4     0.33      1014.0     3        20         6        78        8.35     306      576.4
   09/04/2017 11:10      81.6      80.5       63     67.3      0.00      0.09      88.2     0.33      1014.0     3        79         7        97        8.35     308      459.7
   09/04/2017 11:00      81.6      80.3       64     67.6      0.00      0.09      88.4     0.33      1014.0     4        81         6       131        8.35     312      496.7
   09/04/2017 10:50      81.1      80.2       65     67.6      0.00      0.09      88.7     0.33      1014.0     2       126         5       147        8.35     317      529.3
   09/04/2017 10:40      80.7      79.3       66     67.7      0.00      0.09      88.1     0.33      1014.0     3       336         6       121        8.35     320      578.6
   09/04/2017 10:30      79.4      78.4       68     67.4      0.00      0.09      88.9     0.33      1014.0     3        38         5       354        8.35     322      458.5
   09/04/2017 10:20      78.1      77.6       70     67.2      0.00      0.09      88.3     0.34      1014.0     3       346         4        79        8.35     325      266.2
   09/04/2017 10:10      77.8      77.5       70     67.1      0.00      0.09      88.4     0.34      1014.0     1        98         3        74        8.35     328      145.1
   09/04/2017 10:00      78.9      77.9       70     67.6      0.00      0.09      88.7     0.34      1014.0     2        43         3        28        8.35     333      159.9
   09/04/2017 09:50      78.9      77.3       70     67.5      0.00      0.09      88.7     0.34      1014.0     1        11         2        25        8.35     337      241.6
   09/04/2017 09:40      77.4      76.9       72     67.3      0.00      0.09      88.8     0.34      1014.0     2         0         4         3        8.35     343      314.5
   09/04/2017 09:30      77.2      76.2       74     67.7      0.00      0.09      89.1     0.34      1014.0     1        26         3       351        8.35     346      272.4
   09/04/2017 09:20      76.3      74.8       77     67.6      0.00      0.09      88.4     0.34      1014.0     1       346         2       320        8.35     349      271.5
   09/04/2017 09:10      75.2      74.7       78     67.7      0.00      0.09      88.5     0.34      1014.0     1       102         2       118        8.35     352      137.8
   09/04/2017 09:00      75.3      74.6       78     67.7      0.00      0.09      88.9     0.34      1014.0     1       346         2       342        8.35     358      166.1
   09/04/2017 08:50      74.6      74.1       80     67.8      0.00      0.09      89.1     0.34      1014.0     1        12         2        15        8.35     364      154.1
   09/04/2017 08:40      74.3      73.5       81     67.7      0.00      0.09      88.8     0.34      1014.0     1        83         1       137        8.35     369      169.3
   09/04/2017 08:30      73.8      73.2       83     68.0      0.00      0.09      89.2     0.34      1014.0     1        80         2        84        8.35     374       98.4
   09/04/2017 08:20      73.2      72.7       83     67.6      0.00      0.09      88.7     0.34      1014.0     1        65         2        73        8.35     377       81.4
   09/04/2017 08:10      72.8      72.6       84     67.7      0.00      0.09      89.0     0.34      1014.0     1        80         2        81        8.35     386       64.5
   09/04/2017 08:00      72.8      72.5       86     68.4      0.00      0.09      89.2     0.34      1014.0     1        79         1        76        8.35     396       80.1
   09/04/2017 07:50      72.6      72.1       88     68.5      0.00      0.09      89.5     0.34      1014.0     1        37         1        33        8.35     403       69.2
   09/04/2017 07:40      72.0      71.6       89     68.3      0.00      0.09      88.6     0.34      1014.0     0        58         1        86        8.35     416       36.5
   09/04/2017 07:30      71.5      71.1       89     67.9      0.00      0.09      88.3     0.34      1014.0     1       147         1       143        8.35     400       35.0
   09/04/2017 07:20      71.4      71.1       89     67.9      0.00      0.09      88.8     0.34      1014.0     1       127         2       138        8.35     408       10.9
   09/04/2017 07:10      71.4      71.1       89     67.8      0.00      0.09      89.0     0.34      1014.0     2       130         3       117        8.35     416        4.7
   09/04/2017 07:00      71.3      71.2       88     67.7      0.00      0.09      89.2     0.34      1014.0     2       111         3       110        8.35     430       -0.6
   09/04/2017 06:50      71.4      71.1       89     67.8      0.00      0.09      89.0     0.34      1014.0     1        75         1        97        8.35     441       -4.4
   09/04/2017 06:40      71.5      71.2       89     67.9      0.00      0.09      89.2     0.34      1014.0     1        69         1       100        8.35     450       -7.0
   09/04/2017 06:30      71.4      71.1       89     67.8      0.00      0.09      89.0     0.34      1014.0     1       100         2       127        8.35     460       -8.4
   09/04/2017 06:20      71.3      71.1       89     67.8      0.00      0.09      90.1     0.34      1014.0     2        97         2       110        8.35     467       -9.1
   09/04/2017 06:10      71.5      71.2       89     68.0      0.00      0.09      89.1     0.34      1014.0     1       104         2        80        8.35     466       -9.6
   09/04/2017 06:00      71.5      71.1       89     68.0      0.00      0.09      88.4     0.34      1014.0     1       164         1       196        8.35     472      -10.3
   09/04/2017 05:50      71.5      71.1       89     67.9      0.00      0.09      88.8     0.34      1014.0     1       108         1        95        8.35     477      -10.4
   09/04/2017 05:40      71.3      71.0       89     67.8      0.00      0.09      88.9     0.34      1014.0     1       110         1       113        8.35     484       -9.9
   09/04/2017 05:30      71.4      71.1       89     67.9      0.00      0.09      88.7     0.34      1014.0     1        99         1       100        8.35     491       -9.9
   09/04/2017 05:20      71.4      70.9       89     67.6      0.00      0.09      89.6     0.34      1014.0     0        97         1       113        8.35     502      -10.6
   09/04/2017 05:10      71.3      70.9       89     67.7      0.00      0.09      89.3     0.34      1014.0     1        61         1        81        8.35     511       -9.7
   09/04/2017 05:00      71.3      71.0       89     67.7      0.00      0.09      89.6     0.34      1014.0     1        95         1        97        8.35     513      -10.2
   09/04/2017 04:50      71.3      71.1       89     67.7      0.00      0.09      89.0     0.34      1014.0     1       183         1       199        8.35     519      -11.3
   09/04/2017 04:40      71.5      70.9       89     67.7      0.00      0.09      89.1     0.34      1014.0     1       138         2       122        8.35     533      -11.2
   09/04/2017 04:30      71.0      70.8       89     67.3      0.00      0.09      89.5     0.34      1014.0     1       189         2       185        8.35     670      -11.6
   09/04/2017 04:20      71.2      70.9       88     67.1      0.01      0.09      89.3     0.34      1014.0     2       176         2       154        8.35     679      -11.3
   09/04/2017 04:10      71.8      71.2       85     66.6      0.05      0.08      90.0     0.33      1014.0     2       198         2       184        8.35     665      -11.1
   09/04/2017 04:00      72.4      72.0       81     66.1      0.03      0.03      89.2     0.33      1014.0     2       180         3       172        8.34     437      -13.3
   09/04/2017 03:50      73.7      72.6       76     65.3      0.00      0.00      90.0     0.34      1014.0     3       182         5       193        8.34     282      -16.7
   09/04/2017 03:40      73.8      73.6       74     64.9      0.00      0.00      89.7     0.34      1014.0     3       140         5       155        8.34     275      -16.7
   09/04/2017 03:30      74.0      73.8       72     64.4      0.00      0.00      89.4     0.34      1014.0     3       147         3       136        8.35     274      -18.4
   09/04/2017 03:20      74.2      73.8       71     64.1      0.00      0.00      89.9     0.34      1014.0     2       159         3       157        8.35     274      -17.4
   09/04/2017 03:10      74.0      73.8       71     64.1      0.00      0.00      89.7     0.34      1014.0     2       130         3       128        8.35     274      -17.5
   09/04/2017 03:00      74.0      73.8       71     64.0      0.00      0.00      89.8     0.34      1014.0     2       146         3       139        8.35     274      -17.5
   09/04/2017 02:50      73.9      73.6       72     64.1      0.00      0.00      89.7     0.34      1014.0     1       102         2       139        8.35     274      -17.4
   09/04/2017 02:40      73.8      73.5       72     64.2      0.00      0.00      89.9     0.34      1014.0     2       138         3       142        8.35     274      -17.2
   09/04/2017 02:30      73.8      73.7       72     64.3      0.00      0.00      89.8     0.34      1014.0     2       120         3       130        8.35     274      -17.3
   09/04/2017 02:20      73.8      73.5       73     64.3      0.00      0.00      89.6     0.34      1014.0     1       144         2       158        8.35     274      -17.3
   09/04/2017 02:10      73.7      73.2       73     64.3      0.00      0.00      90.0     0.34      1014.0     1       152         2       131        8.35     274      -17.0
   09/04/2017 02:00      73.4      73.3       73     64.3      0.00      0.00      89.9     0.34      1014.0     2       174         3       165        8.35     274      -17.1
   09/04/2017 01:50      73.4      73.2       74     64.3      0.00      0.00      89.9     0.34      1014.0     2       177         3       153        8.35     274      -17.1
   09/04/2017 01:40      73.4      73.2       74     64.4      0.00      0.00      90.1     0.34      1014.0     2       192         4       163        8.35     274      -17.0
   09/04/2017 01:30      73.3      73.2       74     64.4      0.00      0.00      89.8     0.34      1014.0     3       165         3       181        8.35     274      -17.1
   09/04/2017 01:20      73.4      73.2       74     64.4      0.00      0.00      89.8     0.34      1014.0     4       164         6       179        8.35     274      -16.8
   09/04/2017 01:10      73.7      73.4       73     64.4      0.00      0.00      90.0     0.34      1014.0     4       165         5       159        8.35     274      -17.1
   09/04/2017 01:00      73.8      73.7       73     64.5      0.00      0.00      89.9     0.34      1014.0     3       134         4       131        8.35     274      -17.1
   09/04/2017 00:50      74.2      73.8       73     64.7      0.00      0.00      90.2     0.34      1014.0     3       136         4       147        8.36     274      -17.4
   09/04/2017 00:40      74.2      73.9       73     65.0      0.00      0.00      89.8     0.34      1014.0     2       117         3       115        8.36     274      -17.0
   09/04/2017 00:30      74.0      73.7       74     65.0      0.00      0.00      90.2     0.34      1014.0     2       184         3       213        8.36     274      -20.4
   09/04/2017 00:20      74.0      73.7       74     65.0      0.00      0.00      90.1     0.34      1015.0     3       196         5       192        8.36     274      -17.7
   09/04/2017 00:10      74.1      73.9       74     65.0      0.00      0.00      90.1     0.34      1015.0     4       152         5       124        8.36     274      -16.5
   09/04/2017 00:00      74.3      74.2       73     65.0      0.00      0.00      90.1     0.34      1015.0     4       149         6       155        8.36     274      -21.7
   09/03/2017 23:50      74.4      74.2       73     64.9      0.00      0.00      89.8     0.34      1015.0     4       147         5       168        8.36     274      -31.0
   09/03/2017 23:40      74.8      74.4       72     65.0      0.00      0.00      90.6     0.34      1015.0     4       146         6       155        8.36     274      -32.2
   09/03/2017 23:30      75.4      74.8       71     65.1      0.00      0.00      90.2     0.34      1015.0     4       160         6       163        8.36     274      -29.3
   09/03/2017 23:20      75.8      75.4       71     65.5      0.00      0.00      90.2     0.34      1015.0     3       158         5       151        8.36     274      -30.0
   09/03/2017 23:10      75.8      75.7       71     65.6      0.00      0.00      90.4     0.34      1015.0     3       148         4       139        8.36     274      -31.9
   09/03/2017 23:00      76.2      75.9       70     65.6      0.00      0.00      90.4     0.34      1014.0     2       166         4       133        8.36     274      -29.4
   09/03/2017 22:50      76.3      76.0       70     65.5      0.00      0.00      90.5     0.34      1014.0     2       165         3       161        8.36     274      -26.2
   09/03/2017 22:40      76.3      76.0       70     65.5      0.00      0.00      90.6     0.34      1014.0     2       182         3       191        8.36     274      -27.5
   09/03/2017 22:30      76.1      76.0       70     65.5      0.00      0.00      89.7     0.34      1014.0     2       189         3       190        8.36     274      -28.0
   09/03/2017 22:20      76.1      75.8       70     65.6      0.00      0.00      90.5     0.34      1014.0     2       205         3       207        8.37     274      -28.2
   09/03/2017 22:10      76.2      75.9       70     65.5      0.00      0.00      90.4     0.34      1014.0     2       214         3       197        8.38     274      -29.1
   09/03/2017 22:00      76.2      75.8       70     65.3      0.00      0.00      90.3     0.34      1014.0     2       217         3       216        8.39     274      -29.3
   09/03/2017 21:50      75.9      75.7       70     65.3      0.00      0.00      90.5     0.34      1014.0     2       232         2       216        8.39     274      -30.1
   09/03/2017 21:40      75.8      75.7       70     65.1      0.00      0.00      90.6     0.34      1014.0     3       205         4       209        8.39     274      -30.1
   09/03/2017 21:30      76.4      76.1       70     65.6      0.00      0.00      90.4     0.34      1014.0     2       234         3       217        8.40     274      -30.7
   09/03/2017 21:20      76.5      76.2       70     65.8      0.00      0.00      90.6     0.34      1015.0     1        56         1       113        8.40     274      -32.6
   09/03/2017 21:10      76.5      76.2       70     65.9      0.00      0.00      90.6     0.34      1015.0     2        86         3        83        8.40     274      -35.2
   09/03/2017 21:00      76.6      76.3       70     65.9      0.00      0.00      90.5     0.34      1015.0     1       119         1        75        8.40     274      -36.8
   09/03/2017 20:50      76.6      76.2       70     65.8      0.00      0.00      90.3     0.34      1015.0     1        73         2        77        8.41     274      -37.8
   09/03/2017 20:40      76.3      75.8       70     65.8      0.00      0.00      90.2     0.34      1015.0     1        64         2        60        8.41     274      -41.1
   09/03/2017 20:30      76.1      75.8       71     65.8      0.00      0.00      90.6     0.34      1015.0     2       169         3       179        8.41     274      -43.3
   09/03/2017 20:20      76.1      75.8       70     65.7      0.00      0.00      90.5     0.34      1014.0     1       175         2       183        8.41     274      -41.6
   09/03/2017 20:10      76.0      75.7       71     65.6      0.00      0.00      90.4     0.34      1014.0     1       154         3       143        8.41     274      -38.4
   09/03/2017 20:00      75.8      75.7       71     65.8      0.00      0.00      90.5     0.34      1014.0     2       163         4       172        8.41     274      -36.0
   09/03/2017 19:50      76.0      75.7       72     66.0      0.00      0.00      90.2     0.34      1014.0     1       161         3       150        8.41     274      -35.8
   09/03/2017 19:40      76.0      75.5       73     66.3      0.00      0.00      90.4     0.34      1014.0     2       136         4       129        8.41     274      -34.8
   09/03/2017 19:30      75.8      75.5       72     66.2      0.00      0.00      90.1     0.34      1014.0     2       183         3       210        8.41     275      -33.3
   09/03/2017 19:20      76.2      75.8       72     66.3      0.00      0.00      90.4     0.34      1014.0     2       227         3       195        8.41     276      -32.4
   09/03/2017 19:10      76.7      75.9       72     66.7      0.00      0.00      90.4     0.34      1014.0     5       145         8       120        8.41     278      -25.5
   09/03/2017 19:00      80.2      77.0       68     67.0      0.00      0.00      90.0     0.34      1013.0     7       161        11       154        8.41     286      -18.6
   09/03/2017 18:50      81.9      80.7       59     65.7      0.00      0.00      90.1     0.34      1013.0     4       199         6       177        8.41     297      -26.6
   09/03/2017 18:40      83.4      81.8       56     65.3      0.00      0.00      90.1     0.34      1014.0     4        67         7        71        8.41     270      -27.5
   09/03/2017 18:30      83.9      83.5       54     65.1      0.00      0.00      90.1     0.34      1013.0     3        76         4        15        8.41     269      -15.5
   09/03/2017 18:20      83.6      83.4       53     64.7      0.00      0.00      90.1     0.34      1013.0     3       200         6       204        8.42     269        8.9
   09/03/2017 18:10      85.6      84.0       51     64.8      0.00      0.00      90.1     0.34      1013.0     4       224         8       203        8.42     269       67.3
   09/03/2017 18:00      87.1      85.4       49     64.8      0.00      0.00      90.1     0.34      1012.0     6       149         9       163        8.42     269       54.8
   09/03/2017 17:50      87.4      87.0       47     64.5      0.00      0.00      89.8     0.34      1012.0     5       162        11       166        8.42     269       95.2
   09/03/2017 17:40      87.7      87.3       46     63.9      0.00      0.00      89.9     0.34      1012.0     7       163         9       172        8.46     269       40.6
   09/03/2017 17:30      88.3      87.4       45     63.9      0.00      0.00      89.9     0.34      1012.0     8       157        10       138        8.47     269       76.0
   09/03/2017 17:20      89.2      88.5       44     63.8      0.00      0.00      89.8     0.34      1012.0     7       157        11       158        8.47     269       57.3
   09/03/2017 17:10      90.3      89.4       42     63.7      0.00      0.00      89.6     0.34      1012.0     7       142        10       153        8.47     268       49.6
   09/03/2017 17:00      91.3      90.6       40     63.7      0.00      0.00      89.7     0.34      1012.0     6       150         9       114        8.48     268      132.7
   09/03/2017 16:50      91.6      90.8       40     63.4      0.00      0.00      89.7     0.33      1012.0     6       162         8       170        8.48     268      107.8
   09/03/2017 16:40      91.3      91.0       40     63.4      0.00      0.00      89.6     0.34      1012.0     5       174         8       157        8.48     268       75.3
   09/03/2017 16:30      92.8      91.6       38     63.3      0.00      0.00      89.6     0.33      1012.0     6       171         9       196        8.49     268      108.8
   09/03/2017 16:20      93.7      93.1       37     62.9      0.00      0.00      89.6     0.33      1012.0     5       199         6       200        8.49     268      133.4
   09/03/2017 16:10      94.8      93.9       36     62.9      0.00      0.00      89.6     0.33      1012.0     4       172         7       212        8.49     268      230.6
   09/03/2017 16:00      94.0      92.9       36     62.4      0.00      0.00      89.4     0.33      1012.0     3       170         5       192        8.49     269      202.3
   09/03/2017 15:50      94.9      93.6       35     62.4      0.00      0.00      89.5     0.33      1012.0     6       159        10       186        8.50     268      155.2
   09/03/2017 15:40      94.8      94.1       35     62.4      0.00      0.00      89.4     0.33      1012.0     6       149        10       143        8.50     268      436.2
   09/03/2017 15:30      94.5      94.2       35     62.5      0.00      0.00      89.4     0.33      1012.0     8       156        13       178        8.50     269      457.1
   09/03/2017 15:20      94.9      93.9       35     62.7      0.00      0.00      89.1     0.33      1012.0     6       149         9       137        8.50     269      424.2
   09/03/2017 15:10      93.7      92.7       36     62.5      0.00      0.00      89.1     0.33      1013.0     8       147        11       148        8.50     269      384.5
   09/03/2017 15:00      93.9      92.7       37     62.8      0.00      0.00      89.3     0.33      1013.0     8       143        14       137        8.51     269      322.6
   09/03/2017 14:50      94.4      93.1       36     62.8      0.00      0.00      89.1     0.33      1013.0     7       136        12       132        8.51     269      305.6
   09/03/2017 14:40      95.6      94.2       34     62.3      0.00      0.00      89.1     0.33      1013.0     9       173        12       125        8.52     269      541.0
   09/03/2017 14:30      96.0      94.6       34     62.5      0.00      0.00      89.0     0.33      1013.0     6       171         8       210        8.52     269      473.9
   09/03/2017 14:20      95.3      94.3       35     62.7      0.00      0.00      88.9     0.33      1013.0     8       155        11       164        8.53     269      476.7
   09/03/2017 14:10      95.3      94.8       35     62.9      0.00      0.00      88.8     0.33      1013.0     9       169        13       120        8.54     269      490.6
   09/03/2017 14:00      95.0      93.2       36     63.2      0.00      0.00      88.8     0.33      1013.0     7       161        11       149        8.55     269      532.4
   09/03/2017 13:50      93.3      92.7       38     63.3      0.00      0.00      88.7     0.33      1013.0     7       157        13       180        8.55     269      338.1
   09/03/2017 13:40      95.6      93.1       36     62.9      0.00      0.00      88.8     0.33      1013.0     8       152        10       144        8.55     269       68.3
   09/03/2017 13:30      99.3      96.1       32     63.5      0.00      0.00      88.8     0.33      1013.0     8       163        14       154        8.56     269      223.1
   09/03/2017 13:20      99.5      98.7       31     63.5      0.00      0.00      88.5     0.33      1013.0     6       174         8       194        8.56     269      613.2
   09/03/2017 13:10      98.7      97.8       32     63.1      0.00      0.00      88.7     0.33      1013.0     5       160         8       150        8.56     269      353.8
   09/03/2017 13:00      97.8      95.7       34     63.0      0.00      0.00      88.4     0.33      1013.0     5       165         9       179        8.57     269      382.0
   09/03/2017 12:50      97.2      95.8       34     63.5      0.00      0.00      88.5     0.33      1013.0     8       173        11       152        8.57     269      370.4
   09/03/2017 12:40      97.1      95.1       34     63.5      0.00      0.00      88.6     0.33      1013.0     7       171        10       197        8.57     269      446.4
   09/03/2017 12:30      98.3      97.0       34     64.1      0.00      0.00      88.6     0.33      1013.0     8       156        10       165        8.58     270      541.3
   09/03/2017 12:20     100.0      98.4       32     64.1      0.00      0.00      88.6     0.33      1013.0     8       147        11       163        8.61     270      534.5
   09/03/2017 12:10     101.0      99.2       31     63.9      0.00      0.00      88.4     0.33      1013.0     4       107         8       178        8.61     270      491.0
   09/03/2017 12:00     100.6      99.2       31     63.6      0.00      0.00      88.5     0.33      1013.0     4        92         6       125        8.62     270      470.8
   09/03/2017 11:50     100.3      99.4       29     62.4      0.00      0.00      88.4     0.33      1013.0     3        31         5         6        8.62     270      479.0
   09/03/2017 11:40      99.1      97.5       31     62.8      0.00      0.00      88.5     0.33      1013.0     3        84         7        88        8.62     270      315.9
   09/03/2017 11:30      98.1      97.1       32     63.1      0.00      0.00      88.6     0.33      1014.0     2       196         4       153        8.62     270      206.7
   09/03/2017 11:20      99.4      98.4       32     63.6      0.00      0.00      88.5     0.33      1014.0     3        86         7        83        8.62     270      447.2
   09/03/2017 11:10      99.0      98.1       32     63.5      0.00      0.00      88.5     0.33      1014.0     3        12         4        10        8.63     270      488.7
   09/03/2017 11:00      98.2      96.1       33     63.3      0.00      0.00      88.6     0.33      1014.0     2       334         3         1        8.63     270      459.6
   09/03/2017 10:50      97.0      96.2       33     63.1      0.00      0.00      88.8     0.33      1014.0     3       332         5       315        8.63     271      432.6
   09/03/2017 10:40      96.7      95.1       34     63.0      0.00      0.00      88.6     0.33      1014.0     2        63         5        70        8.64     270      418.6
   09/03/2017 10:30      95.3      94.0       36     63.5      0.00      0.00      88.6     0.33      1014.0     3        48         4        38        8.64     270      394.4
   09/03/2017 10:20      94.3      93.8       37     63.4      0.00      0.00      88.7     0.33      1014.0     3         4         4        14        8.64     271      314.2
   09/03/2017 10:10      93.9      92.7       38     63.5      0.00      0.00      88.7     0.33      1014.0     3       340         5        11        8.64     271      349.1
   09/03/2017 10:00      93.0      92.4       38     63.4      0.00      0.00      88.6     0.33      1014.0     3         1         5         0        8.64     271      343.2
   09/03/2017 09:50      92.9      92.6       38     63.3      0.00      0.00      88.6     0.33      1014.0     2        28         4         2        8.64     271      268.3
   09/03/2017 09:40      92.8      90.8       39     63.2      0.00      0.00      88.9     0.33      1014.0     2        14         4        10        8.65     271      327.7
   09/03/2017 09:30      90.8      90.6       40     63.2      0.00      0.00      88.8     0.33      1014.0     3       348         6         3        8.65     271      302.3
   09/03/2017 09:20      91.1      90.4       40     62.9      0.00      0.00      88.9     0.33      1014.0     2        11         4       333        8.66     272      287.1
   09/03/2017 09:10      90.5      89.6       40     62.2      0.00      0.00      88.9     0.33      1014.0     1       346         2         8        8.66     272      274.2
   09/03/2017 09:00      89.7      89.1       40     61.6      0.00      0.00      88.8     0.33      1014.0     2       324         3       324        8.67     272      246.9
   09/03/2017 08:50      89.7      87.3       41     62.0      0.00      0.00      89.1     0.34      1014.0     2       310         2       357        8.67     272      261.7
   09/03/2017 08:40      87.1      84.2       47     63.1      0.00      0.00      88.7     0.34      1014.0     1       328         2       310        8.68     272      270.7
   09/03/2017 08:30      84.1      83.9       50     63.6      0.00      0.00      88.8     0.34      1014.0     0       104         1       139        8.68     272       70.6
   09/03/2017 08:20      84.3      84.1       49     63.1      0.00      0.00      89.1     0.34      1014.0     1        58         1        61        8.68     272       11.1
   09/03/2017 08:10      84.2      83.1       48     61.8      0.00      0.00      89.1     0.34      1014.0     1       345         1       326        8.68     272       46.0
   09/03/2017 08:00      83.3      81.5       51     62.3      0.00      0.00      89.2     0.34      1014.0     1       331         2       319        8.69     272       73.1
   09/03/2017 07:50      81.6      80.4       53     62.4      0.00      0.00      89.0     0.34      1014.0     0        58         1        75        8.69     272       43.7
   09/03/2017 07:40      80.4      79.4       54     61.9      0.00      0.00      88.9     0.34      1014.0     1       137         2       155        8.69     272       16.0
   09/03/2017 07:30      79.4      78.5       56     62.0      0.00      0.00      89.0     0.34      1014.0     1       162         2       131        8.69     272       12.0
   09/03/2017 07:20      78.7      78.3       57     61.9      0.00      0.00      89.1     0.34      1014.0     1        68         2       137        8.69     272        3.9
   09/03/2017 07:10      78.3      77.6       57     61.5      0.00      0.00      89.0     0.34      1013.0     1        34         1       357        8.69     272       -2.7
   09/03/2017 07:00      77.7      77.1       58     61.5      0.00      0.00      89.0     0.34      1013.0     1        36         1       134        8.69     272      -10.3
   09/03/2017 06:50      77.3      76.8       59     61.5      0.00      0.00      89.1     0.34      1013.0     1       162         2       183        8.70     272      -22.5
   09/03/2017 06:40      77.1      76.3       59     61.2      0.00      0.00      89.0     0.34      1013.0     2       137         2       139        8.70     272      -30.8
   09/03/2017 06:30      76.5      76.0       59     61.0      0.00      0.00      89.3     0.34      1013.0     2       165         3       147        8.70     271      -36.3
   09/03/2017 06:20      76.5      76.3       59     61.0      0.00      0.00      89.1     0.34      1013.0     1       158         2       145        8.70     271      -39.7
   09/03/2017 06:10      76.3      76.3       58     60.7      0.00      0.00      89.2     0.34      1013.0     1       163         2       127        8.70     271      -41.6
   09/03/2017 06:00      76.6      76.3       56     59.7      0.00      0.00      89.2     0.34      1013.0     2       172         2       165        8.70     271      -41.8
   09/03/2017 05:50      77.1      76.5       57     60.5      0.00      0.00      89.1     0.34      1013.0     1       128         1       159        8.70     271      -41.9
   09/03/2017 05:40      77.4      76.9       57     60.6      0.00      0.00      89.3     0.34      1013.0     0        84         1        47        8.70     271      -41.9
   09/03/2017 05:30      77.6      77.3       55     60.3      0.00      0.00      89.5     0.34      1013.0     0       205         1       153        8.70     271      -41.8
   09/03/2017 05:20      77.9      77.7       54     59.9      0.00      0.00      89.4     0.34      1013.0     1       156         1       146        8.70     271      -42.0
   09/03/2017 05:10      78.0      77.8       55     60.4      0.00      0.00      89.5     0.34      1013.0     0       341         1       352        8.71     271      -42.6
   09/03/2017 05:00      78.3      78.0       54     60.2      0.00      0.00      89.3     0.34      1013.0     1       182         1       193        8.71     271      -43.2
   09/03/2017 04:50      78.2      77.9       54     60.3      0.00      0.00      89.5     0.34      1013.0     1       178         1       245        8.71     271      -43.7
   09/03/2017 04:40      78.2      77.9       55     60.6      0.00      0.00      89.5     0.34      1013.0     1        91         1       123        8.71     271      -45.0
   09/03/2017 04:30      78.4      77.9       55     60.5      0.00      0.00      89.5     0.34      1013.0     2       131         3       137        8.71     271      -45.4
   09/03/2017 04:20      79.3      78.7       52     60.1      0.00      0.00      89.5     0.34      1012.0     1       135         2       137        8.71     271      -44.3
   09/03/2017 04:10      79.5      79.2       52     60.3      0.00      0.00      89.6     0.34      1012.0     1       328         2       318        8.71     271      -44.0
   09/03/2017 04:00      79.4      78.8       53     60.5      0.00      0.00      89.5     0.34      1012.0     1       295         1       208        8.71     271      -44.9
   09/03/2017 03:50      79.3      78.7       52     60.1      0.00      0.00      89.4     0.34      1012.0     2       156         3       154        8.71     271      -44.9
   09/03/2017 03:40      79.7      79.4       52     60.1      0.00      0.00      89.5     0.34      1012.0     1        26         2       136        8.71     271      -43.8
   09/03/2017 03:30      79.7      79.3       52     60.3      0.00      0.00      89.8     0.34      1012.0     1       158         2       141        8.71     271      -44.3
   09/03/2017 03:20      79.7      79.3       51     60.0      0.00      0.00      89.9     0.34      1012.0     1       145         2       129        8.71     271      -44.2
   09/03/2017 03:10      79.7      79.4       52     60.4      0.00      0.00      89.8     0.34      1012.0     2       145         2       141        8.71     270      -44.0
   09/03/2017 03:00      80.2      79.8       51     60.2      0.00      0.00      89.8     0.34      1012.0     2       172         2       190        8.71     270      -42.2
   09/03/2017 02:50      80.6      80.2       50     60.1      0.00      0.00      89.7     0.34      1012.0     1       146         2       152        8.71     270      -42.8
   09/03/2017 02:40      80.6      80.3       49     59.5      0.00      0.00      89.6     0.34      1012.0     1       225         1       239        8.72     270      -42.9
   09/03/2017 02:30      80.9      80.7       51     60.8      0.00      0.00      89.7     0.34      1012.0     1       128         1       139        8.72     270      -43.6
   09/03/2017 02:20      81.4      81.1       49     60.3      0.00      0.00      89.8     0.34      1012.0     1       169         2       158        8.72     270      -42.8
   09/03/2017 02:10      81.4      81.1       49     60.1      0.00      0.00      89.9     0.34      1013.0     1       196         1       203        8.72     270      -42.2
   09/03/2017 02:00      81.4      81.1       49     60.4      0.00      0.00      89.9     0.34      1013.0     1       174         2       165        8.72     270      -43.1
   09/03/2017 01:50      82.3      81.4       48     60.1      0.00      0.00      89.9     0.34      1013.0     1       123         2       148        8.72     270      -44.3
   09/03/2017 01:40      82.4      82.1       47     59.8      0.00      0.00      89.8     0.34      1013.0     1       193         3       202        8.72     270      -44.3
   09/03/2017 01:30      82.0      81.5       48     60.3      0.00      0.00      89.9     0.34      1013.0     1       182         2       193        8.72     270      -44.0
   09/03/2017 01:20      82.2      81.8       47     59.9      0.00      0.00      89.9     0.34      1013.0     1        70         2       124        8.72     270      -44.4
   09/03/2017 01:10      82.5      82.3       47     60.0      0.00      0.00      89.8     0.34      1012.0     1       148         2       129        8.72     270      -43.0
   09/03/2017 01:00      82.8      82.5       46     60.0      0.00      0.00      89.8     0.34      1012.0     1       136         2       128        8.72     270      -43.7
   09/03/2017 00:50      82.9      82.4       46     59.6      0.00      0.00      90.0     0.34      1013.0     1       160         1       129        8.72     270      -43.0
   09/03/2017 00:40      82.8      82.3       45     59.1      0.00      0.00      90.1     0.34      1013.0     1       216         2       195        8.72     270      -43.1
   09/03/2017 00:30      83.0      82.4       45     59.1      0.00      0.00      90.1     0.34      1013.0     2       157         4       156        8.72     270      -44.3
   09/03/2017 00:20      83.1      82.9       44     58.9      0.00      0.00      90.1     0.34      1013.0     1       178         2       142        8.72     270      -44.1
   09/03/2017 00:10      83.2      82.9       43     58.5      0.00      0.00      90.1     0.34      1013.0     1       166         1       182        8.72     270      -44.5
   09/03/2017 00:00      83.6      83.4       44     59.0      0.00      0.00      90.1     0.34      1013.0     1        96         2       137        8.72     270      -45.0
   09/02/2017 23:50      83.6      83.4       43     58.8      0.00      0.00      90.2     0.34      1013.0     1       309         1       254        8.72     270      -44.7
   09/02/2017 23:40      84.1      83.4       44     59.2      0.00      0.00      90.1     0.34      1012.0     2       134         3       139        8.77     270      -45.5
   09/02/2017 23:30      84.5      83.9       43     59.3      0.00      0.00      90.0     0.34      1013.0     1       138         2       134        8.78     270      -45.8
   09/02/2017 23:20      84.5      84.3       43     59.2      0.00      0.00      90.1     0.34      1013.0     1       146         2       132        8.78     270      -46.3
   09/02/2017 23:10      85.1      84.5       41     58.7      0.00      0.00      90.1     0.34      1012.0     1        93         2       130        8.79     270      -46.8
   09/02/2017 23:00      85.2      84.7       41     58.9      0.00      0.00      90.2     0.34      1012.0     1       319         2       317        8.79     270      -46.4
   09/02/2017 22:50      85.1      84.8       42     59.2      0.00      0.00      90.1     0.34      1012.0     1        53         1       119        8.79     270      -46.5
   09/02/2017 22:40      85.5      85.1       41     59.1      0.00      0.00      90.1     0.34      1012.0     1       126         2       113        8.79     270      -47.6
   09/02/2017 22:30      86.3      85.7       41     59.2      0.00      0.00      90.4     0.34      1012.0     1       128         2       137        8.79     270      -48.5
   09/02/2017 22:20      86.3      86.0       40     59.0      0.00      0.00      90.2     0.34      1012.0     1       167         2       171        8.79     270      -49.0
   09/02/2017 22:10      86.3      86.0       40     58.8      0.00      0.00      90.1     0.34      1012.0     2       137         2       132        8.80     269      -49.9
   09/02/2017 22:00      86.4      86.0       38     57.7      0.00      0.00      90.1     0.34      1012.0     1       174         2       147        8.80     269      -49.2
   09/02/2017 21:50      86.9      86.5       37     57.3      0.00      0.00      90.2     0.34      1012.0     2       144         2       142        8.80     269      -49.7
   09/02/2017 21:40      87.0      86.9       36     57.2      0.00      0.00      90.1     0.34      1012.0     1       149         1       148        8.80     269      -49.3
   09/02/2017 21:30      87.6      86.9       36     57.3      0.00      0.00      90.2     0.34      1012.0     2       137         2       132        8.80     269      -49.9
   09/02/2017 21:20      87.9      87.5       36     57.1      0.00      0.00      90.1     0.34      1012.0     1       121         1       126        8.80     269      -48.9
   09/02/2017 21:10      88.4      87.9       35     57.2      0.00      0.00      90.1     0.34      1012.0     1       120         1       123        8.80     269      -50.1
   09/02/2017 21:00      88.7      88.4       34     57.0      0.00      0.00      90.1     0.34      1011.0     1       130         1       159        8.80     269      -50.2
   09/02/2017 20:50      88.8      88.6       35     57.3      0.00      0.00      90.1     0.34      1011.0     3       156         4       159        8.80     269      -49.9
   09/02/2017 20:40      88.9      88.6       34     56.8      0.00      0.00      90.0     0.34      1011.0     3       166         3       159        8.80     269      -48.1
   09/02/2017 20:30      89.5      88.9       32     55.9      0.00      0.00      90.0     0.34      1011.0     2       163         2       167        8.80     269      -49.5
   09/02/2017 20:20      89.8      89.6       32     56.3      0.00      0.00      90.0     0.34      1011.0     1       184         2       156        8.80     269      -52.2
   09/02/2017 20:10      90.2      89.7       33     56.9      0.00      0.00      90.1     0.34      1011.0     1       110         1       142        8.81     268      -54.6
   09/02/2017 20:00      90.8      90.4       31     56.0      0.00      0.00      90.0     0.34      1011.0     1        79         1       141        8.81     268      -57.4
   09/02/2017 19:50      92.1      91.1       30     55.7      0.00      0.00      89.9     0.34      1011.0     2       140         3       139        8.81     268      -58.9
   09/02/2017 19:40      93.4      92.5       29     55.9      0.00      0.00      89.9     0.34      1010.0     1        30         1       144        8.81     268      -59.2
   09/02/2017 19:30      94.3      93.5       27     55.1      0.00      0.00      90.1     0.34      1010.0     1       193         1       215        8.81     268      -59.1
   09/02/2017 19:20      94.8      94.4       26     54.6      0.00      0.00      89.8     0.34      1010.0     2       204         2       199        8.82     268      -58.4
   09/02/2017 19:10      95.6      94.9       26     54.5      0.00      0.00      89.8     0.34      1010.0     2       189         2       181        8.84     268      -56.5
   09/02/2017 19:00      96.2      95.9       25     54.5      0.00      0.00      90.0     0.34      1010.0     2       180         2       165        8.85     268      -52.2
   09/02/2017 18:50      97.0      96.5       25     55.0      0.00      0.00      89.9     0.34      1010.0     2       139         3       135        8.85     268      -45.6
   09/02/2017 18:40      97.9      97.3       24     55.0      0.00      0.00      89.8     0.34      1009.0     2       133         3       132        8.85     268      -38.7
   09/02/2017 18:30      98.2      97.8       24     54.7      0.00      0.00      89.9     0.34      1009.0     2       164         3       140        8.85     268      -33.0
   09/02/2017 18:20      98.6      98.1       24     55.0      0.00      0.00      89.8     0.34      1009.0     3       201         5       196        8.86     268      -22.0
   09/02/2017 18:10      98.8      98.6       24     55.2      0.00      0.00      89.7     0.34      1009.0     3       214         4       224        8.86     268       -1.6
   09/02/2017 18:00      98.7      98.6       23     54.9      0.00      0.00      89.7     0.34      1010.0     3       171         5       172        8.86     268       22.8
   09/02/2017 17:50      98.8      98.6       23     54.2      0.00      0.00      89.8     0.34      1009.0     3       172         4       181        8.86     268        7.9
   09/02/2017 17:40      99.1      98.8       22     53.9      0.00      0.00      89.8     0.34      1009.0     3       211         4       235        8.86     268       -6.8
   09/02/2017 17:30     100.0      99.0       22     54.2      0.00      0.00      89.7     0.34      1009.0     5       170         7       207        8.87     268        2.3
   09/02/2017 17:20     100.0      99.6       24     56.5      0.00      0.00      89.6     0.34      1009.0     4       127         6       138        8.87     268       67.0
   09/02/2017 17:10      99.9      99.6       24     56.6      0.00      0.00      89.4     0.34      1009.0     4        91         8        97        8.87     268       55.6
   09/02/2017 17:00     100.8      99.8       23     56.4      0.00      0.00      89.4     0.33      1009.0     5       105         6       119        8.87     267       56.2
   09/02/2017 16:50     101.2     100.6       23     56.4      0.00      0.00      89.6     0.33      1009.0     4        92         6        97        8.87     267      106.4
   09/02/2017 16:40     101.5     100.7       23     56.9      0.00      0.00      89.4     0.33      1009.0     4        84         7       105        8.87     268      223.4
   09/02/2017 16:30     100.6      99.9       24     57.2      0.00      0.00      89.2     0.33      1009.0     5        80         9        63        8.87     268      203.0
   09/02/2017 16:20     101.0     100.0       24     57.4      0.00      0.00      89.5     0.33      1009.0     6        91        10        78        8.87     268      206.9
   09/02/2017 16:10     100.3      99.6       24     57.3      0.00      0.00      89.1     0.33      1009.0     6        98        11        77        8.88     268      256.2
   09/02/2017 16:00      99.5      98.7       25     57.4      0.00      0.00      89.2     0.33      1009.0     6       111        10       110        8.88     268      218.3
   09/02/2017 15:50      99.3      98.7       25     57.5      0.00      0.00      89.2     0.33      1009.0     6        99         8        83        8.88     268       92.5
   09/02/2017 15:40      99.0      98.6       25     57.4      0.00      0.00      89.1     0.33      1009.0     5       110         8       115        8.88     268       74.2
   09/02/2017 15:30      99.8      98.7       25     56.7      0.00      0.00      89.0     0.33      1009.0     8       110        11       127        8.88     267       46.9
   09/02/2017 15:20     100.7     100.2       23     56.5      0.00      0.00      89.1     0.33      1009.0     7       120        12       121        8.88     267      148.7
   09/02/2017 15:10     101.5     100.7       23     56.0      0.00      0.00      89.0     0.33      1009.0     8       113        11       144        8.92     268      315.9
   09/02/2017 15:00     101.0     100.6       22     55.1      0.00      0.00      88.8     0.33      1009.0     6       103         8       101        8.92     268      331.7
   09/02/2017 14:50     101.1     100.6       21     54.2      0.00      0.00      88.8     0.33      1009.0     6       101         8       140        8.92     268      322.8
   09/02/2017 14:40     101.4     100.7       21     54.0      0.00      0.00      88.7     0.33      1009.0     6       124        10       106        8.92     268      284.8
   09/02/2017 14:30     103.4     101.7       20     54.1      0.00      0.00      88.8     0.33      1009.0     7       119        12       139        8.92     268      291.8
   09/02/2017 14:20     103.1     102.0       23     57.7      0.00      0.00      88.6     0.33      1009.0     5       125         9       156        8.92     269      328.3
   09/02/2017 14:10     103.1     102.3       25     60.6      0.00      0.00      88.8     0.33      1009.0     5        84         6        81        8.92     269      415.9
   09/02/2017 14:00     102.6     101.2       26     61.1      0.00      0.00      88.6     0.33      1009.0     5        60         7        58        8.92     269      392.5
   09/02/2017 13:50     102.5     101.2       27     61.4      0.00      0.00      88.5     0.33      1009.0     7        81        10        90        8.92     268      431.7
   09/02/2017 13:40     102.5     101.9       28     62.5      0.00      0.00      88.5     0.33      1009.0     5        58         9        70        8.92     269      450.9
   09/02/2017 13:30     101.8     100.7       29     63.4      0.00      0.00      88.4     0.33      1009.0     5        59         7        79        9.15     269      454.3
   09/02/2017 13:20     101.9     101.3       29     63.0      0.00      0.00      88.6     0.33      1009.0     5        62        10        93        9.15     269      393.2
   09/02/2017 13:10     102.4     101.5       27     61.7      0.00      0.00      88.2     0.33      1009.0     4        50         6        82        9.15     269      363.5
   09/02/2017 13:00     101.8     100.9       27     60.8      0.00      0.00      88.4     0.33      1009.0     4        48         6        42        9.15     269      418.1
   09/02/2017 12:50     101.9     100.9       27     61.5      0.00      0.00      88.5     0.33      1009.0     4        50         5        50        9.15     269      485.2
   09/02/2017 12:40     100.6     100.0       29     62.3      0.00      0.00      88.3     0.33      1009.0     4        36         5        37        9.15     270      453.9
   09/02/2017 12:30     100.5      99.6       29     61.7      0.00      0.00      88.3     0.33      1009.0     4        34         7        28        9.15     270      449.9
   09/02/2017 12:20     100.5      99.5       29     61.8      0.00      0.00      88.5     0.33      1009.0     4        33         6        31        9.16     270      478.8
   09/02/2017 12:10     100.5      99.4       28     60.9      0.00      0.00      88.5     0.33      1009.0     5        74         8        98        9.16     270      469.5
   09/02/2017 12:00      99.7      98.6       28     60.1      0.00      0.00      88.3     0.33      1009.0     5        51         7        71        9.16     270      467.7
   09/02/2017 11:50      99.6      98.2       28     60.2      0.00      0.00      88.4     0.33      1009.0     5        52         8        71        9.16     270      446.7
   09/02/2017 11:40      99.2      98.3       28     59.9      0.00      0.00      88.4     0.33      1009.0     3        67         6        93        9.16     270      436.4
   09/02/2017 11:30      98.9      97.8       28     60.0      0.00      0.00      88.3     0.33      1009.0     4        44         5        23        9.16     270      403.3
   09/02/2017 11:20      98.4      97.9       28     59.2      0.00      0.00      88.4     0.33      1010.0     4        60         7        89        9.16     270      370.3
   09/02/2017 11:10      99.0      98.1       26     58.1      0.00      0.00      88.3     0.33      1010.0     4        76         6        91        9.16     270      378.7
   09/02/2017 11:00      98.8      98.1       26     58.1      0.00      0.00      88.3     0.33      1010.0     4        71         7        74        9.16     270      372.4
   09/02/2017 10:50      98.4      98.1       28     59.1      0.00      0.00      88.6     0.33      1010.0     4        28         5        10        9.16     271      370.3
   09/02/2017 10:40      98.6      98.4       28     59.5      0.00      0.00      88.5     0.33      1010.0     3        30         5        26        9.16     271      332.7
   09/02/2017 10:30      98.7      97.4       28     59.5      0.00      0.00      88.6     0.33      1010.0     3        41         4        17        9.16     271      302.5
   09/02/2017 10:20      97.5      94.9       30     59.3      0.00      0.00      88.4     0.33      1010.0     3        30         4        10        9.16     271      327.0
   09/02/2017 10:10      94.6      92.9       33     60.6      0.00      0.00      88.6     0.33      1010.0     4        15         6         5        9.16     272      312.7
   09/02/2017 10:00      92.8      91.7       37     61.9      0.00      0.00      88.4     0.33      1010.0     3       330         3       328        9.16     272      280.2
   09/02/2017 09:50      91.8      91.5       38     62.4      0.00      0.00      88.6     0.33      1010.0     3       301         4       317        9.16     272      243.1
   09/02/2017 09:40      92.0      90.8       37     61.8      0.00      0.00      88.5     0.33      1010.0     2       328         5       318        9.16     272      271.3
   09/02/2017 09:30      91.0      90.5       37     61.2      0.00      0.00      88.8     0.33      1010.0     2       357         4       359        9.17     272      146.7
   09/02/2017 09:20      90.6      90.1       39     61.8      0.00      0.00      88.7     0.33      1009.0     2        21         4        10        9.17     273      189.7
   09/02/2017 09:10      90.6      89.6       39     62.0      0.00      0.00      88.8     0.33      1009.0     3        64         4        67        9.17     273      240.5
   09/02/2017 09:00      89.4      87.4       41     61.3      0.00      0.00      88.8     0.34      1009.0     3        43         4        57        9.17     273      270.8
   09/02/2017 08:50      87.2      86.6       41     60.6      0.00      0.00      88.7     0.34      1009.0     2        50         4        98        9.17     273      166.8
   09/02/2017 08:40      86.6      86.0       41     60.2      0.00      0.00      88.8     0.34      1009.0     2        59         4        70        9.17     273      116.4
   09/02/2017 08:30      86.0      84.3       45     61.3      0.00      0.00      88.9     0.34      1009.0     2        63         3        69        9.17     273      190.0
   09/02/2017 08:20      84.3      83.3       44     59.8      0.00      0.00      89.0     0.34      1009.0     2        85         2        77        9.17     273       85.2
   09/02/2017 08:10      83.4      81.8       46     59.5      0.00      0.00      88.9     0.34      1008.0     1       123         2       134        9.17     272       85.4
   09/02/2017 08:00      81.9      81.0       47     59.3      0.00      0.00      88.8     0.34      1008.0     1        64         1        82        9.17     273       29.4
   09/02/2017 07:50      81.1      80.3       49     59.7      0.00      0.00      89.1     0.34      1008.0     1       101         1        55        9.17     272       24.1
   09/02/2017 07:40      80.4      79.1       50     59.1      0.00      0.00      89.2     0.34      1008.0     1       357         1       351        9.17     272       26.7
   09/02/2017 07:30      79.1      78.2       50     58.5      0.00      0.00      89.1     0.34      1008.0     0        17         1       162        9.18     272       11.9
   09/02/2017 07:20      78.3      77.2       50     57.6      0.00      0.00      89.1     0.34      1008.0     0       146         1       314        9.18     272        0.2
   09/02/2017 07:10      77.5      76.7       51     57.6      0.00      0.00      89.0     0.34      1008.0     1       100         1       164        9.18     272       -9.0
   09/02/2017 07:00      76.8      76.5       51     57.2      0.00      0.00      89.0     0.34      1008.0     1       135         1       145        9.18     272      -19.9
   09/02/2017 06:50      76.6      76.1       51     56.6      0.00      0.00      89.1     0.34      1008.0     1       193         1       154        9.18     272      -30.2
   09/02/2017 06:40      76.3      76.1       51     56.9      0.00      0.00      89.1     0.34      1008.0     1       130         1       153        9.18     272      -40.0
   09/02/2017 06:30      76.3      76.1       51     56.7      0.00      0.00      89.4     0.34      1008.0     1       142         2       137        9.18     272      -43.8
   09/02/2017 06:20      76.8      76.5       50     56.6      0.00      0.00      89.1     0.34      1008.0     1       132         2       163        9.18     272      -47.5
   09/02/2017 06:10      77.0      76.5       50     56.4      0.00      0.00      89.3     0.34      1008.0     2       137         3       147        9.18     272      -49.2
   09/02/2017 06:00      76.9      76.4       49     56.2      0.00      0.00      89.4     0.34      1008.0     1       160         2       139        9.18     272      -50.5
   09/02/2017 05:50      77.3      76.5       49     56.1      0.00      0.00      89.4     0.34      1008.0     2       136         2       143        9.18     272      -51.5
   09/02/2017 05:40      77.6      77.1       47     55.8      0.00      0.00      89.2     0.34      1008.0     1       156         2       139        9.18     272      -51.5
   09/02/2017 05:30      77.9      77.7       47     56.0      0.00      0.00      89.6     0.34      1008.0     1       181         2       195        9.18     271      -50.5
   09/02/2017 05:20      78.3      77.8       46     55.7      0.00      0.00      89.3     0.34      1007.0     1       142         2       327        9.18     271      -49.5
   09/02/2017 05:10      78.7      78.3       46     55.9      0.00      0.00      89.5     0.34      1007.0     1        74         2       333        9.18     271      -49.9
   09/02/2017 05:00      78.8      78.2       45     55.6      0.00      0.00      89.4     0.34      1007.0     1       190         2       173        9.18     271      -47.0
   09/02/2017 04:50      78.7      78.2       46     55.9      0.00      0.00      89.4     0.34      1007.0     1       103         1        70        9.18     271      -45.2
   09/02/2017 04:40      79.1      78.8       45     55.7      0.00      0.00      89.5     0.34      1007.0     1        85         2       150        9.18     271      -43.8
   09/02/2017 04:30      79.4      79.3       44     55.3      0.00      0.00      89.7     0.34      1007.0     1       208         2       213        9.18     271      -41.3
   09/02/2017 04:20      79.6      78.8       44     55.3      0.00      0.00      89.7     0.34      1007.0     2       180         3       201        9.18     271      -39.7
   09/02/2017 04:10      79.2      79.0       44     55.3      0.00      0.00      89.7     0.34      1007.0     1       156         2       110        9.18     271      -41.1
   09/02/2017 04:00      79.5      79.3       43     54.8      0.00      0.00      89.7     0.34      1007.0     0       214         1        80        9.18     271      -42.2
   09/02/2017 03:50      79.6      79.3       44     55.5      0.00      0.00      89.6     0.34      1007.0     1       139         1       182        9.18     271      -43.1
   09/02/2017 03:40      79.5      79.4       43     55.4      0.00      0.00      89.9     0.34      1007.0     1       155         1       145        9.18     271      -43.8
   09/02/2017 03:30      80.0      79.6       44     56.3      0.00      0.00      89.9     0.34      1007.0     1       133         2       129        9.18     271      -43.9
   09/02/2017 03:20      79.9      79.6       45     56.3      0.00      0.00      89.9     0.34      1007.0     1       168         1       128        9.18     271      -44.5
   09/02/2017 03:10      80.0      79.6       44     55.7      0.00      0.00      89.9     0.34      1007.0     1       168         1       131        9.18     271      -46.0
   09/02/2017 03:00      79.8      79.5       43     55.4      0.00      0.00      90.0     0.34      1007.0     1       192         1       173        9.18     271      -45.7
   09/02/2017 02:50      79.8      79.5       43     55.0      0.00      0.00      89.8     0.34      1008.0     1       145         1       202        9.18     271      -46.5
   09/02/2017 02:40      80.4      80.0       42     54.8      0.00      0.00      90.0     0.34      1008.0     1        99         2       111        9.18     271      -47.8
   09/02/2017 02:30      80.5      80.2       41     54.7      0.00      0.00      90.1     0.34      1008.0     1       166         1       135        9.18     271      -47.0
   09/02/2017 02:20      80.7      80.2       41     54.8      0.00      0.00      90.2     0.34      1008.0     0       185         1       208        9.18     271      -47.5
   09/02/2017 02:10      80.8      79.7       42     55.4      0.00      0.00      89.9     0.34      1008.0     1       247         2       251        9.18     271      -49.3
   09/02/2017 02:00      80.1      79.5       43     55.0      0.00      0.00      90.0     0.34      1008.0     1        32         1        79        9.18     271      -51.6
   09/02/2017 01:50      80.5      80.2       42     55.2      0.00      0.00      90.0     0.34      1008.0     1        29         1       349        9.18     271      -51.9
   09/02/2017 01:40      81.0      80.3       42     55.2      0.00      0.00      90.0     0.34      1008.0     1        83         2       102        9.18     271      -52.8
   09/02/2017 01:30      81.5      81.2       39     54.3      0.00      0.00      90.2     0.34      1008.0     1       268         2       120        9.18     271      -52.5
   09/02/2017 01:20      81.7      81.4       40     54.7      0.00      0.00      89.9     0.34      1008.0     1       170         1       179        9.18     271      -53.4
   09/02/2017 01:10      82.1      81.5       40     55.2      0.00      0.00      90.4     0.34      1008.0     1       144         1       153        9.18     270      -53.5
   09/02/2017 01:00      82.5      82.1       40     55.5      0.00      0.00      90.2     0.34      1008.0     1       134         1       198        9.18     270      -53.8
   09/02/2017 00:50      82.9      82.4       39     55.5      0.00      0.00      90.2     0.34      1008.0     1       150         2       173        9.18     270      -53.5
   09/02/2017 00:40      83.4      82.7       38     54.7      0.00      0.00      90.3     0.34      1008.0     2       189         2       218        9.18     270      -52.1
   09/02/2017 00:30      83.4      82.7       39     55.2      0.00      0.00      90.2     0.34      1008.0     1       140         2       140        9.18     270      -52.7
   09/02/2017 00:20      83.7      83.4       38     55.2      0.00      0.00      90.2     0.34      1008.0     1       356         2       190        9.18     270      -53.4
   09/02/2017 00:10      83.8      83.4       37     54.8      0.00      0.00      90.4     0.34      1008.0     2       162         3       168        9.18     270      -52.9
   09/02/2017 00:00      84.1      83.5       37     55.0      0.00      0.00      90.2     0.34      1008.0     2       183         2       138        9.18     270      -52.6
   09/01/2017 23:50      84.0      83.5       37     55.1      0.00      0.00      90.4     0.34      1008.0     1        59         1        13        9.18     270      -51.3
   09/01/2017 23:40      84.7      84.0       36     54.6      0.00      0.00      90.3     0.34      1009.0     1        66         1        27        9.18     270      -50.3
   09/01/2017 23:30      85.5      84.8       34     53.7      0.00      0.00      90.4     0.34      1009.0     1       127         2       190        9.18     270      -50.8
   09/01/2017 23:20      85.5      84.8       34     53.7      0.00      0.00      90.4     0.34      1009.0     1       181         1       205        9.18     270      -51.3
   09/01/2017 23:10      85.7      85.0       35     54.1      0.00      0.00      90.4     0.34      1009.0     1       129         2       145        9.18     270      -53.3
   09/01/2017 23:00      87.0      85.8       33     53.7      0.00      0.00      90.4     0.34      1009.0     1       103         1       110        9.18     270      -54.6
   09/01/2017 22:50      86.9      86.5       32     53.5      0.00      0.00      90.4     0.34      1009.0     2       297         3       293        9.18     270      -54.9
   09/01/2017 22:40      87.6      86.8       32     53.8      0.00      0.00      90.4     0.34      1009.0     1         9         1        47        9.18     270      -59.5
   09/01/2017 22:30      88.9      87.8       31     53.5      0.00      0.00      90.2     0.34      1009.0     1        77         2        37        9.18     270      -60.5
   09/01/2017 22:20      90.4      89.0       29     53.3      0.00      0.00      90.3     0.34      1009.0     1       166         2       144        9.18     270      -60.2
   09/01/2017 22:10      91.1      90.7       27     52.7      0.00      0.00      90.5     0.34      1009.0     1       212         2       241        9.18     270      -58.5
   09/01/2017 22:00      91.6      91.1       27     52.8      0.00      0.00      90.4     0.34      1009.0     1       213         2       187        9.18     270      -57.4
   09/01/2017 21:50      91.8      91.7       27     52.7      0.00      0.00      90.5     0.34      1008.0     3       207         6       204        9.18     269      -56.7
   09/01/2017 21:40      92.1      91.8       26     52.4      0.00      0.00      90.2     0.34      1008.0     3       214         6       209        9.18     270      -53.9
   09/01/2017 21:30      92.4      92.1       26     52.2      0.00      0.00      90.2     0.34      1008.0     3       216         5       189        9.19     269      -53.7
   09/01/2017 21:20      92.4      92.2       26     52.1      0.00      0.00      90.3     0.34      1008.0     5       211         7       221        9.19     269      -54.5
   09/01/2017 21:10      92.3      92.0       26     52.1      0.00      0.00      90.3     0.34      1008.0     5       204         7       211        9.19     269      -50.5
   09/01/2017 21:00      92.3      91.8       26     52.0      0.00      0.00      90.3     0.34      1008.0     4       191         5       166        9.19     270      -48.1
   09/01/2017 20:50      91.9      91.7       26     52.1      0.00      0.00      90.2     0.34      1008.0     4       193         6       172        9.19     270      -49.6
   09/01/2017 20:40      91.9      91.7       26     52.1      0.00      0.00      90.2     0.34      1008.0     2       222         5       225        9.19     270      -48.8
   09/01/2017 20:30      92.1      91.8       26     51.9      0.00      0.00      90.3     0.34      1008.0     2       197         3       252        9.19     270      -52.1
   09/01/2017 20:20      92.1      91.8       26     51.9      0.00      0.00      90.2     0.34      1008.0     3       221         6       190        9.19     270      -57.3
   09/01/2017 20:10      92.0      91.8       26     52.1      0.00      0.00      90.1     0.34      1008.0     4       202         5       206        9.19     270      -58.4
   09/01/2017 20:00      92.0      91.9       27     52.7      0.00      0.00      90.4     0.34      1008.0     3       195         6       217        9.19     269      -63.4
   09/01/2017 19:50      92.3      92.2       27     53.9      0.00      0.00      90.2     0.34      1008.0     4       196         6       205        9.19     269      -68.0
   09/01/2017 19:40      92.6      92.3       28     55.1      0.00      0.00      90.3     0.34      1007.0     5       196         6       192        9.19     269      -63.6
   09/01/2017 19:30      93.0      92.8       28     54.5      0.00      0.00      90.2     0.34      1007.0     3       192         5       219        9.19     269      -52.7
   09/01/2017 19:20      93.4      93.1       27     54.0      0.00      0.00      90.1     0.34      1007.0     5       226         7       218        9.19     269      -49.4
   09/01/2017 19:10      94.0      93.5       28     55.7      0.00      0.00      90.1     0.34      1007.0     6       234         8       258        9.19     269      -44.2
   09/01/2017 19:00      94.9      93.9       28     56.7      0.00      0.00      90.2     0.34      1007.0     4       225         5       203        9.20     269      -40.1
   09/01/2017 18:50      95.2      94.8       28     56.7      0.00      0.00      90.0     0.34      1007.0     3       258         5       229        9.20     269      -36.3
   09/01/2017 18:40      95.1      94.9       28     56.4      0.00      0.00      90.1     0.34      1007.0     5       275         7       287        9.20     269      -38.4
   09/01/2017 18:30      95.7      95.2       28     57.1      0.00      0.00      89.8     0.34      1007.0     4       282         7       246        9.20     269      -30.8
   09/01/2017 18:20      96.2      95.8       28     57.6      0.00      0.00      89.9     0.34      1007.0     4       292         7       260        9.20     269      -29.5
   09/01/2017 18:10      97.5      96.4       27     57.8      0.00      0.00      90.0     0.34      1007.0     4       273         7       272        9.20     269      -43.3
   09/01/2017 18:00      98.3      97.6       27     58.4      0.00      0.00      89.9     0.34      1007.0     4       289         6       303        9.20     269      -34.3
   09/01/2017 17:50      99.8      98.7       26     58.8      0.00      0.00      90.0     0.34      1007.0     5       283         6       301        9.20     269      -34.1
   09/01/2017 17:40     102.9     100.2       24     57.5      0.00      0.00      89.8     0.34      1007.0     5       283         9       270        9.20     269      -27.3
   09/01/2017 17:30     103.5     103.2       18     52.3      0.00      0.00      90.0     0.34      1006.0     4       253         9       290        9.21     268      -19.4
   09/01/2017 17:20     104.5     103.7       17     50.1      0.00      0.00      89.7     0.34      1007.0     4       229         6       227        9.21     268      -16.0
   09/01/2017 17:10     104.5     104.3       15     48.4      0.00      0.00      89.7     0.34      1007.0     4       239         5       250        9.21     268      -11.2
   09/01/2017 17:00     104.4     104.0       17     50.4      0.00      0.00      89.6     0.34      1007.0     3       275         5       322        9.21     268      -16.5
   09/01/2017 16:50     105.0     104.4       17     50.5      0.00      0.00      89.5     0.34      1007.0     4       238         7       253        9.21     268      -14.2
   09/01/2017 16:40     105.4     105.0       16     49.9      0.00      0.00      89.6     0.34      1007.0     3       318         5       299        9.22     268       41.7
   09/01/2017 16:30     105.3     104.8       16     49.8      0.00      0.00      89.4     0.33      1007.0     4       269         8       241        9.22     268       48.0
   09/01/2017 16:20     107.6     105.5       15     48.9      0.00      0.00      89.4     0.33      1007.0     6       288         9       313        9.22     268       36.0
   09/01/2017 16:10     109.0     108.1       13     47.8      0.00      0.00      89.5     0.33      1007.0     2       305         5       312        9.23     268      127.4
   09/01/2017 16:00     108.4     106.6       14     47.7      0.00      0.00      89.2     0.33      1007.0     3       170         5       155        9.23     269      214.3
   09/01/2017 15:50     106.8     105.6       15     48.4      0.00      0.00      89.3     0.33      1007.0     5       187         7       194        9.24     269      248.4
   09/01/2017 15:40     105.9     105.2       15     48.7      0.00      0.00      89.0     0.33      1007.0     5       191         7       237        9.24     269      109.4
   09/01/2017 15:30     105.9     105.7       15     48.0      0.00      0.00      88.9     0.33      1007.0     4       182         7       196        9.25     269       85.9
   09/01/2017 15:20     106.8     106.0       14     47.5      0.00      0.00      88.9     0.33      1007.0     6       185         8       164        9.25     269       66.3
   09/01/2017 15:10     108.3     107.0       13     47.2      0.00      0.00      88.9     0.33      1007.0     6       161        11       181        9.25     268      128.4
   09/01/2017 15:00     108.2     107.7       13     47.5      0.00      0.00      88.7     0.33      1007.0     6       202         7       187        9.25     270      418.4
   09/01/2017 14:50     110.6     108.5       13     48.0      0.00      0.00      88.8     0.33      1007.0     5       157         9       187        9.26     269      268.5
   09/01/2017 14:40     110.9     109.8       13     49.0      0.00      0.00      89.1     0.33      1007.0     3       142         6       122        9.26     270      444.1
   09/01/2017 14:30     111.1     110.4       13     49.5      0.00      0.00      88.8     0.33      1007.0     3         0         5       354        9.26     271      443.3
   09/01/2017 14:20     111.0     109.6       13     49.2      0.00      0.00      88.6     0.33      1007.0     3        26         5        15        9.26     272      447.3
   09/01/2017 14:10     110.5     109.6       14     49.2      0.00      0.00      88.6     0.33      1008.0     4       341         6       342        9.26     272      448.7
   09/01/2017 14:00     111.1     110.4       13     49.7      0.00      0.00      88.6     0.33      1008.0     3       347         5        19        9.26     273      459.7
   09/01/2017 13:50     110.5     108.8       14     49.4      0.00      0.00      88.5     0.33      1008.0     3        30         6        80        9.26     273      463.6
   09/01/2017 13:40     109.4     108.8       14     49.9      0.00      0.00      88.8     0.33      1008.0     4       328         6       300        9.26     273      476.9
   09/01/2017 13:30     110.2     109.0       14     50.5      0.00      0.00      88.8     0.33      1008.0     4       354         7       345        9.26     274      482.6
   09/01/2017 13:20     110.0     108.3       15     50.9      0.00      0.00      88.6     0.33      1008.0     3        34         5        77        9.26     276      486.3
   09/01/2017 13:10     108.9     108.1       15     50.9      0.00      0.00      88.4     0.33      1008.0     4        19         7        12        9.26     277      490.4
   09/01/2017 13:00     108.1     107.7       15     50.4      0.00      0.00      88.7     0.33      1008.0     3        28         5         3        9.26     279      492.9
   09/01/2017 12:50     108.8     107.9       15     50.0      0.00      0.00      88.4     0.33      1008.0     5         3         9         6        9.26     280      494.3
   09/01/2017 12:40     109.0     107.0       15     51.0      0.00      0.00      88.4     0.33      1008.0     4        19         7        23        9.26     282      490.7
   09/01/2017 12:30     106.8     105.8       16     50.3      0.00      0.00      88.5     0.33      1009.0     5       337         7        10        9.26     283      491.5
   09/01/2017 12:20     106.6     105.8       16     50.1      0.00      0.00      88.4     0.33      1009.0     3       275         7       288        9.26     285      490.6
   09/01/2017 12:10     106.2     105.4       16     50.4      0.00      0.00      88.4     0.33      1009.0     5       354        10         9        9.26     286      487.4
   09/01/2017 12:00     106.0     105.2       16     50.5      0.00      0.00      88.4     0.33      1009.0     5       327         8       335        9.26     288      484.0
   09/01/2017 11:50     105.8     105.1       16     50.9      0.00      0.00      88.5     0.33      1009.0     5       348         8        12        9.26     291      479.2
   09/01/2017 11:40     105.8     104.6       17     50.6      0.00      0.00      88.4     0.33      1009.0     4       333         8       354        9.26     294      472.8
   09/01/2017 11:30     105.9     104.5       17     51.6      0.00      0.00      88.4     0.33      1009.0     4       354         8         5        9.26     298      467.9
   09/01/2017 11:20     104.3     103.3       19     53.3      0.00      0.00      88.5     0.33      1009.0     3       222         4       257        9.26     302      460.5
   09/01/2017 11:10     103.7     102.4       20     53.9      0.00      0.00      88.5     0.33      1009.0     2       346         4       340        9.26     307      447.7
   09/01/2017 11:00     102.5     101.9       21     54.4      0.00      0.00      88.7     0.33      1009.0     2       262         4       227        9.26     313      437.4
   09/01/2017 10:50     103.2     102.5       20     54.4      0.00      0.00      88.6     0.33      1010.0     2       125         4       289        9.26     321      426.1
   09/01/2017 10:40     103.2     102.1       21     54.5      0.00      0.00      88.7     0.33      1010.0     2         8         3       346        9.26     331      413.7
   09/01/2017 10:30     102.1      99.8       22     54.8      0.00      0.00      88.6     0.33      1010.0     2       325         4       176        9.26     339      401.4
   09/01/2017 10:20     101.4     100.2       23     55.9      0.00      0.00      88.6     0.33      1010.0     2        61         4       135        9.26     354      386.5
   09/01/2017 10:10     100.0      98.3       24     55.9      0.00      0.00      88.7     0.33      1010.0     1       360         2       330        9.26     370      373.6
   09/01/2017 10:00      98.1      97.3       26     56.6      0.00      0.00      88.3     0.34      1010.0     2       107         3       103        9.26     394      361.9
   09/01/2017 09:50      97.2      94.9       27     56.9      0.00      0.00      88.7     0.33      1010.0     2        93         4       129        9.26     403      287.9
   09/01/2017 09:40      95.0      93.3       29     57.2      0.00      0.00      88.8     0.34      1010.0     3       112         5       140        9.26     419      325.7
   09/01/2017 09:30      93.2      92.8       31     57.7      0.00      0.00      88.6     0.34      1010.0     2       111         3        82        9.26     434      307.7
   09/01/2017 09:20      92.8      91.9       32     58.1      0.00      0.00      88.7     0.34      1010.0     3       109         6       128        9.26     451      288.3
   09/01/2017 09:10      91.8      90.8       33     58.5      0.00      0.00      88.8     0.34      1010.0     3       102         4        71        9.26     464      267.3
   09/01/2017 09:00      90.8      90.1       35     58.8      0.00      0.00      88.7     0.34      1010.0     3       107         5       112        9.26     482      248.7
   09/01/2017 08:50      90.1      89.5       36     59.1      0.00      0.00      89.0     0.34      1010.0     3        95         5        72        9.26     498      229.4
   09/01/2017 08:40      89.8      89.2       37     59.5      0.00      0.00      88.8     0.34      1010.0     3       101         4       117        9.26     526      204.7
   09/01/2017 08:30      89.4      87.5       42     62.3      0.00      0.00      88.8     0.34      1010.0     1        96         2        64        9.26     270      165.0
   09/01/2017 08:20      87.4      86.3       46     63.2      0.00      0.00      88.9     0.34      1010.0     1        42         2        20        9.18     270      142.1
   09/01/2017 08:10      86.3      84.5       46     62.3      0.00      0.00      89.2     0.34      1010.0     1        73         2        91        9.17     270      118.8
   09/01/2017 08:00      84.6      83.4       46     61.0      0.00      0.00      88.9     0.34      1010.0     2        39         3         8        9.18     270       94.0
   09/01/2017 07:50      83.3      82.7       45     59.6      0.00      0.00      89.0     0.34      1010.0     1        38         3        71        9.18     270       63.0
   09/01/2017 07:40      82.8      81.7       44     58.3      0.00      0.00      89.0     0.34      1009.0     1        56         3        73        9.18     270       34.3
   09/01/2017 07:30      81.6      80.4       46     58.0      0.00      0.00      89.1     0.34      1009.0     1        20         1        54        9.18     270       10.2
   09/01/2017 07:20      80.5      79.9       46     57.5      0.00      0.00      88.9     0.34      1009.0     2        66         4        39        9.18     270      -18.6
   09/01/2017 07:10      79.8      79.0       45     56.4      0.00      0.00      89.2     0.34      1009.0     2       155         4       141        9.18     270      -27.2
   09/01/2017 07:00      79.5      79.3       45     56.2      0.00      0.00      89.3     0.34      1009.0     2       137         3       142        9.18     270      -36.3
   09/01/2017 06:50      79.1      78.5       45     55.8      0.00      0.00      89.3     0.34      1009.0     2       158         3       145        9.18     270      -41.8
   09/01/2017 06:40      79.1      78.7       46     56.3      0.00      0.00      89.1     0.34      1009.0     2       147         4       160        9.18     270      -47.8
   09/01/2017 06:30      79.3      78.2       46     56.4      0.00      0.00      89.2     0.34      1009.0     2       141         3       125        9.18     269      -51.3
   09/01/2017 06:20      78.5      78.2       47     56.9      0.00      0.00      89.3     0.34      1009.0     3       152         3       131        9.18     270      -51.6
   09/01/2017 06:10      78.5      77.8       48     57.0      0.00      0.00      89.3     0.34      1009.0     2       159         3       146        9.18     270      -51.2
   09/01/2017 06:00      78.3      77.3       49     57.1      0.00      0.00      89.2     0.34      1009.0     2       169         4       172        9.18     269      -52.5
   09/01/2017 05:50      77.4      76.3       52     57.5      0.00      0.00      89.5     0.34      1009.0     2       146         3       162        9.18     270      -53.3
   09/01/2017 05:40      76.7      76.3       53     58.2      0.00      0.00      89.1     0.34      1009.0     2       171         2       131        9.18     269      -53.3
   09/01/2017 05:30      76.8      76.3       55     58.9      0.00      0.00      89.5     0.34      1009.0     2       162         3       130        9.18     269      -55.2
   09/01/2017 05:20      77.0      76.5       55     59.4      0.00      0.00      89.3     0.34      1009.0     1       139         1       175        9.18     269      -55.8
   09/01/2017 05:10      77.1      76.3       55     59.3      0.00      0.00      89.5     0.34      1009.0     2       105         3       132        9.19     270      -57.0
   09/01/2017 05:00      77.2      76.3       56     59.7      0.00      0.00      89.3     0.34      1009.0     2       134         4       161        9.18     269      -56.7
   09/01/2017 04:50      78.1      77.4       55     60.1      0.00      0.00      89.5     0.34      1009.0     1        82         2       128        9.18     269      -57.6
   09/01/2017 04:40      78.7      78.4       53     60.2      0.00      0.00      89.4     0.34      1009.0     1        57         2        90        9.19     269      -58.7
   09/01/2017 04:30      80.3      79.0       50     59.2      0.00      0.00      89.5     0.34      1009.0     2        91         3       118        9.18     269      -58.8
   09/01/2017 04:20      81.3      80.3       48     59.1      0.00      0.00      89.6     0.34      1009.0     1        85         2       111        9.18     269      -60.0
   09/01/2017 04:10      82.1      81.3       44     57.6      0.00      0.00      89.5     0.34      1009.0     2        49         2        54        9.18     269      -59.9
   09/01/2017 04:00      83.8      82.4       38     54.8      0.00      0.00      89.4     0.34      1009.0     2       102         3        52        9.19     269      -56.3
   09/01/2017 03:50      86.8      84.3       34     54.1      0.00      0.00      89.7     0.34      1009.0     1        84         2       125        9.19     269      -55.8
   09/01/2017 03:40      88.2      87.3       31     53.2      0.00      0.00      89.6     0.34      1008.0     2       319         3       350        9.19     269      -56.7
   09/01/2017 03:30      88.1      88.0       31     53.4      0.00      0.00      89.8     0.34      1008.0     2       303         4       283        9.19     269      -56.4
   09/01/2017 03:20      88.2      88.0       31     53.3      0.00      0.00      89.9     0.34      1008.0     3         0         5       345        9.19     269      -56.3
   09/01/2017 03:10      88.5      88.2       30     53.4      0.00      0.00      89.7     0.34      1009.0     2         2         3       352        9.19     269      -56.6
   09/01/2017 03:00      88.5      87.5       31     53.5      0.00      0.00      89.7     0.34      1009.0     3       346         5       349        9.19     269      -55.6
   09/01/2017 02:50      87.6      86.9       33     54.4      0.00      0.00      89.8     0.34      1009.0     2       355         3       315        9.19     269      -53.5
   09/01/2017 02:40      87.2      87.0       34     55.5      0.00      0.00      89.8     0.34      1009.0     1       314         4       331        9.19     269      -52.8
   09/01/2017 02:30      87.0      85.9       36     56.2      0.00      0.00      89.8     0.34      1009.0     2       284         3       308        9.19     269      -51.6
   09/01/2017 02:20      85.6      82.2       41     57.6      0.00      0.00      89.8     0.34      1009.0     4       271         6       263        9.19     269      -49.1
   09/01/2017 02:10      82.3      81.2       48     60.2      0.00      0.00      89.9     0.34      1009.0     3       175         4       207        9.19     270      -49.0
   09/01/2017 02:00      81.7      81.1       49     60.6      0.00      0.00      89.9     0.34      1009.0     3       200         4       189        9.19     269      -49.4
   09/01/2017 01:50      81.3      81.1       50     60.7      0.00      0.00      89.8     0.34      1009.0     3       184         4       163        9.19     269      -52.6
   09/01/2017 01:40      81.8      81.3       49     60.6      0.00      0.00      90.1     0.34      1009.0     3       167         4       158        9.19     269      -53.1
   09/01/2017 01:30      81.7      80.7       50     60.9      0.00      0.00      90.0     0.34      1009.0     2       323         4       308        9.19     269      -39.7
   09/01/2017 01:20      81.0      80.7       50     60.5      0.00      0.00      89.9     0.34      1009.0     1        74         2       121        9.19     269      -39.6
   09/01/2017 01:10      81.5      81.1       50     60.7      0.00      0.00      90.0     0.34      1009.0     1        22         2        35        9.19     269      -57.3
   09/01/2017 01:00      82.1      81.7       48     60.4      0.00      0.00      90.0     0.34      1009.0     1        53         2        63        9.19     269      -60.1
   09/01/2017 00:50      83.4      82.4       46     59.6      0.00      0.00      90.0     0.34      1009.0     1        53         1        52        9.19     269      -60.5
   09/01/2017 00:40      84.6      83.5       43     59.1      0.00      0.00      90.0     0.34      1009.0     1        38         1        28        9.19     268      -61.1
   09/01/2017 00:30      84.9      84.6       42     59.0      0.00      0.00      90.1     0.34      1009.0     2        79         3       111        9.19     269      -62.7
   09/01/2017 00:20      85.1      84.6       40     57.7      0.00      0.00      90.0     0.34      1008.0     2        98         3       131        9.19     269      -62.5
   09/01/2017 00:10      84.6      84.1       38     56.3      0.00      0.00      90.2     0.34      1008.0     2       103         4        99        9.19     269      -60.6
   09/01/2017 00:00      84.3      84.0       39     56.8      0.00      0.00      89.9     0.34      1008.0     2       141         3       138        9.19     269      -60.7


Back to data home page